# Wetter Temperatur Luftdruck Luftfeuchtigkeit Sichtweite Windgeschwindigkeit Windrichtung Zeit
1 Mist 13 1012 93 4500 4.6 200 19:42 17.10.2019
2 Rain 13 1011 93 10000 3.1 160 19:20 17.10.2019
3 Drizzle 13 1012 93 10000 3.1 170 18:59 17.10.2019
4 Drizzle 13 1012 93 10000 3.1 170 18:39 17.10.2019
5 Rain 13 1012 93 10000 3.1 180 18:20 17.10.2019
6 Rain 13 1012 93 10000 3.6 190 17:44 17.10.2019
7 Drizzle 13 1012 93 9000 4.6 220 17:25 17.10.2019
8 Rain 13 1012 93 9000 3.6 180 16:59 17.10.2019
9 Rain 13 1012 93 9000 3.6 200 16:41 17.10.2019
10 Rain 13 1012 100 10000 3.6 170 16:19 17.10.2019
11 -273 0 0 0 0 0 15:57 17.10.2019
12 Rain 13 1012 93 10000 4.6 200 15:39 17.10.2019
13 Rain 13 1013 93 10000 3.6 180 15:20 17.10.2019
14 Clouds 13 1013 93 10000 3.6 240 14:57 17.10.2019
15 Rain 13 1013 93 10000 4.6 200 14:38 17.10.2019
16 Rain 13 1013 93 10000 5.7 200 14:20 17.10.2019
17 Clouds 13 1013 93 10000 4.6 200 13:41 17.10.2019
18 Clouds 13 1013 100 10000 5.7 190 13:21 17.10.2019
19 Clouds 13 1013 82 10000 6.2 220 12:58 17.10.2019
20 Clouds 13 1013 93 10000 5.7 180 12:39 17.10.2019
21 Clouds 13 1013 93 10000 5.1 190 12:20 17.10.2019
22 Clouds 13 1013 87 10000 4.6 220 11:57 17.10.2019
23 Clouds 13 1013 93 10000 5.7 190 11:38 17.10.2019
24 Clouds 13 1013 87 10000 6.7 200 11:18 17.10.2019
25 Clouds 13 1013 93 10000 6.2 210 10:42 17.10.2019
26 Clouds 13 1013 87 10000 5.7 200 10:20 17.10.2019
27 Clouds 13 1013 87 10000 5.1 240 09:58 17.10.2019
28 Clouds 12 1013 87 10000 6.2 200 09:39 17.10.2019
29 Clouds 12 1012 93 10000 6.2 200 09:21 17.10.2019
30 Clouds 12 1012 87 10000 5.1 230 08:58 17.10.2019
31 Clouds 12 1012 87 10000 4.6 200 08:38 17.10.2019
32 Clouds 12 1012 93 10000 6.2 210 08:19 17.10.2019
33 Clouds 12 1011 93 10000 7.7 200 07:50 17.10.2019
34 Clouds 12 1011 93 10000 8.2 200 07:21 17.10.2019
35 Clouds 12 1011 93 10000 8.2 200 07:21 17.10.2019
36 Clouds 12 1011 87 10000 6.2 220 06:59 17.10.2019
37 Clouds 12 1012 87 10000 5.7 200 06:39 17.10.2019
38 Clouds 12 1011 93 10000 6.2 200 06:20 17.10.2019
39 Clouds 12 1011 87 10000 6.2 200 05:49 17.10.2019
40 Clouds 13 1011 87 10000 5.7 190 05:30 17.10.2019
41 Clouds 12 1011 87 10000 5.7 200 04:51 17.10.2019
42 Rain 12 1011 82 10000 6.2 200 03:54 17.10.2019
43 Rain 12 1011 82 10000 4.6 200 02:36 17.10.2019
44 Clouds 12 1011 87 10000 2.6 170 00:57 17.10.2019
45 Clouds 12 1011 87 10000 2.6 170 00:38 17.10.2019
46 Rain 12 1012 87 10000 4.6 210 00:18 17.10.2019
47 Rain 13 1012 76 10000 5.1 200 23:42 16.10.2019
48 Clouds 12 1011 76 10000 4.1 190 23:21 16.10.2019
49 Clouds 12 1011 76 10000 4.1 190 23:21 16.10.2019
50 Clouds 12 1011 71 10000 8.7 210 22:56 16.10.2019
51 Rain 13 1011 71 10000 4.1 180 22:37 16.10.2019
52 Clouds 13 1011 76 10000 3.6 200 22:18 16.10.2019
53 Clouds 13 1011 76 10000 6.7 200 21:56 16.10.2019
54 Clouds 13 1011 76 10000 3.6 180 21:37 16.10.2019
55 Clouds 13 1011 76 10000 2.1 200 21:19 16.10.2019
56 Clouds 13 1011 81 10000 3.6 210 20:57 16.10.2019
57 Clouds 13 1012 81 10000 4.6 210 20:38 16.10.2019
58 Clouds 13 1012 82 10000 4.1 210 20:20 16.10.2019
59 Clouds 13 1011 76 10000 6.2 220 19:58 16.10.2019
60 Clouds 13 1012 67 10000 3.1 200 19:38 16.10.2019
61 Clouds 13 1011 71 10000 5.7 230 19:20 16.10.2019
62 -273 0 0 0 0 0 18:39 16.10.2019
63 Clouds 13 1011 82 10000 4.6 200 18:20 16.10.2019
64 Clouds 14 1011 82 10000 4.6 190 17:58 16.10.2019
65 Clouds 14 1011 77 10000 4.1 200 17:39 16.10.2019
66 Drizzle 14 1011 87 10000 3.6 180 17:21 16.10.2019
67 Clouds 14 1011 72 10000 4.6 200 16:59 16.10.2019
68 Rain 14 1011 87 10000 4.1 190 16:41 16.10.2019
69 Clouds 14 1011 93 10000 5.1 190 16:21 16.10.2019
70 Clouds 14 1012 81 10000 6.2 220 15:57 16.10.2019
71 Clouds 14 1012 93 10000 4.6 190 15:38 16.10.2019
72 Rain 13 1011 93 8000 7.2 220 15:18 16.10.2019
73 Clouds 13 1012 93 10000 4.6 180 14:58 16.10.2019
74 Clouds 13 1012 93 10000 4.6 180 14:38 16.10.2019
75 Drizzle 12 1012 93 10000 5.1 180 14:18 16.10.2019
76 Rain 12 1012 93 10000 7.2 220 13:57 16.10.2019
77 Rain 12 1012 93 10000 7.2 220 13:56 16.10.2019
78 Drizzle 12 1012 100 10000 5.1 200 13:38 16.10.2019
79 Rain 11 1013 100 8000 5.7 200 13:19 16.10.2019
80 Rain 11 1013 100 7000 5.7 190 12:42 16.10.2019
81 Rain 11 1013 100 10000 5.1 180 12:19 16.10.2019
82 Rain 10 1013 100 10000 3.6 180 11:45 16.10.2019
83 Rain 10 1013 100 10000 3.6 190 11:19 16.10.2019
84 Drizzle 10 1013 93 10000 5.1 180 10:41 16.10.2019
85 Clouds 10 1013 93 10000 7.2 210 10:23 16.10.2019
86 Clouds 10 1013 93 10000 5.7 200 09:58 16.10.2019
87 Drizzle 10 1012 93 2500 6.7 220 09:39 16.10.2019
88 Rain 10 1013 93 10000 4.1 200 09:21 16.10.2019
89 Clouds 10 1012 93 10000 3.6 200 08:46 16.10.2019
90 Clouds 9 1012 93 10000 4.6 230 08:26 16.10.2019
91 Clouds 9 1012 93 10000 3.1 230 07:58 16.10.2019
92 Clouds 9 1012 93 10000 4.1 210 07:40 16.10.2019
93 Clouds 9 1012 93 10000 4.1 210 07:21 16.10.2019
94 Clouds 9 1012 87 10000 4.6 220 06:40 16.10.2019
95 Clouds 9 1012 93 10000 5.1 210 06:19 16.10.2019
96 Clouds 10 1012 100 10000 5.7 240 04:24 16.10.2019
97 Clouds 10 1012 100 10000 5.1 220 02:50 16.10.2019
98 Rain 10 1011 93 10000 4.1 230 01:20 16.10.2019
99 Clouds 10 1011 100 8000 5.7 260 00:58 16.10.2019
100 Clouds 10 1011 100 8000 5.7 260 00:58 16.10.2019
101 Clouds 11 1012 93 10000 5.1 230 00:39 16.10.2019
102 Drizzle 11 1010 100 9000 5.1 270 23:58 15.10.2019
103 Clouds 11 1012 93 10000 4.1 230 23:38 15.10.2019
104 Clouds 11 1011 100 10000 3.6 230 23:19 15.10.2019
105 Drizzle 11 1010 100 10000 5.7 270 22:55 15.10.2019
106 Rain 11 1011 100 10000 3.1 230 22:36 15.10.2019
107 Rain 11 1010 100 10000 3.6 240 22:18 15.10.2019
108 Drizzle 11 1009 100 8000 3.1 240 21:54 15.10.2019
109 Clouds 11 1010 93 10000 5.1 250 21:36 15.10.2019
110 Rain 11 1009 100 10000 2.6 230 21:18 15.10.2019
111 Rain 11 1009 100 10000 3.1 220 20:54 15.10.2019
112 Rain 11 1009 93 10000 2.6 220 20:36 15.10.2019
113 Rain 11 1008 93 10000 4.1 220 20:18 15.10.2019
114 Rain 11 1008 100 10000 3.6 200 19:55 15.10.2019
115 Rain 12 1008 100 10000 3.1 210 19:36 15.10.2019
116 Rain 12 1008 100 10000 2.6 230 19:18 15.10.2019
117 Rain 12 1008 100 10000 3.6 220 18:41 15.10.2019
118 Rain 12 1007 93 10000 2.6 230 18:23 15.10.2019
119 Rain 13 1008 100 10000 3.6 240 17:54 15.10.2019
120 Rain 13 1007 93 10000 2.6 230 17:36 15.10.2019
121 Rain 13 1007 93 10000 2.1 240 17:18 15.10.2019
122 Rain 13 1007 93 10000 4.1 190 16:42 15.10.2019
123 Rain 13 1007 87 10000 3.6 190 16:22 15.10.2019
124 Clouds 13 1007 87 10000 3.1 210 15:57 15.10.2019
125 Clouds 13 1007 87 10000 2.6 200 15:38 15.10.2019
126 Clouds 13 1007 87 10000 3.1 220 15:19 15.10.2019
127 Drizzle 13 1007 87 10000 4.1 210 14:55 15.10.2019
128 Rain 13 1008 93 10000 2.6 220 14:37 15.10.2019
129 Rain 14 1008 87 10000 3.6 220 14:18 15.10.2019
130 Rain 14 1008 93 10000 3.1 230 13:43 15.10.2019
131 Clouds 14 1008 87 10000 3.6 240 13:20 15.10.2019
132 Clouds 14 1008 87 10000 2.6 270 12:57 15.10.2019
133 Rain 14 1008 82 10000 3.6 230 12:38 15.10.2019
134 Clouds 14 1008 87 10000 2.6 210 12:20 15.10.2019
135 Clouds 14 1008 93 9000 2.1 150 11:44 15.10.2019
136 Clear 13 1008 87 10000 2.6 220 11:20 15.10.2019
137 Rain 13 1008 87 10000 3.6 270 10:56 15.10.2019
138 Rain 13 1007 87 10000 2.1 230 10:38 15.10.2019
139 Rain 13 1007 87 10000 4.1 270 10:18 15.10.2019
140 Rain 13 1007 93 10000 2.6 260 09:56 15.10.2019
141 Rain 13 1007 93 10000 3.6 280 09:37 15.10.2019
142 Clouds 13 1007 93 10000 1.5 250 09:19 15.10.2019
143 Rain 12 1007 87 10000 5.1 260 08:41 15.10.2019
144 Rain 12 1007 87 10000 3.1 260 08:21 15.10.2019
145 Clear 12 1007 93 10000 5.7 140 07:55 15.10.2019
146 Clouds 12 1007 87 10000 3.6 260 07:37 15.10.2019
147 Clear 12 1007 87 10000 1.85 131.706 07:18 15.10.2019
148 Clear 12 1007 87 10000 1 0 06:43 15.10.2019
149 Clear 12 1007 93 10000 2.02 169.746 06:22 15.10.2019
150 Clear 12 1007 93 10000 2.1 160 05:41 15.10.2019
151 Clear 12 1008 87 10000 3.1 140 05:22 15.10.2019
152 Clear 13 1008 87 10000 2.1 70 04:23 15.10.2019
153 Clouds 13 1008 82 10000 0.5 0 03:37 15.10.2019
154 Clouds 13 1008 82 10000 0.5 0 03:37 15.10.2019
155 -273 0 0 0 0 0 02:24 15.10.2019
156 Clouds 15 1009 82 10000 4.1 200 01:47 15.10.2019
157 Clear 15 1009 77 10000 4.1 200 01:19 15.10.2019
158 Clear 15 1009 72 10000 4.1 190 00:49 15.10.2019
159 Clear 15 1008 82 10000 2.82 185.565 00:21 15.10.2019
160 Clear 15 1009 72 10000 3.1 160 23:43 14.10.2019
161 Clear 16 1008 77 10000 1.5 90 23:20 14.10.2019
162 Clear 15 1010 77 10000 5.1 150 22:55 14.10.2019
163 Clear 16 1009 68 10000 3.6 170 22:37 14.10.2019
164 Clear 16 1009 77 10000 2.6 100 22:18 14.10.2019
165 Clear 16 1010 72 10000 5.7 160 21:41 14.10.2019
166 Clear 16 1010 72 10000 5.7 160 21:22 14.10.2019
167 Clear 17 1010 72 10000 4.6 150 20:59 14.10.2019
168 Clear 17 1009 59 10000 2.6 140 20:40 14.10.2019
169 Clear 17 1009 59 10000 2.1 100 20:22 14.10.2019
170 Clear 17 1010 59 10000 5.1 160 19:59 14.10.2019
171 -273 0 0 0 0 0 19:41 14.10.2019
172 Clouds 17 1010 63 10000 4.6 160 19:23 14.10.2019
173 Clear 18 1010 63 10000 4.6 140 18:58 14.10.2019
174 Clear 18 1009 64 10000 4.1 150 18:38 14.10.2019
175 Clear 19 1010 56 10000 1.5 140 18:19 14.10.2019
176 Clear 20 1011 60 10000 5.1 150 17:56 14.10.2019
177 Clear 21 1010 60 10000 4.6 170 17:37 14.10.2019
178 Clear 21 1010 49 10000 4.1 180 17:19 14.10.2019
179 Clear 22 1011 60 10000 6.2 170 16:43 14.10.2019
180 Clear 22 1011 53 10000 5.7 180 16:21 14.10.2019
181 Clear 21 1011 60 10000 5.7 160 15:42 14.10.2019
182 Clear 21 1012 56 10000 4.1 170 15:23 14.10.2019
183 Clear 21 1012 47 10000 4.6 150 14:57 14.10.2019
184 Clear 21 1012 60 10000 5.7 160 14:39 14.10.2019
185 Clear 21 1012 60 10000 4.6 180 14:20 14.10.2019
186 Clouds 20 1013 68 10000 6.2 180 13:44 14.10.2019
187 Clear 20 1013 64 10000 5.7 170 13:21 14.10.2019
188 Clear 19 1014 63 10000 5.7 190 12:56 14.10.2019
189 Clouds 19 1013 72 10000 5.1 150 12:37 14.10.2019
190 Clear 19 1014 68 10000 2.6 150 12:18 14.10.2019
191 Clear 18 1014 77 10000 5.1 170 11:45 14.10.2019
192 Clear 18 1014 72 10000 3.6 140 11:26 14.10.2019
193 Clear 17 1014 72 10000 3.1 160 10:57 14.10.2019
194 Clear 16 1014 82 10000 4.6 170 10:38 14.10.2019
195 Clear 15 1014 87 10000 2.1 80 10:20 14.10.2019
196 Clear 14 1015 82 10000 2.6 150 09:55 14.10.2019
197 -273 0 0 0 0 0 09:36 14.10.2019
198 Clear 13 1014 87 10000 1.02 118.32 09:18 14.10.2019
199 Clear 12 1014 87 10000 2.1 170 08:43 14.10.2019
200 Clouds 12 1014 93 10000 2.1 80 08:22 14.10.2019
201 Clear 12 1014 82 10000 2.1 160 07:42 14.10.2019
202 Clear 12 1014 93 10000 1.5 70 07:19 14.10.2019
203 Clear 13 1014 76 10000 2.1 140 06:48 14.10.2019
204 Clear 13 1014 87 10000 1.5 120 06:20 14.10.2019
205 Clouds 13 1014 76 10000 2.1 140 05:49 14.10.2019
206 Clear 13 1014 87 10000 0.5 0 04:43 14.10.2019
207 Clear 14 1015 67 10000 4.1 220 03:28 14.10.2019
208 Clouds 14 1014 77 10000 2.1 130 02:49 14.10.2019
209 Clear 14 1015 63 10000 4.1 230 01:24 14.10.2019
210 Clear 15 1014 59 10000 4.1 240 00:58 14.10.2019
211 Clouds 15 1014 77 10000 3.1 230 00:21 14.10.2019
212 Clear 16 1014 72 10000 3.1 230 23:45 13.10.2019
213 Clouds 16 1014 72 10000 2.1 240 23:21 13.10.2019
214 Clear 17 1014 63 10000 7.7 210 22:58 13.10.2019
215 Clear 17 1014 63 10000 7.7 210 22:58 13.10.2019
216 Clear 17 1014 72 10000 3.1 200 22:40 13.10.2019
217 Clouds 17 1013 72 10000 2.6 250 22:21 13.10.2019
218 Clear 17 1014 68 10000 5.7 190 21:58 13.10.2019
219 Clear 17 1013 72 10000 2.6 180 21:38 13.10.2019
220 Clear 18 1013 72 10000 4.1 190 21:19 13.10.2019
221 Clear 18 1013 68 10000 6.2 180 20:58 13.10.2019
222 Clear 18 1013 77 10000 4.1 170 20:39 13.10.2019
223 Clear 18 1012 68 10000 3.1 170 20:21 13.10.2019
224 Clear 18 1013 72 10000 5.7 180 19:59 13.10.2019
225 Clear 18 1012 68 10000 4.1 180 19:39 13.10.2019
226 Clear 18 1012 72 10000 2.6 170 19:21 13.10.2019
227 -273 0 0 0 0 0 18:58 13.10.2019
228 Clear 19 1012 68 10000 5.7 180 18:58 13.10.2019
229 Clear 20 1012 68 10000 4.1 190 18:38 13.10.2019
230 Clear 21 1011 68 10000 3.6 180 18:20 13.10.2019
231 Clear 21 1012 68 10000 5.1 190 17:59 13.10.2019
232 Clear 22 1012 60 10000 5.1 190 17:40 13.10.2019
233 Clear 21 1012 64 10000 6.2 190 17:22 13.10.2019
234 Clear 22 1012 64 10000 6.2 200 16:43 13.10.2019
235 Clear 22 1012 64 10000 7.2 200 16:19 13.10.2019
236 Clear 22 1012 64 10000 6.7 190 15:57 13.10.2019
237 -273 0 0 0 0 0 15:57 13.10.2019
238 Clear 22 1012 64 10000 5.1 180 15:39 13.10.2019
239 Clear 22 1012 64 10000 5.7 180 15:20 13.10.2019
240 Clear 22 1012 64 10000 5.7 180 15:20 13.10.2019
241 Clear 22 1012 64 10000 6.2 190 14:57 13.10.2019
242 Clouds 22 1012 73 10000 5.7 170 14:39 13.10.2019
243 Clear 21 1012 64 10000 5.7 180 14:20 13.10.2019
244 Clear 21 1013 68 10000 7.2 180 13:55 13.10.2019
245 Clouds 21 1013 72 10000 5.7 170 13:37 13.10.2019
246 Clear 20 1012 68 10000 7.2 190 13:18 13.10.2019
247 Clear 20 1012 77 10000 7.2 150 12:55 13.10.2019
248 Clouds 19 1012 77 10000 5.1 180 12:36 13.10.2019
249 Clouds 19 1012 77 10000 5.1 180 12:18 13.10.2019
250 Rain 18 1013 72 10000 3.1 170 11:54 13.10.2019
251 Rain 18 1012 82 10000 4.1 150 11:36 13.10.2019
252 Rain 17 1013 82 10000 4.6 180 11:18 13.10.2019
253 Rain 17 1013 82 10000 4.6 160 10:41 13.10.2019
254 Rain 16 1013 87 10000 3.1 210 10:22 13.10.2019
255 Rain 16 1013 87 10000 3.1 210 10:22 13.10.2019
256 Rain 16 1013 87 10000 3.1 210 10:22 13.10.2019
257 Clear 15 1013 93 10000 3.1 180 09:40 13.10.2019
258 Rain 14 1013 87 10000 2.6 210 09:21 13.10.2019
259 Clear 14 1013 93 10000 3.6 130 08:57 13.10.2019
260 Clouds 14 1013 87 10000 3.6 150 08:38 13.10.2019
261 Clear 14 1013 93 10000 3.1 210 08:19 13.10.2019
262 Clouds 13 1013 93 10000 3.6 160 07:46 13.10.2019
263 Clear 14 1013 82 10000 6.2 210 06:59 13.10.2019
264 Clear 14 1013 93 10000 3.6 170 06:41 13.10.2019
265 Clear 14 1013 93 10000 3.6 160 05:39 13.10.2019
266 Clouds 14 1013 93 10000 2.6 160 04:46 13.10.2019
267 Clouds 15 1013 100 10000 2.1 220 03:51 13.10.2019
268 Clouds 15 1013 93 10000 3.6 180 02:42 13.10.2019
269 Clear 15 1013 87 10000 4.6 230 01:54 13.10.2019
270 Clear 15 1013 87 10000 4.6 220 01:30 13.10.2019
271 Clouds 15 1013 93 10000 1.5 210 00:47 13.10.2019
272 Clouds 15 1013 93 10000 1.5 210 00:47 13.10.2019
273 Clouds 15 1013 93 10000 2.6 220 00:21 13.10.2019
274 Clouds 15 1014 87 10000 4.6 240 23:57 12.10.2019
275 Clouds 15 1013 93 10000 3.6 190 23:39 12.10.2019
276 Clouds 15 1013 87 10000 2.1 260 23:19 12.10.2019
277 Clouds 15 1013 82 10000 3.6 250 22:57 12.10.2019
278 Clouds 15 1013 87 10000 2.6 240 22:38 12.10.2019
279 Clouds 16 1013 87 10000 3.6 210 22:20 12.10.2019
280 Clouds 15 1013 82 10000 4.1 230 21:55 12.10.2019
281 Clouds 15 1013 87 10000 5.1 180 21:36 12.10.2019
282 Clouds 15 1013 87 10000 3.1 210 21:18 12.10.2019
283 Clouds 15 1013 87 10000 4.1 190 20:40 12.10.2019
284 Rain 15 1013 82 10000 5.7 190 20:22 12.10.2019
285 Rain 15 1013 82 10000 5.7 190 19:39 12.10.2019
286 Rain 15 1013 82 10000 3.6 200 19:20 12.10.2019
287 Rain 15 1013 77 10000 3.6 200 18:59 12.10.2019
288 Rain 16 1013 82 10000 5.1 180 18:40 12.10.2019
289 Rain 16 1013 82 10000 5.1 180 18:40 12.10.2019
290 Clouds 16 1013 82 10000 2.1 170 18:22 12.10.2019
291 Rain 16 1013 77 10000 5.56 213.687 17:43 12.10.2019
292 Rain 16 1013 77 10000 2.1 230 17:19 12.10.2019
293 Rain 17 1014 72 10000 4.1 230 16:55 12.10.2019
294 Rain 16 1014 77 10000 2.6 180 16:36 12.10.2019
295 Rain 16 1014 77 10000 2.6 180 16:36 12.10.2019
296 Rain 16 1014 82 10000 6.2 210 16:18 12.10.2019
297 Rain 17 1014 82 10000 6.2 200 15:44 12.10.2019
298 Rain 17 1014 67 10000 5.1 240 15:25 12.10.2019
299 Clear 17 1014 67 10000 6.2 220 14:55 12.10.2019
300 Rain 18 1014 77 10000 5.7 220 14:36 12.10.2019
301 Clear 18 1014 68 10000 6.2 200 14:18 12.10.2019
302 Clouds 18 1014 68 10000 5.7 200 13:43 12.10.2019
303 Clear 18 1014 63 10000 5.1 250 13:25 12.10.2019
304 Clouds 17 1014 72 10000 5.1 190 12:40 12.10.2019
305 Clouds 16 1014 72 10000 7.2 220 12:22 12.10.2019
306 Clear 16 1014 72 10000 5.1 260 11:59 12.10.2019
307 Clouds 15 1014 77 10000 4.6 210 11:40 12.10.2019
308 Clouds 14 1014 77 10000 6.2 220 11:22 12.10.2019
309 Clear 14 1014 76 10000 5.1 240 10:56 12.10.2019
310 Clouds 14 1014 87 10000 4.1 200 10:36 12.10.2019
311 Clouds 13 1014 82 10000 6.7 210 10:18 12.10.2019
312 Clear 13 1013 82 10000 5.1 220 09:54 12.10.2019
313 Clear 12 1014 87 10000 4.6 190 09:36 12.10.2019
314 Clear 12 1013 87 10000 5.7 210 09:18 12.10.2019
315 Clear 11 1013 93 10000 4.6 200 08:40 12.10.2019
316 Clear 10 1012 87 10000 5.7 220 08:20 12.10.2019
317 Clear 10 1013 93 10000 4.1 190 07:35 12.10.2019
318 Clear 10 1013 93 10000 4.1 190 07:35 12.10.2019
319 Clear 10 1012 76 10000 5.1 230 06:59 12.10.2019
320 Clear 10 1013 93 10000 3.6 190 05:48 12.10.2019
321 Clear 10 1012 76 10000 5.1 230 05:24 12.10.2019
322 Clear 10 1013 87 10000 4.1 230 04:26 12.10.2019
323 Clear 11 1013 87 10000 3.1 170 03:41 12.10.2019
324 Clear 10 1013 76 10000 6.2 230 02:28 12.10.2019
325 Clear 11 1013 82 10000 5.7 230 01:29 12.10.2019
326 Clear 11 1014 87 10000 3.1 180 00:43 12.10.2019
327 Clear 11 1014 93 10000 4.1 220 00:19 12.10.2019
328 Clear 12 1014 87 10000 4.1 190 23:40 11.10.2019
329 Clear 12 1014 87 10000 4.1 190 23:40 11.10.2019
330 Clear 11 1014 93 10000 2.6 220 23:21 11.10.2019
331 Clear 12 1014 87 10000 5.7 230 22:59 11.10.2019
332 Clear 12 1014 87 10000 3.6 200 22:37 11.10.2019
333 Clear 12 1014 93 10000 2.6 200 22:18 11.10.2019
334 Clear 12 1014 87 10000 2.6 200 21:40 11.10.2019
335 Clear 13 1014 87 10000 2.6 210 21:21 11.10.2019
336 Clear 13 1014 93 10000 5.7 210 20:55 11.10.2019
337 Clear 13 1014 82 10000 2.6 230 20:37 11.10.2019
338 Clear 13 1014 87 10000 4.1 210 20:18 11.10.2019
339 Clear 13 1014 87 10000 5.1 220 19:55 11.10.2019
340 Clear 13 1014 82 10000 4.1 220 19:36 11.10.2019
341 Clouds 14 1014 82 10000 4.1 190 19:18 11.10.2019
342 Clouds 14 1014 77 10000 5.1 220 18:54 11.10.2019
343 Clouds 15 1014 77 10000 5.1 220 18:36 11.10.2019
344 Clouds 15 1014 77 10000 5.1 220 18:36 11.10.2019
345 Clouds 15 1014 77 10000 4.1 210 18:18 11.10.2019
346 Clouds 15 1015 77 10000 5.7 220 17:54 11.10.2019
347 Clouds 15 1015 77 10000 5.7 220 17:36 11.10.2019
348 Clouds 15 1015 77 10000 6.2 210 17:18 11.10.2019
349 Clouds 15 1015 82 10000 6.7 210 16:40 11.10.2019
350 Clouds 15 1015 82 10000 5.7 200 16:20 11.10.2019
351 Clouds 15 1015 76 10000 7.2 240 15:58 11.10.2019
352 Clouds 15 1016 82 10000 5.1 220 15:38 11.10.2019
353 Clouds 15 1016 76 10000 7.7 210 15:19 11.10.2019
354 Clouds 14 1016 76 10000 5.7 210 14:46 11.10.2019
355 Clouds 14 1016 82 10000 7.7 240 14:28 11.10.2019
356 Clouds 14 1017 87 10000 5.1 210 13:56 11.10.2019
357 Clouds 14 1017 87 10000 5.1 210 13:37 11.10.2019
358 Clouds 13 1017 87 10000 6.7 210 13:18 11.10.2019
359 Rain 14 1017 87 10000 7.2 210 12:54 11.10.2019
360 Rain 13 1017 87 10000 7.2 210 12:36 11.10.2019
361 Clouds 13 1017 87 10000 7.2 200 12:18 11.10.2019
362 Mist 13 1018 87 10000 4.6 220 11:41 11.10.2019
363 Mist 13 1017 100 10000 7.2 200 11:22 11.10.2019
364 Rain 12 1017 87 10000 6.7 240 10:56 11.10.2019
365 Rain 12 1018 100 10000 5.7 210 10:38 11.10.2019
366 Rain 12 1018 100 10000 5.1 220 10:20 11.10.2019
367 Fog 11 1017 100 10000 4.6 230 09:55 11.10.2019
368 Fog 11 1018 100 10000 5.7 220 09:37 11.10.2019
369 Mist 11 1017 100 1100 4.6 190 09:18 11.10.2019
370 Fog 10 1017 100 10000 4.6 240 08:55 11.10.2019
371 Fog 10 1017 100 600 4.6 210 08:36 11.10.2019
372 Fog 10 1017 93 600 5.1 210 08:18 11.10.2019
373 Mist 9 1017 100 2400 4.1 230 07:41 11.10.2019
374 Fog 9 1018 100 10000 2.6 230 07:22 11.10.2019
375 Mist 9 1018 100 10000 3.6 230 06:47 11.10.2019
376 Rain 9 1018 93 10000 3.1 240 06:22 11.10.2019
377 Mist 8 1018 93 10000 2.6 240 05:39 11.10.2019
378 Clear 8 1018 87 10000 3.1 220 04:59 11.10.2019
379 Clear 8 1017 87 10000 4.6 200 04:24 11.10.2019
380 Clouds 8 1019 93 10000 2.6 200 02:32 11.10.2019
381 Clear 8 1019 100 10000 3.1 200 00:47 11.10.2019
382 Clear 8 1018 87 10000 4.1 230 00:27 11.10.2019
383 Clear 8 1019 87 10000 2.6 200 23:44 10.10.2019
384 Clear 8 1019 87 10000 3.1 230 23:22 10.10.2019
385 Clear 9 1019 93 10000 4.1 230 22:58 10.10.2019
386 Clear 9 1019 87 10000 3.6 230 22:39 10.10.2019
387 Clear 9 1019 87 10000 3.6 210 22:20 10.10.2019
388 Clouds 9 1019 87 10000 3.6 240 21:58 10.10.2019
389 Clouds 9 1019 87 10000 3.6 240 21:39 10.10.2019
390 Clouds 9 1018 87 10000 2.6 230 21:21 10.10.2019
391 Clear 9 1019 87 10000 3.1 220 20:43 10.10.2019
392 Clouds 10 1018 93 10000 3.6 230 20:22 10.10.2019
393 Clouds 10 1018 87 10000 3.1 250 19:59 10.10.2019
394 Clouds 10 1018 81 10000 3.6 220 19:41 10.10.2019
395 Clouds 11 1018 87 10000 3.6 230 19:21 10.10.2019
396 Rain 11 1018 87 10000 3.6 250 18:59 10.10.2019
397 Rain 11 1017 87 10000 3.6 240 18:40 10.10.2019
398 Rain 12 1017 87 10000 4.6 230 18:20 10.10.2019
399 Rain 12 1017 81 10000 4.1 250 17:55 10.10.2019
400 Rain 12 1017 76 10000 6.7 230 17:37 10.10.2019
401 Clouds 12 1017 66 10000 4.1 230 17:18 10.10.2019
402 Rain 12 1017 71 10000 6.2 230 16:47 10.10.2019
403 Clouds 12 1016 66 10000 6.2 270 16:26 10.10.2019
404 Rain 13 1016 66 10000 5.7 270 15:58 10.10.2019
405 Rain 13 1017 71 10000 6.7 250 15:38 10.10.2019
406 Rain 13 1016 66 10000 5.7 230 15:20 10.10.2019
407 Rain 12 1016 76 10000 6.7 270 14:56 10.10.2019
408 Rain 13 1017 66 10000 7.2 260 14:37 10.10.2019
409 Rain 13 1017 76 10000 8.2 250 14:18 10.10.2019
410 Rain 12 1016 76 10000 7.7 260 13:55 10.10.2019
411 Clouds 12 1017 76 10000 7.2 250 13:37 10.10.2019
412 Rain 12 1016 76 10000 6.7 230 13:18 10.10.2019
413 Rain 12 1016 87 10000 7.7 260 12:41 10.10.2019
414 Clouds 11 1016 76 10000 6.7 230 12:20 10.10.2019
415 Clouds 11 1015 87 10000 8.2 260 11:58 10.10.2019
416 Clouds 11 1015 87 10000 8.2 260 11:58 10.10.2019
417 Clouds 11 1015 87 10000 8.2 260 11:58 10.10.2019
418 Rain 11 1016 81 10000 7.2 250 11:39 10.10.2019
419 Drizzle 10 1015 87 10000 6.2 230 11:19 10.10.2019
420 Rain 10 1015 87 10000 6.2 250 10:46 10.10.2019
421 Drizzle 10 1014 93 10000 6.7 260 10:27 10.10.2019
422 Rain 9 1013 93 10000 8.2 260 09:58 10.10.2019
423 Rain 9 1014 93 10000 5.1 240 09:40 10.10.2019
424 Drizzle 9 1013 93 10000 5.1 220 09:22 10.10.2019
425 Clouds 9 1012 100 10000 7.7 260 08:58 10.10.2019
426 Clouds 8 1013 93 10000 5.1 250 08:38 10.10.2019
427 Clouds 8 1012 93 10000 4.6 220 08:19 10.10.2019
428 Rain 8 1012 93 10000 6.7 260 07:47 10.10.2019
429 Rain 8 1011 100 10000 8.2 260 07:25 10.10.2019
430 Rain 8 1010 100 10000 8.7 260 06:55 10.10.2019
431 Rain 8 1012 93 10000 6.2 250 06:36 10.10.2019
432 Drizzle 8 1010 93 10000 5.1 230 05:39 10.10.2019
433 Rain 8 1010 100 10000 4.6 240 05:18 10.10.2019
434 Rain 8 1011 93 10000 5.7 240 04:34 10.10.2019
435 Rain 9 1010 93 10000 5.1 230 02:29 10.10.2019
436 Rain 8 1011 93 10000 4.6 210 01:37 10.10.2019
437 Clouds 8 1011 87 10000 5.7 220 01:18 10.10.2019
438 Clouds 8 1011 93 10000 4.6 210 00:33 10.10.2019
439 Clouds 8 1010 93 10000 7.2 260 23:55 09.10.2019
440 Clouds 8 1011 93 10000 3.6 220 23:36 09.10.2019
441 Clouds 8 1011 93 10000 6.7 220 23:18 09.10.2019
442 Clouds 8 1011 93 10000 6.7 220 23:18 09.10.2019
443 Clouds 8 1011 93 10000 4.6 220 22:41 09.10.2019
444 Clear 8 1010 87 10000 6.2 230 22:22 09.10.2019
445 Rain 8 1010 93 10000 6.2 260 21:58 09.10.2019
446 Rain 8 1010 87 10000 6.2 230 21:39 09.10.2019
447 Rain 8 1010 87 10000 6.2 230 21:39 09.10.2019
448 Rain 8 1010 87 10000 6.7 230 21:19 09.10.2019
449 Rain 9 1010 100 10000 7.7 270 20:55 09.10.2019
450 Rain 9 1011 87 10000 6.2 250 20:37 09.10.2019
451 Clouds 9 1010 93 10000 4.1 230 20:18 09.10.2019
452 Clouds 9 1010 93 10000 5.1 250 19:45 09.10.2019
453 Rain 9 1010 93 6000 6.2 260 19:23 09.10.2019
454 Rain 10 1009 93 10000 6.7 250 18:56 09.10.2019
455 Rain 10 1010 87 10000 6.2 250 18:37 09.10.2019
456 Clouds 10 1009 87 10000 7.2 250 18:18 09.10.2019
457 Clouds 10 1008 93 10000 5.7 240 17:54 09.10.2019
458 Clouds 11 1009 87 10000 8.7 250 17:36 09.10.2019
459 Clouds 11 1009 87 10000 6.7 250 17:18 09.10.2019
460 Rain 11 1009 93 10000 7.7 250 16:40 09.10.2019
461 Rain 11 1009 87 10000 5.7 240 16:22 09.10.2019
462 Rain 11 1008 93 10000 4.1 230 15:58 09.10.2019
463 Rain 11 1009 87 10000 4.6 220 15:39 09.10.2019
464 Rain 11 1009 93 10000 4.6 230 15:19 09.10.2019
465 Rain 11 1009 100 10000 5.1 250 14:56 09.10.2019
466 Rain 11 1008 93 10000 5.1 230 14:37 09.10.2019
467 Rain 11 1009 87 10000 4.1 250 14:18 09.10.2019
468 Rain 10 1010 93 10000 6.2 260 13:39 09.10.2019
469 Rain 10 1010 93 4000 6.7 240 13:21 09.10.2019
470 Rain 10 1009 100 9000 4.6 230 12:59 09.10.2019
471 Rain 10 1009 93 10000 5.7 230 12:40 09.10.2019
472 Rain 11 1009 100 5000 5.1 230 12:21 09.10.2019
473 Rain 11 1009 87 10000 6.7 220 11:55 09.10.2019
474 Rain 11 1009 93 10000 7.2 200 11:37 09.10.2019
475 Rain 11 1010 93 10000 6.2 200 11:18 09.10.2019
476 Rain 11 1010 93 10000 5.7 210 10:43 09.10.2019
477 Rain 11 1010 93 10000 5.7 210 10:43 09.10.2019
478 Rain 10 1010 100 10000 5.7 190 10:21 09.10.2019
479 Mist 10 1010 93 10000 4.6 210 09:59 09.10.2019
480 Mist 10 1010 100 10000 5.7 190 09:40 09.10.2019
481 Mist 10 1010 100 10000 5.7 190 09:40 09.10.2019
482 Mist 10 1010 100 10000 5.7 190 09:40 09.10.2019
483 Rain 10 1011 100 10000 5.1 200 09:18 09.10.2019
484 Clouds 10 1011 93 10000 4.6 200 08:41 09.10.2019
485 Rain 10 1011 100 10000 4.1 210 08:23 09.10.2019
486 Rain 10 1011 100 10000 5.1 240 07:58 09.10.2019
487 Rain 10 1011 93 10000 4.1 210 07:39 09.10.2019
488 Clouds 10 1011 100 10000 5.1 220 07:20 09.10.2019
489 Clouds 10 1011 100 10000 4.6 220 06:51 09.10.2019
490 Clouds 10 1011 100 10000 4.6 220 06:51 09.10.2019
491 Mist 10 1011 100 10000 6.2 250 05:56 09.10.2019
492 Mist 10 1012 93 10000 4.6 230 05:37 09.10.2019
493 Clouds 10 1011 100 10000 6.2 260 04:25 09.10.2019
494 Clouds 10 1012 87 10000 5.1 260 02:53 09.10.2019
495 Clouds 10 1011 100 10000 3.6 230 01:43 09.10.2019
496 Clouds 10 1011 100 10000 3.6 220 01:20 09.10.2019
497 Clouds 10 1011 100 10000 5.1 270 00:57 09.10.2019
498 Clouds 10 1011 93 10000 5.1 250 00:38 09.10.2019
499 Clouds 10 1011 100 10000 3.6 230 00:20 09.10.2019
500 Rain 11 1011 100 10000 3.6 250 23:39 08.10.2019
501 Rain 11 1010 100 10000 4.6 230 23:19 08.10.2019
502 Rain 11 1010 100 10000 6.7 260 22:58 08.10.2019
503 Rain 11 1010 100 10000 4.6 230 22:39 08.10.2019
504 Rain 11 1009 100 10000 4.1 230 22:20 08.10.2019
505 Rain 12 1009 100 10000 6.7 260 21:57 08.10.2019
506 Rain 12 1009 100 10000 4.1 230 21:39 08.10.2019
507 Rain 12 1009 100 10000 3.1 260 21:19 08.10.2019
508 Rain 12 1010 93 6000 4.6 270 20:57 08.10.2019
509 Rain 12 1010 93 6000 4.6 270 20:39 08.10.2019
510 Rain 12 1009 100 4500 7.2 280 20:21 08.10.2019
511 Rain 12 1008 100 6000 5.7 250 19:58 08.10.2019
512 Rain 12 1008 100 6000 5.7 250 19:58 08.10.2019
513 Rain 12 1008 100 6000 5.7 250 19:58 08.10.2019
514 Rain 13 1009 100 3000 4.1 240 19:40 08.10.2019
515 Rain 13 1008 100 10000 5.1 220 19:21 08.10.2019
516 Rain 13 1008 100 6000 3.1 230 18:55 08.10.2019
517 Rain 13 1008 100 6000 3.1 230 18:55 08.10.2019
518 Rain 13 1009 93 4000 4.1 220 18:36 08.10.2019
519 Rain 13 1008 100 2400 4.6 220 18:18 08.10.2019
520 Rain 13 1009 93 5000 5.1 220 17:40 08.10.2019
521 Rain 13 1008 100 10000 5.1 210 17:21 08.10.2019
522 Rain 13 1009 100 4500 4.6 250 16:58 08.10.2019
523 Rain 13 1009 100 2400 6.2 220 16:40 08.10.2019
524 Rain 13 1009 100 2400 4.1 220 16:21 08.10.2019
525 Rain 13 1009 100 10000 4.1 220 15:41 08.10.2019
526 Rain 12 1009 100 2400 5.7 210 15:22 08.10.2019
527 Rain 12 1009 100 2400 5.7 210 15:22 08.10.2019
528 Rain 12 1009 100 8000 5.1 230 14:58 08.10.2019
529 Rain 12 1009 100 10000 6.7 220 14:39 08.10.2019
530 Rain 12 1009 100 10000 6.7 200 14:21 08.10.2019
531 Rain 12 1009 100 8000 5.1 240 13:57 08.10.2019
532 Rain 12 1011 93 10000 4.1 220 13:38 08.10.2019
533 Rain 12 1010 100 10000 5.7 220 13:19 08.10.2019
534 Rain 12 1011 100 5000 6.7 250 12:59 08.10.2019
535 Rain 12 1011 100 8000 4.6 230 12:38 08.10.2019
536 Drizzle 12 1011 93 3500 5.7 220 12:18 08.10.2019
537 Rain 11 1010 100 9000 6.7 210 11:43 08.10.2019
538 Rain 11 1010 100 8000 6.2 250 11:24 08.10.2019
539 Rain 11 1010 100 7000 7.2 250 10:59 08.10.2019
540 Rain 11 1011 100 6000 4.6 220 10:38 08.10.2019
541 Rain 11 1011 100 10000 4.6 230 10:20 08.10.2019
542 Rain 11 1010 100 7000 5.7 240 09:57 08.10.2019
543 Rain 10 1011 100 8000 4.6 220 09:39 08.10.2019
544 Rain 11 1011 100 10000 5.7 220 09:19 08.10.2019
545 Rain 10 1010 100 1000 6.2 240 08:42 08.10.2019
546 Rain 10 1011 100 10000 6.2 210 08:24 08.10.2019
547 Rain 10 1011 100 8000 6.7 210 07:46 08.10.2019
548 Rain 10 1012 100 9000 6.2 220 07:22 08.10.2019
549 Drizzle 10 1014 100 7000 6.2 210 06:56 08.10.2019
550 Rain 10 1012 100 3000 5.1 210 06:34 08.10.2019
551 Mist 10 1012 100 6000 5.1 230 05:57 08.10.2019
552 Mist 10 1012 100 6000 5.1 230 05:57 08.10.2019
553 Mist 10 1013 100 6000 5.1 220 05:38 08.10.2019
554 Rain 10 1013 100 10000 7.7 220 04:42 08.10.2019
555 Rain 10 1015 93 10000 5.1 200 03:30 08.10.2019
556 Rain 10 1016 87 10000 4.6 210 02:40 08.10.2019
557 Mist 10 1016 100 10000 4.1 210 01:51 08.10.2019
558 Mist 10 1016 100 10000 4.1 210 01:32 08.10.2019
559 Clouds 10 1016 93 10000 4.1 230 00:55 08.10.2019
560 Clouds 10 1016 100 10000 3.6 210 00:22 08.10.2019
561 Mist 10 1017 93 10000 3.6 210 23:43 07.10.2019
562 Mist 10 1017 93 10000 2.6 220 23:21 07.10.2019
563 Clouds 10 1017 100 10000 2.1 220 22:58 07.10.2019
564 Clouds 10 1017 100 10000 2.1 220 22:58 07.10.2019
565 Clouds 10 1018 93 10000 3.1 210 22:40 07.10.2019
566 Clouds 10 1017 100 10000 2.6 220 22:21 07.10.2019
567 Clouds 10 1017 100 10000 3.1 250 21:59 07.10.2019
568 Clouds 10 1018 93 10000 3.6 220 21:40 07.10.2019
569 Clouds 10 1017 100 10000 3.1 220 21:20 07.10.2019
570 Clouds 10 1017 100 10000 3.1 220 21:20 07.10.2019
571 Clouds 10 1017 100 10000 4.1 210 20:59 07.10.2019
572 Clouds 10 1018 87 10000 2.6 220 20:39 07.10.2019
573 Clouds 10 1018 87 10000 2.6 220 20:39 07.10.2019
574 Clouds 10 1018 87 10000 2.6 220 20:39 07.10.2019
575 Rain 10 1017 93 10000 3.1 240 20:21 07.10.2019
576 Clouds 11 1017 100 10000 3.1 160 19:59 07.10.2019
577 Mist 10 1018 87 10000 4.1 240 19:41 07.10.2019
578 Mist 11 1017 93 10000 3.1 210 19:20 07.10.2019
579 Mist 11 1017 100 1400 4.1 160 18:59 07.10.2019
580 Fog 11 1017 93 10000 2.6 190 18:40 07.10.2019
581 Rain 11 1017 100 10000 2.6 190 18:19 07.10.2019
582 Rain 11 1017 100 3300 4.1 150 17:55 07.10.2019
583 Rain 11 1018 87 10000 3.6 210 17:37 07.10.2019
584 Rain 11 1018 87 10000 3.6 220 17:18 07.10.2019
585 Drizzle 12 1017 82 10000 3.6 210 16:43 07.10.2019
586 Drizzle 12 1017 100 10000 4.1 150 16:25 07.10.2019
587 Clouds 12 1017 100 10000 5.1 150 15:57 07.10.2019
588 Clouds 12 1018 100 10000 1.5 110 15:38 07.10.2019
589 Drizzle 12 1018 100 10000 2.95 186.58 15:20 07.10.2019
590 Drizzle 11 1018 100 9000 2.6 160 14:41 07.10.2019
591 Mist 11 1018 100 10000 3.1 100 14:23 07.10.2019
592 Drizzle 11 1018 100 1600 3.1 150 13:45 07.10.2019
593 Drizzle 10 1018 100 10000 2.6 100 13:21 07.10.2019
594 Mist 11 1018 100 9000 3.6 160 12:58 07.10.2019
595 Mist 11 1018 100 9000 3.6 160 12:58 07.10.2019
596 Mist 10 1018 100 10000 3.6 80 12:40 07.10.2019
597 Mist 10 1018 100 10000 4.1 100 12:21 07.10.2019
598 Mist 10 1018 100 3300 2.6 100 11:59 07.10.2019
599 Mist 10 1018 100 10000 3.6 80 11:40 07.10.2019
600 Mist 10 1018 100 10000 3.6 80 11:40 07.10.2019
601 Mist 9 1018 100 10000 3.6 90 11:21 07.10.2019
602 Drizzle 9 1018 100 3300 3.1 90 10:56 07.10.2019
603 Drizzle 9 1017 100 10000 3.6 70 10:37 07.10.2019
604 Drizzle 9 1017 100 10000 3.6 70 10:37 07.10.2019
605 Mist 9 1017 100 10000 3.1 80 10:19 07.10.2019
606 Mist 9 1016 100 1200 3.1 120 09:38 07.10.2019
607 Mist 9 1017 100 4000 3.6 90 09:20 07.10.2019
608 Mist 8 1015 93 1500 3.6 130 08:44 07.10.2019
609 Mist 8 1016 100 1600 4.1 90 08:21 07.10.2019
610 Mist 8 1016 100 600 4.6 140 07:56 07.10.2019
611 Mist 8 1016 100 1200 3.6 90 07:38 07.10.2019
612 Mist 8 1015 100 2400 3.1 80 07:19 07.10.2019
613 Mist 8 1015 100 2000 2.6 100 06:43 07.10.2019
614 Mist 8 1015 100 2600 2.6 70 06:22 07.10.2019
615 Mist 8 1014 100 1200 5.1 150 05:27 07.10.2019
616 Mist 8 1014 100 1000 4.6 140 04:56 07.10.2019
617 Mist 8 1015 100 1000 2.6 50 04:20 07.10.2019
618 Mist 8 1014 100 1200 2.6 60 03:44 07.10.2019
619 Fog 8 1014 100 600 0.59 149.451 03:18 07.10.2019
620 Fog 8 1013 100 400 1.5 80 02:20 07.10.2019
621 Fog 8 1013 100 400 2.6 100 01:47 07.10.2019
622 Fog 8 1012 100 400 2.1 110 01:19 07.10.2019
623 Fog 8 1012 100 400 3.1 60 00:38 07.10.2019
624 Fog 8 1012 100 600 2.6 70 00:19 07.10.2019
625 Fog 8 1012 100 600 1.72 275.677 23:42 06.10.2019
626 Fog 8 1011 100 600 1.72 275.677 23:21 06.10.2019
627 Mist 9 1011 100 700 2.6 170 22:59 06.10.2019
628 Mist 9 1011 100 1000 1.5 50 22:40 06.10.2019
629 Mist 9 1011 100 5000 1.72 275.677 22:21 06.10.2019
630 Fog 9 1010 100 2000 1.5 120 21:57 06.10.2019
631 Fog 9 1010 100 10000 1.72 275.677 21:37 06.10.2019
632 Fog 9 1010 100 10000 3.82 289.836 21:19 06.10.2019
633 Rain 9 1010 100 3000 2.1 140 20:57 06.10.2019
634 Rain 9 1010 100 10000 2.1 80 20:39 06.10.2019
635 Rain 9 1010 100 10000 2.1 80 20:39 06.10.2019
636 Rain 10 1009 100 10000 1.5 40 20:20 06.10.2019
637 Rain 10 1009 100 10000 2.1 40 19:57 06.10.2019
638 Rain 10 1009 100 10000 2.1 40 19:37 06.10.2019
639 Rain 10 1009 100 10000 2.1 40 19:19 06.10.2019
640 Rain 10 1009 100 2500 7.7 140 18:57 06.10.2019
641 Rain 11 1009 100 6000 3.18 280.398 18:38 06.10.2019
642 Rain 11 1009 100 10000 2.1 50 18:19 06.10.2019
643 Rain 10 1009 100 6000 7.2 150 17:57 06.10.2019
644 Rain 11 1009 100 5000 2.1 90 17:38 06.10.2019
645 Rain 11 1009 100 2600 3.6 80 17:18 06.10.2019
646 Rain 11 1009 100 5000 4.1 100 16:42 06.10.2019
647 Rain 11 1010 100 9000 3.6 80 16:23 06.10.2019
648 Rain 11 1011 100 400 7.2 150 15:56 06.10.2019
649 Rain 11 1011 100 4400 3.6 90 15:38 06.10.2019
650 Rain 11 1011 100 9000 3.1 90 15:18 06.10.2019
651 Mist 10 1011 100 9000 2.6 80 14:42 06.10.2019
652 Drizzle 10 1011 100 2500 7.7 150 14:24 06.10.2019
653 Mist 10 1012 100 2500 7.2 150 13:58 06.10.2019
654 Mist 10 1012 100 8000 3.1 80 13:39 06.10.2019
655 Rain 10 1013 100 6000 2.6 90 13:20 06.10.2019
656 Rain 9 1013 100 3500 7.2 150 12:57 06.10.2019
657 Rain 9 1013 100 3500 7.2 150 12:57 06.10.2019
658 Rain 9 1013 100 4400 2.6 100 12:38 06.10.2019
659 Rain 9 1013 93 4000 2.6 90 12:20 06.10.2019
660 Rain 9 1013 100 900 7.2 150 11:56 06.10.2019
661 Rain 8 1013 100 10000 3.1 80 11:37 06.10.2019
662 Rain 8 1013 100 10000 3.1 80 11:37 06.10.2019
663 Rain 8 1014 100 10000 3.1 80 11:18 06.10.2019
664 Rain 8 1014 100 8000 2.6 90 10:43 06.10.2019
665 Rain 8 1014 100 4400 2.6 80 10:24 06.10.2019
666 Rain 8 1014 100 4000 3.6 90 09:58 06.10.2019
667 Rain 8 1014 100 4000 3.6 90 09:39 06.10.2019
668 Rain 8 1014 100 6000 3.6 100 09:18 06.10.2019
669 Mist 8 1014 100 5000 3.1 90 08:43 06.10.2019
670 Rain 7 1014 93 4400 3.6 90 08:20 06.10.2019
671 Rain 7 1014 100 2500 2.6 120 07:44 06.10.2019
672 Rain 7 1015 93 10000 2.6 90 07:19 06.10.2019
673 Rain 7 1015 93 10000 3.6 80 06:20 06.10.2019
674 Drizzle 7 1016 93 10000 3.1 80 05:34 06.10.2019
675 Rain 7 1016 87 10000 3.6 130 03:42 06.10.2019
676 Clouds 8 1017 81 10000 3.1 120 02:43 06.10.2019
677 Clouds 8 1017 93 10000 3.6 90 02:22 06.10.2019
678 Clouds 8 1017 87 10000 3.1 110 01:45 06.10.2019
679 Clear 8 1017 93 10000 5.1 130 01:27 06.10.2019
680 Clouds 8 1018 87 10000 2.6 110 00:53 06.10.2019
681 Clear 8 1018 93 10000 5.1 130 00:27 06.10.2019
682 Clouds 8 1018 81 10000 3.6 100 23:45 05.10.2019
683 Clouds 8 1018 93 10000 3.1 80 23:22 05.10.2019
684 Clouds 8 1018 93 10000 2.1 140 22:58 05.10.2019
685 Clouds 8 1018 81 10000 2.6 110 22:40 05.10.2019
686 Clouds 8 1018 87 10000 2.1 110 22:20 05.10.2019
687 Clear 8 1018 87 10000 2.6 120 21:57 05.10.2019
688 Clouds 8 1018 81 10000 2.6 70 21:39 05.10.2019
689 Clouds 9 1018 87 10000 2.1 80 21:20 05.10.2019
690 Clouds 9 1018 81 10000 2.6 90 20:56 05.10.2019
691 Clouds 9 1018 76 10000 3.6 60 20:38 05.10.2019
692 Clouds 9 1018 87 10000 2.1 80 20:19 05.10.2019
693 Clouds 9 1017 76 10000 3.1 70 19:38 05.10.2019
694 Clouds 9 1017 76 10000 2.6 100 19:20 05.10.2019
695 Clouds 10 1017 81 10000 1.5 90 18:57 05.10.2019
696 Clouds 10 1017 76 10000 3.1 80 18:39 05.10.2019
697 Clouds 10 1017 81 10000 2.6 80 18:20 05.10.2019
698 Clouds 10 1016 71 10000 4.6 60 17:46 05.10.2019
699 Clouds 11 1017 81 10000 1.5 80 17:28 05.10.2019
700 Clouds 11 1016 81 10000 1.5 80 16:59 05.10.2019
701 Clouds 11 1016 81 10000 3.1 90 16:41 05.10.2019
702 Clouds 11 1016 81 10000 3.1 80 16:21 05.10.2019
703 Clouds 10 1016 87 10000 1.5 0 15:57 05.10.2019
704 Clouds 10 1016 76 10000 3.1 70 15:39 05.10.2019
705 Clouds 10 1016 76 10000 3.1 60 15:21 05.10.2019
706 Clouds 10 1016 87 10000 1.5 60 14:56 05.10.2019
707 Clouds 10 1015 76 10000 4.6 60 14:38 05.10.2019
708 Clouds 10 1016 76 10000 3.1 60 14:20 05.10.2019
709 Clouds 10 1015 81 10000 3.1 60 13:41 05.10.2019
710 Clouds 10 1015 81 10000 2.6 70 13:22 05.10.2019
711 Clouds 10 1015 81 10000 5.1 50 12:46 05.10.2019
712 Clouds 10 1015 81 10000 1.5 40 12:21 05.10.2019
713 Clouds 10 1014 87 10000 2.6 30 11:59 05.10.2019
714 Rain 10 1014 87 10000 4.1 50 11:37 05.10.2019
715 Clouds 10 1014 87 10000 3.6 70 11:18 05.10.2019
716 Clouds 10 1014 87 10000 3.6 70 11:18 05.10.2019
717 Mist 10 1013 93 10000 4.1 60 10:45 05.10.2019
718 Drizzle 10 1013 93 9000 4.1 10 10:26 05.10.2019
719 Mist 10 1013 100 10000 3.6 360 09:59 05.10.2019
720 Mist 10 1012 93 10000 2.6 310 09:39 05.10.2019
721 Mist 10 1012 93 10000 2.6 310 09:39 05.10.2019
722 Mist 10 1011 93 10000 2.6 290 09:20 05.10.2019
723 Drizzle 10 1011 100 10000 3.6 290 08:40 05.10.2019
724 Drizzle 10 1011 93 10000 3.6 10 08:20 05.10.2019
725 Drizzle 10 1011 100 10000 3.6 270 07:58 05.10.2019
726 Drizzle 10 1010 93 10000 4.6 10 07:37 05.10.2019
727 Rain 10 1010 93 10000 2.1 280 07:19 05.10.2019
728 Rain 10 1009 100 3000 4.1 290 06:28 05.10.2019
729 Rain 10 1010 93 10000 4.1 280 05:52 05.10.2019
730 Rain 10 1009 100 10000 4.1 270 04:33 05.10.2019
731 Rain 11 1008 100 10000 5.1 280 03:29 05.10.2019
732 Mist 11 1008 100 6000 5.7 270 01:55 05.10.2019
733 Rain 11 1008 93 8000 2.6 260 01:23 05.10.2019
734 Rain 11 1008 93 4400 1.5 310 00:45 05.10.2019
735 Rain 11 1007 100 6000 6.7 270 00:26 05.10.2019
736 Clouds 11 1008 93 10000 7.7 250 23:45 04.10.2019
737 Clouds 11 1007 100 10000 5.7 270 23:26 04.10.2019
738 Rain 11 1008 93 10000 7.2 260 22:59 04.10.2019
739 Clouds 11 1008 93 10000 7.2 250 22:41 04.10.2019
740 Clouds 11 1008 93 10000 6.7 250 22:22 04.10.2019
741 Rain 11 1007 93 10000 6.7 270 21:58 04.10.2019
742 Rain 11 1008 93 10000 6.2 250 21:39 04.10.2019
743 Rain 11 1008 93 10000 6.2 240 21:21 04.10.2019
744 Rain 11 1007 93 10000 7.2 270 20:57 04.10.2019
745 Rain 11 1007 93 10000 4.1 250 20:39 04.10.2019
746 Rain 11 1008 93 10000 4.1 260 20:21 04.10.2019
747 Rain 11 1006 93 8000 7.2 260 19:55 04.10.2019
748 Rain 11 1007 93 10000 6.2 260 19:37 04.10.2019
749 Rain 11 1006 87 10000 5.7 260 19:18 04.10.2019
750 Rain 11 1007 93 10000 5.1 260 18:40 04.10.2019
751 Rain 11 1005 81 10000 5.1 240 18:20 04.10.2019
752 Rain 11 1005 81 10000 5.1 240 18:20 04.10.2019
753 Drizzle 12 1005 87 10000 6.7 260 17:58 04.10.2019
754 Drizzle 12 1006 87 10000 6.7 260 17:39 04.10.2019
755 Drizzle 12 1006 93 10000 6.2 260 17:21 04.10.2019
756 Rain 12 1005 87 10000 7.7 250 16:57 04.10.2019
757 Rain 12 1007 87 3000 6.2 260 16:39 04.10.2019
758 Rain 12 1006 87 6000 6.2 250 16:18 04.10.2019
759 Rain 12 1005 87 10000 6.7 260 15:55 04.10.2019
760 Rain 13 1006 76 10000 6.7 250 15:37 04.10.2019
761 Clouds 13 1005 76 10000 6.2 240 15:19 04.10.2019
762 Clouds 13 1005 76 10000 6.2 240 15:19 04.10.2019
763 Clouds 13 1005 93 10000 6.2 260 14:55 04.10.2019
764 Clouds 13 1005 93 10000 6.2 260 14:55 04.10.2019
765 Rain 13 1006 71 10000 7.2 250 14:36 04.10.2019
766 Rain 13 1005 93 10000 5.7 230 14:18 04.10.2019
767 Rain 12 1006 100 10000 5.1 240 13:43 04.10.2019
768 Rain 12 1006 100 10000 5.7 240 13:21 04.10.2019
769 Mist 11 1006 100 9000 5.1 220 12:47 04.10.2019
770 Rain 10 1006 100 4000 5.1 220 12:29 04.10.2019
771 Rain 10 1006 100 5000 4.6 200 11:59 04.10.2019
772 Rain 10 1006 100 5000 4.6 200 11:59 04.10.2019
773 Rain 10 1006 100 5000 4.6 200 11:59 04.10.2019
774 Rain 10 1006 100 5000 4.6 200 11:59 04.10.2019
775 Rain 9 1006 100 6000 4.1 230 11:41 04.10.2019
776 Rain 9 1007 100 2500 4.1 200 11:20 04.10.2019
777 Rain 9 1007 100 2500 4.1 200 11:20 04.10.2019
778 Rain 8 1007 100 1800 4.6 190 10:41 04.10.2019
779 Rain 8 1007 100 8000 1.5 180 10:21 04.10.2019
780 Rain 8 1007 100 8000 3.6 170 09:50 04.10.2019
781 Rain 8 1007 100 1800 4.1 180 09:31 04.10.2019
782 Rain 7 1008 100 9000 5.1 150 08:57 04.10.2019
783 Rain 7 1008 93 10000 2.6 150 08:38 04.10.2019
784 Rain 7 1008 93 10000 2.6 150 08:38 04.10.2019
785 Rain 7 1009 93 10000 2.6 140 08:20 04.10.2019
786 Rain 7 1009 87 10000 2.6 130 07:46 04.10.2019
787 Rain 7 1009 87 10000 2.6 130 07:23 04.10.2019
788 Clouds 7 1010 87 10000 4.1 180 06:47 04.10.2019
789 Rain 7 1010 87 10000 3.6 130 06:27 04.10.2019
790 Rain 7 1010 87 10000 3.6 130 06:27 04.10.2019
791 Clear 7 1010 81 10000 4.1 190 05:52 04.10.2019
792 Clouds 7 1011 81 10000 1.5 150 05:19 04.10.2019
793 Clear 7 1012 81 10000 4.1 160 03:56 04.10.2019
794 Clear 7 1013 93 10000 4.1 140 02:54 04.10.2019
795 Clouds 7 1014 87 10000 1.5 110 02:21 04.10.2019
796 Clear 7 1014 81 10000 2.1 160 01:43 04.10.2019
797 Clouds 7 1015 87 10000 1.26 171.174 01:24 04.10.2019
798 Clouds 7 1015 81 10000 1.26 171.174 00:24 04.10.2019
799 Clear 7 1016 76 10000 1.5 190 23:38 03.10.2019
800 Clouds 7 1016 75 10000 1.18 243.978 23:19 03.10.2019
801 Clear 7 1016 81 10000 2.6 220 22:57 03.10.2019
802 Clear 7 1016 76 10000 2.1 210 22:39 03.10.2019
803 Clouds 7 1017 75 10000 1.18 243.978 22:21 03.10.2019
804 Clear 8 1017 81 10000 3.1 230 21:56 03.10.2019
805 Clear 8 1017 76 10000 1 0 21:38 03.10.2019
806 Clouds 8 1017 75 10000 2.1 210 21:19 03.10.2019
807 Clear 8 1017 93 10000 1 100 20:57 03.10.2019
808 Clear 8 1018 76 10000 2.1 270 20:38 03.10.2019
809 Clear 8 1018 76 10000 2.1 270 20:38 03.10.2019
810 Clouds 9 1017 76 10000 1.5 240 20:19 03.10.2019
811 Clouds 9 1017 76 10000 2.6 250 19:55 03.10.2019
812 Clear 9 1018 71 10000 2.6 280 19:37 03.10.2019
813 Clouds 9 1017 71 10000 3.1 240 19:19 03.10.2019
814 Clouds 10 1018 76 10000 2.6 230 18:55 03.10.2019
815 Clouds 10 1018 66 10000 3.6 280 18:37 03.10.2019
816 Clouds 11 1017 62 10000 2.1 250 18:18 03.10.2019
817 Clouds 11 1018 62 10000 3.36 258.038 17:42 03.10.2019
818 Clouds 12 1017 62 10000 3.36 258.038 17:21 03.10.2019
819 Clouds 12 1017 76 10000 2.1 270 16:55 03.10.2019
820 Clouds 12 1018 54 10000 3.6 260 16:37 03.10.2019
821 Clouds 12 1018 62 10000 2.6 250 16:19 03.10.2019
822 Clouds 11 1018 62 10000 4.1 230 15:43 03.10.2019
823 Clouds 12 1018 62 10000 3.6 240 15:24 03.10.2019
824 Clouds 11 1018 62 10000 3.6 240 15:24 03.10.2019
825 Clouds 12 1018 76 10000 4.6 250 14:58 03.10.2019
826 Rain 12 1019 58 10000 4.1 220 14:36 03.10.2019
827 Rain 12 1019 58 10000 4.1 220 14:36 03.10.2019
828 Rain 12 1019 58 10000 3.6 220 14:18 03.10.2019
829 Clouds 12 1020 58 10000 4.6 230 13:43 03.10.2019
830 Clouds 12 1019 66 10000 3.1 230 13:24 03.10.2019
831 Clouds 11 1019 81 10000 5.1 260 12:58 03.10.2019
832 Clouds 11 1020 71 10000 4.1 280 12:39 03.10.2019
833 Clouds 11 1020 71 10000 4.1 280 12:39 03.10.2019
834 Clouds 11 1019 71 10000 3.1 280 12:20 03.10.2019
835 Clouds 11 1019 87 10000 4.6 260 11:58 03.10.2019
836 Clouds 10 1020 76 10000 3.1 270 11:39 03.10.2019
837 Clouds 9 1020 81 10000 4.1 250 11:21 03.10.2019
838 Clouds 9 1019 93 10000 3.6 280 10:57 03.10.2019
839 Clouds 8 1020 76 10000 3.6 260 10:38 03.10.2019
840 Fog 8 1020 81 10000 3.1 250 10:18 03.10.2019
841 Fog 7 1019 93 10000 4.6 260 09:56 03.10.2019
842 Fog 7 1020 86 10000 3.6 270 09:37 03.10.2019
843 Fog 6 1019 93 10000 2.6 250 09:19 03.10.2019
844 Fog 4 1019 93 10000 1.5 260 08:43 03.10.2019
845 Fog 4 1018 100 10000 3.6 280 08:24 03.10.2019
846 Fog 4 1018 100 10000 3.6 280 08:24 03.10.2019
847 Fog 4 1018 100 10000 3.6 280 08:24 03.10.2019
848 Fog 4 1019 93 10000 2.1 270 07:45 03.10.2019
849 Fog 4 1019 87 10000 1.5 270 07:20 03.10.2019
850 Fog 4 1019 87 10000 1.5 270 07:20 03.10.2019
851 Fog 4 1018 100 10000 4.6 270 06:56 03.10.2019
852 Clouds 4 1018 100 10000 5.7 270 06:27 03.10.2019
853 Clouds 4 1019 87 10000 2.1 230 05:49 03.10.2019
854 Clouds 5 1018 100 10000 5.1 270 05:29 03.10.2019
855 Clouds 5 1019 93 10000 3.1 270 04:47 03.10.2019
856 Clouds 5 1019 87 10000 3.1 250 04:18 03.10.2019
857 Clouds 5 1019 87 10000 4.1 250 03:19 03.10.2019
858 Clouds 5 1018 93 10000 4.6 270 02:27 03.10.2019
859 Clouds 5 1019 87 10000 4.1 220 01:41 03.10.2019
860 Clear 5 1020 93 10000 1.5 220 00:53 03.10.2019
861 Clear 5 1020 93 10000 1.5 220 00:32 03.10.2019
862 Clear 5 1020 93 10000 1.5 220 00:32 03.10.2019
863 Clear 6 1018 93 10000 3.6 280 23:58 02.10.2019
864 Clouds 6 1019 87 10000 2.6 250 23:38 02.10.2019
865 Clear 6 1018 87 10000 2.6 240 23:19 02.10.2019
866 Clouds 6 1019 87 10000 4.1 300 22:42 02.10.2019
867 Clear 7 1018 81 10000 1.5 280 22:20 02.10.2019
868 Clouds 7 1017 87 10000 4.6 290 21:55 02.10.2019
869 Clouds 7 1017 81 10000 3.1 300 21:37 02.10.2019
870 Clouds 7 1017 81 10000 2.6 280 21:18 02.10.2019
871 Clear 8 1015 81 10000 3.6 300 20:55 02.10.2019
872 Clear 8 1015 81 10000 3.6 300 20:55 02.10.2019
873 Clear 8 1015 81 10000 3.6 300 20:55 02.10.2019
874 Clouds 8 1017 81 10000 3.6 300 20:37 02.10.2019
875 Clouds 8 1016 70 10000 3.1 290 20:19 02.10.2019
876 Rain 9 1016 81 10000 5.1 320 19:45 02.10.2019
877 Rain 9 1016 81 10000 5.1 320 19:45 02.10.2019
878 Rain 9 1016 76 10000 7.7 340 19:23 02.10.2019
879 Clear 10 1014 75 10000 6.2 300 18:59 02.10.2019
880 Clouds 10 1015 66 10000 4.6 320 18:40 02.10.2019
881 Rain 10 1014 62 10000 7.2 330 18:21 02.10.2019
882 Rain 11 1013 66 10000 5.1 290 17:58 02.10.2019
883 Rain 11 1014 62 10000 5.7 340 17:39 02.10.2019
884 Rain 11 1014 62 10000 5.7 340 17:39 02.10.2019
885 Clouds 11 1014 62 10000 5.1 350 17:20 02.10.2019
886 Clouds 11 1012 61 10000 4.1 320 16:57 02.10.2019
887 Clouds 12 1013 58 10000 7.2 340 16:37 02.10.2019
888 Clouds 12 1013 58 10000 4.1 310 16:19 02.10.2019
889 Clouds 13 1013 58 10000 4.6 310 15:55 02.10.2019
890 Clouds 13 1013 54 10000 6.2 310 15:37 02.10.2019
891 Clouds 12 1013 54 10000 6.2 310 15:18 02.10.2019
892 Clouds 12 1012 58 10000 6.7 330 14:43 02.10.2019
893 Clouds 12 1012 58 10000 4.6 360 14:23 02.10.2019
894 Clouds 12 1012 58 10000 3.1 320 13:57 02.10.2019
895 Clouds 12 1011 47 10000 5.1 330 13:38 02.10.2019
896 Clouds 12 1011 47 10000 5.1 330 13:20 02.10.2019
897 Clouds 12 1011 71 10000 3.1 350 12:40 02.10.2019
898 Clouds 12 1011 71 10000 3.1 350 12:22 02.10.2019
899 Clouds 11 1010 76 10000 5.1 340 11:58 02.10.2019
900 Rain 11 1010 81 10000 3.6 360 11:40 02.10.2019
901 Rain 11 1010 81 10000 3.6 360 11:18 02.10.2019
902 Rain 10 1009 87 10000 2.6 30 10:38 02.10.2019
903 Rain 10 1009 87 10000 2.6 30 10:19 02.10.2019
904 Rain 10 1007 87 10000 2.6 340 09:40 02.10.2019
905 Rain 10 1007 87 10000 2.6 340 09:20 02.10.2019
906 Rain 11 1006 93 10000 5.1 330 08:56 02.10.2019
907 Rain 11 1005 100 7000 4.1 270 08:38 02.10.2019
908 Rain 11 1005 100 7000 4.1 270 08:19 02.10.2019
909 Rain 12 1004 100 10000 3.6 240 07:41 02.10.2019
910 Rain 12 1004 100 10000 3.6 240 07:22 02.10.2019
911 Rain 12 1003 100 10000 3.6 230 06:57 02.10.2019
912 Rain 12 1003 100 10000 4.6 230 06:27 02.10.2019
913 Rain 12 1003 100 10000 3.6 240 05:49 02.10.2019
914 Rain 12 1002 100 10000 4.1 230 05:20 02.10.2019
915 Rain 13 1002 93 10000 4.1 240 03:53 02.10.2019
916 Rain 13 1002 93 10000 3.1 240 03:24 02.10.2019
917 Clouds 13 1002 100 10000 5.1 220 02:26 02.10.2019
918 Rain 13 1002 93 10000 4.1 230 01:59 02.10.2019
919 Drizzle 14 1002 93 10000 4.1 210 00:52 02.10.2019
920 Rain 14 1002 93 10000 3.6 220 00:29 02.10.2019
921 Rain 14 1003 87 10000 4.6 220 23:56 01.10.2019
922 Rain 14 1002 100 10000 4.1 230 23:37 01.10.2019
923 Rain 14 1002 100 10000 5.1 220 23:19 01.10.2019
924 Drizzle 14 1002 100 10000 2.6 260 22:58 01.10.2019
925 Rain 14 1002 100 10000 3.6 230 22:37 01.10.2019
926 Rain 14 1002 100 10000 3.1 240 22:18 01.10.2019
927 Clouds 15 1002 100 10000 3.1 220 21:43 01.10.2019
928 Clouds 15 1002 93 10000 4.1 220 21:23 01.10.2019
929 Rain 15 1002 93 10000 3.6 220 20:58 01.10.2019
930 Rain 15 1002 93 10000 4.6 230 20:39 01.10.2019
931 Clouds 15 1002 93 10000 4.6 230 20:20 01.10.2019
932 Clouds 15 1002 93 10000 5.7 220 19:58 01.10.2019
933 Clouds 15 1002 93 10000 4.6 220 19:40 01.10.2019
934 Clouds 15 1002 93 10000 4.6 220 19:21 01.10.2019
935 Rain 15 1002 93 10000 5.7 210 18:56 01.10.2019
936 Rain 15 1002 100 10000 3.6 220 18:38 01.10.2019
937 Rain 15 1002 100 10000 3.6 220 18:19 01.10.2019
938 Rain 15 1002 93 8000 7.7 210 17:43 01.10.2019
939 Rain 16 1002 93 8000 7.7 210 17:22 01.10.2019
940 Rain 16 1003 93 10000 7.2 210 16:59 01.10.2019
941 Drizzle 17 1003 87 10000 5.7 240 16:41 01.10.2019
942 Drizzle 16 1003 93 10000 6.2 220 16:22 01.10.2019
943 Rain 16 1003 93 10000 6.7 200 15:55 01.10.2019
944 Rain 16 1003 100 3000 6.2 220 15:37 01.10.2019
945 Rain 16 1003 93 10000 8.2 200 15:18 01.10.2019
946 Rain 16 1003 93 10000 8.2 200 15:18 01.10.2019
947 Rain 16 1004 93 10000 4.6 230 14:40 01.10.2019
948 Rain 16 1004 100 10000 6.2 200 14:20 01.10.2019
949 Rain 16 1004 100 6000 5.7 200 13:56 01.10.2019
950 Rain 15 1005 93 7000 3.6 220 13:37 01.10.2019
951 Rain 15 1005 100 10000 5.1 210 13:18 01.10.2019
952 Rain 15 1005 100 10000 5.1 210 13:18 01.10.2019
953 Rain 15 1005 100 10000 6.2 210 12:56 01.10.2019
954 Rain 15 1005 93 7000 4.1 240 12:37 01.10.2019
955 Rain 15 1005 100 10000 6.2 220 12:18 01.10.2019
956 Rain 15 1006 100 2800 5.1 220 11:56 01.10.2019
957 Rain 15 1006 100 2800 5.1 220 11:56 01.10.2019
958 Rain 15 1005 100 5000 6.2 220 11:37 01.10.2019
959 Rain 15 1005 100 3200 5.7 220 11:18 01.10.2019
960 Mist 14 1005 100 6000 6.7 210 10:47 01.10.2019
961 Mist 14 1005 100 3200 6.2 210 10:28 01.10.2019
962 Drizzle 14 1005 100 10000 6.2 200 09:46 01.10.2019
963 Mist 13 1005 100 5000 5.7 200 09:26 01.10.2019
964 Mist 13 1006 100 3600 6.2 210 08:46 01.10.2019
965 Mist 13 1006 100 6000 6.7 210 08:27 01.10.2019
966 Mist 13 1006 100 6000 6.2 200 07:59 01.10.2019
967 Mist 13 1006 100 6000 4.6 230 07:41 01.10.2019
968 Mist 12 1006 93 9000 6.2 210 07:20 01.10.2019
969 Rain 12 1007 93 10000 4.6 210 06:43 01.10.2019
970 Rain 12 1007 93 10000 4.6 210 06:18 01.10.2019
971 Rain 12 1008 100 6000 5.1 200 05:45 01.10.2019
972 Rain 12 1008 87 10000 7.2 210 04:46 01.10.2019
973 Rain 12 1009 87 10000 5.1 210 03:58 01.10.2019
974 Clouds 11 1011 87 10000 2.6 230 02:24 01.10.2019
975 Clear 10 1011 87 10000 3.1 190 01:57 01.10.2019
976 Clouds 11 1012 93 10000 2.6 230 00:53 01.10.2019
977 Clouds 11 1012 93 10000 2.1 220 00:26 01.10.2019
978 Clear 11 1012 87 10000 3.1 190 23:55 30.09.2019
979 Clouds 11 1012 93 10000 4.6 230 23:37 30.09.2019
980 Clear 11 1013 87 10000 2.28 201.391 23:18 30.09.2019
981 Mist 11 1013 87 10000 2.6 190 22:42 30.09.2019
982 Mist 11 1013 87 8000 2.1 170 22:24 30.09.2019
983 Clear 11 1014 87 10000 2.1 190 21:56 30.09.2019
984 Clouds 11 1013 87 10000 5.1 230 21:38 30.09.2019
985 Clouds 11 1013 87 10000 5.1 230 21:38 30.09.2019
986 Clouds 11 1014 87 10000 2.1 200 21:19 30.09.2019
987 Clear 11 1014 87 10000 3.1 220 20:56 30.09.2019
988 Clouds 12 1014 87 10000 4.6 220 20:38 30.09.2019
989 Clouds 12 1014 87 10000 4.6 220 20:19 30.09.2019
990 Clouds 12 1014 82 10000 3.6 210 19:56 30.09.2019
991 Clouds 12 1014 82 10000 3.6 210 19:56 30.09.2019
992 Clouds 13 1014 81 10000 4.6 230 19:38 30.09.2019
993 Clouds 13 1014 76 10000 4.1 220 19:19 30.09.2019
994 Clouds 14 1014 82 10000 3.6 230 18:56 30.09.2019
995 Clouds 14 1013 76 10000 3.6 230 18:37 30.09.2019
996 Clouds 14 1013 76 10000 3.6 230 18:37 30.09.2019
997 Clear 14 1014 72 10000 6.2 210 18:19 30.09.2019
998 Clouds 15 1013 58 10000 4.6 250 17:41 30.09.2019
999 Clear 15 1014 67 10000 5.1 230 17:22 30.09.2019
1000 Clouds 15 1015 87 10000 5.1 250 16:56 30.09.2019
1001 Clouds 15 1014 58 10000 5.1 260 16:38 30.09.2019
1002 Clouds 15 1014 63 10000 6.7 230 16:19 30.09.2019
1003 Clouds 15 1014 63 10000 4.6 230 15:57 30.09.2019
1004 Clouds 15 1014 63 10000 4.6 230 15:57 30.09.2019
1005 Clouds 15 1014 55 10000 5.7 250 15:37 30.09.2019
1006 Clouds 15 1014 55 10000 5.7 250 15:19 30.09.2019
1007 Clouds 15 1014 59 10000 7.2 250 14:57 30.09.2019
1008 Clouds 15 1014 59 10000 6.2 250 14:37 30.09.2019
1009 Clouds 15 1014 59 10000 6.2 250 14:18 30.09.2019
1010 Clouds 15 1014 59 10000 6.2 250 14:18 30.09.2019
1011 Clouds 15 1014 59 10000 6.2 250 14:18 30.09.2019
1012 Clouds 15 1014 59 10000 6.7 230 13:56 30.09.2019
1013 Clouds 15 1014 66 10000 5.7 270 13:37 30.09.2019
1014 Clouds 15 1014 63 10000 7.2 240 13:19 30.09.2019
1015 Clouds 14 1013 66 10000 6.7 260 12:42 30.09.2019
1016 Clouds 14 1014 67 10000 7.2 240 12:22 30.09.2019
1017 Rain 13 1014 76 10000 6.7 240 11:57 30.09.2019
1018 Rain 13 1014 76 10000 6.7 240 11:57 30.09.2019
1019 Rain 13 1014 76 10000 6.7 240 11:56 30.09.2019
1020 Rain 13 1014 76 10000 5.7 230 11:38 30.09.2019
1021 Rain 13 1014 76 10000 5.7 230 11:19 30.09.2019
1022 Rain 13 1014 76 10000 5.7 230 11:19 30.09.2019
1023 Rain 13 1012 81 10000 8.2 270 10:41 30.09.2019
1024 Rain 13 1013 81 10000 5.7 240 10:20 30.09.2019
1025 Clouds 12 1013 82 10000 6.2 260 09:59 30.09.2019
1026 Rain 12 1012 81 10000 5.7 230 09:39 30.09.2019
1027 Rain 12 1012 81 10000 5.7 230 09:21 30.09.2019
1028 Clouds 11 1012 87 10000 6.2 260 08:51 30.09.2019
1029 Clouds 11 1011 87 10000 5.1 240 08:33 30.09.2019
1030 Clouds 12 1010 87 10000 4.1 240 07:46 30.09.2019
1031 Rain 12 1010 81 10000 6.2 250 07:28 30.09.2019
1032 Rain 12 1009 81 10000 5.7 240 06:59 30.09.2019
1033 Rain 12 1009 81 10000 7.2 230 06:34 30.09.2019
1034 Rain 12 1009 93 10000 7.7 250 05:49 30.09.2019
1035 Rain 12 1009 93 10000 7.7 250 05:49 30.09.2019
1036 Rain 12 1008 87 10000 6.7 250 05:25 30.09.2019
1037 Drizzle 13 1006 87 4000 9.8 260 02:49 30.09.2019
1038 Rain 13 1002 87 10000 11.3 270 01:41 30.09.2019
1039 Rain 13 1003 82 10000 9.8 230 00:55 30.09.2019
1040 Rain 13 1001 87 3300 7.7 260 00:37 30.09.2019
1041 Rain 14 1002 82 10000 11.8 240 00:18 30.09.2019
1042 Rain 14 1001 93 10000 7.7 250 23:39 29.09.2019
1043 Rain 15 1001 93 10000 7.7 250 23:20 29.09.2019
1044 Rain 15 1000 100 10000 9.8 230 22:44 29.09.2019
1045 Rain 16 999 93 10000 11.8 210 22:25 29.09.2019
1046 Rain 15 1000 100 10000 8.2 220 21:59 29.09.2019
1047 Rain 15 1000 100 10000 9.8 220 21:39 29.09.2019
1048 Rain 16 1000 100 10000 9.8 220 21:20 29.09.2019
1049 Rain 16 1000 100 10000 9.8 220 21:20 29.09.2019
1050 Rain 16 1000 100 10000 9.8 220 20:59 29.09.2019
1051 Rain 15 1001 100 7000 7.2 230 20:41 29.09.2019
1052 Rain 15 1000 100 10000 8.2 200 20:19 29.09.2019
1053 -273 0 0 0 0 0 19:56 29.09.2019
1054 Rain 15 1001 93 10000 8.2 200 19:37 29.09.2019
1055 Rain 15 1001 93 10000 8.2 200 19:37 29.09.2019
1056 Rain 15 1001 93 10000 8.2 200 19:18 29.09.2019
1057 Rain 15 1001 93 10000 8.7 220 18:55 29.09.2019
1058 Rain 15 1002 100 10000 9.3 200 18:37 29.09.2019
1059 Rain 15 1002 100 10000 9.3 200 18:18 29.09.2019
1060 Rain 15 1002 100 2400 9.3 200 17:55 29.09.2019
1061 Rain 15 1002 100 2400 9.3 200 17:55 29.09.2019
1062 Mist 15 1002 100 2400 10.3 200 17:37 29.09.2019
1063 Mist 15 1002 100 2400 10.3 200 17:19 29.09.2019
1064 Rain 15 1003 93 3200 9.8 210 16:55 29.09.2019
1065 Mist 15 1004 93 3200 10.3 200 16:37 29.09.2019
1066 Mist 15 1004 93 3200 10.3 200 16:18 29.09.2019
1067 Rain 14 1005 93 2400 7.2 220 15:41 29.09.2019
1068 Rain 14 1005 93 2400 7.2 220 15:19 29.09.2019
1069 Rain 14 1005 93 10000 8.2 210 14:59 29.09.2019
1070 Rain 14 1006 82 6000 9.3 210 14:39 29.09.2019
1071 Rain 14 1006 82 6000 9.3 210 14:20 29.09.2019
1072 Clouds 14 1007 82 10000 6.2 220 13:57 29.09.2019
1073 Rain 15 1006 82 10000 8.2 200 13:39 29.09.2019
1074 Rain 15 1006 82 10000 8.2 200 13:19 29.09.2019
1075 Rain 15 1006 82 10000 6.2 190 12:57 29.09.2019
1076 Rain 15 1006 82 10000 7.2 200 12:39 29.09.2019
1077 Rain 15 1006 82 10000 7.2 200 12:21 29.09.2019
1078 Clouds 15 1009 77 10000 5.1 220 11:57 29.09.2019
1079 Clouds 15 1007 77 10000 7.2 200 11:38 29.09.2019
1080 Clouds 15 1007 77 10000 7.2 200 11:18 29.09.2019
1081 Clouds 15 1008 77 10000 6.2 210 10:57 29.09.2019
1082 Clouds 14 1007 82 10000 7.7 220 10:36 29.09.2019
1083 Clouds 14 1008 76 10000 8.2 200 10:18 29.09.2019
1084 Clouds 13 1008 76 10000 9.3 200 09:44 29.09.2019
1085 Clouds 13 1008 76 10000 7.7 190 09:21 29.09.2019
1086 Clouds 12 1009 81 10000 6.2 200 08:58 29.09.2019
1087 Clouds 12 1008 81 10000 8.7 220 08:38 29.09.2019
1088 Clouds 12 1009 81 10000 5.1 210 08:20 29.09.2019
1089 Clouds 12 1010 87 10000 4.1 180 07:43 29.09.2019
1090 Clouds 11 1010 81 10000 4.6 180 07:24 29.09.2019
1091 Clouds 12 1009 87 10000 6.7 220 06:42 29.09.2019
1092 Clouds 12 1012 81 10000 6.2 200 05:23 29.09.2019
1093 Clouds 12 1012 81 10000 5.7 200 04:38 29.09.2019
1094 Clouds 12 1012 81 10000 5.7 200 04:18 29.09.2019
1095 Clouds 12 1014 87 10000 4.1 200 02:47 29.09.2019
1096 Clouds 12 1014 82 10000 5.1 210 02:18 29.09.2019
1097 Clouds 12 1015 82 10000 4.1 220 01:32 29.09.2019
1098 Clouds 12 1015 82 10000 4.1 200 00:53 29.09.2019
1099 Clouds 12 1015 82 10000 5.1 200 00:21 29.09.2019
1100 -273 0 0 0 0 0 23:54 28.09.2019
1101 Clouds 12 1015 87 10000 3.6 230 23:36 28.09.2019
1102 Clouds 12 1015 82 10000 5.1 210 23:18 28.09.2019
1103 Clouds 13 1015 93 10000 5.1 220 22:39 28.09.2019
1104 Clear 12 1015 87 10000 3.6 230 22:21 28.09.2019
1105 Clear 13 1016 76 10000 4.6 220 21:57 28.09.2019
1106 Clouds 13 1015 87 10000 5.1 230 21:39 28.09.2019
1107 Clouds 13 1015 82 10000 4.1 220 21:21 28.09.2019
1108 Clouds 13 1016 82 10000 4.6 230 20:57 28.09.2019
1109 Rain 13 1015 87 10000 6.2 240 20:38 28.09.2019
1110 Clouds 13 1015 76 10000 6.2 210 20:18 28.09.2019
1111 Clouds 13 1015 76 10000 7.2 210 19:56 28.09.2019
1112 Clouds 13 1015 76 10000 6.7 210 19:37 28.09.2019
1113 Clouds 13 1015 76 10000 6.7 210 19:37 28.09.2019
1114 Clouds 13 1015 76 10000 6.7 210 19:37 28.09.2019
1115 Clouds 14 1015 76 10000 6.7 210 19:19 28.09.2019
1116 Clouds 14 1016 72 10000 6.7 240 18:54 28.09.2019
1117 Rain 14 1015 82 10000 7.2 240 18:36 28.09.2019
1118 Clouds 14 1015 82 10000 5.1 220 18:18 28.09.2019
1119 Rain 14 1016 77 10000 6.7 230 17:54 28.09.2019
1120 Clouds 14 1015 87 10000 6.2 230 17:36 28.09.2019
1121 Clouds 14 1015 87 10000 6.2 230 17:18 28.09.2019
1122 Rain 14 1016 93 10000 5.1 250 16:41 28.09.2019
1123 Rain 14 1016 87 10000 6.2 210 16:22 28.09.2019
1124 Rain 14 1016 76 10000 7.2 240 15:41 28.09.2019
1125 Rain 15 1016 93 10000 6.7 220 15:23 28.09.2019
1126 Rain 14 1016 87 10000 6.7 220 14:56 28.09.2019
1127 Rain 14 1015 87 10000 6.2 240 14:38 28.09.2019
1128 Rain 14 1015 87 10000 6.2 240 14:38 28.09.2019
1129 Rain 14 1016 87 10000 7.2 220 14:20 28.09.2019
1130 Rain 13 1016 93 10000 6.2 230 13:56 28.09.2019
1131 Rain 13 1015 93 10000 7.2 240 13:37 28.09.2019
1132 Rain 13 1015 93 10000 7.2 240 13:37 28.09.2019
1133 Rain 13 1016 93 10000 8.2 220 13:19 28.09.2019
1134 Rain 13 1015 87 10000 7.7 240 12:40 28.09.2019
1135 Rain 13 1015 87 10000 9.8 210 12:19 28.09.2019
1136 Rain 13 1016 93 10000 6.2 230 11:55 28.09.2019
1137 Rain 13 1015 87 2200 6.7 230 11:37 28.09.2019
1138 Rain 13 1015 87 10000 7.2 210 11:18 28.09.2019
1139 Clouds 13 1016 93 10000 5.7 220 10:42 28.09.2019
1140 Rain 12 1015 87 10000 6.7 220 10:20 28.09.2019
1141 Rain 13 1015 93 6000 5.1 220 09:56 28.09.2019
1142 Rain 12 1014 100 10000 6.7 230 09:37 28.09.2019
1143 Rain 12 1014 93 10000 7.2 220 09:18 28.09.2019
1144 Rain 12 1014 93 10000 6.7 220 08:44 28.09.2019
1145 Clouds 12 1014 93 10000 7.2 220 08:26 28.09.2019
1146 Clouds 12 1014 93 10000 7.2 220 07:45 28.09.2019
1147 Rain 12 1013 100 10000 6.7 210 07:21 28.09.2019
1148 Rain 12 1013 100 10000 6.7 210 06:55 28.09.2019
1149 Clouds 12 1013 93 10000 6.2 210 06:31 28.09.2019
1150 Rain 12 1013 87 10000 5.7 210 05:55 28.09.2019
1151 Rain 12 1013 87 10000 5.7 220 05:20 28.09.2019
1152 Clouds 13 1013 87 10000 7.2 250 04:40 28.09.2019
1153 Rain 13 1014 82 10000 6.2 250 03:58 28.09.2019
1154 Rain 13 1014 82 10000 6.2 250 03:58 28.09.2019
1155 Rain 13 1013 93 10000 5.1 210 03:24 28.09.2019
1156 Rain 13 1014 87 10000 5.7 240 02:57 28.09.2019
1157 Rain 13 1013 93 10000 4.1 210 02:34 28.09.2019
1158 Clouds 13 1013 93 10000 3.6 220 01:50 28.09.2019
1159 Clouds 13 1013 93 10000 4.6 220 01:27 28.09.2019
1160 Rain 13 1013 93 10000 3.6 210 00:58 28.09.2019
1161 Rain 13 1012 93 10000 4.1 230 00:38 28.09.2019
1162 Rain 12 1012 100 10000 4.6 210 00:18 28.09.2019
1163 Clear 13 1012 100 10000 4.1 230 23:38 27.09.2019
1164 Clear 13 1012 100 10000 4.1 230 23:38 27.09.2019
1165 Clear 13 1012 93 10000 4.6 220 23:19 27.09.2019
1166 Clouds 13 1012 93 10000 5.1 200 22:47 27.09.2019
1167 Clouds 13 1012 93 10000 4.6 210 22:20 27.09.2019
1168 Clouds 13 1012 93 10000 5.1 210 21:59 27.09.2019
1169 Rain 13 1012 93 10000 5.1 220 21:39 27.09.2019
1170 Rain 13 1012 93 10000 5.1 200 21:20 27.09.2019
1171 Rain 13 1012 87 10000 3.6 200 20:58 27.09.2019
1172 Clouds 13 1012 87 10000 4.1 230 20:40 27.09.2019
1173 Clouds 13 1012 87 10000 4.1 230 20:19 27.09.2019
1174 Clouds 13 1012 87 10000 4.1 230 20:19 27.09.2019
1175 Rain 14 1012 87 10000 4.1 190 19:57 27.09.2019
1176 Rain 14 1012 87 10000 3.6 220 19:38 27.09.2019
1177 Rain 14 1012 93 10000 3.6 190 19:19 27.09.2019
1178 Rain 14 1011 87 10000 5.1 220 18:42 27.09.2019
1179 Rain 14 1011 87 10000 4.6 220 18:23 27.09.2019
1180 Rain 15 1011 82 10000 5.1 220 17:56 27.09.2019
1181 Rain 15 1011 76 10000 5.7 230 17:38 27.09.2019
1182 Rain 15 1011 82 10000 8.2 200 17:20 27.09.2019
1183 Rain 15 1011 82 10000 8.2 200 17:20 27.09.2019
1184 Rain 15 1012 82 10000 5.7 210 16:57 27.09.2019
1185 Rain 15 1011 77 10000 6.7 230 16:37 27.09.2019
1186 Rain 15 1011 67 10000 6.2 210 16:18 27.09.2019
1187 Rain 15 1012 77 10000 4.1 220 15:47 27.09.2019
1188 Rain 15 1011 82 10000 6.2 210 15:21 27.09.2019
1189 Rain 15 1011 82 10000 6.7 200 14:59 27.09.2019
1190 Rain 15 1011 87 10000 3.6 230 14:41 27.09.2019
1191 Rain 15 1011 82 10000 6.2 190 14:22 27.09.2019
1192 Rain 15 1011 77 10000 7.2 220 13:58 27.09.2019
1193 Rain 15 1012 93 10000 5.1 250 13:40 27.09.2019
1194 Rain 15 1011 77 10000 5.7 200 13:21 27.09.2019
1195 Rain 14 1011 82 10000 5.1 230 12:57 27.09.2019
1196 Rain 14 1012 93 10000 6.2 210 12:38 27.09.2019
1197 Rain 14 1012 93 10000 6.2 210 12:19 27.09.2019
1198 Rain 14 1011 93 10000 4.1 230 11:39 27.09.2019
1199 Rain 14 1011 93 10000 4.1 230 11:39 27.09.2019
1200 Rain 14 1012 100 10000 5.7 210 11:20 27.09.2019
1201 Rain 14 1012 100 10000 5.7 210 11:20 27.09.2019
1202 Rain 13 1011 100 6000 4.1 230 10:57 27.09.2019
1203 Rain 13 1011 100 6000 4.1 230 10:38 27.09.2019
1204 Rain 13 1012 100 10000 4.6 220 10:20 27.09.2019
1205 Rain 13 1012 93 10000 4.1 220 09:42 27.09.2019
1206 Rain 13 1011 100 10000 3.6 220 09:21 27.09.2019
1207 Rain 13 1011 100 10000 4.1 220 08:57 27.09.2019
1208 Rain 13 1011 100 10000 3.6 220 08:37 27.09.2019
1209 Rain 13 1011 100 10000 3.6 220 08:37 27.09.2019
1210 Rain 13 1011 100 10000 3.6 220 08:19 27.09.2019
1211 Drizzle 13 1011 100 10000 4.1 210 07:45 27.09.2019
1212 Rain 13 1011 100 10000 3.1 230 07:22 27.09.2019
1213 Rain 13 1011 100 10000 3.6 270 06:43 27.09.2019
1214 Rain 14 1011 100 10000 3.6 270 06:23 27.09.2019
1215 Rain 14 1011 100 10000 5.7 250 05:50 27.09.2019
1216 Rain 14 1011 100 9000 4.6 210 05:31 27.09.2019
1217 Rain 14 1011 100 10000 5.7 210 03:55 27.09.2019
1218 Rain 15 1012 100 6000 5.7 220 02:42 27.09.2019
1219 Rain 15 1012 93 10000 6.2 210 01:47 27.09.2019
1220 Rain 15 1012 93 10000 5.1 200 01:27 27.09.2019
1221 Clouds 15 1012 93 10000 4.6 210 00:22 27.09.2019
1222 Clouds 15 1012 100 10000 5.7 200 23:56 26.09.2019
1223 Rain 15 1012 100 9000 6.7 220 23:38 26.09.2019
1224 Clouds 15 1012 100 10000 6.2 200 23:18 26.09.2019
1225 Clouds 15 1012 100 10000 6.2 200 23:18 26.09.2019
1226 Clouds 15 1012 100 10000 5.7 200 22:56 26.09.2019
1227 Rain 15 1012 100 2700 6.7 230 22:38 26.09.2019
1228 Rain 15 1012 100 10000 6.2 200 22:18 26.09.2019
1229 Rain 15 1012 100 10000 6.7 200 21:55 26.09.2019
1230 Drizzle 15 1012 100 10000 5.7 200 21:37 26.09.2019
1231 Drizzle 15 1012 100 10000 5.7 200 21:18 26.09.2019
1232 Drizzle 15 1012 100 10000 5.7 210 20:57 26.09.2019
1233 Clouds 15 1012 100 10000 5.7 210 20:39 26.09.2019
1234 Clouds 15 1012 100 10000 5.7 210 20:21 26.09.2019
1235 Rain 15 1011 93 10000 6.7 240 19:41 26.09.2019
1236 Rain 15 1012 93 10000 5.7 220 19:20 26.09.2019
1237 Rain 16 1012 100 10000 6.2 220 18:59 26.09.2019
1238 Rain 16 1011 100 10000 7.2 220 18:41 26.09.2019
1239 Rain 16 1011 100 10000 7.2 220 18:22 26.09.2019
1240 Drizzle 16 1011 100 10000 5.7 220 17:58 26.09.2019
1241 Drizzle 16 1011 100 2400 5.7 200 17:37 26.09.2019
1242 Drizzle 16 1011 100 2400 5.7 200 17:18 26.09.2019
1243 Mist 16 1012 93 10000 5.1 230 16:55 26.09.2019
1244 Mist 16 1011 100 2400 6.2 200 16:37 26.09.2019
1245 Mist 16 1011 100 2400 6.2 200 16:18 26.09.2019
1246 Rain 16 1012 100 2500 5.1 200 15:42 26.09.2019
1247 Rain 16 1011 100 2000 5.1 200 15:23 26.09.2019
1248 Rain 16 1011 100 2000 6.2 190 14:59 26.09.2019
1249 Drizzle 16 1011 93 6000 5.7 220 14:40 26.09.2019
1250 Drizzle 16 1012 93 10000 5.7 200 14:21 26.09.2019
1251 Drizzle 16 1012 93 10000 7.2 210 13:57 26.09.2019
1252 Drizzle 16 1012 100 8000 6.2 220 13:39 26.09.2019
1253 Drizzle 16 1012 100 8000 6.2 220 13:39 26.09.2019
1254 Rain 16 1012 93 10000 4.6 220 13:19 26.09.2019
1255 Rain 15 1012 100 10000 6.2 200 12:43 26.09.2019
1256 Rain 15 1012 100 10000 6.2 200 12:23 26.09.2019
1257 Drizzle 15 1012 100 10000 5.1 210 11:57 26.09.2019
1258 Drizzle 15 1011 100 1600 5.7 220 11:39 26.09.2019
1259 Drizzle 15 1011 100 10000 6.2 200 11:19 26.09.2019
1260 Mist 15 1012 100 10000 3.6 220 10:42 26.09.2019
1261 Mist 14 1011 100 8000 4.1 180 10:24 26.09.2019
1262 Drizzle 14 1011 100 6000 4.1 190 09:59 26.09.2019
1263 Drizzle 14 1011 100 10000 4.6 190 09:41 26.09.2019
1264 Drizzle 14 1011 100 10000 4.6 190 09:20 26.09.2019
1265 Drizzle 14 1011 100 10000 3.6 190 08:53 26.09.2019
1266 Rain 13 1011 100 10000 3.6 170 08:32 26.09.2019
1267 Mist 13 1011 100 9000 3.1 180 07:57 26.09.2019
1268 Drizzle 13 1010 100 1400 4.6 210 07:38 26.09.2019
1269 Drizzle 13 1010 100 10000 3.6 180 07:18 26.09.2019
1270 Rain 13 1010 100 2200 3.1 190 06:42 26.09.2019
1271 Rain 13 1010 100 9000 3.6 200 06:23 26.09.2019
1272 Mist 13 1010 100 9000 4.1 220 05:40 26.09.2019
1273 Mist 13 1010 100 10000 3.6 200 05:20 26.09.2019
1274 Mist 13 1009 100 10000 4.1 210 02:38 26.09.2019
1275 Mist 13 1010 100 10000 4.1 200 01:49 26.09.2019
1276 Mist 13 1010 100 10000 4.1 200 01:49 26.09.2019
1277 Mist 13 1009 100 10000 4.1 210 01:26 26.09.2019
1278 Mist 13 1010 93 7000 3.1 200 00:48 26.09.2019
1279 Mist 13 1009 100 10000 3.6 200 00:28 26.09.2019
1280 Clouds 13 1010 93 6000 3.1 190 23:45 25.09.2019
1281 Clouds 13 1009 100 10000 3.1 200 23:27 25.09.2019
1282 Clouds 13 1009 100 10000 3.1 220 22:57 25.09.2019
1283 Rain 13 1009 93 5000 5.1 230 22:38 25.09.2019
1284 Rain 13 1009 100 10000 3.6 220 22:20 25.09.2019
1285 Drizzle 14 1009 100 10000 4.6 210 21:56 25.09.2019
1286 Rain 14 1009 100 10000 4.1 210 21:38 25.09.2019
1287 Rain 14 1009 100 10000 4.1 210 21:19 25.09.2019
1288 Rain 13 1009 100 10000 4.1 210 20:56 25.09.2019
1289 Rain 14 1008 100 10000 2.6 210 20:38 25.09.2019
1290 Rain 14 1008 100 10000 2.6 210 20:19 25.09.2019
1291 Rain 14 1008 100 4400 3.1 230 19:41 25.09.2019
1292 Rain 14 1008 100 4400 3.1 230 19:22 25.09.2019
1293 Rain 14 1008 93 10000 3.1 200 18:58 25.09.2019
1294 Rain 14 1008 93 10000 3.6 200 18:39 25.09.2019
1295 Rain 14 1008 93 10000 3.6 200 18:21 25.09.2019
1296 Rain 14 1008 93 10000 3.6 210 17:59 25.09.2019
1297 Rain 14 1008 87 10000 4.6 220 17:38 25.09.2019
1298 Rain 14 1008 87 10000 4.1 200 17:19 25.09.2019
1299 Rain 14 1008 87 10000 6.2 210 16:46 25.09.2019
1300 Drizzle 14 1008 72 10000 4.1 240 16:27 25.09.2019
1301 Drizzle 14 1008 87 3000 4.6 210 15:59 25.09.2019
1302 Rain 14 1008 82 10000 6.2 240 15:41 25.09.2019
1303 Rain 14 1008 77 10000 5.1 230 15:23 25.09.2019
1304 Rain 14 1009 87 10000 5.1 220 14:57 25.09.2019
1305 Rain 15 1008 87 10000 4.6 230 14:39 25.09.2019
1306 Rain 15 1008 87 10000 4.6 230 14:39 25.09.2019
1307 Rain 14 1008 82 10000 8.2 220 14:21 25.09.2019
1308 Rain 14 1008 87 10000 4.6 230 13:41 25.09.2019
1309 Rain 14 1008 87 10000 4.6 230 13:41 25.09.2019
1310 Rain 14 1008 87 10000 4.6 230 13:23 25.09.2019
1311 Clouds 14 1009 87 10000 6.2 230 12:59 25.09.2019
1312 Rain 14 1008 82 10000 6.7 230 12:39 25.09.2019
1313 Rain 14 1008 82 10000 3.6 230 12:21 25.09.2019
1314 Clouds 14 1009 87 10000 4.6 230 11:57 25.09.2019
1315 Rain 13 1008 93 10000 5.7 230 11:38 25.09.2019
1316 Rain 13 1008 93 10000 5.7 230 11:19 25.09.2019
1317 Clouds 13 1009 82 10000 5.1 230 10:43 25.09.2019
1318 Rain 13 1009 87 10000 4.1 220 10:25 25.09.2019
1319 Rain 13 1009 87 10000 4.1 220 10:25 25.09.2019
1320 Rain 13 1009 87 10000 4.1 220 09:57 25.09.2019
1321 Rain 13 1008 93 6000 5.7 230 09:37 25.09.2019
1322 Rain 12 1008 87 10000 4.6 230 09:19 25.09.2019
1323 Rain 12 1008 93 10000 4.6 220 08:44 25.09.2019
1324 Rain 12 1008 100 10000 4.1 220 08:21 25.09.2019
1325 Rain 12 1007 100 10000 4.1 210 07:59 25.09.2019
1326 Drizzle 12 1007 100 10000 4.1 200 07:39 25.09.2019
1327 Drizzle 12 1007 100 10000 4.1 200 07:21 25.09.2019
1328 Rain 12 1008 100 10000 4.1 260 06:45 25.09.2019
1329 Rain 12 1007 100 10000 2.6 230 06:22 25.09.2019
1330 Rain 12 1008 100 10000 2.1 230 05:35 25.09.2019
1331 Rain 12 1008 93 10000 3.6 230 04:55 25.09.2019
1332 Rain 13 1007 100 8000 2.6 250 02:31 25.09.2019
1333 Drizzle 14 1009 100 5000 4.1 230 00:56 25.09.2019
1334 Mist 14 1007 93 100 4.1 220 00:36 25.09.2019
1335 Mist 13 1007 100 10000 4.1 200 00:18 25.09.2019
1336 Fog 13 1007 100 4900 4.6 200 23:40 24.09.2019
1337 Fog 13 1007 100 10000 4.1 200 23:21 24.09.2019
1338 Rain 13 1007 100 10000 4.1 200 22:56 24.09.2019
1339 Drizzle 13 1007 100 10000 3.6 190 22:36 24.09.2019
1340 Drizzle 12 1007 100 10000 3.6 190 22:18 24.09.2019
1341 Rain 12 1008 100 400 4.1 170 21:54 24.09.2019
1342 Rain 12 1008 100 2000 3.6 180 21:36 24.09.2019
1343 Rain 12 1008 100 10000 3.1 160 21:18 24.09.2019
1344 Drizzle 12 1008 100 10000 4.1 170 20:54 24.09.2019
1345 Rain 12 1008 100 10000 2.6 160 20:36 24.09.2019
1346 Rain 12 1008 100 10000 2.6 160 20:18 24.09.2019
1347 Rain 12 1009 93 10000 5.1 170 19:41 24.09.2019
1348 Rain 12 1008 87 10000 1.5 170 19:19 24.09.2019
1349 Rain 12 1008 87 10000 3.1 180 18:56 24.09.2019
1350 Rain 12 1008 87 10000 3.1 180 18:56 24.09.2019
1351 Rain 12 1008 87 10000 3.1 180 18:56 24.09.2019
1352 Rain 12 1008 87 10000 3.1 180 18:56 24.09.2019
1353 Rain 12 1009 87 10000 4.6 180 18:38 24.09.2019
1354 Rain 13 1008 93 10000 3.6 180 18:20 24.09.2019
1355 Rain 13 1009 93 10000 2.6 160 17:56 24.09.2019
1356 Rain 13 1009 87 10000 3.1 140 17:37 24.09.2019
1357 Rain 14 1009 93 10000 3.1 110 17:19 24.09.2019
1358 Rain 14 1009 87 10000 4.1 160 16:42 24.09.2019
1359 Rain 14 1010 87 10000 2.1 140 16:21 24.09.2019
1360 Rain 14 1010 82 10000 2.1 130 15:58 24.09.2019
1361 Rain 14 1011 82 10000 1.5 130 15:40 24.09.2019
1362 Rain 15 1011 82 10000 1.5 130 15:21 24.09.2019
1363 Rain 15 1011 67 10000 1.5 180 14:40 24.09.2019
1364 Rain 15 1011 67 10000 1.5 180 14:19 24.09.2019
1365 Clear 15 1011 77 10000 5.1 180 13:45 24.09.2019
1366 Clouds 16 1012 82 10000 3.6 180 13:23 24.09.2019
1367 Clouds 15 1012 76 10000 5.1 160 12:59 24.09.2019
1368 Clouds 15 1012 72 10000 5.1 180 12:39 24.09.2019
1369 Clouds 15 1012 93 10000 2.6 90 12:18 24.09.2019
1370 Clouds 15 1012 93 10000 2.6 90 12:18 24.09.2019
1371 Clouds 14 1013 76 10000 4.6 190 11:42 24.09.2019
1372 Clouds 13 1013 100 10000 2.6 100 11:22 24.09.2019
1373 Fog 13 1013 100 10000 3.1 90 10:57 24.09.2019
1374 Clouds 13 1013 82 10000 3.6 190 10:37 24.09.2019
1375 Fog 12 1013 100 10000 2.6 100 10:18 24.09.2019
1376 Fog 12 1013 93 10000 2.6 140 09:46 24.09.2019
1377 Clouds 11 1014 100 10000 2.1 80 09:27 24.09.2019
1378 Clouds 11 1014 100 10000 2.1 110 08:57 24.09.2019
1379 Clouds 11 1014 100 10000 2.1 110 08:57 24.09.2019
1380 Clouds 11 1014 93 10000 2.6 190 08:38 24.09.2019
1381 Clouds 10 1014 93 8000 2.6 160 08:20 24.09.2019
1382 Clouds 10 1014 93 8000 2.6 180 07:55 24.09.2019
1383 Clouds 10 1015 93 10000 2.1 220 07:36 24.09.2019
1384 Clouds 10 1015 93 10000 2.1 220 07:36 24.09.2019
1385 Clouds 10 1014 93 10000 3.1 160 07:18 24.09.2019
1386 Fog 10 1015 100 800 2.6 80 06:37 24.09.2019
1387 Fog 10 1015 100 800 2.6 80 06:37 24.09.2019
1388 Mist 10 1015 100 1000 2.6 100 05:53 24.09.2019
1389 Mist 10 1015 100 3600 2.6 90 05:20 24.09.2019
1390 Mist 10 1016 100 4400 2.1 90 03:46 24.09.2019
1391 Clouds 10 1016 93 10000 2.1 90 03:20 24.09.2019
1392 Clouds 10 1016 93 10000 2.1 150 02:43 24.09.2019
1393 Clear 10 1017 87 10000 3.6 240 01:41 24.09.2019
1394 Clouds 10 1017 93 10000 2.6 250 00:41 24.09.2019
1395 Clouds 11 1017 93 10000 1.14 228.918 00:22 24.09.2019
1396 Clear 11 1017 93 10000 3.1 250 23:41 23.09.2019
1397 Clouds 11 1017 87 10000 1.14 228.918 23:22 23.09.2019
1398 Clear 11 1017 87 10000 3.6 250 22:41 23.09.2019
1399 Clouds 11 1017 93 10000 1.14 228.918 22:21 23.09.2019
1400 Clear 12 1018 87 10000 1.5 190 21:59 23.09.2019
1401 Clear 12 1017 93 10000 3.1 240 21:41 23.09.2019
1402 Clear 12 1017 93 10000 3.1 240 21:41 23.09.2019
1403 Clear 12 1017 93 10000 3.1 240 21:41 23.09.2019
1404 Clear 12 1017 93 10000 3.1 240 21:41 23.09.2019
1405 Clouds 12 1017 82 10000 2.6 210 21:20 23.09.2019
1406 Clear 13 1017 87 10000 2.1 200 20:59 23.09.2019
1407 Clouds 13 1017 82 10000 2.6 240 20:40 23.09.2019
1408 Clouds 14 1017 77 10000 2.87 238.855 20:19 23.09.2019
1409 Clouds 15 1017 82 10000 2.6 250 19:40 23.09.2019
1410 Clouds 15 1017 77 10000 2.87 238.855 19:22 23.09.2019
1411 Clear 15 1017 72 10000 3.6 280 18:59 23.09.2019
1412 Clouds 16 1017 76 10000 3.6 260 18:41 23.09.2019
1413 Clouds 16 1017 76 10000 3.6 260 18:41 23.09.2019
1414 Clouds 16 1017 72 10000 2.1 230 18:19 23.09.2019
1415 Rain 16 1017 72 10000 4.1 280 17:57 23.09.2019
1416 Clouds 16 1017 72 10000 3.1 220 17:39 23.09.2019
1417 Clouds 16 1017 72 10000 3.1 220 17:39 23.09.2019
1418 Clouds 16 1017 72 10000 3.1 220 17:20 23.09.2019
1419 Clouds 16 1017 72 10000 3.1 230 16:57 23.09.2019
1420 Clouds 16 1016 72 10000 3.6 250 16:36 23.09.2019
1421 Clouds 16 1017 72 10000 3.1 260 16:18 23.09.2019
1422 Clouds 16 1017 72 10000 2.1 290 15:56 23.09.2019
1423 Clouds 16 1016 72 10000 3.6 270 15:38 23.09.2019
1424 Clouds 16 1016 72 10000 3.6 270 15:38 23.09.2019
1425 Clouds 16 1017 77 10000 2.6 270 15:18 23.09.2019
1426 Clouds 16 1017 77 10000 2.6 270 15:18 23.09.2019
1427 Clouds 16 1017 77 10000 2.6 270 15:18 23.09.2019
1428 Clouds 16 1016 76 10000 4.1 240 14:40 23.09.2019
1429 Clouds 16 1016 77 10000 3.1 240 14:20 23.09.2019
1430 Clouds 16 1016 77 10000 3.1 240 14:20 23.09.2019
1431 Clouds 16 1016 72 10000 4.1 230 13:59 23.09.2019
1432 Clouds 16 1016 72 10000 4.6 250 13:38 23.09.2019
1433 Clouds 16 1016 82 10000 3.1 230 13:18 23.09.2019
1434 Clouds 15 1016 82 10000 2.6 240 12:55 23.09.2019
1435 Clouds 15 1016 77 10000 4.1 230 12:36 23.09.2019
1436 Clouds 15 1016 77 10000 4.1 230 12:18 23.09.2019
1437 Clouds 15 1016 87 10000 3.1 250 11:43 23.09.2019
1438 Rain 15 1016 87 10000 3.1 250 11:25 23.09.2019
1439 Rain 14 1016 100 1800 4.6 240 10:55 23.09.2019
1440 Rain 14 1016 100 1800 4.6 240 10:36 23.09.2019
1441 Rain 14 1016 100 10000 3.6 240 10:18 23.09.2019
1442 Drizzle 14 1015 93 1200 3.6 230 09:39 23.09.2019
1443 Drizzle 14 1015 100 10000 4.1 230 09:21 23.09.2019
1444 Rain 13 1015 100 10000 3.6 220 08:50 23.09.2019
1445 Rain 13 1015 100 10000 2.6 210 08:30 23.09.2019
1446 Fog 13 1014 100 10000 2.6 200 07:59 23.09.2019
1447 Rain 13 1014 100 10000 2.1 200 07:33 23.09.2019
1448 Rain 13 1014 100 10000 2.1 200 06:50 23.09.2019
1449 Rain 13 1014 100 10000 2.1 200 06:18 23.09.2019
1450 Rain 13 1014 100 10000 2.1 200 05:22 23.09.2019
1451 Rain 13 1014 100 10000 2.1 210 04:55 23.09.2019
1452 Rain 13 1013 100 10000 2.1 230 03:56 23.09.2019
1453 Rain 14 1013 93 10000 4.1 240 01:25 23.09.2019
1454 Rain 15 1012 93 10000 2.1 260 00:24 23.09.2019
1455 Rain 15 1011 93 10000 3.6 280 23:58 22.09.2019
1456 Rain 15 1011 93 10000 3.6 280 23:58 22.09.2019
1457 Rain 15 1012 93 5000 3.6 260 23:39 22.09.2019
1458 Rain 16 1012 93 5000 3.6 260 23:21 22.09.2019
1459 Rain 16 1011 100 10000 6.2 250 22:54 22.09.2019
1460 Rain 16 1010 82 10000 3.1 270 22:36 22.09.2019
1461 Rain 17 1010 100 10000 2.1 290 22:18 22.09.2019
1462 Drizzle 17 1011 93 10000 2.1 240 21:42 22.09.2019
1463 Drizzle 17 1011 93 10000 2.1 240 21:20 22.09.2019
1464 Clouds 18 1010 88 10000 2.6 240 20:45 22.09.2019
1465 Rain 18 1010 72 10000 3.6 230 20:27 22.09.2019
1466 Clouds 19 1009 56 10000 2.1 110 19:57 22.09.2019
1467 Rain 19 1009 56 10000 2.1 110 19:39 22.09.2019
1468 Rain 20 1008 53 10000 2.6 120 19:20 22.09.2019
1469 Rain 20 1009 56 9000 5.7 200 18:57 22.09.2019
1470 Rain 21 1010 52 10000 2.6 140 18:38 22.09.2019
1471 Clouds 22 1009 49 10000 4.1 130 18:18 22.09.2019
1472 Clouds 23 1009 47 10000 2.1 180 17:46 22.09.2019
1473 Clouds 24 1009 47 10000 2.1 180 17:27 22.09.2019
1474 Clouds 24 1009 47 10000 5.1 180 16:58 22.09.2019
1475 Clouds 24 1010 53 10000 1.5 200 16:40 22.09.2019
1476 Clouds 25 1009 44 10000 4.1 180 16:20 22.09.2019
1477 Clear 24 1009 47 10000 4.6 170 15:46 22.09.2019
1478 Clouds 24 1010 49 10000 4.1 200 15:26 22.09.2019
1479 Clouds 24 1010 49 10000 5.1 180 14:55 22.09.2019
1480 Clouds 24 1011 46 10000 4.6 210 14:37 22.09.2019
1481 Clouds 24 1011 46 10000 4.6 210 14:37 22.09.2019
1482 Clouds 23 1010 49 10000 5.1 200 14:19 22.09.2019
1483 Clear 23 1010 53 10000 4.6 160 13:43 22.09.2019
1484 Clear 23 1010 53 10000 4.6 160 13:43 22.09.2019
1485 Clouds 22 1011 49 10000 4.1 180 13:25 22.09.2019
1486 Clear 21 1011 56 10000 4.6 180 12:57 22.09.2019
1487 Clouds 20 1012 49 10000 3.1 160 12:39 22.09.2019
1488 Clouds 19 1011 52 10000 2.6 100 12:21 22.09.2019
1489 Clouds 19 1011 52 10000 2.6 100 12:21 22.09.2019
1490 Clear 19 1011 52 10000 4.1 130 11:56 22.09.2019
1491 Clouds 18 1012 52 10000 2.1 130 11:38 22.09.2019
1492 Clouds 18 1012 59 10000 3.1 100 11:19 22.09.2019
1493 Clear 16 1012 55 10000 3.6 140 10:43 22.09.2019
1494 Clouds 15 1012 58 10000 4.1 100 10:20 22.09.2019
1495 Clouds 15 1012 58 10000 4.1 100 10:20 22.09.2019
1496 Clouds 15 1012 58 10000 4.1 100 10:20 22.09.2019
1497 Clear 14 1012 54 10000 2.6 90 09:55 22.09.2019
1498 Clouds 14 1012 54 10000 2.1 100 09:37 22.09.2019
1499 Clear 13 1012 62 10000 2.1 90 09:19 22.09.2019
1500 Clear 12 1012 62 10000 6.7 140 08:42 22.09.2019
1501 Clear 12 1012 71 10000 3.1 90 08:22 22.09.2019
1502 Clear 11 1011 62 10000 3.6 60 07:49 22.09.2019
1503 Clear 11 1012 66 10000 3.1 80 07:31 22.09.2019
1504 Clear 11 1011 54 10000 3.1 50 06:59 22.09.2019
1505 Clouds 11 1012 54 10000 2.6 110 06:38 22.09.2019
1506 Clear 12 1013 58 10000 2.6 90 05:22 22.09.2019
1507 Clear 12 1013 47 10000 2.6 80 02:46 22.09.2019
1508 Clear 12 1013 54 10000 1.5 120 02:26 22.09.2019
1509 Clear 13 1013 41 10000 3.6 60 01:53 22.09.2019
1510 Clear 13 1013 44 10000 3.6 60 00:55 22.09.2019
1511 Clear 13 1014 50 10000 1.22 60.243 00:32 22.09.2019
1512 Clear 14 1014 39 10000 2.6 90 23:57 21.09.2019
1513 Clear 14 1015 47 10000 3.6 90 23:39 21.09.2019
1514 Clear 14 1015 42 10000 2.6 90 22:57 21.09.2019
1515 Clear 14 1016 41 10000 2.6 110 22:38 21.09.2019
1516 Clear 15 1015 41 10000 3.6 70 22:20 21.09.2019
1517 Clear 15 1016 41 10000 3.6 100 21:41 21.09.2019
1518 Clear 16 1016 38 10000 4.1 80 21:20 21.09.2019
1519 Clear 16 1015 39 10000 3.1 90 20:58 21.09.2019
1520 Clear 17 1016 38 10000 3.1 100 20:38 21.09.2019
1521 Clear 17 1016 38 10000 3.1 100 20:38 21.09.2019
1522 Clear 17 1016 34 10000 4.1 80 20:19 21.09.2019
1523 Clear 17 1016 34 10000 4.1 80 20:19 21.09.2019
1524 Clear 18 1015 37 10000 2.6 100 19:46 21.09.2019
1525 Clear 19 1016 32 10000 4.6 80 19:23 21.09.2019
1526 Clear 20 1015 35 10000 3.6 110 18:55 21.09.2019
1527 Clear 21 1017 29 10000 4.1 100 18:36 21.09.2019
1528 Clear 22 1016 28 10000 5.7 100 18:18 21.09.2019
1529 Clear 23 1017 30 10000 4.6 120 17:39 21.09.2019
1530 Clear 23 1017 28 10000 4.6 70 17:19 21.09.2019
1531 Clear 23 1017 38 10000 4.1 130 16:43 21.09.2019
1532 Clear 23 1017 27 10000 4.6 70 16:24 21.09.2019
1533 Clear 23 1017 38 10000 4.1 120 15:48 21.09.2019
1534 Clear 22 1018 28 10000 4.1 90 15:25 21.09.2019
1535 Clear 22 1018 30 10000 3.1 130 14:55 21.09.2019
1536 -273 0 0 0 0 0 14:37 21.09.2019
1537 Clear 21 1018 28 10000 5.7 80 14:19 21.09.2019
1538 Clear 21 1020 42 10000 5.7 110 13:41 21.09.2019
1539 Clear 20 1019 32 10000 4.1 100 13:23 21.09.2019
1540 Clear 19 1019 34 10000 3.6 100 12:57 21.09.2019
1541 Clear 18 1021 38 10000 5.1 100 12:38 21.09.2019
1542 Clear 18 1020 36 10000 5.1 80 12:20 21.09.2019
1543 Clear 17 1020 38 10000 4.6 130 11:50 21.09.2019
1544 Clear 16 1020 38 10000 4.6 80 11:25 21.09.2019
1545 Clear 15 1020 44 10000 3.6 110 10:56 21.09.2019
1546 Clear 14 1021 47 10000 5.1 100 10:38 21.09.2019
1547 Clear 14 1020 44 10000 3.6 80 10:19 21.09.2019
1548 Clear 13 1020 50 10000 3.1 60 09:55 21.09.2019
1549 Clear 12 1021 53 10000 5.1 100 09:37 21.09.2019
1550 Clear 11 1021 50 10000 4.1 50 09:18 21.09.2019
1551 Clear 10 1020 57 10000 3.6 60 08:43 21.09.2019
1552 Clear 10 1020 57 10000 3.6 60 08:43 21.09.2019
1553 Clear 8 1020 61 10000 3.6 50 07:58 21.09.2019
1554 Clear 8 1021 57 10000 4.6 90 07:39 21.09.2019
1555 Clear 8 1020 61 10000 4.1 60 07:19 21.09.2019
1556 Clear 8 1022 57 10000 4.1 90 06:36 21.09.2019
1557 Clear 8 1021 65 10000 3.1 70 05:51 21.09.2019
1558 Clear 9 1022 53 10000 4.6 90 04:39 21.09.2019
1559 Clear 9 1022 53 10000 4.6 50 03:35 21.09.2019
1560 Clear 10 1022 50 10000 4.6 60 02:25 21.09.2019
1561 Clear 10 1023 57 10000 3.6 110 01:49 21.09.2019
1562 Clear 10 1023 50 10000 4.1 60 01:26 21.09.2019
1563 Clear 11 1023 50 10000 3.6 60 00:26 21.09.2019
1564 Clear 11 1023 46 10000 4.1 70 23:58 20.09.2019
1565 Clear 11 1024 50 10000 4.1 60 23:30 20.09.2019
1566 Clear 12 1023 46 10000 4.6 70 22:59 20.09.2019
1567 Clouds 12 1025 53 10000 3.6 80 22:38 20.09.2019
1568 Clear 12 1024 50 10000 3.6 70 22:20 20.09.2019
1569 Clear 12 1024 47 10000 4.1 70 21:55 20.09.2019
1570 Clouds 13 1025 50 10000 3.1 100 21:37 20.09.2019
1571 Clear 13 1024 65 10000 4.6 60 21:18 20.09.2019
1572 Clear 13 1025 50 10000 2.6 90 20:41 20.09.2019
1573 Clear 14 1025 66 10000 3.6 70 20:21 20.09.2019
1574 Clear 14 1024 33 10000 3.6 70 19:59 20.09.2019
1575 Clouds 14 1025 41 10000 3.6 80 19:40 20.09.2019
1576 Clear 16 1025 66 10000 3.1 70 19:20 20.09.2019
1577 Clear 16 1025 66 10000 4.6 60 18:40 20.09.2019
1578 Clear 17 1025 49 10000 4.6 60 18:21 20.09.2019
1579 Clear 18 1024 32 10000 5.7 60 17:59 20.09.2019
1580 Clouds 18 1026 36 10000 5.1 90 17:41 20.09.2019
1581 Clear 18 1025 31 10000 4.1 70 17:23 20.09.2019
1582 Clear 18 1025 30 10000 6.2 60 16:43 20.09.2019
1583 Clear 18 1026 31 10000 6.2 50 16:21 20.09.2019
1584 Clear 18 1026 29 10000 4.6 80 15:58 20.09.2019
1585 Clouds 19 1027 49 10000 4.6 100 15:40 20.09.2019
1586 Clear 18 1026 28 10000 3.6 80 15:22 20.09.2019
1587 Clear 18 1026 29 10000 4.1 80 14:43 20.09.2019
1588 Clear 18 1027 33 10000 6.2 80 14:19 20.09.2019
1589 Clear 17 1028 41 10000 3.6 90 13:48 20.09.2019
1590 Clouds 17 1028 47 10000 4.1 110 13:29 20.09.2019
1591 Clear 16 1028 44 10000 3.6 80 12:58 20.09.2019
1592 Clouds 16 1029 47 10000 4.6 110 12:37 20.09.2019
1593 Clear 15 1028 41 10000 4.1 100 12:19 20.09.2019
1594 Clear 15 1028 41 10000 4.1 100 12:19 20.09.2019
1595 Clear 14 1028 47 10000 4.1 80 11:50 20.09.2019
1596 Clear 14 1028 47 10000 4.6 80 11:22 20.09.2019
1597 Clear 13 1028 54 10000 4.6 60 10:57 20.09.2019
1598 Clouds 12 1029 57 10000 4.6 80 10:39 20.09.2019
1599 Clear 11 1028 57 10000 3.1 60 10:19 20.09.2019
1600 Clouds 10 1029 61 10000 3.6 70 09:38 20.09.2019
1601 Clear 9 1028 61 10000 3.1 50 09:18 20.09.2019
1602 Clear 7 1028 65 10000 5.1 60 08:46 20.09.2019
1603 Clear 6 1028 70 10000 2.6 50 08:26 20.09.2019
1604 Clear 6 1027 65 10000 3.6 60 07:49 20.09.2019
1605 Clear 6 1028 70 10000 1.5 50 07:29 20.09.2019
1606 Clear 6 1027 61 10000 4.1 60 06:50 20.09.2019
1607 Clear 6 1028 70 10000 2.1 50 06:32 20.09.2019
1608 Clear 6 1028 61 10000 4.6 50 05:59 20.09.2019
1609 Clear 6 1028 65 10000 3.6 40 04:29 20.09.2019
1610 Clear 7 1029 65 10000 3.6 50 03:26 20.09.2019
1611 Clear 7 1029 65 10000 3.6 80 01:58 20.09.2019
1612 Clear 7 1029 65 7000 3.6 50 01:37 20.09.2019
1613 Clouds 7 1030 65 7000 3.6 50 00:36 20.09.2019
1614 Clear 8 1029 61 10000 2.6 70 23:48 19.09.2019
1615 Clear 9 1029 57 10000 5.1 20 23:28 19.09.2019
1616 Clear 9 1029 65 10000 2.1 50 22:59 19.09.2019
1617 Clear 9 1029 57 7000 3.1 20 22:40 19.09.2019
1618 Clear 9 1029 53 10000 3.1 10 22:21 19.09.2019
1619 Clear 10 1029 50 10000 4.1 40 21:57 19.09.2019
1620 Clear 10 1029 57 7000 2.6 10 21:38 19.09.2019
1621 Clear 11 1029 53 10000 3.6 10 21:19 19.09.2019
1622 Clear 11 1028 43 10000 5.1 50 20:55 19.09.2019
1623 Clouds 11 1029 53 7000 1.5 360 20:37 19.09.2019
1624 Clear 12 1029 53 10000 3.1 30 20:18 19.09.2019
1625 Clear 13 1028 41 10000 3.1 70 19:39 19.09.2019
1626 Clear 14 1028 41 10000 3.1 70 19:21 19.09.2019
1627 Clear 14 1028 44 10000 3.1 30 18:59 19.09.2019
1628 Clouds 15 1029 47 7000 3.1 30 18:41 19.09.2019
1629 Clear 16 1028 41 10000 5.1 40 18:21 19.09.2019
1630 Clouds 16 1029 47 10000 4.6 60 17:42 19.09.2019
1631 Clear 16 1028 36 10000 4.1 10 17:24 19.09.2019
1632 Clear 16 1028 38 10000 5.1 70 16:59 19.09.2019
1633 Clouds 16 1029 41 10000 5.1 50 16:40 19.09.2019
1634 Clear 16 1029 38 10000 5.1 30 16:20 19.09.2019
1635 Clouds 16 1029 47 10000 3.6 40 15:40 19.09.2019
1636 Clear 16 1029 38 10000 4.1 20 15:21 19.09.2019
1637 Clear 16 1029 38 10000 5.7 50 14:58 19.09.2019
1638 Clouds 16 1029 46 10000 6.2 40 14:39 19.09.2019
1639 Clear 15 1029 44 10000 3.6 70 14:20 19.09.2019
1640 Clouds 15 1030 50 10000 6.2 40 13:40 19.09.2019
1641 Clear 15 1030 47 10000 4.6 40 13:22 19.09.2019
1642 Clear 14 1030 41 10000 7.7 50 12:59 19.09.2019
1643 Clouds 14 1030 54 10000 5.1 50 12:36 19.09.2019
1644 Clouds 13 1030 54 10000 5.1 50 12:18 19.09.2019
1645 Clouds 13 1030 50 10000 6.7 60 11:41 19.09.2019
1646 Clouds 13 1030 50 10000 6.7 60 11:22 19.09.2019
1647 Clear 12 1029 66 10000 7.2 50 10:58 19.09.2019
1648 Clouds 12 1030 66 10000 6.7 60 10:39 19.09.2019
1649 Clear 11 1029 62 10000 5.1 30 10:21 19.09.2019
1650 Clear 10 1029 76 10000 6.2 50 09:57 19.09.2019
1651 Clouds 10 1029 75 10000 4.6 40 09:39 19.09.2019
1652 Clear 9 1029 70 10000 3.6 40 09:19 19.09.2019
1653 Clear 7 1028 81 10000 6.7 40 08:50 19.09.2019
1654 Clear 6 1028 87 10000 1.5 60 08:23 19.09.2019
1655 Clear 6 1028 81 10000 6.7 40 07:44 19.09.2019
1656 Clear 6 1028 81 10000 4.1 20 07:22 19.09.2019
1657 Clear 6 1027 81 10000 5.7 40 06:57 19.09.2019
1658 Clouds 6 1027 81 10000 3.6 20 06:37 19.09.2019
1659 Clear 6 1027 87 10000 3.1 30 06:19 19.09.2019
1660 Clouds 6 1027 81 10000 3.1 10 05:42 19.09.2019
1661 Clear 7 1027 81 10000 2.1 20 04:19 19.09.2019
1662 Clear 7 1027 81 10000 1.5 90 03:20 19.09.2019
1663 Clear 8 1027 75 8000 3.6 10 01:40 19.09.2019
1664 Clear 8 1027 66 10000 3.6 10 01:19 19.09.2019
1665 Clouds 8 1027 75 8000 2.6 360 00:43 19.09.2019
1666 Clear 9 1027 70 10000 3.6 20 00:19 19.09.2019
1667 Clear 9 1027 70 8000 3.6 20 23:38 18.09.2019
1668 Clear 9 1027 62 10000 3.6 10 23:19 18.09.2019
1669 Clear 10 1026 66 10000 2.1 20 22:41 18.09.2019
1670 Clear 10 1027 57 10000 3.6 360 22:19 18.09.2019
1671 Clear 10 1026 54 10000 4.6 20 21:57 18.09.2019
1672 Clear 11 1027 61 9000 2.1 10 21:39 18.09.2019
1673 Clear 11 1026 57 10000 2.1 350 21:18 18.09.2019
1674 Clear 11 1026 57 10000 2.1 350 21:18 18.09.2019
1675 Clear 12 1026 50 10000 5.1 30 20:57 18.09.2019
1676 Clear 12 1026 57 10000 2.1 360 20:39 18.09.2019
1677 Clear 13 1026 50 10000 2.6 10 20:21 18.09.2019
1678 Clear 13 1027 53 10000 1.5 10 19:57 18.09.2019
1679 Clear 14 1026 50 10000 2.6 10 19:38 18.09.2019
1680 Clear 15 1025 50 10000 4.1 360 19:19 18.09.2019
1681 Clear 15 1025 50 10000 4.1 360 19:19 18.09.2019
1682 Clear 15 1025 41 10000 5.7 20 18:55 18.09.2019
1683 Clear 15 1026 47 10000 4.1 10 18:37 18.09.2019
1684 Clear 16 1025 41 10000 4.1 360 18:18 18.09.2019
1685 Clear 16 1025 39 10000 6.2 30 17:57 18.09.2019
1686 Clear 16 1025 39 10000 6.2 30 17:57 18.09.2019
1687 Clouds 17 1025 44 10000 4.1 10 17:38 18.09.2019
1688 Clear 17 1025 41 10000 4.6 360 17:18 18.09.2019
1689 Clear 17 1025 42 10000 5.1 40 16:55 18.09.2019
1690 Clear 17 1025 42 10000 5.1 40 16:55 18.09.2019
1691 Clouds 17 1026 44 10000 4.1 20 16:36 18.09.2019
1692 Clear 17 1025 39 10000 3.1 40 16:18 18.09.2019
1693 Clear 17 1025 42 10000 5.7 40 15:54 18.09.2019
1694 Clouds 17 1026 44 10000 4.6 30 15:36 18.09.2019
1695 Clouds 17 1026 44 10000 4.1 40 15:36 18.09.2019
1696 Clouds 16 1026 44 10000 4.1 40 15:18 18.09.2019
1697 Clouds 16 1026 42 10000 5.7 30 14:57 18.09.2019
1698 Clouds 16 1026 47 10000 4.1 50 14:37 18.09.2019
1699 Clouds 16 1026 47 10000 4.1 50 14:37 18.09.2019
1700 Clouds 16 1026 47 10000 4.1 50 14:19 18.09.2019
1701 Drizzle 15 1026 54 10000 4.6 360 13:42 18.09.2019
1702 Drizzle 15 1026 54 10000 4.6 360 13:19 18.09.2019
1703 Drizzle 15 1026 54 10000 4.6 360 13:19 18.09.2019
1704 Clouds 15 1026 47 10000 5.7 70 12:53 18.09.2019
1705 Clouds 15 1026 51 10000 6.7 40 12:32 18.09.2019
1706 Clouds 15 1026 51 10000 6.7 40 12:32 18.09.2019
1707 Clouds 14 1026 54 10000 6.2 50 11:59 18.09.2019
1708 Clouds 13 1026 66 10000 5.1 60 11:39 18.09.2019
1709 Clouds 13 1026 62 10000 6.7 50 11:19 18.09.2019
1710 Clouds 12 1026 71 10000 4.6 40 10:41 18.09.2019
1711 Clear 11 1026 71 10000 6.7 40 10:21 18.09.2019
1712 Clear 11 1026 76 10000 5.7 50 09:58 18.09.2019
1713 Clouds 10 1026 76 10000 4.1 40 09:40 18.09.2019
1714 Clouds 10 1026 76 10000 4.1 40 09:40 18.09.2019
1715 Clear 9 1026 81 10000 2.6 40 09:22 18.09.2019
1716 Clear 7 1025 81 10000 5.7 50 08:46 18.09.2019
1717 Clear 7 1025 81 10000 3.6 60 08:26 18.09.2019
1718 Clear 6 1025 87 10000 5.1 40 07:59 18.09.2019
1719 Clouds 6 1025 87 10000 2.1 10 07:41 18.09.2019
1720 Clear 6 1025 87 10000 2.22 23.256 07:23 18.09.2019
1721 Clouds 6 1025 87 10000 2.6 10 06:41 18.09.2019
1722 Clear 6 1024 75 10000 4.1 40 05:58 18.09.2019
1723 Clear 6 1025 87 10000 1.5 20 05:22 18.09.2019
1724 Clear 7 1024 81 10000 2.1 360 03:38 18.09.2019
1725 Clouds 9 1024 75 10000 1.5 330 02:40 18.09.2019
1726 Clouds 9 1024 75 10000 2.6 20 01:37 18.09.2019
1727 Clear 10 1024 76 10000 5.7 30 00:51 18.09.2019
1728 Clear 10 1024 71 10000 3.6 360 00:29 18.09.2019
1729 Clear 11 1023 71 10000 5.7 10 23:47 17.09.2019
1730 Clear 11 1023 71 10000 3.6 10 23:24 17.09.2019
1731 Clear 11 1023 71 10000 4.1 360 22:56 17.09.2019
1732 Clouds 11 1023 71 10000 4.6 360 22:37 17.09.2019
1733 Clear 11 1023 71 10000 3.1 360 22:19 17.09.2019
1734 Clear 12 1023 66 10000 3.1 350 21:54 17.09.2019
1735 Clouds 12 1023 66 10000 3.6 340 21:36 17.09.2019
1736 Clear 13 1022 62 10000 1.5 320 21:18 17.09.2019
1737 Clear 14 1022 62 10000 2.6 340 20:55 17.09.2019
1738 Clear 14 1022 62 10000 2.6 340 20:55 17.09.2019
1739 Clouds 14 1022 66 10000 3.6 310 20:37 17.09.2019
1740 Clouds 14 1022 66 10000 3.6 310 20:37 17.09.2019
1741 Clouds 14 1022 66 10000 3.6 310 20:37 17.09.2019
1742 Clear 15 1022 48 10000 3.1 310 20:19 17.09.2019
1743 Clear 15 1022 55 10000 4.6 350 19:54 17.09.2019
1744 Clouds 15 1021 62 10000 3.1 310 19:36 17.09.2019
1745 Clouds 16 1021 58 10000 5.7 330 19:18 17.09.2019
1746 Clouds 17 1021 54 10000 4.1 330 18:42 17.09.2019
1747 Clear 18 1021 48 10000 4.6 300 18:22 17.09.2019
1748 Clear 18 1021 54 10000 5.1 350 17:56 17.09.2019
1749 Clouds 19 1021 51 10000 4.1 320 17:37 17.09.2019
1750 Clear 19 1021 42 10000 5.1 300 17:19 17.09.2019
1751 Clear 19 1021 51 10000 5.1 330 16:42 17.09.2019
1752 Clear 19 1021 37 10000 4.1 320 16:22 17.09.2019
1753 Clouds 19 1021 45 10000 3.6 330 15:59 17.09.2019
1754 Clear 19 1021 40 10000 3.1 340 15:38 17.09.2019
1755 Clear 19 1021 40 10000 3.1 340 15:19 17.09.2019
1756 Clouds 19 1021 48 10000 4.1 320 14:56 17.09.2019
1757 Clouds 19 1021 48 10000 4.1 320 14:56 17.09.2019
1758 Clouds 18 1021 54 10000 5.1 320 14:37 17.09.2019
1759 Clear 18 1021 45 10000 1.5 280 14:19 17.09.2019
1760 Clear 18 1021 45 10000 1.5 280 14:19 17.09.2019
1761 Clouds 18 1022 55 10000 2.6 0 13:43 17.09.2019
1762 Clear 18 1021 48 10000 2.6 320 13:25 17.09.2019
1763 Clouds 17 1022 63 10000 3.6 290 12:56 17.09.2019
1764 Clouds 17 1022 58 10000 4.1 340 12:38 17.09.2019
1765 Clouds 16 1022 59 10000 2.1 240 12:18 17.09.2019
1766 Clouds 16 1021 67 10000 5.1 310 11:43 17.09.2019
1767 Clouds 15 1022 63 10000 3.1 280 11:25 17.09.2019
1768 Clouds 15 1022 71 10000 2.6 320 10:56 17.09.2019
1769 Clouds 15 1021 66 10000 3.6 340 10:38 17.09.2019
1770 Clouds 15 1021 71 10000 2.1 300 10:20 17.09.2019
1771 Clouds 14 1021 87 10000 3.1 320 09:42 17.09.2019
1772 Clouds 14 1021 76 10000 2.6 310 09:23 17.09.2019
1773 Clouds 13 1021 71 10000 2.1 50 08:57 17.09.2019
1774 Drizzle 13 1021 87 10000 3.6 350 08:38 17.09.2019
1775 Drizzle 13 1021 76 10000 2.1 290 08:19 17.09.2019
1776 Clouds 13 1020 93 10000 1.5 300 07:42 17.09.2019
1777 Clouds 13 1020 76 10000 1.5 40 07:24 17.09.2019
1778 Clouds 13 1020 71 10000 3.6 40 06:51 17.09.2019
1779 Rain 14 1020 76 10000 1.5 270 06:25 17.09.2019
1780 Clouds 14 1021 76 10000 3.1 40 05:50 17.09.2019
1781 Clouds 14 1021 82 10000 1.5 350 04:32 17.09.2019
1782 Clouds 14 1021 82 10000 2.6 340 03:34 17.09.2019
1783 Mist 15 1021 87 10000 3.6 330 02:39 17.09.2019
1784 Mist 15 1021 87 10000 3.6 330 02:39 17.09.2019
1785 Clouds 15 1020 82 10000 3.6 360 01:34 17.09.2019
1786 Rain 16 1020 82 10000 2.1 350 00:45 17.09.2019
1787 Rain 16 1021 87 3300 3.1 350 23:41 16.09.2019
1788 Clouds 16 1020 77 10000 2.1 350 23:19 16.09.2019
1789 Clear 17 1020 72 10000 2.6 340 22:58 16.09.2019
1790 Rain 16 1020 82 9000 2.1 340 22:39 16.09.2019
1791 Clouds 17 1020 72 10000 1.67 337.665 22:21 16.09.2019
1792 Drizzle 17 1020 72 10000 1.5 310 21:56 16.09.2019
1793 Clouds 17 1020 63 10000 3.6 280 21:37 16.09.2019
1794 Clouds 18 1020 63 10000 3.6 280 21:18 16.09.2019
1795 Clear 18 1020 63 10000 3.1 310 20:41 16.09.2019
1796 Clouds 19 1020 63 10000 2.26 340.979 20:23 16.09.2019
1797 Clear 19 1019 56 10000 3.6 350 19:58 16.09.2019
1798 Clouds 19 1019 59 10000 3.1 300 19:39 16.09.2019
1799 Clouds 20 1019 59 10000 3.1 300 19:20 16.09.2019
1800 Clear 20 1019 46 10000 4.6 270 18:56 16.09.2019
1801 Clouds 20 1019 55 10000 3.6 300 18:37 16.09.2019
1802 Clear 21 1020 59 10000 2.6 310 18:18 16.09.2019
1803 Rain 22 1020 52 10000 4.6 290 17:42 16.09.2019
1804 Rain 22 1019 49 10000 2.6 300 17:24 16.09.2019
1805 Clear 22 1020 40 10000 5.1 270 16:58 16.09.2019
1806 Clouds 23 1020 48 10000 3.6 270 16:38 16.09.2019
1807 Clouds 23 1020 43 10000 3.1 260 16:20 16.09.2019
1808 Clear 23 1020 36 10000 4.1 280 15:56 16.09.2019
1809 Clouds 23 1020 45 10000 4.1 260 15:37 16.09.2019
1810 Clouds 23 1020 40 10000 2.6 260 15:19 16.09.2019
1811 Clouds 23 1020 43 10000 3.1 270 14:44 16.09.2019
1812 Clouds 23 1020 40 10000 3.6 280 14:24 16.09.2019
1813 Drizzle 23 1020 40 10000 3.1 240 13:59 16.09.2019
1814 Clouds 23 1021 48 10000 3.6 250 13:39 16.09.2019
1815 Clouds 22 1021 52 10000 3.6 230 13:21 16.09.2019
1816 Clear 21 1021 43 10000 3.6 260 12:46 16.09.2019
1817 Clouds 21 1021 55 10000 3.1 230 12:27 16.09.2019
1818 Clear 20 1021 55 10000 2.1 0 11:58 16.09.2019
1819 Clouds 20 1021 63 10000 3.1 260 11:40 16.09.2019
1820 Clouds 19 1021 59 10000 1.5 250 11:21 16.09.2019
1821 Clouds 18 1021 77 10000 2.6 250 10:40 16.09.2019
1822 Clouds 18 1021 77 10000 2.6 250 10:40 16.09.2019
1823 Clouds 17 1021 67 10000 1.63 216.891 10:21 16.09.2019
1824 Clear 16 1021 72 10000 1 0 09:58 16.09.2019
1825 Clouds 15 1021 76 10000 1.5 280 09:40 16.09.2019
1826 Clouds 15 1021 76 10000 1.5 280 09:40 16.09.2019
1827 Clear 13 1021 71 10000 0.98 351.986 09:20 16.09.2019
1828 Clear 12 1021 71 10000 1.5 40 08:47 16.09.2019
1829 Clear 11 1021 81 10000 0.38 49.905 08:28 16.09.2019
1830 Clear 10 1021 67 10000 2.6 50 07:57 16.09.2019
1831 Clouds 10 1021 81 10000 1.5 300 07:38 16.09.2019
1832 Clouds 10 1021 81 10000 0.38 49.905 07:20 16.09.2019
1833 Clear 10 1021 76 10000 2.1 140 06:48 16.09.2019
1834 Clouds 10 1021 81 10000 0.38 49.905 06:30 16.09.2019
1835 Clouds 10 1021 71 10000 3.1 20 05:54 16.09.2019
1836 Clear 11 1022 71 10000 1.05 7.091 05:35 16.09.2019
1837 Clouds 11 1022 58 10000 2.1 50 04:55 16.09.2019
1838 Clear 11 1022 71 10000 1.05 7.091 03:33 16.09.2019
1839 Clear 13 1023 54 10000 1 40 00:44 16.09.2019
1840 Clear 13 1023 55 10000 1.46 14.987 00:26 16.09.2019
1841 Clear 14 1023 51 10000 1 0 23:56 15.09.2019
1842 Clouds 14 1023 54 10000 1.5 310 23:37 15.09.2019
1843 Clouds 14 1023 54 10000 1.5 310 23:37 15.09.2019
1844 Clear 15 1023 58 10000 2.19 347.074 23:18 15.09.2019
1845 Clear 15 1023 58 10000 2.19 347.074 23:18 15.09.2019
1846 Clouds 15 1023 44 10000 0.5 300 22:39 15.09.2019
1847 Clear 16 1023 55 10000 2.19 347.074 22:19 15.09.2019
1848 Clear 17 1023 55 10000 3.1 330 21:56 15.09.2019
1849 Clouds 17 1023 39 10000 2.1 340 21:38 15.09.2019
1850 Clear 18 1023 52 10000 1.5 310 21:19 15.09.2019
1851 Clear 19 1022 49 10000 2.6 270 20:45 15.09.2019
1852 Clear 19 1022 43 10000 2.71 336.338 20:26 15.09.2019
1853 Clear 21 1022 40 10000 3.1 280 19:58 15.09.2019
1854 Clear 21 1022 40 10000 2.1 320 19:40 15.09.2019
1855 Clear 22 1022 38 10000 2.6 310 19:22 15.09.2019
1856 Clear 23 1022 40 10000 2.1 300 18:40 15.09.2019
1857 Clear 25 1022 44 10000 2.6 200 18:22 15.09.2019
1858 Clear 25 1023 36 10000 3.1 270 17:56 15.09.2019
1859 Clear 25 1022 33 10000 3.6 260 17:36 15.09.2019
1860 Clear 25 1022 38 10000 2.81 293.284 17:18 15.09.2019
1861 Clear 25 1023 43 10000 3.6 270 16:42 15.09.2019
1862 Clear 25 1023 38 10000 3.1 200 16:22 15.09.2019
1863 Clear 25 1024 36 10000 4.6 280 15:58 15.09.2019
1864 Clear 25 1024 46 10000 4.6 220 15:38 15.09.2019
1865 Clear 25 1024 46 10000 4.6 220 15:38 15.09.2019
1866 Clear 25 1024 38 10000 3.6 220 15:19 15.09.2019
1867 Clear 25 1025 38 10000 4.1 240 14:56 15.09.2019
1868 Clear 24 1024 49 10000 3.6 240 14:38 15.09.2019
1869 Clear 24 1024 46 10000 3.1 220 14:19 15.09.2019
1870 Clear 24 1025 49 10000 2.1 0 13:45 15.09.2019
1871 Clear 23 1025 53 10000 2.6 210 13:24 15.09.2019
1872 Clear 22 1025 53 10000 2.1 260 12:55 15.09.2019
1873 Clear 22 1025 56 10000 2.1 250 12:36 15.09.2019
1874 Clear 21 1025 56 10000 3.1 230 12:18 15.09.2019
1875 Clear 20 1025 63 10000 2.6 250 11:42 15.09.2019
1876 Clear 19 1026 59 10000 1.5 260 11:22 15.09.2019
1877 Clear 19 1026 63 10000 1.5 0 10:56 15.09.2019
1878 Clear 18 1025 67 10000 2.1 240 10:38 15.09.2019
1879 Clear 17 1026 67 10000 1.71 268.529 10:20 15.09.2019
1880 Clear 16 1026 72 10000 2.6 260 09:40 15.09.2019
1881 Clear 14 1026 76 10000 0.68 346.721 09:20 15.09.2019
1882 Clear 11 1026 82 10000 1.5 30 08:47 15.09.2019
1883 Clear 10 1026 87 10000 0.67 337.898 08:28 15.09.2019
1884 Clear 10 1025 76 10000 2.1 50 07:51 15.09.2019
1885 Clear 9 1025 87 10000 0.67 337.898 07:33 15.09.2019
1886 Clear 10 1025 76 10000 0.67 337.898 06:43 15.09.2019
1887 Clear 11 1026 62 10000 0.07 183.521 04:38 15.09.2019
1888 Clouds 12 1027 67 10000 3.6 50 02:55 15.09.2019
1889 Haze 12 1027 76 4400 0.46 43.428 01:58 15.09.2019
1890 Haze 12 1028 66 8000 0.56 33.833 01:35 15.09.2019
1891 Clear 13 1028 66 10000 2.6 20 00:56 15.09.2019
1892 Clear 13 1028 58 10000 2.6 30 00:36 15.09.2019
1893 Clear 13 1028 62 10000 2.6 10 00:18 15.09.2019
1894 Clear 13 1028 67 10000 1.5 110 23:54 14.09.2019
1895 Clear 13 1028 67 10000 1.5 110 23:54 14.09.2019
1896 Clear 14 1028 66 10000 1.5 20 23:36 14.09.2019
1897 Clear 14 1028 62 10000 2.6 40 23:18 14.09.2019
1898 -273 0 0 0 0 0 22:55 14.09.2019
1899 -273 0 0 0 0 0 22:36 14.09.2019
1900 Clear 15 1029 51 10000 2.1 80 22:18 14.09.2019
1901 Clear 16 1029 55 10000 2.6 30 21:40 14.09.2019
1902 Clear 16 1029 55 10000 2.6 30 21:20 14.09.2019
1903 Clear 17 1028 59 10000 3.6 30 20:56 14.09.2019
1904 Clear 17 1029 48 10000 2.6 40 20:38 14.09.2019
1905 Clear 18 1029 55 10000 3.1 30 20:20 14.09.2019
1906 Clear 19 1028 52 10000 3.6 40 19:46 14.09.2019
1907 Clear 20 1029 49 10000 2.6 30 19:22 14.09.2019
1908 Clear 21 1028 46 10000 4.1 40 18:57 14.09.2019
1909 Clear 21 1029 42 10000 2.6 50 18:38 14.09.2019
1910 Clear 22 1029 46 10000 2.6 10 18:19 14.09.2019
1911 Clear 23 1029 49 10000 1 0 17:44 14.09.2019
1912 Clear 23 1029 46 10000 3.6 40 17:24 14.09.2019
1913 Clear 23 1029 43 10000 3.6 40 16:54 14.09.2019
1914 Clear 22 1030 48 10000 3.1 80 16:36 14.09.2019
1915 Clear 23 1030 46 10000 2.6 350 16:18 14.09.2019
1916 Clear 23 1031 52 10000 2.1 100 15:41 14.09.2019
1917 Clear 23 1030 52 10000 4.1 50 15:22 14.09.2019
1918 Clear 23 1030 52 10000 4.1 50 15:22 14.09.2019
1919 Clear 22 1030 49 10000 2.6 80 14:54 14.09.2019
1920 Clear 22 1032 59 10000 2.6 70 14:36 14.09.2019
1921 Clear 22 1031 52 10000 3.6 80 14:18 14.09.2019
1922 Clear 21 1031 52 10000 3.6 90 13:44 14.09.2019
1923 Clear 21 1031 56 10000 2.6 50 13:20 14.09.2019
1924 Clear 20 1033 63 10000 2.1 90 12:45 14.09.2019
1925 Clear 19 1033 63 10000 4.1 50 12:23 14.09.2019
1926 Clouds 18 1033 72 10000 3.6 70 11:41 14.09.2019
1927 Clouds 18 1033 72 10000 3.6 70 11:41 14.09.2019
1928 Clear 18 1033 67 10000 4.6 60 11:20 14.09.2019
1929 Clouds 17 1033 76 10000 3.6 30 10:40 14.09.2019
1930 Clouds 17 1033 76 10000 3.6 30 10:40 14.09.2019
1931 Clear 16 1033 77 10000 4.1 50 10:22 14.09.2019
1932 Clear 15 1032 82 10000 5.7 50 09:59 14.09.2019
1933 Clouds 15 1033 81 10000 3.6 90 09:40 14.09.2019
1934 Clear 14 1033 82 10000 5.1 50 09:21 14.09.2019
1935 Clear 13 1033 87 10000 5.7 50 08:59 14.09.2019
1936 Clouds 13 1033 87 10000 3.6 70 08:41 14.09.2019
1937 Clear 12 1033 87 10000 3.6 60 08:21 14.09.2019
1938 Clear 11 1033 100 10000 2.6 60 07:43 14.09.2019
1939 Clear 11 1033 93 10000 3.6 40 07:23 14.09.2019
1940 Clear 12 1032 87 10000 4.1 40 06:36 14.09.2019
1941 Clouds 12 1032 87 10000 5.7 50 05:55 14.09.2019
1942 Clouds 12 1032 87 10000 5.1 50 04:43 14.09.2019
1943 Clear 13 1033 87 10000 1.5 60 03:32 14.09.2019
1944 Clouds 13 1033 87 10000 2.6 30 02:48 14.09.2019
1945 Clouds 14 1033 87 10000 4.6 40 01:45 14.09.2019
1946 Clouds 14 1034 82 10000 3.6 10 01:20 14.09.2019
1947 Clouds 14 1033 87 10000 3.6 10 00:55 14.09.2019
1948 Clouds 14 1033 77 10000 4.6 30 00:36 14.09.2019
1949 Clear 15 1033 87 10000 3.1 10 00:18 14.09.2019
1950 Clouds 14 1034 82 10000 2.6 10 23:37 13.09.2019
1951 Clear 15 1034 87 10000 3.1 30 23:18 13.09.2019
1952 Clouds 15 1033 87 10000 4.1 30 22:56 13.09.2019
1953 Clouds 15 1034 87 10000 2.6 10 22:37 13.09.2019
1954 Clouds 15 1034 87 10000 2.6 10 22:37 13.09.2019
1955 Clear 15 1033 87 10000 3.1 30 22:19 13.09.2019
1956 Clouds 15 1034 82 10000 2.6 30 21:40 13.09.2019
1957 Clouds 16 1033 87 10000 2.1 20 21:19 13.09.2019
1958 Clouds 16 1033 82 10000 2.1 300 20:58 13.09.2019
1959 Rain 17 1033 82 10000 2.6 40 20:39 13.09.2019
1960 Clear 17 1033 77 10000 1.5 70 20:20 13.09.2019
1961 Clouds 18 1032 68 10000 2.1 310 19:56 13.09.2019
1962 Rain 18 1033 77 10000 2.6 90 19:37 13.09.2019
1963 Clouds 19 1032 64 10000 2.1 320 19:19 13.09.2019
1964 Clouds 20 1033 68 10000 2.1 50 18:55 13.09.2019
1965 Rain 20 1033 72 10000 2.6 60 18:36 13.09.2019
1966 Clouds 20 1032 68 10000 2.1 330 18:18 13.09.2019
1967 Rain 20 1033 68 10000 3.1 360 17:38 13.09.2019
1968 Clouds 20 1032 64 10000 3.6 360 17:19 13.09.2019
1969 Clouds 21 1033 60 10000 3.1 250 16:41 13.09.2019
1970 Clouds 20 1033 60 10000 3.1 250 16:21 13.09.2019
1971 Clouds 20 1033 72 10000 2.1 350 15:57 13.09.2019
1972 Rain 20 1033 64 10000 2.6 320 15:39 13.09.2019
1973 Clouds 20 1033 64 10000 1.5 250 15:20 13.09.2019
1974 Clouds 20 1033 72 10000 3.6 340 14:43 13.09.2019
1975 Clouds 20 1033 68 10000 2.6 270 14:22 13.09.2019
1976 Clouds 20 1033 68 10000 2.1 300 13:56 13.09.2019
1977 Clouds 19 1033 64 10000 4.1 300 13:37 13.09.2019
1978 Clouds 19 1033 64 10000 4.1 300 13:18 13.09.2019
1979 Clouds 18 1033 77 10000 2.6 260 12:41 13.09.2019
1980 Clouds 18 1033 77 10000 2.6 260 12:23 13.09.2019
1981 Clouds 18 1033 77 10000 2.6 270 11:55 13.09.2019
1982 Clouds 17 1033 87 10000 2.1 230 11:19 13.09.2019
1983 Clouds 17 1033 93 10000 2.6 220 10:40 13.09.2019
1984 Clouds 16 1033 93 10000 2.6 220 10:20 13.09.2019
1985 Clouds 16 1033 93 10000 2.6 260 09:46 13.09.2019
1986 Clouds 16 1032 87 10000 2.6 230 09:25 13.09.2019
1987 Clouds 15 1032 93 10000 3.1 280 08:59 13.09.2019
1988 Clouds 15 1032 100 10000 3.1 210 08:41 13.09.2019
1989 Clouds 15 1031 93 10000 2.28 275.169 08:21 13.09.2019
1990 Clouds 14 1032 93 10000 2.1 240 07:56 13.09.2019
1991 Clouds 14 1031 93 10000 1.5 270 07:38 13.09.2019
1992 Clouds 14 1032 93 10000 2.6 240 06:49 13.09.2019
1993 Clouds 14 1031 100 10000 1.5 230 05:50 13.09.2019
1994 Clouds 14 1030 100 10000 3.1 240 05:19 13.09.2019
1995 Clouds 14 1031 93 10000 4.6 280 03:41 13.09.2019
1996 Clouds 14 1031 93 10000 3.1 240 02:48 13.09.2019
1997 Clear 14 1031 87 10000 3.1 230 02:18 13.09.2019
1998 Clear 14 1031 87 10000 3.1 230 02:18 13.09.2019
1999 Clear 14 1031 87 10000 2.1 230 01:35 13.09.2019
2000 Clear 15 1031 88 10000 2.6 280 00:59 13.09.2019
2001 Clear 15 1031 77 10000 2.6 240 00:33 13.09.2019
2002 Clouds 16 1031 82 10000 3.1 250 23:42 12.09.2019
2003 Clouds 16 1031 77 10000 2.1 220 23:22 12.09.2019
2004 Clear 16 1032 82 10000 3.1 260 22:56 12.09.2019
2005 Clouds 17 1031 77 10000 2.6 260 22:37 12.09.2019
2006 Clouds 17 1031 68 10000 2.6 230 22:18 12.09.2019
2007 Clear 17 1032 77 10000 4.1 290 21:54 12.09.2019
2008 Clouds 17 1031 68 10000 3.1 240 21:36 12.09.2019
2009 Clouds 18 1031 68 10000 3.1 240 21:18 12.09.2019
2010 Clouds 18 1030 72 10000 3.1 230 20:41 12.09.2019
2011 Clouds 19 1030 72 10000 3.1 230 20:21 12.09.2019
2012 Clouds 19 1031 60 10000 5.1 260 19:57 12.09.2019
2013 Clouds 19 1030 68 10000 3.6 240 19:37 12.09.2019
2014 Clouds 20 1030 64 10000 5.1 230 19:19 12.09.2019
2015 Clouds 20 1030 64 10000 5.1 230 19:19 12.09.2019
2016 Clouds 20 1030 64 10000 5.1 230 19:19 12.09.2019
2017 Clouds 21 1030 64 10000 4.1 220 18:39 12.09.2019
2018 Clouds 21 1030 60 10000 5.7 230 18:21 12.09.2019
2019 Clouds 22 1030 60 10000 4.6 230 17:59 12.09.2019
2020 Clouds 22 1030 60 10000 4.6 240 17:39 12.09.2019
2021 Clouds 22 1030 64 10000 5.1 220 17:20 12.09.2019
2022 Clouds 22 1030 64 10000 5.1 220 17:20 12.09.2019
2023 Drizzle 22 1030 60 10000 4.6 220 16:55 12.09.2019
2024 Clouds 21 1030 72 10000 4.1 230 16:36 12.09.2019
2025 Clouds 22 1030 60 10000 4.1 230 16:18 12.09.2019
2026 Clouds 21 1030 68 10000 5.1 240 15:39 12.09.2019
2027 Rain 21 1030 68 10000 6.7 220 15:21 12.09.2019
2028 Clouds 20 1030 72 10000 5.7 220 14:45 12.09.2019
2029 Drizzle 20 1030 72 10000 5.7 220 14:21 12.09.2019
2030 Drizzle 19 1030 72 10000 5.7 230 13:55 12.09.2019
2031 Clouds 19 1030 72 10000 5.1 240 13:37 12.09.2019
2032 Clouds 19 1030 77 10000 4.6 220 13:18 12.09.2019
2033 Drizzle 19 1031 100 10000 3.6 240 12:43 12.09.2019
2034 Drizzle 17 1030 82 10000 5.7 230 12:19 12.09.2019
2035 Drizzle 18 1030 88 10000 3.6 230 11:55 12.09.2019
2036 Drizzle 17 1030 93 10000 4.1 220 11:37 12.09.2019
2037 Drizzle 17 1030 93 10000 4.1 220 11:19 12.09.2019
2038 Mist 16 1030 100 10000 4.1 220 10:44 12.09.2019
2039 Mist 16 1029 100 10000 4.1 220 10:24 12.09.2019
2040 Mist 16 1029 93 800 2.6 230 09:44 12.09.2019
2041 Mist 15 1029 100 5000 4.1 230 09:23 12.09.2019
2042 Mist 15 1028 100 8000 3.1 220 08:58 12.09.2019
2043 Drizzle 15 1028 100 8000 3.1 220 08:40 12.09.2019
2044 Drizzle 14 1028 100 8000 3.1 220 08:21 12.09.2019
2045 Drizzle 14 1028 93 10000 3.1 230 07:39 12.09.2019
2046 Drizzle 14 1028 100 6000 2.1 210 07:19 12.09.2019
2047 Mist 14 1028 93 10000 2.6 230 06:50 12.09.2019
2048 Mist 14 1027 93 10000 3.1 220 06:19 12.09.2019
2049 Clouds 14 1028 100 6000 2.1 230 05:49 12.09.2019
2050 Clouds 14 1027 77 10000 2.6 230 05:30 12.09.2019
2051 Rain 14 1027 77 10000 3.1 230 04:35 12.09.2019
2052 Clouds 15 1026 63 10000 3.1 210 02:28 12.09.2019
2053 Clouds 15 1026 67 10000 2.1 240 01:36 12.09.2019
2054 Clouds 15 1026 67 10000 2.1 240 01:18 12.09.2019
2055 Clouds 15 1026 71 10000 4.1 230 00:42 12.09.2019
2056 Clouds 15 1026 63 10000 3.1 240 00:23 12.09.2019
2057 Clouds 15 1026 62 10000 4.6 240 23:42 11.09.2019
2058 Clouds 15 1026 63 10000 2.1 220 23:22 11.09.2019
2059 Clear 15 1026 59 10000 2.6 230 22:57 11.09.2019
2060 Clouds 15 1026 63 10000 3.6 210 22:37 11.09.2019
2061 Clouds 15 1026 63 10000 3.6 210 22:19 11.09.2019
2062 Clear 15 1026 55 10000 3.6 230 21:43 11.09.2019
2063 Clouds 16 1025 63 10000 2.6 220 21:25 11.09.2019
2064 Drizzle 16 1025 63 10000 3.6 230 20:58 11.09.2019
2065 Clouds 16 1025 67 10000 4.1 220 20:40 11.09.2019
2066 Clouds 16 1025 67 10000 4.1 220 20:20 11.09.2019
2067 Clouds 16 1025 67 10000 4.1 220 20:20 11.09.2019
2068 Clouds 17 1025 63 10000 3.6 230 19:58 11.09.2019
2069 Clouds 16 1024 62 10000 4.6 230 19:40 11.09.2019
2070 Rain 16 1024 59 10000 4.1 230 19:21 11.09.2019
2071 Rain 16 1025 55 10000 4.1 230 18:59 11.09.2019
2072 Rain 16 1024 62 10000 4.6 230 18:40 11.09.2019
2073 Clouds 18 1024 55 10000 5.1 230 18:22 11.09.2019
2074 Clouds 18 1024 51 10000 4.1 230 17:57 11.09.2019
2075 Clouds 18 1024 62 10000 4.6 260 17:38 11.09.2019
2076 Rain 17 1024 55 10000 5.7 240 17:20 11.09.2019
2077 Rain 17 1024 55 10000 5.1 230 16:54 11.09.2019
2078 Rain 17 1024 52 10000 7.2 220 16:36 11.09.2019
2079 Clouds 17 1024 52 10000 7.2 220 16:18 11.09.2019
2080 Clear 18 1024 48 10000 6.7 250 15:43 11.09.2019
2081 Clouds 18 1024 48 10000 7.7 210 15:20 11.09.2019
2082 Clear 18 1024 48 10000 7.7 250 14:57 11.09.2019
2083 Clouds 18 1024 51 10000 6.7 230 14:37 11.09.2019
2084 Clouds 19 1024 52 10000 5.7 210 14:18 11.09.2019
2085 Clouds 19 1024 51 10000 5.1 230 13:40 11.09.2019
2086 Clouds 19 1024 48 10000 4.1 220 13:22 11.09.2019
2087 Clear 18 1024 55 10000 2.6 200 12:59 11.09.2019
2088 Clouds 18 1024 51 10000 5.7 230 12:40 11.09.2019
2089 Clouds 17 1024 59 10000 2.6 230 12:20 11.09.2019
2090 Clouds 17 1024 58 10000 4.6 230 11:41 11.09.2019
2091 Clouds 16 1024 58 10000 2.6 240 11:22 11.09.2019
2092 Clear 15 1024 62 10000 2.1 190 10:59 11.09.2019
2093 Clouds 15 1024 62 10000 3.1 250 10:40 11.09.2019
2094 Clear 14 1024 66 10000 1.5 240 10:21 11.09.2019
2095 Clouds 13 1023 62 10000 2.6 260 09:40 11.09.2019
2096 Clear 11 1023 71 10000 0.61 227.408 09:20 11.09.2019
2097 Clouds 10 1023 81 10000 0.61 227.408 08:59 11.09.2019
2098 Clouds 9 1023 66 10000 3.1 260 08:39 11.09.2019
2099 Clouds 8 1023 81 10000 0.66 231.041 08:20 11.09.2019
2100 Clear 7 1022 71 10000 1 0 07:43 11.09.2019
2101 Clouds 7 1023 87 10000 0.66 231.041 07:23 11.09.2019
2102 Clouds 7 1022 87 10000 0.66 231.041 06:52 11.09.2019
2103 Clear 7 1022 93 10000 0.66 231.041 06:33 11.09.2019
2104 Clear 7 1022 76 10000 2.1 50 05:49 11.09.2019
2105 Clear 7 1022 87 10000 0.64 313.931 05:28 11.09.2019
2106 Clouds 7 1022 87 10000 1 0 04:46 11.09.2019
2107 Clouds 8 1022 66 10000 0.5 240 03:36 11.09.2019
2108 Clear 8 1022 71 10000 2.1 20 02:56 11.09.2019
2109 Clear 8 1021 76 10000 1.2 2.81 02:26 11.09.2019
2110 Clear 9 1021 62 10000 1.5 100 00:53 11.09.2019
2111 Clear 9 1021 71 10000 0.99 8.976 00:29 11.09.2019
2112 Clear 10 1023 62 10000 2.23 16.342 23:57 10.09.2019
2113 Clear 10 1021 54 10000 1.5 360 23:39 10.09.2019
2114 Clear 10 1021 62 10000 1.5 20 23:20 10.09.2019
2115 Clear 11 1021 66 10000 1.5 80 22:41 10.09.2019
2116 Clear 11 1021 62 10000 2.23 16.342 22:20 10.09.2019
2117 Clear 11 1020 54 10000 2.6 340 21:57 10.09.2019
2118 Clouds 12 1021 58 10000 2.6 40 21:38 10.09.2019
2119 Clear 12 1020 54 10000 3.1 360 21:20 10.09.2019
2120 Clear 13 1020 54 10000 2.1 330 20:58 10.09.2019
2121 Clouds 14 1020 62 10000 2.1 60 20:40 10.09.2019
2122 Clear 14 1019 51 10000 2.1 320 20:22 10.09.2019
2123 Clear 16 1019 42 10000 2.6 320 19:57 10.09.2019
2124 Clouds 16 1019 58 10000 2.6 60 19:38 10.09.2019
2125 Clear 17 1019 36 10000 2.52 14.306 19:20 10.09.2019
2126 Clouds 18 1021 48 10000 2.52 14.306 18:58 10.09.2019
2127 Clouds 18 1019 48 10000 3.1 60 18:39 10.09.2019
2128 Clouds 19 1019 32 10000 2.6 300 18:21 10.09.2019
2129 Clear 19 1019 37 10000 4.1 20 17:55 10.09.2019
2130 Clouds 19 1019 36 10000 2.1 330 17:37 10.09.2019
2131 Clouds 19 1018 28 10000 3.6 300 17:18 10.09.2019
2132 Clear 19 1018 37 10000 2.6 20 16:55 10.09.2019
2133 Clear 19 1018 37 10000 2.6 20 16:55 10.09.2019
2134 Clear 19 1018 37 10000 2.6 20 16:55 10.09.2019
2135 Clear 19 1018 37 10000 2.6 20 16:55 10.09.2019
2136 Clouds 19 1019 36 10000 2.1 290 16:37 10.09.2019
2137 Clear 19 1018 34 10000 2.1 190 16:18 10.09.2019
2138 Clear 19 1019 39 10000 2.1 0 15:43 10.09.2019
2139 Clear 19 1018 37 10000 3.1 230 15:21 10.09.2019
2140 Clear 19 1019 36 10000 1.5 0 14:55 10.09.2019
2141 Clouds 18 1018 44 10000 1 310 14:37 10.09.2019
2142 Clouds 19 1018 39 10000 1.61 270 14:19 10.09.2019
2143 Clouds 18 1018 45 10000 3.1 350 13:44 10.09.2019
2144 Clear 18 1018 42 10000 2.1 40 13:22 10.09.2019
2145 Clouds 17 1018 48 10000 2.6 90 12:51 10.09.2019
2146 Clear 17 1018 45 10000 1.5 280 12:28 10.09.2019
2147 Clouds 17 1018 51 10000 2.6 0 11:59 10.09.2019
2148 Clear 16 1018 58 10000 1.5 310 11:40 10.09.2019
2149 Clear 15 1018 58 10000 1.5 310 11:22 10.09.2019
2150 Clouds 14 1018 62 10000 1 280 10:43 10.09.2019
2151 Clear 13 1018 81 10000 0.74 4.428 10:21 10.09.2019
2152 Clear 12 1017 66 10000 3.1 50 09:59 10.09.2019
2153 Clear 12 1017 71 10000 1.5 270 09:41 10.09.2019
2154 Clear 10 1017 93 10000 1.13 18.483 09:19 10.09.2019
2155 Clear 10 1017 93 10000 1.13 18.483 09:19 10.09.2019
2156 Clear 8 1016 76 10000 0.5 0 08:47 10.09.2019
2157 Clear 7 1016 93 10000 0.92 26.203 08:29 10.09.2019
2158 Clear 6 1016 81 10000 3.1 50 07:56 10.09.2019
2159 Clear 6 1016 93 10000 0.92 26.203 07:38 10.09.2019
2160 Clear 6 1016 81 10000 3.1 40 07:20 10.09.2019
2161 Clear 6 1016 81 10000 3.1 40 06:39 10.09.2019
2162 Clear 6 1016 81 10000 3.1 30 06:20 10.09.2019
2163 Clouds 7 1015 76 10000 2.1 60 04:19 10.09.2019
2164 Clouds 7 1015 87 10000 0.73 35.831 02:39 10.09.2019
2165 Clouds 7 1015 87 10000 0.73 35.831 02:39 10.09.2019
2166 Clouds 8 1015 87 10000 0.73 35.831 02:20 10.09.2019
2167 Clouds 8 1015 87 10000 0.73 35.831 02:20 10.09.2019
2168 Clouds 8 1015 87 10000 0.73 35.831 02:20 10.09.2019
2169 Clear 8 1015 71 10000 1.5 60 01:50 10.09.2019
2170 Clouds 8 1015 87 10000 0.71 36.176 01:22 10.09.2019
2171 Clear 9 1015 81 10000 1.5 70 00:36 10.09.2019
2172 Clear 9 1015 66 10000 1.5 50 23:59 09.09.2019
2173 Clear 10 1015 66 10000 1.28 359.15 23:40 09.09.2019
2174 Clear 10 1015 62 10000 1.5 0 23:18 09.09.2019
2175 Clear 10 1015 62 10000 2.6 350 22:55 09.09.2019
2176 Clouds 10 1015 76 10000 1.5 80 22:37 09.09.2019
2177 Clouds 10 1015 76 10000 1.5 80 22:19 09.09.2019
2178 Clear 10 1015 66 10000 2.6 310 21:55 09.09.2019
2179 Clear 11 1015 71 10000 2.6 300 21:37 09.09.2019
2180 Clear 11 1015 71 10000 2.6 300 21:37 09.09.2019
2181 Clear 11 1015 71 10000 2.6 300 21:18 09.09.2019
2182 Clear 12 1015 62 10000 2.6 290 20:55 09.09.2019
2183 Clear 12 1014 54 10000 2.1 230 20:36 09.09.2019
2184 Clear 12 1015 58 10000 2.6 290 20:18 09.09.2019
2185 Clouds 13 1016 66 10000 2.59 280.398 19:56 09.09.2019
2186 Clear 14 1014 54 10000 2.6 300 19:37 09.09.2019
2187 Clouds 14 1014 51 10000 2.6 180 19:19 09.09.2019
2188 Clouds 14 1014 51 10000 2.6 180 19:19 09.09.2019
2189 Clouds 15 1014 51 10000 2.6 180 18:56 09.09.2019
2190 Clear 15 1014 44 10000 4.1 270 18:37 09.09.2019
2191 Clouds 16 1016 58 10000 2.1 250 18:19 09.09.2019
2192 Clouds 16 1014 58 10000 2.1 280 17:56 09.09.2019
2193 Clouds 16 1014 51 10000 3.1 210 17:38 09.09.2019
2194 Clouds 16 1014 51 10000 3.1 210 17:20 09.09.2019
2195 Clouds 16 1014 51 10000 3.1 210 17:20 09.09.2019
2196 Clouds 16 1015 44 10000 2.6 240 16:54 09.09.2019
2197 Clouds 16 1015 48 10000 2.6 220 16:36 09.09.2019
2198 Clouds 16 1016 54 10000 2.65 248.174 16:18 09.09.2019
2199 Clouds 16 1015 48 10000 3.6 210 15:42 09.09.2019
2200 Clouds 16 1015 48 10000 3.6 210 15:24 09.09.2019
2201 Clouds 17 1017 50 10000 3.17 249.91 14:58 09.09.2019
2202 Clouds 16 1015 48 10000 2.6 260 14:40 09.09.2019
2203 Clouds 16 1015 48 10000 2.6 260 14:21 09.09.2019
2204 Clouds 16 1017 58 10000 3.17 249.91 13:57 09.09.2019
2205 Clouds 16 1016 58 10000 3.1 220 13:39 09.09.2019
2206 Clouds 16 1017 58 10000 2.1 290 13:18 09.09.2019
2207 Clouds 15 1016 54 10000 3.6 240 12:54 09.09.2019
2208 Clouds 15 1016 54 10000 2.6 0 12:36 09.09.2019
2209 Clouds 14 1017 66 10000 2.1 310 12:18 09.09.2019
2210 Clouds 14 1016 76 10000 2.6 320 11:43 09.09.2019
2211 Clear 13 1016 71 10000 2.1 260 11:20 09.09.2019
2212 Mist 13 1017 81 10000 2.6 250 10:57 09.09.2019
2213 Fog 13 1017 87 10000 2.6 220 10:38 09.09.2019
2214 Fog 11 1017 81 10000 1.5 210 10:19 09.09.2019
2215 Mist 11 1016 100 2500 3.1 280 09:48 09.09.2019
2216 Mist 10 1017 93 10000 2.1 250 09:28 09.09.2019
2217 Mist 8 1017 93 10000 1 0 08:57 09.09.2019
2218 Fog 8 1017 100 10000 3.1 230 08:38 09.09.2019
2219 Fog 7 1017 93 10000 1 0 08:19 09.09.2019
2220 Fog 7 1017 93 10000 1 0 08:19 09.09.2019
2221 Fog 7 1017 100 10000 1.06 317.022 07:41 09.09.2019
2222 Clouds 7 1018 87 10000 2.1 280 07:21 09.09.2019
2223 Fog 7 1016 100 7000 2.6 280 06:54 09.09.2019
2224 Clouds 7 1017 87 10000 2.6 240 06:31 09.09.2019
2225 Fog 8 1016 93 10000 2.1 310 04:45 09.09.2019
2226 Fog 8 1018 87 10000 2.6 240 02:43 09.09.2019
2227 Fog 9 1017 100 500 2.6 290 01:47 09.09.2019
2228 Clouds 9 1018 87 10000 1.5 280 00:39 09.09.2019
2229 Clouds 10 1018 100 10000 3.1 310 00:20 09.09.2019
2230 Clouds 10 1018 93 10000 1.5 340 23:41 08.09.2019
2231 Clouds 10 1018 81 10000 1.5 290 23:23 08.09.2019
2232 Clouds 10 1018 93 10000 3.1 360 22:55 08.09.2019
2233 Rain 10 1018 81 10000 2.1 320 22:36 08.09.2019
2234 Rain 10 1018 100 10000 2.6 320 22:18 08.09.2019
2235 Rain 10 1018 87 10000 2.6 330 21:41 08.09.2019
2236 Rain 11 1018 81 10000 1.5 320 21:22 08.09.2019
2237 Rain 11 1018 87 10000 4.1 360 20:57 08.09.2019
2238 Rain 11 1018 76 10000 1.5 320 20:38 08.09.2019
2239 Rain 11 1018 76 10000 1.5 320 20:20 08.09.2019
2240 Rain 12 1018 76 10000 2.6 320 19:57 08.09.2019
2241 Rain 12 1018 76 10000 4.1 330 19:37 08.09.2019
2242 Rain 12 1018 93 10000 4.6 350 19:19 08.09.2019
2243 Rain 12 1018 93 10000 4.6 350 18:57 08.09.2019
2244 Rain 12 1018 93 10000 5.1 340 18:38 08.09.2019
2245 Rain 13 1018 76 10000 4.1 300 18:18 08.09.2019
2246 Rain 13 1018 76 10000 4.1 300 17:54 08.09.2019
2247 Rain 13 1018 82 10000 3.1 310 17:36 08.09.2019
2248 Rain 13 1018 81 10000 4.61 5.162 17:18 08.09.2019
2249 Rain 13 1018 81 10000 4.61 5.162 17:18 08.09.2019
2250 Clouds 14 1018 87 10000 1.5 210 16:43 08.09.2019
2251 Clouds 14 1018 87 10000 1.5 210 16:22 08.09.2019
2252 Drizzle 13 1018 76 10000 4.61 5.162 15:58 08.09.2019
2253 Rain 14 1018 71 10000 2.6 310 15:40 08.09.2019
2254 Rain 13 1018 71 10000 2.6 310 15:21 08.09.2019
2255 Rain 14 1018 81 10000 2.94 351.285 14:56 08.09.2019
2256 Rain 14 1018 81 10000 3.1 50 14:37 08.09.2019
2257 Rain 14 1018 81 10000 3.1 50 14:19 08.09.2019
2258 Clouds 13 1018 71 10000 4.6 60 13:55 08.09.2019
2259 Rain 14 1018 72 10000 6.2 40 13:36 08.09.2019
2260 Rain 14 1018 100 10000 2.6 340 13:18 08.09.2019
2261 Rain 14 1018 67 10000 4.6 330 12:41 08.09.2019
2262 Rain 13 1018 67 10000 4.6 330 12:23 08.09.2019
2263 Rain 13 1019 71 10000 4.6 340 11:58 08.09.2019
2264 Rain 13 1019 71 10000 4.6 340 11:58 08.09.2019
2265 Mist 12 1018 76 10000 2.6 360 11:38 08.09.2019
2266 Mist 12 1018 76 10000 2.6 360 11:20 08.09.2019
2267 Rain 12 1019 76 10000 2.1 350 10:57 08.09.2019
2268 Rain 12 1018 87 10000 3.1 340 10:39 08.09.2019
2269 Mist 12 1018 87 10000 3.1 340 10:21 08.09.2019
2270 Mist 11 1018 93 10000 2.1 10 09:38 08.09.2019
2271 Mist 11 1018 93 10000 2.1 10 09:20 08.09.2019
2272 Mist 11 1018 93 10000 2.6 340 08:56 08.09.2019
2273 Mist 10 1018 93 10000 2.38 1.565 08:38 08.09.2019
2274 Rain 10 1018 100 10000 2.38 1.565 08:18 08.09.2019
2275 Rain 10 1018 100 10000 2.38 1.565 08:18 08.09.2019
2276 Rain 10 1018 100 10000 2.1 250 07:39 08.09.2019
2277 Rain 10 1018 100 10000 1.5 250 07:20 08.09.2019
2278 Rain 10 1018 100 10000 1.5 250 06:53 08.09.2019
2279 Rain 10 1018 93 10000 5.1 340 06:31 08.09.2019
2280 Rain 10 1018 100 10000 1.5 260 05:38 08.09.2019
2281 Mist 9 1019 93 10000 4.1 330 03:56 08.09.2019
2282 Rain 10 1019 93 10000 1.5 250 02:59 08.09.2019
2283 Rain 10 1019 100 10000 1.79 338.781 02:26 08.09.2019
2284 Mist 10 1019 93 10000 3.6 340 01:52 08.09.2019
2285 Rain 10 1019 93 10000 2.23 329.844 01:22 08.09.2019
2286 Rain 10 1019 93 10000 2.23 329.844 00:45 08.09.2019
2287 Rain 10 1019 93 10000 2.23 329.844 00:27 08.09.2019
2288 Rain 10 1019 100 10000 2.1 260 23:39 07.09.2019
2289 Rain 10 1019 100 10000 2.1 260 23:21 07.09.2019
2290 Mist 10 1020 100 6000 2.1 260 22:58 07.09.2019
2291 Fog 11 1020 100 10000 2.23 331.826 22:39 07.09.2019
2292 Fog 11 1020 100 10000 2.23 331.826 22:20 07.09.2019
2293 Clouds 11 1020 100 10000 2.23 331.826 21:45 07.09.2019
2294 Clouds 11 1020 100 10000 2.23 331.826 21:26 07.09.2019
2295 Rain 11 1019 100 10000 2.02 5.823 20:59 07.09.2019
2296 Rain 11 1019 100 10000 1.5 348.339 20:39 07.09.2019
2297 Rain 12 1019 100 10000 1.5 348.339 20:20 07.09.2019
2298 Rain 12 1019 82 10000 2.1 130 19:55 07.09.2019
2299 Rain 12 1019 100 10000 1.5 348.339 19:37 07.09.2019
2300 Rain 13 1019 100 10000 1.5 348.339 19:19 07.09.2019
2301 Rain 13 1019 100 10000 1.5 348.339 18:56 07.09.2019
2302 Rain 13 1019 93 10000 2.6 20 18:37 07.09.2019
2303 Rain 14 1019 93 10000 2.1 10 18:18 07.09.2019
2304 Rain 14 1019 93 10000 2.1 10 17:56 07.09.2019
2305 Drizzle 14 1019 87 10000 2.48 323.26 17:38 07.09.2019
2306 Rain 14 1019 87 10000 2.1 340 17:18 07.09.2019
2307 Rain 14 1019 100 10000 3.6 290 16:43 07.09.2019
2308 Rain 14 1019 100 10000 3.6 290 16:23 07.09.2019
2309 Rain 14 1019 100 5000 3.1 290 15:58 07.09.2019
2310 Rain 14 1019 100 5000 2.6 250 15:39 07.09.2019
2311 Rain 13 1019 100 5000 2.6 250 15:21 07.09.2019
2312 Rain 14 1019 93 10000 4.1 190 14:55 07.09.2019
2313 Rain 14 1019 93 10000 4.1 190 14:55 07.09.2019
2314 Rain 14 1019 93 10000 4.1 220 14:36 07.09.2019
2315 Rain 14 1019 93 10000 2.6 270 14:18 07.09.2019
2316 Rain 13 1019 82 10000 1.5 340 13:44 07.09.2019
2317 Rain 14 1019 87 10000 2.1 120 13:25 07.09.2019
2318 Rain 13 1019 87 10000 2.1 110 12:55 07.09.2019
2319 Rain 13 1019 100 10000 1.5 210 12:37 07.09.2019
2320 Rain 13 1019 100 5000 2.84 205.752 12:19 07.09.2019
2321 Rain 12 1019 93 10000 3.1 260 11:41 07.09.2019
2322 Rain 12 1019 93 10000 3.1 260 11:41 07.09.2019
2323 Rain 12 1019 100 10000 1.5 250 11:22 07.09.2019
2324 Rain 12 1019 93 1300 3.1 250 10:42 07.09.2019
2325 Rain 12 1019 100 10000 3.1 240 10:23 07.09.2019
2326 Rain 12 1019 100 10000 2.6 230 09:59 07.09.2019
2327 Rain 11 1019 100 900 2.6 250 09:41 07.09.2019
2328 Rain 11 1019 100 10000 3.1 230 09:22 07.09.2019
2329 Rain 11 1019 100 10000 3.1 220 08:55 07.09.2019
2330 Rain 11 1019 100 10000 3.1 220 08:36 07.09.2019
2331 Rain 10 1019 87 10000 3.1 240 08:18 07.09.2019
2332 Rain 10 1019 93 6000 2.6 230 07:43 07.09.2019
2333 Rain 10 1019 93 10000 2.1 210 07:22 07.09.2019
2334 Rain 10 1019 93 10000 2.19 220.559 06:42 07.09.2019
2335 Rain 10 1019 81 10000 1.59 214.029 05:40 07.09.2019
2336 Rain 11 1020 81 10000 4.1 250 04:26 07.09.2019
2337 Clouds 10 1019 66 10000 1.5 250 03:41 07.09.2019
2338 Clouds 11 1020 62 10000 1.5 230 02:22 07.09.2019
2339 Clouds 11 1020 62 10000 1.01 270.057 01:33 07.09.2019
2340 Clear 11 1021 54 10000 2.1 260 00:55 07.09.2019
2341 Clouds 11 1021 54 10000 1.5 290 00:36 07.09.2019
2342 Clear 12 1021 58 10000 2.1 260 00:18 07.09.2019
2343 Clear 12 1021 58 10000 2.1 230 23:38 06.09.2019
2344 Clear 12 1021 58 10000 2.1 230 23:20 06.09.2019
2345 Clear 12 1022 58 10000 3.1 280 22:57 06.09.2019
2346 Clear 12 1021 54 10000 2.1 240 22:37 06.09.2019
2347 Clear 12 1021 50 10000 3.1 230 22:18 06.09.2019
2348 Clear 13 1022 54 10000 3.6 290 21:56 06.09.2019
2349 Clear 13 1021 50 10000 2.6 230 21:37 06.09.2019
2350 Clear 13 1022 51 10000 3.6 280 21:19 06.09.2019
2351 Clear 14 1021 51 10000 3.6 280 20:54 06.09.2019
2352 Clear 14 1021 44 10000 3.6 270 20:36 06.09.2019
2353 Clear 15 1021 47 10000 1.5 260 20:18 06.09.2019
2354 Clear 15 1021 47 10000 1.5 260 20:18 06.09.2019
2355 Clouds 16 1021 44 10000 2.6 220 19:42 06.09.2019
2356 Clear 17 1022 39 10000 3.6 280 19:24 06.09.2019
2357 Clear 18 1022 39 10000 3.6 280 18:58 06.09.2019
2358 Clear 18 1022 39 10000 4.6 300 18:39 06.09.2019
2359 Clear 18 1022 39 10000 4.6 300 18:21 06.09.2019
2360 Clear 19 1022 36 10000 4.1 280 17:56 06.09.2019
2361 Clear 19 1022 34 10000 2.1 210 17:37 06.09.2019
2362 Clouds 19 1022 45 10000 2.6 300 17:18 06.09.2019
2363 Clear 19 1022 37 10000 3.1 260 16:38 06.09.2019
2364 Clear 19 1023 37 10000 2.1 0 16:18 06.09.2019
2365 Clear 18 1023 41 10000 2.6 250 15:41 06.09.2019
2366 Clear 18 1023 39 10000 2.1 260 15:23 06.09.2019
2367 Clouds 18 1024 39 10000 2.1 0 14:48 06.09.2019
2368 Clear 18 1024 42 10000 1.97 244.36 14:20 06.09.2019
2369 Clouds 17 1024 42 10000 2.1 0 13:55 06.09.2019
2370 Clear 17 1024 42 10000 2.1 270 13:37 06.09.2019
2371 Clouds 17 1024 51 10000 1 0 13:18 06.09.2019
2372 Clouds 16 1025 51 10000 2.6 130 12:38 06.09.2019
2373 Clouds 15 1025 58 10000 1 0 12:18 06.09.2019
2374 Clouds 15 1025 58 10000 1.5 0 11:54 06.09.2019
2375 Clear 14 1025 62 10000 0.51 165.445 11:36 06.09.2019
2376 Clear 14 1025 66 10000 1 0 11:18 06.09.2019
2377 Clear 13 1026 81 10000 2.1 70 10:40 06.09.2019
2378 Clear 12 1026 81 10000 2.1 70 10:21 06.09.2019
2379 Clear 11 1026 81 10000 3.6 70 09:57 06.09.2019
2380 Clear 10 1026 87 10000 1.5 80 09:36 06.09.2019
2381 Clear 9 1026 93 10000 2.6 30 09:18 06.09.2019
2382 Clouds 8 1026 93 10000 1 30 08:43 06.09.2019
2383 Clear 7 1026 93 10000 1.8 359.364 08:25 06.09.2019
2384 Clear 6 1026 87 10000 3.6 10 07:49 06.09.2019
2385 Clear 6 1026 93 10000 1.8 359.364 07:28 06.09.2019
2386 Clear 6 1025 87 10000 3.1 30 06:58 06.09.2019
2387 Clear 6 1025 87 10000 3.1 30 06:28 06.09.2019
2388 Clouds 6 1025 100 10000 2.1 340 05:43 06.09.2019
2389 Clouds 7 1025 87 10000 2.1 360 04:54 06.09.2019
2390 Clouds 7 1025 87 10000 3.1 360 04:19 06.09.2019
2391 Clear 8 1026 87 10000 1.5 320 02:40 06.09.2019
2392 Clear 9 1026 87 10000 3.6 340 00:51 06.09.2019
2393 Clear 10 1026 81 10000 3.6 340 23:58 05.09.2019
2394 Clear 10 1026 76 10000 2.15 345.368 23:40 05.09.2019
2395 Clear 10 1026 76 10000 2.15 345.368 23:21 05.09.2019
2396 Clear 10 1025 76 10000 1.5 340 22:45 05.09.2019
2397 Clouds 10 1025 71 10000 1.5 300 22:25 05.09.2019
2398 Clouds 11 1025 71 10000 2.6 320 21:57 05.09.2019
2399 Clouds 11 1025 66 10000 1.5 350 21:38 05.09.2019
2400 Clouds 12 1025 66 10000 1.5 350 21:20 05.09.2019
2401 Clouds 13 1024 62 10000 2.6 300 20:58 05.09.2019
2402 Clouds 13 1024 62 10000 3.1 290 20:38 05.09.2019
2403 Clear 13 1024 71 10000 4.1 330 20:20 05.09.2019
2404 Clouds 13 1023 67 10000 3.6 310 19:57 05.09.2019
2405 Clear 14 1024 67 10000 4.1 340 19:39 05.09.2019
2406 Clouds 14 1023 62 10000 5.1 300 19:19 05.09.2019
2407 Clear 14 1023 62 10000 6.7 320 18:43 05.09.2019
2408 Clear 15 1023 62 10000 6.7 320 18:25 05.09.2019
2409 Clouds 15 1023 58 10000 7.2 330 17:59 05.09.2019
2410 Clouds 16 1023 67 10000 4.6 310 17:39 05.09.2019
2411 Clouds 16 1023 67 10000 4.6 310 17:21 05.09.2019
2412 Drizzle 16 1022 67 10000 4.1 300 16:57 05.09.2019
2413 Clouds 16 1022 58 10000 6.2 310 16:39 05.09.2019
2414 Clouds 16 1021 58 10000 7.2 330 16:18 05.09.2019
2415 Clouds 17 1022 52 10000 4.6 300 15:40 05.09.2019
2416 Clouds 17 1022 52 10000 4.6 300 15:19 05.09.2019
2417 Clouds 17 1022 52 10000 4.6 300 15:19 05.09.2019
2418 Clouds 17 1022 52 10000 4.6 300 15:19 05.09.2019
2419 Clouds 17 1022 51 10000 5.1 330 14:57 05.09.2019
2420 Clouds 17 1021 51 10000 4.1 290 14:38 05.09.2019
2421 Clouds 16 1021 51 10000 4.1 290 14:19 05.09.2019
2422 Clouds 16 1020 62 10000 3.6 290 13:43 05.09.2019
2423 Rain 17 1021 59 10000 4.6 310 13:21 05.09.2019
2424 Clouds 16 1020 58 10000 3.6 310 12:46 05.09.2019
2425 Clouds 15 1020 62 10000 5.1 270 12:27 05.09.2019
2426 Clouds 15 1020 62 10000 5.1 270 11:58 05.09.2019
2427 Clouds 14 1020 63 10000 5.7 250 11:40 05.09.2019
2428 Clouds 14 1021 82 10000 3.1 0 11:19 05.09.2019
2429 Clouds 14 1020 76 10000 3.1 240 10:42 05.09.2019
2430 Clouds 13 1020 76 10000 3.1 240 10:23 05.09.2019
2431 Clouds 13 1020 82 10000 4.1 240 09:58 05.09.2019
2432 Clouds 12 1019 87 10000 2.6 210 09:40 05.09.2019
2433 Clouds 12 1020 87 10000 4.1 260 09:19 05.09.2019
2434 Clouds 11 1018 87 10000 3.1 260 08:46 05.09.2019
2435 Clouds 11 1019 93 10000 2.6 240 08:27 05.09.2019
2436 Clouds 10 1018 93 10000 2.6 230 07:48 05.09.2019
2437 Clouds 10 1018 93 10000 2.6 230 07:29 05.09.2019
2438 Clouds 10 1018 93 10000 2.1 240 06:58 05.09.2019
2439 Clouds 10 1018 87 10000 4.1 270 06:33 05.09.2019
2440 Clouds 10 1018 87 10000 2.6 300 05:59 05.09.2019
2441 Clouds 10 1017 87 10000 2.1 240 05:37 05.09.2019
2442 Clear 10 1017 93 10000 2.1 260 05:19 05.09.2019
2443 Clouds 10 1017 87 10000 2.6 230 04:29 05.09.2019
2444 Clouds 10 1017 87 10000 2.1 240 03:41 05.09.2019
2445 Clouds 11 1018 87 10000 2.1 270 02:54 05.09.2019
2446 Clear 12 1017 81 10000 3.6 240 02:28 05.09.2019
2447 Rain 12 1016 81 10000 2.6 270 01:42 05.09.2019
2448 Rain 13 1016 76 10000 4.1 270 00:51 05.09.2019
2449 Rain 13 1017 82 10000 4.6 290 00:23 05.09.2019
2450 Rain 14 1017 82 10000 5.1 290 23:59 04.09.2019
2451 Rain 15 1017 87 10000 3.1 250 23:39 04.09.2019
2452 Clouds 15 1017 87 10000 3.1 250 23:19 04.09.2019
2453 Rain 15 1017 87 10000 3.1 260 22:47 04.09.2019
2454 Rain 15 1017 87 10000 3.1 260 22:19 04.09.2019
2455 Drizzle 15 1016 82 10000 4.6 260 21:55 04.09.2019
2456 Drizzle 15 1016 82 10000 4.6 260 21:55 04.09.2019
2457 Drizzle 15 1016 82 10000 4.6 260 21:55 04.09.2019
2458 Clouds 16 1016 82 10000 4.1 270 21:37 04.09.2019
2459 Clouds 16 1016 77 10000 5.7 310 21:18 04.09.2019
2460 Clouds 17 1016 87 10000 4.1 280 20:54 04.09.2019
2461 Rain 18 1016 72 10000 4.6 280 20:36 04.09.2019
2462 Clouds 18 1017 52 10000 2.6 260 20:18 04.09.2019
2463 Clear 18 1016 49 10000 6.2 290 19:39 04.09.2019
2464 Clouds 19 1015 46 10000 5.1 220 19:21 04.09.2019
2465 Clear 21 1015 46 10000 6.7 280 18:42 04.09.2019
2466 Clear 22 1015 46 10000 6.7 280 18:24 04.09.2019
2467 Clear 22 1015 46 10000 6.7 280 18:24 04.09.2019
2468 Clouds 22 1015 46 10000 5.7 220 17:59 04.09.2019
2469 Clear 23 1015 43 10000 7.2 240 17:40 04.09.2019
2470 Clear 23 1015 43 10000 7.2 240 17:21 04.09.2019
2471 Clear 23 1016 41 10000 7.2 240 16:56 04.09.2019
2472 Clear 23 1015 43 10000 6.2 230 16:38 04.09.2019
2473 Clear 23 1016 40 10000 6.7 260 16:19 04.09.2019
2474 Clear 23 1016 43 10000 5.1 230 15:40 04.09.2019
2475 Clear 23 1016 43 10000 5.1 230 15:22 04.09.2019
2476 Clear 23 1016 43 10000 5.1 230 15:22 04.09.2019
2477 Clouds 22 1017 46 10000 6.2 270 14:58 04.09.2019
2478 Clouds 22 1017 46 10000 7.7 230 14:38 04.09.2019
2479 Clouds 22 1017 46 10000 7.7 230 14:20 04.09.2019
2480 Clouds 21 1018 49 10000 5.1 220 13:58 04.09.2019
2481 Clouds 21 1018 49 10000 5.1 220 13:39 04.09.2019
2482 Clouds 21 1018 49 10000 5.1 220 13:21 04.09.2019
2483 Clouds 20 1018 52 10000 5.7 230 12:44 04.09.2019
2484 Clouds 20 1018 52 10000 5.7 230 12:26 04.09.2019
2485 Clouds 19 1019 52 10000 5.1 240 11:58 04.09.2019
2486 Clear 19 1019 55 10000 5.1 240 11:39 04.09.2019
2487 Clear 18 1019 55 10000 5.1 240 11:20 04.09.2019
2488 Clear 18 1019 63 10000 3.1 240 10:56 04.09.2019
2489 Clear 17 1019 76 10000 2.6 230 10:38 04.09.2019
2490 Clear 16 1019 67 10000 2.6 230 10:19 04.09.2019
2491 Clouds 15 1019 87 10000 2.1 260 09:45 04.09.2019
2492 Clear 13 1020 82 10000 2.1 250 09:21 04.09.2019
2493 Clouds 12 1020 87 10000 2.1 280 08:43 04.09.2019
2494 Clear 11 1020 93 10000 1.5 270 08:24 04.09.2019
2495 Clear 10 1020 81 10000 1.5 210 07:59 04.09.2019
2496 Clear 10 1020 93 10000 1.12 220.623 07:36 04.09.2019
2497 Clear 9 1020 93 10000 1.12 220.623 06:59 04.09.2019
2498 Clear 9 1020 87 10000 1.5 220 06:39 04.09.2019
2499 Clouds 10 1021 81 10000 1 90 04:55 04.09.2019
2500 Clear 10 1021 93 10000 0.72 184.949 04:23 04.09.2019
2501 Clouds 11 1022 87 10000 1.5 350 03:21 04.09.2019
2502 Clear 12 1023 82 10000 1.5 10 01:20 04.09.2019
2503 Clear 12 1023 76 10000 2.6 350 00:45 04.09.2019
2504 Clear 12 1023 76 10000 2.6 350 00:27 04.09.2019
2505 Clear 13 1023 76 10000 2.1 340 23:52 03.09.2019
2506 Clear 13 1024 72 10000 3.6 320 23:27 03.09.2019
2507 Clear 13 1024 72 10000 3.6 320 22:57 03.09.2019
2508 Clear 13 1024 67 10000 3.1 300 22:38 03.09.2019
2509 Clear 14 1024 67 10000 3.1 300 22:20 03.09.2019
2510 Clear 14 1024 67 10000 3.6 310 21:54 03.09.2019
2511 Clear 15 1023 63 10000 2.1 310 21:36 03.09.2019
2512 Clouds 16 1024 67 10000 3.1 20 21:18 03.09.2019
2513 Clear 17 1024 59 10000 4.1 280 20:41 03.09.2019
2514 Clear 18 1024 59 10000 4.1 280 20:21 03.09.2019
2515 Clear 19 1023 55 10000 4.6 280 19:55 03.09.2019
2516 Clear 19 1024 52 10000 3.6 290 19:37 03.09.2019
2517 Clear 20 1023 49 10000 3.1 290 19:18 03.09.2019
2518 Clear 20 1024 49 10000 3.6 300 18:43 03.09.2019
2519 Clear 21 1024 49 10000 3.6 300 18:25 03.09.2019
2520 Clear 21 1024 49 10000 3.6 300 18:25 03.09.2019
2521 Clear 21 1023 46 10000 3.6 280 17:57 03.09.2019
2522 Clear 21 1023 40 10000 3.91 304.418 17:39 03.09.2019
2523 Clear 21 1024 49 10000 3.1 300 17:19 03.09.2019
2524 Clouds 21 1024 45 10000 3.6 260 16:44 03.09.2019
2525 Clear 21 1024 38 10000 2.6 260 16:23 03.09.2019
2526 Clear 22 1025 46 10000 4.6 250 15:59 03.09.2019
2527 Clear 21 1024 40 10000 4.1 240 15:39 03.09.2019
2528 Clear 21 1024 40 10000 4.1 240 15:21 03.09.2019
2529 Clear 21 1025 43 10000 4.6 250 14:58 03.09.2019
2530 Clear 21 1025 43 10000 3.1 290 14:40 03.09.2019
2531 Clear 21 1025 43 10000 3.1 290 14:20 03.09.2019
2532 Clear 20 1025 45 10000 4.6 260 13:56 03.09.2019
2533 Clear 20 1025 42 10000 3.6 240 13:37 03.09.2019
2534 Clear 20 1025 42 10000 3.6 240 13:19 03.09.2019
2535 Clear 20 1026 42 10000 5.7 240 12:48 03.09.2019
2536 Clear 19 1026 42 10000 5.7 240 12:30 03.09.2019
2537 Clear 18 1027 45 10000 2.6 260 11:58 03.09.2019
2538 Clear 18 1026 52 10000 3.6 250 11:38 03.09.2019
2539 Clear 18 1026 52 10000 3.6 250 11:38 03.09.2019
2540 Clear 18 1026 52 10000 3.6 250 11:19 03.09.2019
2541 Clear 17 1027 45 10000 3.6 250 10:55 03.09.2019
2542 Clear 17 1026 58 10000 2.1 240 10:36 03.09.2019
2543 Clear 16 1027 48 10000 1.5 250 10:18 03.09.2019
2544 Clouds 15 1025 62 10000 2.6 260 09:42 03.09.2019
2545 Clear 13 1025 66 10000 0.81 255.655 09:24 03.09.2019
2546 Clear 11 1025 76 10000 1.5 250 08:41 03.09.2019
2547 Clear 10 1025 76 10000 1.5 250 08:23 03.09.2019
2548 Clear 9 1025 66 10000 3.1 300 07:58 03.09.2019
2549 Clouds 9 1025 76 10000 0.81 255.655 07:37 03.09.2019
2550 Clouds 9 1025 76 10000 0.81 255.655 07:37 03.09.2019
2551 Clear 9 1025 66 10000 2.6 300 07:19 03.09.2019
2552 Clear 8 1025 76 10000 3.1 290 06:43 03.09.2019
2553 Clear 9 1025 58 10000 2.1 270 05:36 03.09.2019
2554 Clouds 10 1025 66 10000 1.05 307.602 03:33 03.09.2019
2555 Clouds 11 1025 58 10000 1.5 190 02:43 03.09.2019
2556 Clouds 11 1025 62 10000 0.3 0.377 02:23 03.09.2019
2557 Clear 11 1025 62 10000 2.1 320 01:47 03.09.2019
2558 Clear 12 1025 62 10000 2.1 320 01:27 03.09.2019
2559 Clouds 12 1025 54 10000 0.59 303.154 00:40 03.09.2019
2560 Clouds 12 1027 50 10000 1.22 354.789 23:59 02.09.2019
2561 Clear 12 1025 58 10000 1.22 354.789 23:39 02.09.2019
2562 Clear 12 1025 58 10000 1.22 354.789 23:39 02.09.2019
2563 Clear 12 1025 51 10000 2.6 360 23:19 02.09.2019
2564 Clear 12 1025 51 10000 3.6 350 22:56 02.09.2019
2565 Clear 12 1025 51 10000 3.6 350 22:56 02.09.2019
2566 Clear 12 1025 47 10000 2.1 310 22:37 02.09.2019
2567 Clouds 13 1025 50 10000 1.5 320 22:19 02.09.2019
2568 Clear 14 1025 48 10000 3.1 330 21:56 02.09.2019
2569 Clear 14 1024 44 10000 2.1 320 21:38 02.09.2019
2570 Clear 15 1024 48 10000 2.6 330 21:19 02.09.2019
2571 Clear 15 1024 45 10000 2.6 350 20:55 02.09.2019
2572 Clear 16 1024 42 10000 1.5 290 20:37 02.09.2019
2573 Clear 17 1024 39 10000 2.6 340 20:18 02.09.2019
2574 Clear 17 1024 39 10000 2.6 340 19:55 02.09.2019
2575 Clear 18 1024 37 10000 3.1 310 19:37 02.09.2019
2576 Clear 19 1024 32 10000 2.6 310 19:18 02.09.2019
2577 Clear 19 1024 34 10000 3.6 310 18:38 02.09.2019
2578 Clear 19 1024 34 10000 3.6 310 18:38 02.09.2019
2579 Clear 20 1023 32 10000 4.1 290 18:20 02.09.2019
2580 Clear 20 1023 32 10000 4.1 290 17:56 02.09.2019
2581 Clear 20 1023 32 10000 2.1 300 17:38 02.09.2019
2582 Clear 20 1024 30 10000 4.6 280 17:19 02.09.2019
2583 Clouds 20 1024 36 10000 2.1 260 16:41 02.09.2019
2584 Clear 20 1023 32 10000 2.1 260 16:21 02.09.2019
2585 Clear 20 1024 32 10000 2.1 0 15:57 02.09.2019
2586 Clear 20 1024 32 10000 3.6 260 15:38 02.09.2019
2587 Clear 20 1024 32 10000 4.1 0 15:19 02.09.2019
2588 Clear 20 1024 37 10000 3.1 0 14:56 02.09.2019
2589 Clouds 20 1024 34 10000 4.6 310 14:37 02.09.2019
2590 Clouds 20 1025 36 10000 4.1 290 14:18 02.09.2019
2591 Clouds 19 1024 44 10000 2.1 300 13:44 02.09.2019
2592 Clouds 19 1024 39 10000 4.1 300 13:25 02.09.2019
2593 Clear 19 1024 39 10000 3.6 330 12:56 02.09.2019
2594 Clouds 19 1024 39 10000 1.5 280 12:38 02.09.2019
2595 Clouds 18 1025 48 10000 1.5 360 12:18 02.09.2019
2596 Clouds 18 1024 48 10000 3.1 360 11:55 02.09.2019
2597 Clear 18 1024 59 10000 2.38 333.015 11:36 02.09.2019
2598 Clouds 17 1024 58 10000 2.1 0 11:18 02.09.2019
2599 Clouds 16 1024 54 10000 3.1 40 10:42 02.09.2019
2600 Clear 15 1024 67 10000 2.38 333.015 10:22 02.09.2019
2601 Clear 15 1024 54 10000 3.1 50 09:58 02.09.2019
2602 Clear 15 1024 54 10000 3.1 50 09:58 02.09.2019
2603 Clear 14 1023 76 10000 2.1 280 09:38 02.09.2019
2604 Clear 13 1023 76 10000 2.1 280 09:20 02.09.2019
2605 Clouds 11 1023 81 10000 2.1 260 08:43 02.09.2019
2606 Clear 10 1023 81 10000 1.7 352.615 08:22 02.09.2019
2607 Clear 9 1022 71 10000 3.6 30 07:57 02.09.2019
2608 Clear 9 1022 71 10000 3.6 30 07:37 02.09.2019
2609 Clouds 9 1022 71 10000 3.6 20 07:19 02.09.2019
2610 Clouds 9 1022 66 10000 3.6 30 06:42 02.09.2019
2611 Clouds 9 1022 87 10000 2.01 346.557 05:54 02.09.2019
2612 Clouds 10 1022 87 10000 2.01 346.557 05:26 02.09.2019
2613 Clear 10 1021 81 10000 1 0 04:48 02.09.2019
2614 Clear 11 1021 71 10000 1.74 333.185 02:29 02.09.2019
2615 Clear 11 1021 71 10000 3.6 10 01:41 02.09.2019
2616 Clear 11 1021 71 10000 3.6 10 01:41 02.09.2019
2617 Clear 12 1020 71 10000 4.1 340 00:42 02.09.2019
2618 Clear 12 1020 67 10000 2.6 340 00:20 02.09.2019
2619 Clouds 13 1020 67 10000 2.51 2.622 23:39 01.09.2019
2620 Clear 13 1020 62 10000 3.1 360 23:19 01.09.2019
2621 Clear 13 1020 62 10000 3.1 360 23:19 01.09.2019
2622 Clear 13 1019 62 10000 3.1 350 22:57 01.09.2019
2623 Clouds 13 1019 62 10000 2.1 340 22:38 01.09.2019
2624 Clouds 14 1019 71 10000 2.6 20 22:18 01.09.2019
2625 Clouds 14 1019 71 10000 2.6 20 22:18 01.09.2019
2626 Clear 14 1019 55 10000 3.6 340 21:54 01.09.2019
2627 Clear 15 1018 59 10000 2.6 320 21:36 01.09.2019
2628 Clouds 16 1018 72 10000 3.6 20 21:18 01.09.2019
2629 Clear 16 1018 55 10000 3.1 310 20:55 01.09.2019
2630 Clear 17 1018 55 10000 3.1 310 20:36 01.09.2019
2631 Clear 18 1017 48 10000 3.1 280 20:18 01.09.2019
2632 Clear 18 1017 45 10000 3.6 300 19:41 01.09.2019
2633 Clouds 18 1017 52 10000 2.6 360 19:21 01.09.2019
2634 Clear 19 1017 42 10000 3.6 290 18:57 01.09.2019
2635 Clear 19 1017 42 10000 3.1 300 18:38 01.09.2019
2636 Clouds 19 1016 45 10000 3.1 280 18:20 01.09.2019
2637 Clear 19 1017 42 10000 4.1 310 17:54 01.09.2019
2638 Clouds 20 1016 52 10000 4.6 270 17:36 01.09.2019
2639 Clouds 20 1017 59 10000 3.1 280 17:18 01.09.2019
2640 Clouds 19 1016 49 10000 4.1 240 16:39 01.09.2019
2641 Clouds 19 1016 59 10000 4.6 270 16:18 01.09.2019
2642 Clouds 20 1016 55 10000 3.1 290 15:45 01.09.2019
2643 Clouds 19 1016 49 10000 3.6 290 15:26 01.09.2019
2644 Clouds 19 1017 49 10000 4.6 280 14:56 01.09.2019
2645 Clouds 19 1016 49 10000 2.6 240 14:37 01.09.2019
2646 Clouds 19 1017 45 10000 4.6 260 14:19 01.09.2019
2647 Clouds 19 1016 82 10000 2.6 240 13:42 01.09.2019
2648 Clouds 19 1016 72 10000 2.6 240 13:23 01.09.2019
2649 Clouds 19 1016 77 10000 3.6 230 12:56 01.09.2019
2650 Clouds 19 1016 82 10000 4.1 220 12:37 01.09.2019
2651 Clouds 18 1016 87 10000 5.1 260 12:19 01.09.2019
2652 Clouds 17 1016 82 10000 4.1 200 11:40 01.09.2019
2653 Clouds 17 1016 82 10000 4.1 200 11:20 01.09.2019
2654 Clouds 17 1016 82 10000 4.1 230 10:57 01.09.2019
2655 Clouds 16 1015 82 10000 4.1 230 10:39 01.09.2019
2656 Clouds 16 1015 82 10000 4.1 230 10:20 01.09.2019
2657 Clouds 16 1015 77 10000 3.1 250 09:42 01.09.2019
2658 Clouds 15 1015 77 10000 3.1 250 09:24 01.09.2019
2659 Clouds 15 1014 82 10000 3.1 280 08:44 01.09.2019
2660 Clouds 15 1014 82 10000 3.6 250 08:23 01.09.2019
2661 Clouds 14 1014 82 10000 3.6 290 07:51 01.09.2019
2662 Clouds 14 1014 87 10000 3.1 270 07:33 01.09.2019
2663 Clouds 14 1013 82 10000 3.6 260 06:42 01.09.2019
2664 Clouds 15 1013 82 10000 3.6 260 06:23 01.09.2019
2665 Clear 15 1013 77 10000 3.1 260 05:39 01.09.2019
2666 Clear 15 1013 82 10000 2.6 270 04:29 01.09.2019
2667 Clouds 16 1012 72 10000 0.5 260 03:41 01.09.2019
2668 Clouds 17 1013 68 10000 3.6 300 02:57 01.09.2019
2669 Clouds 18 1012 82 10000 1.5 260 02:26 01.09.2019
2670 Clear 18 1012 64 10000 4.6 300 01:50 01.09.2019
2671 Clouds 19 1012 82 10000 2.1 290 01:22 01.09.2019
2672 Clouds 19 1012 88 10000 2.6 290 00:45 01.09.2019
2673 Clear 20 1011 73 10000 2.1 220 00:22 01.09.2019
2674 Thunderstorm 20 1011 77 10000 2.6 260 23:54 31.08.2019
2675 Thunderstorm 20 1011 100 10000 4.1 299.604 23:36 31.08.2019
2676 Rain 20 1012 82 10000 4.1 150 23:18 31.08.2019
2677 Rain 20 1011 88 10000 0.5 0 22:42 31.08.2019
2678 Rain 20 1011 83 10000 4.1 299.604 22:24 31.08.2019
2679 Thunderstorm 21 1011 64 10000 2.6 270 21:56 31.08.2019
2680 Thunderstorm 22 1011 73 10000 1.49 282.266 21:37 31.08.2019
2681 Thunderstorm 23 1012 78 10000 1.5 290 21:19 31.08.2019
2682 Rain 25 1011 47 10000 8.7 220 20:47 31.08.2019
2683 Rain 26 1011 47 10000 8.7 220 20:28 31.08.2019
2684 Drizzle 26 1010 39 10000 2.6 170 19:56 31.08.2019
2685 Thunderstorm 27 1011 39 10000 5.1 180 19:38 31.08.2019
2686 Thunderstorm 27 1011 39 10000 5.1 180 19:38 31.08.2019
2687 Clear 28 1011 35 10000 3.6 170 19:20 31.08.2019
2688 Clear 29 1011 37 10000 4.1 180 18:40 31.08.2019
2689 Clear 30 1011 29 10000 3.6 180 18:21 31.08.2019
2690 Clear 31 1011 37 10000 4.6 170 17:57 31.08.2019
2691 Clear 31 1012 31 10000 2.6 160 17:37 31.08.2019
2692 Clear 31 1012 31 10000 2.6 160 17:37 31.08.2019
2693 Clear 31 1012 35 10000 4.6 170 17:19 31.08.2019
2694 Clear 31 1012 35 10000 4.6 170 17:19 31.08.2019
2695 Clear 31 1012 35 10000 5.1 180 16:58 31.08.2019
2696 Clear 31 1013 31 10000 5.7 200 16:40 31.08.2019
2697 Clear 31 1013 31 10000 5.7 200 16:21 31.08.2019
2698 Clear 31 1013 33 10000 5.7 180 15:57 31.08.2019
2699 Clear 31 1014 35 10000 5.1 190 15:36 31.08.2019
2700 Clear 30 1015 42 10000 5.1 180 15:18 31.08.2019
2701 Clear 30 1015 47 10000 4.6 210 14:41 31.08.2019
2702 Clouds 30 1015 42 10000 4.1 190 14:22 31.08.2019
2703 Clear 29 1015 45 10000 5.1 190 13:42 31.08.2019
2704 Clear 29 1015 48 10000 4.6 190 13:23 31.08.2019
2705 Clear 28 1016 51 10000 4.1 160 12:59 31.08.2019
2706 Clear 28 1016 51 10000 4.1 160 12:40 31.08.2019
2707 Haze 26 1016 51 10000 4.1 160 12:20 31.08.2019
2708 Haze 26 1016 50 10000 3.6 120 11:56 31.08.2019
2709 Haze 25 1017 57 9000 1.5 120 11:38 31.08.2019
2710 Haze 25 1017 57 9000 1.5 120 11:20 31.08.2019
2711 Haze 23 1017 53 10000 4.1 160 10:43 31.08.2019
2712 Haze 22 1017 60 8000 1.5 80 10:19 31.08.2019
2713 Haze 21 1017 64 8000 1.5 70 10:00 31.08.2019
2714 Haze 20 1017 72 6000 1.78 180.964 09:39 31.08.2019
2715 Haze 19 1017 72 6000 0.49 99.23 09:21 31.08.2019
2716 Haze 18 1018 56 10000 2.1 100 08:45 31.08.2019
2717 Haze 16 1017 82 8000 0.49 99.23 08:27 31.08.2019
2718 Mist 15 1018 59 10000 2.1 100 07:43 31.08.2019
2719 Mist 14 1017 87 6000 3.6 60 07:23 31.08.2019
2720 Mist 14 1017 67 10000 3.6 40 06:56 31.08.2019
2721 Haze 14 1017 67 10000 3.6 50 06:23 31.08.2019
2722 Haze 14 1017 68 10000 2.1 60 05:49 31.08.2019
2723 Haze 14 1018 82 9000 3.1 80 05:27 31.08.2019
2724 Haze 14 1019 77 9000 0.74 90.31 04:28 31.08.2019
2725 Haze 15 1020 59 10000 2.1 80 03:42 31.08.2019
2726 Haze 15 1020 72 6000 1.2 40.612 02:20 31.08.2019
2727 Haze 15 1020 45 10000 2.6 20 01:47 31.08.2019
2728 Haze 15 1020 45 10000 2.6 20 01:28 31.08.2019
2729 Haze 15 1021 52 10000 2.1 10 00:45 31.08.2019
2730 Haze 16 1021 52 10000 2.1 10 00:26 31.08.2019
2731 Haze 16 1021 52 10000 2.1 10 00:26 31.08.2019
2732 Clear 16 1022 59 10000 2.6 40 23:48 30.08.2019
2733 Haze 17 1021 45 10000 3.1 340 23:19 30.08.2019
2734 Haze 17 1021 45 10000 3.1 340 23:19 30.08.2019
2735 Haze 17 1021 40 10000 2.1 340 22:58 30.08.2019
2736 Haze 17 1021 52 9000 1.74 18.976 22:38 30.08.2019
2737 Haze 18 1021 40 10000 3.1 330 22:19 30.08.2019
2738 Haze 18 1021 40 10000 3.1 330 21:56 30.08.2019
2739 Haze 19 1021 46 6000 2.1 340 21:36 30.08.2019
2740 Haze 20 1023 46 10000 1.54 309.491 21:18 30.08.2019
2741 Haze 20 1023 46 10000 1.54 309.491 21:18 30.08.2019
2742 Haze 21 1023 46 10000 1.54 309.491 20:56 30.08.2019
2743 Haze 22 1021 38 4400 2.1 320 20:37 30.08.2019
2744 Haze 23 1021 36 6000 1.5 290 20:18 30.08.2019
2745 Haze 23 1021 36 6000 1.5 290 19:55 30.08.2019
2746 Haze 23 1021 38 8000 1.5 280 19:36 30.08.2019
2747 Haze 24 1021 38 5000 1.5 250 19:18 30.08.2019
2748 Haze 25 1021 34 10000 2.6 280 18:44 30.08.2019
2749 Haze 26 1021 34 10000 2.6 280 18:24 30.08.2019
2750 Haze 27 1021 34 9000 2.1 250 17:56 30.08.2019
2751 Haze 26 1022 39 8000 3.1 260 17:38 30.08.2019
2752 Clear 27 1022 36 10000 2.6 0 17:19 30.08.2019
2753 Clouds 27 1023 47 10000 2.1 280 16:48 30.08.2019
2754 Clear 27 1022 41 10000 1.5 260 16:29 30.08.2019
2755 Clear 26 1023 39 10000 2.6 0 15:59 30.08.2019
2756 Clear 26 1023 44 10000 3.1 140 15:39 30.08.2019
2757 Clear 26 1023 44 10000 3.1 140 15:19 30.08.2019
2758 Clear 26 1023 44 10000 3.1 140 15:19 30.08.2019
2759 Clear 25 1023 49 10000 2.1 240 14:44 30.08.2019
2760 Clear 25 1023 50 10000 2.6 170 14:25 30.08.2019
2761 Clouds 25 1024 44 10000 2.6 0 13:56 30.08.2019
2762 Clouds 24 1024 56 10000 1.7 255.964 13:38 30.08.2019
2763 Clouds 24 1024 49 10000 2.1 70 13:20 30.08.2019
2764 Clouds 23 1024 56 10000 2.6 310 12:44 30.08.2019
2765 Clouds 22 1024 56 10000 2.6 310 12:25 30.08.2019
2766 Clouds 22 1024 68 10000 2.1 260 11:57 30.08.2019
2767 Clear 21 1024 68 10000 1.5 30 11:39 30.08.2019
2768 Clear 21 1024 68 10000 1.5 30 11:20 30.08.2019
2769 Haze 20 1024 72 10000 2.1 80 10:37 30.08.2019
2770 Haze 19 1024 72 10000 3.1 70 10:19 30.08.2019
2771 Haze 19 1026 82 9000 1.5 300 09:55 30.08.2019
2772 Mist 18 1024 82 10000 0.38 54.039 09:36 30.08.2019
2773 Mist 17 1025 88 8000 1.59 15.106 09:18 30.08.2019
2774 Mist 15 1024 87 10000 1 0 08:43 30.08.2019
2775 Mist 14 1023 93 10000 1.59 15.106 08:23 30.08.2019
2776 Mist 13 1024 87 10000 1.5 340 07:46 30.08.2019
2777 Mist 13 1023 87 10000 1.59 15.106 07:26 30.08.2019
2778 Mist 13 1023 93 10000 2.1 360 06:58 30.08.2019
2779 Mist 13 1023 87 10000 1.59 15.106 06:39 30.08.2019
2780 Mist 13 1023 93 10000 1.5 10 06:20 30.08.2019
2781 Mist 13 1023 87 10000 1.83 359.656 05:28 30.08.2019
2782 Clouds 14 1023 87 10000 1.5 10 03:56 30.08.2019
2783 Clouds 14 1023 82 10000 1.83 359.656 03:37 30.08.2019
2784 Clouds 15 1023 82 10000 1.77 357.078 02:41 30.08.2019
2785 Clouds 16 1023 77 10000 2.1 20 01:51 30.08.2019
2786 Clear 17 1023 77 10000 3.6 360 00:55 30.08.2019
2787 Clear 17 1023 77 10000 4.1 340 00:23 30.08.2019
2788 Clouds 18 1022 72 10000 2.05 332.572 23:48 29.08.2019
2789 Clear 18 1022 77 10000 1.5 20 23:48 29.08.2019
2790 Clouds 18 1022 72 10000 2.05 332.572 23:23 29.08.2019
2791 Clouds 18 1022 72 10000 2.05 332.572 23:23 29.08.2019
2792 Clouds 18 1022 72 10000 2.05 332.572 22:58 29.08.2019
2793 Clear 18 1022 68 10000 2.05 332.572 22:38 29.08.2019
2794 Clear 19 1022 68 10000 3.6 290 22:20 29.08.2019
2795 Clouds 19 1022 68 10000 2.1 20 21:42 29.08.2019
2796 Clear 20 1021 60 10000 4.1 280 21:21 29.08.2019
2797 Clear 21 1021 60 10000 4.1 280 20:59 29.08.2019
2798 Clear 21 1021 60 10000 4.1 280 20:59 29.08.2019
2799 Clear 21 1021 60 10000 4.1 280 20:41 29.08.2019
2800 Clouds 22 1021 60 10000 2.6 290 20:20 29.08.2019
2801 Clouds 23 1021 57 10000 2.1 280 19:57 29.08.2019
2802 Clear 24 1021 53 10000 5.7 270 19:38 29.08.2019
2803 Clouds 24 1020 50 10000 3.1 280 19:20 29.08.2019
2804 Clouds 25 1020 47 10000 4.1 240 18:41 29.08.2019
2805 Clouds 25 1020 44 10000 3.6 210 18:20 29.08.2019
2806 Clouds 26 1021 47 10000 4.1 270 17:56 29.08.2019
2807 Clouds 25 1021 47 10000 4.1 270 17:37 29.08.2019
2808 Clouds 26 1020 50 10000 3.04 268.623 17:19 29.08.2019
2809 Clouds 26 1020 53 10000 3.6 290 16:54 29.08.2019
2810 Clouds 26 1021 44 10000 5.1 270 16:36 29.08.2019
2811 Clouds 26 1022 60 10000 4.6 240 16:18 29.08.2019
2812 Clear 26 1020 47 10000 5.7 220 15:38 29.08.2019
2813 Clear 26 1020 47 10000 5.7 220 15:20 29.08.2019
2814 Clouds 26 1021 53 10000 5.7 250 14:50 29.08.2019
2815 Clouds 26 1020 51 10000 5.1 230 14:23 29.08.2019
2816 Clouds 25 1022 50 10000 5.1 260 13:59 29.08.2019
2817 Clouds 25 1020 57 10000 5.1 230 13:39 29.08.2019
2818 Clouds 25 1020 57 10000 5.1 230 13:20 29.08.2019
2819 Clouds 25 1022 57 10000 4.1 280 12:59 29.08.2019
2820 Clear 24 1020 57 10000 3.6 260 12:39 29.08.2019
2821 Clear 24 1020 57 10000 3.6 260 12:21 29.08.2019
2822 Clouds 24 1020 60 10000 4.1 250 11:59 29.08.2019
2823 Clouds 24 1020 73 10000 1.5 80 11:39 29.08.2019
2824 Clouds 23 1020 73 10000 1.5 80 11:20 29.08.2019
2825 Clouds 23 1020 73 10000 2.6 90 10:45 29.08.2019
2826 Clouds 22 1020 73 10000 2.6 90 10:25 29.08.2019
2827 Clouds 21 1019 77 10000 2.1 300 09:56 29.08.2019
2828 Clouds 21 1019 82 10000 1.47 285.017 09:38 29.08.2019
2829 Clear 20 1021 60 10000 2.1 250 09:18 29.08.2019
2830 Clouds 18 1019 77 10000 1 30 08:41 29.08.2019
2831 Clouds 18 1018 88 10000 0.8 214.449 08:23 29.08.2019
2832 Clear 18 1018 77 10000 2.6 290 07:53 29.08.2019
2833 Clear 17 1018 82 10000 0.8 214.449 07:30 29.08.2019
2834 Clear 18 1018 72 10000 2.6 270 06:56 29.08.2019
2835 Clouds 17 1017 82 10000 0.8 214.449 06:37 29.08.2019
2836 Clear 18 1017 72 10000 2.1 250 05:51 29.08.2019
2837 Rain 17 1017 77 10000 2.6 270 04:52 29.08.2019
2838 Clear 18 1017 77 10000 1.42 309.8 04:30 29.08.2019
2839 Rain 18 1017 77 10000 3.1 250 03:54 29.08.2019
2840 Clear 19 1017 68 10000 1 240 01:54 29.08.2019
2841 Clear 19 1017 64 10000 2.65 231.435 01:35 29.08.2019
2842 Rain 20 1018 60 10000 1 170 00:47 29.08.2019
2843 Clear 20 1018 64 10000 1 0 00:23 29.08.2019
2844 Clear 20 1017 60 10000 0.46 103.642 23:58 28.08.2019
2845 Clouds 21 1017 64 10000 0.46 103.642 23:38 28.08.2019
2846 Clouds 21 1017 64 10000 0.46 103.642 23:20 28.08.2019
2847 Rain 21 1017 57 10000 1.5 350 22:56 28.08.2019
2848 Clear 22 1017 53 10000 0.46 103.642 22:38 28.08.2019
2849 Clear 22 1017 60 10000 1.5 270 22:18 28.08.2019
2850 Clouds 22 1017 50 10000 1 300 21:41 28.08.2019
2851 Clear 23 1016 50 10000 1.5 270 21:23 28.08.2019
2852 Clear 24 1016 50 10000 2.6 310 20:56 28.08.2019
2853 Clear 24 1016 50 10000 2.6 310 20:38 28.08.2019
2854 Clear 25 1016 50 10000 2.6 310 20:20 28.08.2019
2855 Clear 26 1016 47 10000 3.1 290 19:42 28.08.2019
2856 Clear 27 1016 44 10000 2.6 270 19:22 28.08.2019
2857 Clear 27 1016 44 10000 2.6 270 18:59 28.08.2019
2858 Clear 28 1016 45 10000 4.1 300 18:39 28.08.2019
2859 Clear 28 1016 39 10000 4.1 290 18:21 28.08.2019
2860 Clear 29 1016 37 10000 2.6 200 17:39 28.08.2019
2861 Clouds 29 1016 35 10000 5.1 240 17:19 28.08.2019
2862 Clouds 29 1016 37 10000 4.1 240 16:55 28.08.2019
2863 Clear 29 1016 37 10000 4.1 230 16:37 28.08.2019
2864 Clear 29 1017 44 10000 4.1 290 16:18 28.08.2019
2865 Clear 29 1017 42 10000 3.6 220 15:38 28.08.2019
2866 Clear 29 1017 42 10000 3.6 220 15:20 28.08.2019
2867 Clear 28 1017 39 10000 2.1 0 14:58 28.08.2019
2868 Clouds 28 1017 48 10000 3.1 270 14:39 28.08.2019
2869 Clouds 28 1017 48 10000 3.1 270 14:20 28.08.2019
2870 Clear 28 1017 45 10000 3.1 210 13:59 28.08.2019
2871 Clouds 28 1017 54 10000 3.6 210 13:39 28.08.2019
2872 Clouds 28 1017 54 10000 3.6 210 13:39 28.08.2019
2873 Clear 27 1017 47 10000 3.1 270 13:20 28.08.2019
2874 Clouds 26 1017 60 10000 4.6 240 12:42 28.08.2019
2875 Clouds 26 1017 60 10000 3.6 220 12:24 28.08.2019
2876 Clear 25 1018 57 10000 3.1 250 11:59 28.08.2019
2877 Clouds 24 1017 56 10000 3.6 260 11:39 28.08.2019
2878 Clouds 23 1017 56 10000 3.6 260 11:20 28.08.2019
2879 -273 0 0 0 0 0 10:56 28.08.2019
2880 Rain 23 1017 73 10000 2.1 170 10:37 28.08.2019
2881 Rain 22 1017 73 10000 2.1 170 10:19 28.08.2019
2882 Rain 20 1017 68 10000 4.6 240 09:42 28.08.2019
2883 Rain 20 1017 77 10000 2.1 220 09:21 28.08.2019
2884 Rain 19 1017 77 10000 4.1 300 08:56 28.08.2019
2885 Rain 19 1017 72 10000 2.1 240 08:37 28.08.2019
2886 Rain 19 1017 64 10000 3.1 250 08:18 28.08.2019
2887 Clear 18 1017 68 10000 3.1 240 07:38 28.08.2019
2888 Clear 18 1017 68 10000 3.1 240 07:19 28.08.2019
2889 Clear 18 1016 68 10000 1 0 06:49 28.08.2019
2890 Clear 19 1016 68 10000 2.6 250 05:59 28.08.2019
2891 Clouds 19 1016 64 10000 2.6 230 04:49 28.08.2019
2892 Clear 19 1017 53 10000 2.1 200 02:18 28.08.2019
2893 Clouds 20 1016 72 10000 0.86 211.408 01:30 28.08.2019
2894 Clear 20 1016 56 10000 1 0 00:52 28.08.2019
2895 Clouds 20 1016 60 10000 0.86 211.408 00:33 28.08.2019
2896 Clear 21 1016 53 10000 1.5 10 23:57 27.08.2019
2897 Clear 21 1016 53 10000 1.5 70 23:38 27.08.2019
2898 Clear 21 1017 77 10000 1.5 140 23:19 27.08.2019
2899 Clouds 21 1017 60 10000 2.6 50 22:42 27.08.2019
2900 Clear 22 1016 47 10000 3.1 340 22:23 27.08.2019
2901 Clouds 22 1017 56 10000 1.5 230 21:57 27.08.2019
2902 Clear 23 1016 41 10000 0.89 62.8 21:38 27.08.2019
2903 Clear 23 1016 41 10000 0.89 62.8 21:38 27.08.2019
2904 Clear 23 1016 41 10000 0.43 150.816 21:20 27.08.2019
2905 Clouds 24 1016 42 10000 2.1 300 20:59 27.08.2019
2906 Thunderstorm 25 1016 39 10000 1.5 250 20:40 27.08.2019
2907 Thunderstorm 26 1016 35 10000 2.1 210 20:19 27.08.2019
2908 Rain 27 1015 35 10000 2.6 210 19:45 27.08.2019
2909 Rain 27 1015 35 10000 2.6 210 19:27 27.08.2019
2910 Rain 28 1015 32 10000 3.1 220 18:58 27.08.2019
2911 Clouds 29 1016 28 10000 2.6 200 18:39 27.08.2019
2912 Clouds 30 1016 29 10000 3.6 220 18:18 27.08.2019
2913 Clouds 30 1016 29 10000 3.6 220 17:55 27.08.2019
2914 Clear 30 1016 31 10000 1.26 190.729 17:37 27.08.2019
2915 Clear 31 1016 39 10000 2.1 0 17:18 27.08.2019
2916 Clouds 31 1016 35 10000 3.6 180 16:43 27.08.2019
2917 Clouds 31 1016 35 10000 3.6 180 16:24 27.08.2019
2918 Clear 31 1016 31 10000 3.6 140 15:57 27.08.2019
2919 Clear 31 1016 31 10000 3.6 140 15:57 27.08.2019
2920 Clear 31 1016 42 10000 1.5 120 15:38 27.08.2019
2921 Clear 31 1017 31 10000 4.6 150 15:19 27.08.2019
2922 Clear 31 1017 31 10000 4.6 150 15:19 27.08.2019
2923 Clouds 30 1017 42 10000 2.6 240 14:43 27.08.2019
2924 Clouds 30 1017 45 10000 2.1 180 14:24 27.08.2019
2925 Drizzle 30 1017 42 10000 1.5 150 13:57 27.08.2019
2926 Clear 30 1017 45 10000 2.6 110 13:38 27.08.2019
2927 Clouds 29 1017 42 10000 3.1 110 13:20 27.08.2019
2928 Clouds 29 1018 47 10000 2.6 130 12:41 27.08.2019
2929 Clouds 28 1018 51 10000 2.6 100 12:20 27.08.2019
2930 Clear 28 1018 54 10000 2.6 140 11:57 27.08.2019
2931 Clear 27 1018 54 10000 1.5 140 11:37 27.08.2019
2932 Clear 27 1018 54 10000 3.1 140 11:18 27.08.2019
2933 Clear 27 1018 54 10000 3.1 140 11:18 27.08.2019
2934 Clear 25 1018 69 10000 1.5 80 10:41 27.08.2019
2935 Clear 24 1018 69 10000 1.5 80 10:19 27.08.2019
2936 Clouds 24 1018 60 10000 2.6 60 09:55 27.08.2019
2937 Clear 23 1018 82 10000 1.5 130 09:37 27.08.2019
2938 Clouds 21 1018 69 10000 2.1 60 09:19 27.08.2019
2939 Clear 20 1018 88 10000 0.42 101.685 08:45 27.08.2019
2940 Clear 18 1018 88 10000 0.42 101.685 08:24 27.08.2019
2941 Clear 17 1017 88 10000 2.6 30 07:55 27.08.2019
2942 Clear 17 1017 93 10000 0.42 101.685 07:36 27.08.2019
2943 Clear 17 1017 93 10000 0.42 101.685 07:36 27.08.2019
2944 Clear 17 1017 82 10000 1.5 40 07:18 27.08.2019
2945 Clouds 17 1018 68 10000 2.1 80 06:44 27.08.2019
2946 Clear 17 1018 77 10000 3.1 160 06:19 27.08.2019
2947 Clear 17 1018 77 10000 3.1 160 06:19 27.08.2019
2948 Clear 17 1017 88 10000 0.85 49.705 05:28 27.08.2019
2949 Clear 18 1018 68 9000 2.1 80 03:44 27.08.2019
2950 -273 0 0 0 0 0 02:55 27.08.2019
2951 Rain 19 1018 64 9000 2.1 50 01:46 27.08.2019
2952 Clear 19 1018 73 10000 1.5 60 01:26 27.08.2019
2953 Clear 20 1019 64 10000 1.5 120 00:49 27.08.2019
2954 Clear 20 1018 68 10000 2.1 80 00:28 27.08.2019
2955 Rain 20 1019 60 10000 2.6 50 23:44 26.08.2019
2956 Clear 21 1018 64 10000 1.5 90 23:26 26.08.2019
2957 Clear 21 1019 60 10000 1.5 90 22:59 26.08.2019
2958 Clear 21 1018 60 10000 2.1 60 22:37 26.08.2019
2959 Clear 21 1018 60 10000 2.1 60 22:19 26.08.2019
2960 Clear 22 1018 53 10000 1.5 100 21:40 26.08.2019
2961 Clear 23 1017 57 10000 3.1 70 21:22 26.08.2019
2962 Clouds 24 1017 44 10000 1.5 350 20:59 26.08.2019
2963 Clouds 25 1017 44 10000 1.5 350 20:41 26.08.2019
2964 Clear 26 1017 51 10000 3.1 40 20:21 26.08.2019
2965 Clouds 27 1017 32 10000 1.5 170 19:59 26.08.2019
2966 Clouds 27 1017 32 10000 1.5 170 19:41 26.08.2019
2967 Clouds 28 1018 42 10000 1.5 120 19:19 26.08.2019
2968 -273 0 0 0 0 0 18:55 26.08.2019
2969 Rain 29 1019 53 10000 2.1 60 18:37 26.08.2019
2970 Rain 30 1018 42 10000 2.1 60 18:18 26.08.2019
2971 Clouds 30 1018 45 10000 2.6 110 17:43 26.08.2019
2972 Thunderstorm 30 1018 37 10000 1.5 190 17:19 26.08.2019
2973 Thunderstorm 31 1018 29 10000 2.6 170 16:57 26.08.2019
2974 Thunderstorm 31 1018 29 10000 2.6 170 16:38 26.08.2019
2975 Thunderstorm 30 1018 37 10000 3.6 100 16:18 26.08.2019
2976 Clear 30 1018 30 10000 3.6 140 15:42 26.08.2019
2977 Clear 30 1018 39 10000 3.1 170 15:22 26.08.2019
2978 Clear 30 1019 30 10000 3.1 170 14:58 26.08.2019
2979 Clear 30 1019 30 10000 3.1 170 14:39 26.08.2019
2980 Clear 30 1019 40 10000 3.6 160 14:21 26.08.2019
2981 Clear 30 1019 35 10000 3.1 0 13:43 26.08.2019
2982 Clear 29 1019 39 10000 2.1 70 13:23 26.08.2019
2983 Clear 29 1020 37 10000 2.6 0 12:57 26.08.2019
2984 Clear 29 1020 37 10000 2.6 0 12:39 26.08.2019
2985 Clear 28 1020 51 10000 1.5 140 12:20 26.08.2019
2986 Clear 27 1020 47 10000 2.6 120 11:38 26.08.2019
2987 Clear 27 1020 65 10000 2.6 120 11:20 26.08.2019
2988 Clear 26 1020 57 10000 2.6 70 10:57 26.08.2019
2989 Clear 25 1020 57 10000 2.6 70 10:39 26.08.2019
2990 Clear 24 1020 69 10000 2.1 100 10:19 26.08.2019
2991 Clear 23 1020 64 10000 3.1 60 09:42 26.08.2019
2992 Clear 21 1020 82 10000 1.07 34.556 09:24 26.08.2019
2993 Clear 20 1019 68 10000 4.1 50 08:58 26.08.2019
2994 Clear 19 1019 68 10000 4.1 50 08:39 26.08.2019
2995 Clear 18 1020 88 10000 1.07 34.556 08:21 26.08.2019
2996 Clear 17 1019 77 10000 2.6 40 07:44 26.08.2019
2997 Clear 16 1019 88 10000 1.07 34.556 07:25 26.08.2019
2998 Clear 16 1019 77 10000 3.6 30 06:58 26.08.2019
2999 Clear 16 1019 77 10000 3.6 30 06:39 26.08.2019
3000 Clear 17 1019 93 10000 2.1 90 06:18 26.08.2019
3001 Clear 17 1020 64 10000 1.5 100 05:33 26.08.2019
3002 Clear 17 1019 93 10000 2.1 120 04:22 26.08.2019
3003 Haze 18 1020 73 8000 2.1 360 02:40 26.08.2019
3004 Haze 18 1020 73 8000 2.1 360 02:40 26.08.2019
3005 Haze 19 1020 77 6000 1.89 21.56 01:23 26.08.2019
3006 Clear 19 1020 56 10000 3.1 20 00:45 26.08.2019
3007 Clear 19 1020 73 10000 3.1 100 00:26 26.08.2019
3008 Clear 20 1021 64 10000 2.1 60 23:45 25.08.2019
3009 Clear 20 1020 68 10000 2.44 18.004 23:21 25.08.2019
3010 Clear 20 1021 68 10000 1.5 50 22:59 25.08.2019
3011 Clear 21 1021 68 10000 1.5 50 22:40 25.08.2019
3012 Clear 21 1020 64 10000 2.44 18.004 22:21 25.08.2019
3013 Clear 22 1020 60 10000 2.6 330 21:58 25.08.2019
3014 Clear 22 1020 60 10000 2.6 330 21:40 25.08.2019
3015 Clouds 23 1020 57 10000 2.59 3.45 21:19 25.08.2019
3016 Clear 24 1020 50 10000 2.1 350 20:56 25.08.2019
3017 Clear 25 1020 50 10000 2.1 350 20:38 25.08.2019
3018 Clouds 26 1019 51 10000 1.5 10 20:19 25.08.2019
3019 Clear 27 1019 42 10000 3.1 340 19:55 25.08.2019
3020 Clear 28 1020 54 10000 2.1 340 19:36 25.08.2019
3021 Clear 28 1019 47 10000 2.6 40 19:18 25.08.2019
3022 -273 0 0 0 0 0 18:55 25.08.2019
3023 Clouds 28 1019 39 10000 2.59 3.45 18:37 25.08.2019
3024 Clouds 29 1019 39 10000 1.34 1.068 18:18 25.08.2019
3025 Clear 29 1019 37 10000 3.1 350 17:40 25.08.2019
3026 Clear 29 1019 37 10000 1.34 1.068 17:21 25.08.2019
3027 Clear 29 1019 37 10000 2.6 60 16:41 25.08.2019
3028 Clear 29 1019 42 10000 1.5 210 16:23 25.08.2019
3029 Clear 29 1020 39 10000 2.6 70 15:57 25.08.2019
3030 Clear 29 1020 39 10000 2.6 70 15:38 25.08.2019
3031 Clear 28 1020 45 10000 0.83 155.109 15:20 25.08.2019
3032 Clouds 28 1020 45 10000 2.1 50 14:40 25.08.2019
3033 Clouds 28 1020 47 10000 0.83 155.109 14:22 25.08.2019
3034 Clear 28 1020 47 10000 2.6 0 13:46 25.08.2019
3035 Clouds 27 1020 48 10000 2.1 200 13:22 25.08.2019
3036 Clear 27 1020 42 10000 2.6 110 12:57 25.08.2019
3037 Clear 27 1020 42 10000 2.6 110 12:39 25.08.2019
3038 Clouds 26 1020 54 10000 0.66 177.142 12:20 25.08.2019
3039 Clouds 26 1020 57 10000 0.66 177.142 11:57 25.08.2019
3040 Clear 26 1020 44 10000 1.5 0 11:37 25.08.2019
3041 Clouds 24 1020 60 10000 2.6 110 11:18 25.08.2019
3042 Clear 24 1020 47 10000 1.5 0 10:55 25.08.2019
3043 Clear 24 1020 47 10000 1.5 0 10:36 25.08.2019
3044 Clear 22 1020 64 10000 0.66 177.142 10:18 25.08.2019
3045 Clear 21 1020 53 10000 3.1 50 09:42 25.08.2019
3046 Clear 19 1020 68 10000 0.77 23.179 09:23 25.08.2019
3047 Clear 17 1020 56 10000 3.6 60 08:44 25.08.2019
3048 Clear 17 1020 56 10000 3.6 60 08:44 25.08.2019
3049 Clear 16 1020 72 10000 0.77 23.179 08:25 25.08.2019
3050 Clear 14 1019 63 10000 3.1 60 07:49 25.08.2019
3051 Clear 14 1020 68 10000 1 0 07:30 25.08.2019
3052 Clear 14 1019 63 10000 2.1 50 06:37 25.08.2019
3053 Clear 14 1019 82 10000 1.36 17.124 05:27 25.08.2019
3054 Clear 15 1019 55 10000 3.1 40 03:43 25.08.2019
3055 Clear 15 1019 55 10000 3.1 40 03:43 25.08.2019
3056 Clear 16 1019 59 10000 3.1 40 02:42 25.08.2019
3057 Clear 16 1020 56 10000 1.5 140 01:49 25.08.2019
3058 Clear 17 1020 52 10000 2.1 150 00:45 25.08.2019
3059 Clear 18 1020 52 10000 1.5 60 00:23 25.08.2019
3060 Clear 18 1020 46 10000 3.1 80 23:57 24.08.2019
3061 Clear 18 1020 46 10000 3.1 80 23:57 24.08.2019
3062 Clear 18 1020 46 10000 3.1 80 23:39 24.08.2019
3063 Clear 18 1020 52 10000 1.5 23.71 23:21 24.08.2019
3064 Clear 19 1020 43 10000 2.6 70 22:40 24.08.2019
3065 Clear 19 1020 56 10000 2.6 80 22:19 24.08.2019
3066 Clear 20 1020 47 10000 2.6 80 21:59 24.08.2019
3067 Clear 20 1020 47 10000 2.6 80 21:39 24.08.2019
3068 Clear 22 1020 49 10000 2.1 80 21:21 24.08.2019
3069 Clear 22 1020 43 10000 2.6 130 20:58 24.08.2019
3070 Clear 23 1019 39 10000 1.5 120 20:39 24.08.2019
3071 Clear 25 1020 44 10000 2.6 80 20:19 24.08.2019
3072 Clear 26 1019 39 10000 3.1 150 19:58 24.08.2019
3073 Clear 25 1019 39 10000 3.1 150 19:38 24.08.2019
3074 Clear 26 1020 32 10000 3.1 80 19:20 24.08.2019
3075 Clear 27 1019 39 10000 2.1 110 18:46 24.08.2019
3076 Clear 28 1020 30 10000 4.1 70 18:25 24.08.2019
3077 Clear 28 1020 39 10000 3.1 110 17:57 24.08.2019
3078 Clear 28 1020 39 10000 3.1 110 17:39 24.08.2019
3079 Clear 28 1020 26 10000 4.1 120 17:21 24.08.2019
3080 Clear 28 1020 39 10000 3.1 0 16:40 24.08.2019
3081 Clear 28 1021 36 10000 3.1 50 16:19 24.08.2019
3082 Clear 28 1021 42 10000 3.6 80 15:55 24.08.2019
3083 Clear 28 1021 42 10000 3.6 80 15:37 24.08.2019
3084 Clear 28 1021 39 10000 3.1 60 15:18 24.08.2019
3085 Clear 27 1021 42 10000 3.1 90 14:41 24.08.2019
3086 Clear 26 1021 41 10000 3.6 130 14:19 24.08.2019
3087 -273 0 0 0 0 0 13:55 24.08.2019
3088 Clear 26 1021 44 10000 3.6 0 13:37 24.08.2019
3089 Clear 26 1022 41 10000 5.1 110 13:18 24.08.2019
3090 Clear 26 1022 47 10000 3.6 130 12:42 24.08.2019
3091 Clear 25 1022 44 10000 5.1 100 12:24 24.08.2019
3092 Clear 24 1022 53 10000 3.1 60 11:56 24.08.2019
3093 Clear 24 1022 53 10000 3.1 60 11:38 24.08.2019
3094 Clear 23 1022 53 10000 3.1 80 11:18 24.08.2019
3095 Clear 22 1022 53 10000 4.1 60 10:43 24.08.2019
3096 Clear 21 1023 56 10000 3.1 80 10:22 24.08.2019
3097 Clear 20 1022 56 10000 4.1 60 09:44 24.08.2019
3098 Clear 18 1022 55 10000 1.57 41.128 09:20 24.08.2019
3099 Clear 16 1022 59 10000 5.1 40 08:56 24.08.2019
3100 Clear 15 1022 59 10000 5.1 40 08:36 24.08.2019
3101 Clear 14 1022 67 10000 3.1 70 08:18 24.08.2019
3102 Clear 13 1022 59 10000 3.6 40 07:41 24.08.2019
3103 Clear 13 1022 67 10000 2.1 110 07:22 24.08.2019
3104 Clear 12 1022 76 10000 2.6 90 06:24 24.08.2019
3105 Clear 13 1022 59 10000 3.6 30 05:40 24.08.2019
3106 Clouds 13 1022 55 10000 3.6 40 03:56 24.08.2019
3107 Clear 13 1023 51 10000 1.5 120 03:35 24.08.2019
3108 Clear 14 1023 71 10000 2.6 80 02:25 24.08.2019
3109 Clear 14 1023 71 10000 2.6 80 02:25 24.08.2019
3110 Clear 15 1023 52 10000 1.5 110 01:30 24.08.2019
3111 Clear 15 1023 45 10000 3.6 50 00:52 24.08.2019
3112 Clear 16 1023 52 10000 2.1 110 00:25 24.08.2019
3113 Clear 16 1023 45 10000 3.1 60 23:57 23.08.2019
3114 Clear 17 1023 45 10000 3.1 60 23:37 23.08.2019
3115 Clear 17 1023 48 10000 2.6 50 23:18 23.08.2019
3116 Clear 17 1023 49 10000 3.6 60 22:42 23.08.2019
3117 Clear 18 1023 49 10000 3.6 60 22:23 23.08.2019
3118 Clear 19 1024 40 10000 1 0 21:40 23.08.2019
3119 Clear 20 1023 49 10000 3.1 50 21:21 23.08.2019
3120 Clear 21 1023 40 10000 3.1 70 20:57 23.08.2019
3121 Clear 22 1023 40 10000 3.1 70 20:38 23.08.2019
3122 Clear 23 1023 43 10000 3.1 40 20:19 23.08.2019
3123 Clear 23 1023 43 10000 3.1 40 20:19 23.08.2019
3124 Clear 24 1023 31 10000 5.1 60 19:43 23.08.2019
3125 Clear 25 1023 31 10000 2.6 90 19:18 23.08.2019
3126 Clear 26 1023 32 10000 4.6 40 18:46 23.08.2019
3127 Clear 26 1023 32 10000 4.6 50 18:28 23.08.2019
3128 Clear 27 1023 34 10000 3.6 60 17:56 23.08.2019
3129 Clear 27 1023 34 10000 3.6 60 17:38 23.08.2019
3130 Clear 27 1024 30 10000 4.1 90 17:20 23.08.2019
3131 Clear 27 1024 34 10000 2.1 0 16:47 23.08.2019
3132 Clear 27 1024 34 10000 2.1 50 16:29 23.08.2019
3133 Clear 27 1024 39 10000 2.6 0 15:57 23.08.2019
3134 Clear 27 1024 39 10000 2.6 0 15:37 23.08.2019
3135 Clear 27 1025 39 10000 4.1 90 15:19 23.08.2019
3136 Clear 26 1025 41 10000 2.6 0 14:42 23.08.2019
3137 Clear 26 1025 38 10000 4.6 70 14:21 23.08.2019
3138 Clear 25 1025 38 10000 4.1 110 13:58 23.08.2019
3139 Clear 25 1025 38 10000 4.1 110 13:40 23.08.2019
3140 Clear 25 1026 38 10000 2.1 100 13:22 23.08.2019
3141 Clear 24 1026 44 10000 4.1 100 12:58 23.08.2019
3142 Clear 24 1026 44 10000 4.1 100 12:40 23.08.2019
3143 Clear 24 1026 44 10000 4.1 110 12:21 23.08.2019
3144 Clear 23 1026 53 10000 3.1 90 11:56 23.08.2019
3145 Clear 23 1026 53 10000 3.1 90 11:38 23.08.2019
3146 Clear 22 1026 53 10000 3.6 100 11:18 23.08.2019
3147 Clear 22 1026 53 10000 3.6 100 11:18 23.08.2019
3148 Clear 21 1026 52 10000 4.6 50 10:45 23.08.2019
3149 Clear 20 1026 63 10000 3.6 90 10:23 23.08.2019
3150 Clear 19 1026 55 10000 4.6 50 09:58 23.08.2019
3151 Clear 18 1026 55 10000 4.6 50 09:40 23.08.2019
3152 Clear 17 1026 67 10000 3.1 90 09:20 23.08.2019
3153 Clear 15 1026 59 10000 4.1 60 08:44 23.08.2019
3154 Clear 13 1026 87 10000 2.1 90 08:20 23.08.2019
3155 Clear 13 1026 63 10000 5.1 40 07:45 23.08.2019
3156 Clear 12 1026 87 10000 1.36 47.738 07:25 23.08.2019
3157 Clear 12 1026 63 10000 4.6 40 06:59 23.08.2019
3158 Clear 12 1026 63 10000 4.6 40 06:41 23.08.2019
3159 Clear 11 1026 87 10000 1.5 110 06:21 23.08.2019
3160 Clear 12 1026 63 10000 4.1 50 05:44 23.08.2019
3161 Clear 12 1026 81 10000 1.77 16.864 05:23 23.08.2019
3162 Clear 12 1026 63 10000 3.1 30 03:38 23.08.2019
3163 Clouds 13 1026 59 10000 2.6 40 02:37 23.08.2019
3164 Clear 13 1026 76 10000 1.74 28.16 02:19 23.08.2019
3165 Clear 14 1026 59 10000 2.1 30 00:57 23.08.2019
3166 Clear 14 1026 59 10000 2.1 30 00:37 23.08.2019
3167 Clear 15 1026 55 10000 2.3 9.695 00:18 23.08.2019
3168 Clear 15 1026 59 10000 2.1 30 23:40 22.08.2019
3169 Clear 15 1026 77 10000 2.6 80 23:21 22.08.2019
3170 Haze 16 1026 68 10000 2.6 10 22:42 22.08.2019
3171 Haze 16 1026 52 10000 2.1 10 22:23 22.08.2019
3172 Clear 17 1026 56 10000 3.1 350 21:58 22.08.2019
3173 Clear 18 1026 56 10000 3.1 350 21:40 22.08.2019
3174 Clear 18 1025 49 10000 1.96 353.657 21:22 22.08.2019
3175 Clear 20 1025 49 10000 2.6 340 20:58 22.08.2019
3176 Clear 21 1025 49 10000 2.6 340 20:39 22.08.2019
3177 Clear 22 1025 38 10000 1.5 90 20:20 22.08.2019
3178 Clear 22 1025 43 10000 3.6 330 19:56 22.08.2019
3179 Clear 23 1025 43 10000 3.6 330 19:38 22.08.2019
3180 Clear 23 1025 36 10000 2.6 80 19:20 22.08.2019
3181 Clear 24 1025 41 10000 2.6 60 18:57 22.08.2019
3182 Clear 24 1025 41 10000 2.6 60 18:39 22.08.2019
3183 Clear 25 1025 33 10000 1.5 70 18:19 22.08.2019
3184 Clear 25 1025 41 10000 2.1 100 17:54 22.08.2019
3185 Clear 25 1025 41 10000 2.1 100 17:36 22.08.2019
3186 Clear 24 1027 40 10000 1.36 3.119 17:18 22.08.2019
3187 Clear 25 1025 41 10000 2.6 100 16:56 22.08.2019
3188 Clear 25 1026 38 10000 1 0 16:37 22.08.2019
3189 Clear 25 1025 38 10000 1.5 170 16:18 22.08.2019
3190 Clear 25 1025 38 10000 1.5 170 16:18 22.08.2019
3191 Clear 25 1025 38 10000 1.5 170 16:18 22.08.2019
3192 Clear 25 1025 38 10000 1.5 170 16:18 22.08.2019
3193 Clear 25 1025 38 10000 1.5 170 16:18 22.08.2019
3194 Clear 24 1026 41 10000 1.5 0 15:41 22.08.2019
3195 Clear 24 1026 40 10000 1.5 170 15:23 22.08.2019
3196 Clear 24 1026 38 10000 3.1 20 14:58 22.08.2019
3197 Clear 23 1026 38 10000 3.1 20 14:40 22.08.2019
3198 Clear 23 1026 40 10000 2.1 90 14:20 22.08.2019
3199 Clear 23 1026 40 10000 2.1 90 14:20 22.08.2019
3200 Clear 23 1026 43 10000 2.6 160 13:57 22.08.2019
3201 Clear 23 1026 43 10000 2.6 160 13:38 22.08.2019
3202 Clear 23 1026 43 10000 3.1 140 13:18 22.08.2019
3203 Clear 22 1027 43 10000 3.6 130 12:41 22.08.2019
3204 Clear 22 1027 46 10000 1.5 90 12:23 22.08.2019
3205 Clear 21 1027 46 10000 3.1 70 11:58 22.08.2019
3206 Clear 21 1027 46 10000 3.1 70 11:40 22.08.2019
3207 Clear 21 1027 52 10000 2.1 80 11:20 22.08.2019
3208 Clear 21 1027 52 10000 2.1 80 11:20 22.08.2019
3209 Clear 21 1027 52 10000 2.1 80 11:20 22.08.2019
3210 Clear 20 1027 52 10000 4.1 40 10:58 22.08.2019
3211 Clear 19 1027 52 10000 4.1 40 10:38 22.08.2019
3212 Clear 18 1027 63 10000 3.1 90 10:20 22.08.2019
3213 Clear 17 1027 59 10000 4.6 50 09:56 22.08.2019
3214 Clear 17 1027 59 10000 4.6 50 09:37 22.08.2019
3215 Clear 15 1027 63 10000 2.6 70 09:19 22.08.2019
3216 Clear 13 1026 59 10000 4.1 40 08:41 22.08.2019
3217 Clear 12 1026 93 10000 1.2 36.013 08:22 22.08.2019
3218 Clear 11 1026 62 10000 4.1 40 07:58 22.08.2019
3219 Clear 11 1026 87 10000 1.2 36.013 07:39 22.08.2019
3220 Clear 10 1026 87 10000 1.2 36.013 07:19 22.08.2019
3221 Clear 10 1026 71 10000 4.1 40 06:47 22.08.2019
3222 Clear 10 1026 81 10000 2.1 110 06:22 22.08.2019
3223 Clear 10 1026 67 10000 4.1 40 05:29 22.08.2019
3224 Clear 11 1026 66 10000 1.5 110 03:44 22.08.2019
3225 Clear 11 1027 62 10000 1.5 140 02:37 22.08.2019
3226 Clear 12 1027 62 10000 1.5 100 01:39 22.08.2019
3227 Clear 12 1027 63 10000 3.1 50 01:20 22.08.2019
3228 Clear 13 1027 59 10000 3.1 60 00:41 22.08.2019
3229 Clear 13 1027 59 10000 2.6 70 00:22 22.08.2019
3230 Clear 13 1027 67 10000 2.6 60 23:44 21.08.2019
3231 Clear 14 1027 63 10000 3.1 50 23:25 21.08.2019
3232 Clear 15 1027 55 10000 3.1 60 22:59 21.08.2019
3233 Clear 15 1027 55 10000 3.1 60 22:40 21.08.2019
3234 Clear 15 1027 55 10000 2.6 80 22:21 21.08.2019
3235 Clear 16 1027 59 10000 3.1 40 21:58 21.08.2019
3236 Clear 16 1027 59 10000 3.1 40 21:38 21.08.2019
3237 Clear 17 1026 55 10000 3.1 40 21:20 21.08.2019
3238 Clear 18 1026 49 10000 3.6 30 20:58 21.08.2019
3239 Clear 19 1027 48 10000 1 0 20:39 21.08.2019
3240 Clear 19 1027 48 10000 1 0 20:39 21.08.2019
3241 Clear 20 1026 46 10000 2.6 70 20:21 21.08.2019
3242 Clear 20 1026 46 10000 2.1 80 19:55 21.08.2019
3243 Clear 20 1027 42 10000 2.1 110 19:36 21.08.2019
3244 Clear 21 1026 43 10000 2.6 70 19:18 21.08.2019
3245 Clear 21 1026 43 10000 3.1 90 18:41 21.08.2019
3246 Clear 22 1027 43 10000 2.6 40 18:22 21.08.2019
3247 Clear 23 1027 38 10000 3.1 60 17:46 21.08.2019
3248 Clear 22 1027 35 10000 2.1 0 17:25 21.08.2019
3249 Clear 22 1027 35 10000 3.1 60 16:59 21.08.2019
3250 Clear 22 1027 35 10000 3.1 60 16:40 21.08.2019
3251 Clear 22 1027 37 10000 3.1 70 16:21 21.08.2019
3252 Clear 22 1027 37 10000 1.5 0 15:59 21.08.2019
3253 Clear 22 1027 37 10000 1.5 0 15:40 21.08.2019
3254 Clear 23 1027 37 10000 3.6 70 15:21 21.08.2019
3255 Clear 22 1028 40 10000 2.6 0 14:57 21.08.2019
3256 Clear 22 1028 40 10000 2.6 0 14:39 21.08.2019
3257 Clear 22 1028 40 10000 2.1 0 14:20 21.08.2019
3258 Clear 22 1028 40 10000 1.5 0 13:55 21.08.2019
3259 Clear 22 1028 40 10000 1.5 0 13:37 21.08.2019
3260 Clouds 21 1028 45 10000 2.1 0 13:18 21.08.2019
3261 Clouds 21 1028 45 10000 2.1 0 13:18 21.08.2019
3262 Clouds 21 1029 45 10000 2.1 0 12:41 21.08.2019
3263 Clouds 20 1029 52 10000 2.6 110 12:23 21.08.2019
3264 Clouds 20 1029 55 10000 2.6 120 11:59 21.08.2019
3265 Clouds 19 1029 55 10000 2.6 120 11:41 21.08.2019
3266 Clouds 19 1029 59 10000 1.5 100 11:22 21.08.2019
3267 Clear 18 1029 63 10000 1.5 0 10:57 21.08.2019
3268 Clear 18 1029 63 10000 1.5 0 10:38 21.08.2019
3269 Clear 17 1029 77 10000 1.5 60 10:19 21.08.2019
3270 Clear 15 1029 77 10000 3.1 40 09:57 21.08.2019
3271 Clear 15 1029 77 10000 3.1 40 09:37 21.08.2019
3272 Clear 14 1029 82 10000 2.6 60 09:18 21.08.2019
3273 Clear 12 1029 77 10000 2.6 60 08:44 21.08.2019
3274 Clear 11 1028 87 10000 2.6 50 08:24 21.08.2019
3275 Clear 10 1028 81 10000 3.1 50 07:43 21.08.2019
3276 Fog 9 1028 100 10000 1.02 45.199 07:24 21.08.2019
3277 Fog 9 1028 87 10000 3.6 50 06:50 21.08.2019
3278 Fog 9 1028 100 10000 1.02 45.199 06:28 21.08.2019
3279 Clear 9 1028 81 10000 2.6 40 05:47 21.08.2019
3280 Clear 9 1028 93 10000 1.25 353.04 05:25 21.08.2019
3281 Clear 10 1027 87 10000 2.6 340 03:56 21.08.2019
3282 Clear 11 1027 87 10000 3.1 310 01:52 21.08.2019
3283 Clear 11 1027 93 10000 2.6 290 01:23 21.08.2019
3284 Clear 12 1027 87 10000 3.1 290 00:38 21.08.2019
3285 Clear 12 1027 93 10000 1.71 306.649 00:18 21.08.2019
3286 Clear 13 1027 76 10000 2.6 280 23:44 20.08.2019
3287 Clouds 13 1027 87 10000 1.71 306.649 23:19 20.08.2019
3288 Clouds 13 1027 87 10000 1.71 306.649 22:58 20.08.2019
3289 Clouds 13 1027 87 10000 1.71 306.649 22:58 20.08.2019
3290 Clouds 13 1027 87 10000 1.71 306.649 22:40 20.08.2019
3291 Clear 14 1026 82 10000 1.71 306.649 22:21 20.08.2019
3292 Clear 14 1026 82 10000 1.71 306.649 22:21 20.08.2019
3293 Clear 14 1026 67 10000 2.6 280 21:58 20.08.2019
3294 Clear 15 1026 67 10000 2.6 280 21:39 20.08.2019
3295 Clear 15 1026 77 10000 1.96 289.477 21:19 20.08.2019
3296 Rain 16 1026 63 10000 2.1 310 20:58 20.08.2019
3297 Rain 17 1026 63 10000 2.1 310 20:39 20.08.2019
3298 Rain 17 1025 72 10000 1.5 230 20:21 20.08.2019
3299 Clouds 17 1025 52 10000 5.7 280 19:39 20.08.2019
3300 Clouds 18 1025 49 10000 3.6 250 19:21 20.08.2019
3301 Rain 18 1025 67 10000 4.6 220 18:56 20.08.2019
3302 Clear 19 1025 52 10000 4.6 260 18:38 20.08.2019
3303 Clouds 19 1024 59 10000 2.1 220 18:19 20.08.2019
3304 Clouds 19 1024 59 10000 2.1 220 18:19 20.08.2019
3305 Clouds 19 1024 59 10000 2.1 220 17:56 20.08.2019
3306 Drizzle 19 1025 63 10000 3.1 230 17:38 20.08.2019
3307 Clear 19 1025 52 10000 4.6 250 17:19 20.08.2019
3308 Clouds 19 1024 55 10000 4.6 290 16:44 20.08.2019
3309 Clouds 19 1024 52 10000 3.1 230 16:26 20.08.2019
3310 Clear 19 1026 52 10000 2.1 290 15:55 20.08.2019
3311 Clouds 19 1024 49 10000 4.1 230 15:37 20.08.2019
3312 Clear 19 1024 55 10000 2.6 290 15:18 20.08.2019
3313 Clouds 19 1024 55 10000 2.1 240 14:42 20.08.2019
3314 Clouds 19 1024 55 10000 2.6 200 14:22 20.08.2019
3315 Clouds 19 1024 52 10000 2.6 300 13:57 20.08.2019
3316 Clouds 19 1024 59 10000 2.66 266.554 13:38 20.08.2019
3317 Clouds 19 1024 59 10000 2.15 283.539 13:20 20.08.2019
3318 Clear 18 1024 59 10000 1 0 12:51 20.08.2019
3319 Clouds 18 1024 63 10000 2.1 110 12:30 20.08.2019
3320 Clear 17 1024 67 10000 2.1 110 11:59 20.08.2019
3321 Clouds 17 1023 63 10000 2.12 283.112 11:40 20.08.2019
3322 Clouds 16 1023 63 10000 2.12 283.112 11:20 20.08.2019
3323 Clouds 16 1023 63 10000 2.6 50 10:57 20.08.2019
3324 Clouds 15 1023 76 10000 2.12 283.112 10:38 20.08.2019
3325 Clouds 15 1023 76 10000 2.12 283.112 10:20 20.08.2019
3326 Clear 14 1023 67 10000 2.6 40 09:54 20.08.2019
3327 Clear 14 1023 82 10000 2.12 283.112 09:36 20.08.2019
3328 Clear 13 1023 87 10000 1 0 09:18 20.08.2019
3329 Clear 12 1023 93 10000 0.29 301.065 08:41 20.08.2019
3330 Clear 12 1023 93 10000 0.29 301.065 08:21 20.08.2019
3331 Clear 11 1022 93 10000 2.1 350 07:57 20.08.2019
3332 Clear 10 1022 87 10000 2.6 360 07:38 20.08.2019
3333 Clear 10 1022 87 10000 2.6 360 07:20 20.08.2019
3334 Clouds 10 1022 76 10000 1.5 130 06:43 20.08.2019
3335 Clear 10 1022 93 10000 1 180 06:19 20.08.2019
3336 Clear 10 1022 81 10000 1 20 05:41 20.08.2019
3337 Clouds 10 1022 87 10000 0.87 289.038 04:26 20.08.2019
3338 Clear 11 1022 76 10000 2.1 250 02:48 20.08.2019
3339 Clear 12 1022 87 10000 2.6 270 01:53 20.08.2019
3340 Clear 12 1022 71 10000 1.15 327.498 01:21 20.08.2019
3341 Clouds 12 1021 81 10000 2.6 270 00:45 20.08.2019
3342 Clear 12 1021 67 10000 2.1 295.591 00:24 20.08.2019
3343 Clouds 13 1021 71 10000 1.5 270 23:44 19.08.2019
3344 Clear 13 1021 76 10000 2.1 290 23:19 19.08.2019
3345 Clear 13 1021 72 10000 2.1 270 22:58 19.08.2019
3346 Clear 14 1020 63 10000 1.5 220 22:40 19.08.2019
3347 Clear 14 1020 63 10000 1.5 220 22:20 19.08.2019
3348 Clear 15 1020 63 10000 2.1 290 21:57 19.08.2019
3349 Clear 15 1020 59 10000 2.1 260 21:38 19.08.2019
3350 Clear 16 1020 63 10000 2.6 290 21:19 19.08.2019
3351 Clear 17 1022 63 10000 2.6 280 20:55 19.08.2019
3352 Clouds 18 1019 52 10000 3.6 230 20:37 19.08.2019
3353 Clear 19 1020 52 10000 3.6 280 20:19 19.08.2019
3354 Clear 19 1019 52 10000 5.7 280 19:54 19.08.2019
3355 Clear 19 1019 52 10000 5.7 280 19:36 19.08.2019
3356 Clear 20 1019 49 10000 5.1 250 19:18 19.08.2019
3357 Clouds 20 1019 52 10000 5.7 280 18:41 19.08.2019
3358 Clouds 21 1019 52 10000 5.7 280 18:22 19.08.2019
3359 Clouds 21 1019 52 10000 5.1 250 17:57 19.08.2019
3360 Clear 21 1019 46 10000 6.2 240 17:38 19.08.2019
3361 Clouds 21 1019 46 10000 5.7 280 17:19 19.08.2019
3362 Clouds 21 1019 49 10000 4.1 260 16:54 19.08.2019
3363 Clouds 21 1019 49 10000 4.1 260 16:36 19.08.2019
3364 Clouds 21 1019 49 10000 4.1 260 16:36 19.08.2019
3365 Clouds 21 1019 46 10000 5.1 220 16:18 19.08.2019
3366 Clouds 21 1019 49 10000 5.1 280 15:45 19.08.2019
3367 Clouds 21 1019 49 10000 5.7 220 15:19 19.08.2019
3368 Clouds 20 1019 52 10000 4.6 240 14:55 19.08.2019
3369 Clouds 21 1019 52 10000 4.6 240 14:36 19.08.2019
3370 Clouds 21 1018 46 10000 4.1 220 14:18 19.08.2019
3371 Clouds 20 1019 55 10000 6.2 250 13:54 19.08.2019
3372 Clouds 20 1019 55 10000 6.2 250 13:36 19.08.2019
3373 Clouds 20 1018 49 10000 4.1 240 13:18 19.08.2019
3374 Clouds 20 1018 55 10000 6.2 250 12:43 19.08.2019
3375 Clear 19 1018 59 10000 3.1 230 12:22 19.08.2019
3376 Clouds 19 1018 55 10000 3.6 240 11:55 19.08.2019
3377 Clouds 19 1018 55 10000 3.6 240 11:36 19.08.2019
3378 Clouds 18 1018 72 10000 3.6 220 11:18 19.08.2019
3379 Clouds 18 1018 59 10000 5.1 260 10:39 19.08.2019
3380 Clouds 17 1017 100 10000 3.1 200 10:19 19.08.2019
3381 Clouds 17 1017 77 10000 2.6 240 09:56 19.08.2019
3382 Clouds 16 1017 77 10000 2.6 240 09:38 19.08.2019
3383 Clouds 15 1017 100 10000 2.1 210 09:20 19.08.2019
3384 Mist 14 1017 100 2400 2.1 240 08:45 19.08.2019
3385 Fog 14 1017 100 400 2.6 240 08:25 19.08.2019
3386 Mist 14 1016 100 1600 1.5 250 07:58 19.08.2019
3387 Fog 13 1016 100 250 2.1 240 07:39 19.08.2019
3388 Fog 13 1016 100 600 1.75 252.972 07:19 19.08.2019
3389 Mist 13 1016 100 1000 1.75 252.972 06:40 19.08.2019
3390 Fog 14 1016 100 10000 2.6 220 05:28 19.08.2019
3391 Clouds 14 1015 100 10000 1.5 180 04:35 19.08.2019
3392 Clouds 14 1015 100 10000 3.1 210 03:58 19.08.2019
3393 Clouds 14 1015 100 10000 1.5 230 03:18 19.08.2019
3394 Clouds 15 1014 100 10000 1.5 240 01:45 19.08.2019
3395 Clear 15 1014 93 10000 2.1 230 00:59 19.08.2019
3396 Clear 15 1014 93 10000 2.1 230 00:37 19.08.2019
3397 Clouds 15 1013 100 10000 2.47 261.095 00:18 19.08.2019
3398 Clear 15 1013 93 10000 3.1 240 23:40 18.08.2019
3399 Clear 16 1013 93 10000 2.1 230 23:20 18.08.2019
3400 Rain 16 1013 87 10000 3.1 250 22:40 18.08.2019
3401 Clear 16 1012 87 10000 3.1 260 22:22 18.08.2019
3402 Clear 16 1012 82 10000 3.6 270 21:57 18.08.2019
3403 Clear 17 1012 82 10000 3.6 270 21:39 18.08.2019
3404 Clouds 17 1011 88 10000 4.1 250 21:20 18.08.2019
3405 Rain 18 1011 88 10000 3.1 250 20:58 18.08.2019
3406 Rain 18 1011 88 10000 3.1 250 20:40 18.08.2019
3407 Rain 18 1011 93 10000 4.6 210 20:22 18.08.2019
3408 Clouds 18 1012 82 10000 5.7 260 19:42 18.08.2019
3409 Rain 19 1011 100 10000 5.1 220 19:23 18.08.2019
3410 Rain 18 1011 100 10000 5.7 220 18:59 18.08.2019
3411 Rain 19 1011 82 10000 6.2 260 18:39 18.08.2019
3412 Rain 19 1010 100 10000 4.6 220 18:21 18.08.2019
3413 Rain 21 1009 73 10000 8.7 250 17:55 18.08.2019
3414 Rain 21 1010 68 10000 10.3 250 17:37 18.08.2019
3415 Clouds 21 1009 73 10000 8.7 220 17:18 18.08.2019
3416 Clouds 21 1009 69 10000 8.2 240 16:55 18.08.2019
3417 Clouds 21 1009 69 10000 8.2 240 16:37 18.08.2019
3418 Clouds 22 1008 78 10000 6.7 210 16:18 18.08.2019
3419 Clouds 22 1009 78 10000 7.2 230 15:40 18.08.2019
3420 Clouds 22 1008 88 10000 7.7 210 15:20 18.08.2019
3421 Rain 22 1008 78 10000 7.2 210 14:59 18.08.2019
3422 Rain 22 1008 78 10000 7.2 210 14:59 18.08.2019
3423 Rain 22 1008 78 10000 7.2 210 14:40 18.08.2019
3424 Clouds 21 1008 78 10000 7.7 210 14:20 18.08.2019
3425 Rain 21 1009 83 10000 7.7 220 13:58 18.08.2019
3426 Rain 22 1009 83 10000 7.7 220 13:40 18.08.2019
3427 Clouds 21 1008 78 10000 7.7 220 13:20 18.08.2019
3428 Rain 22 1007 78 10000 7.2 210 12:54 18.08.2019
3429 Rain 22 1008 83 10000 5.7 210 12:36 18.08.2019
3430 Rain 21 1007 83 10000 7.2 200 12:18 18.08.2019
3431 Clouds 20 1007 83 10000 9.8 200 11:41 18.08.2019
3432 Clouds 20 1007 88 10000 8.7 190 11:22 18.08.2019
3433 Clouds 20 1007 100 10000 7.7 190 10:56 18.08.2019
3434 Clouds 19 1008 88 10000 5.7 210 10:38 18.08.2019
3435 Clouds 18 1007 100 10000 5.7 190 10:18 18.08.2019
3436 Clouds 18 1008 100 10000 5.1 200 09:42 18.08.2019
3437 Mist 17 1007 100 10000 3.6 170 09:19 18.08.2019
3438 Mist 16 1008 100 3000 4.1 190 08:43 18.08.2019
3439 Mist 17 1008 100 10000 2.6 140 08:25 18.08.2019
3440 Mist 17 1008 100 5000 4.6 180 07:54 18.08.2019
3441 Mist 16 1008 100 10000 4.1 180 07:29 18.08.2019
3442 Clouds 16 1009 100 10000 3.6 220 06:33 18.08.2019
3443 Mist 16 1009 93 10000 3.1 220 05:42 18.08.2019
3444 Rain 16 1009 100 5000 4.1 230 03:51 18.08.2019
3445 Rain 16 1010 100 650 3.1 180 02:59 18.08.2019
3446 Rain 16 1010 100 650 3.1 180 02:41 18.08.2019
3447 Rain 16 1009 100 10000 3.32 189.65 01:57 18.08.2019
3448 Rain 16 1010 100 10000 1.5 200 01:27 18.08.2019
3449 Rain 16 1010 100 3000 2.6 180 00:42 18.08.2019
3450 Rain 16 1011 100 10000 2.6 220 00:22 18.08.2019
3451 Rain 16 1011 100 2000 3.1 170 23:58 17.08.2019
3452 Rain 16 1011 100 2000 3.1 170 23:38 17.08.2019
3453 Rain 16 1011 100 10000 4.1 200 23:19 17.08.2019
3454 Drizzle 16 1011 100 10000 3.6 200 22:58 17.08.2019
3455 Drizzle 16 1011 100 10000 3.6 200 22:40 17.08.2019
3456 Rain 16 1011 100 10000 4.6 200 22:21 17.08.2019
3457 Rain 16 1011 100 10000 5.1 210 21:55 17.08.2019
3458 Rain 16 1011 100 2000 3.6 200 21:37 17.08.2019
3459 Rain 16 1011 100 10000 4.6 210 21:19 17.08.2019
3460 Rain 16 1011 100 3000 3.6 190 20:39 17.08.2019
3461 Rain 16 1012 100 10000 5.1 190 20:20 17.08.2019
3462 Rain 16 1012 100 10000 4.1 210 19:56 17.08.2019
3463 Rain 16 1012 100 10000 4.1 210 19:38 17.08.2019
3464 Rain 16 1012 100 10000 5.1 200 19:19 17.08.2019
3465 Rain 16 1012 93 10000 6.2 200 18:39 17.08.2019
3466 Rain 16 1012 93 10000 5.7 190 18:19 17.08.2019
3467 Rain 17 1012 93 10000 4.6 200 17:56 17.08.2019
3468 Rain 17 1012 93 10000 6.2 180 17:37 17.08.2019
3469 Rain 17 1012 93 10000 4.6 200 17:19 17.08.2019
3470 Drizzle 17 1012 93 10000 3.1 170 16:43 17.08.2019
3471 Rain 17 1012 93 10000 3.1 180 16:25 17.08.2019
3472 Rain 17 1012 93 10000 5.1 190 15:58 17.08.2019
3473 Rain 17 1012 93 10000 5.1 190 15:39 17.08.2019
3474 Rain 17 1012 88 10000 5.7 200 15:20 17.08.2019
3475 Rain 17 1012 77 10000 6.2 210 14:41 17.08.2019
3476 Rain 17 1012 77 10000 6.2 210 14:41 17.08.2019
3477 Rain 17 1012 77 10000 6.7 200 14:23 17.08.2019
3478 Clouds 17 1012 82 10000 5.7 220 13:49 17.08.2019
3479 Rain 17 1012 82 10000 5.7 200 13:23 17.08.2019
3480 Clouds 17 1012 82 10000 6.7 200 12:59 17.08.2019
3481 Clouds 17 1012 82 10000 6.7 200 12:41 17.08.2019
3482 Clouds 17 1012 88 10000 6.2 200 12:19 17.08.2019
3483 Rain 17 1012 77 10000 5.1 220 11:56 17.08.2019
3484 Rain 17 1012 77 10000 5.1 220 11:36 17.08.2019
3485 Rain 17 1012 100 10000 2.6 210 11:18 17.08.2019
3486 Rain 16 1012 93 10000 4.1 220 10:39 17.08.2019
3487 Rain 16 1012 93 10000 4.6 210 10:19 17.08.2019
3488 Rain 16 1012 93 10000 3.1 210 09:50 17.08.2019
3489 Rain 16 1012 93 10000 4.1 210 09:31 17.08.2019
3490 Rain 16 1012 93 10000 4.6 200 08:54 17.08.2019
3491 Rain 16 1012 87 10000 6.2 210 08:26 17.08.2019
3492 Rain 16 1012 72 10000 6.7 200 07:55 17.08.2019
3493 Rain 16 1012 72 10000 4.6 210 07:36 17.08.2019
3494 Rain 16 1012 77 10000 5.1 210 07:18 17.08.2019
3495 Clear 16 1012 72 10000 3.6 200 05:57 17.08.2019
3496 Rain 16 1012 77 10000 3.05 188.018 04:31 17.08.2019
3497 Clouds 16 1012 72 10000 3.6 200 03:36 17.08.2019
3498 Clear 16 1013 63 10000 2.6 160 01:59 17.08.2019
3499 Clear 16 1013 63 10000 2.6 160 01:36 17.08.2019
3500 Clear 16 1013 82 10000 3.1 80 01:18 17.08.2019
3501 Clear 16 1014 63 10000 4.1 160 00:31 17.08.2019
3502 Clear 16 1014 55 10000 2.1 160 23:57 16.08.2019
3503 Clear 17 1014 55 10000 2.1 160 23:38 16.08.2019
3504 Clouds 16 1015 67 10000 1.88 155.574 23:19 16.08.2019
3505 Clear 17 1015 72 10000 1 0 22:40 16.08.2019
3506 Clear 17 1014 63 10000 1.88 155.574 22:19 16.08.2019
3507 Clear 17 1014 68 10000 0.5 0 21:42 16.08.2019
3508 Clouds 18 1015 59 10000 2.06 227.558 21:22 16.08.2019
3509 Clear 18 1015 56 10000 2.1 220 20:58 16.08.2019
3510 Clear 19 1015 56 10000 2.1 220 20:40 16.08.2019
3511 Clear 19 1015 59 10000 2.1 200 20:19 16.08.2019
3512 Clear 20 1015 49 10000 2.6 210 19:55 16.08.2019
3513 Clear 20 1015 49 10000 2.6 210 19:37 16.08.2019
3514 Clouds 21 1015 49 10000 3.1 200 19:19 16.08.2019
3515 Clear 21 1016 46 10000 5.1 240 18:41 16.08.2019
3516 Clear 22 1016 52 10000 3.6 220 18:22 16.08.2019
3517 Clouds 22 1016 46 10000 2.6 210 17:46 16.08.2019
3518 Clouds 22 1017 52 10000 3.1 220 17:27 16.08.2019
3519 Clouds 22 1017 49 10000 4.6 240 16:56 16.08.2019
3520 Clouds 22 1017 49 10000 4.6 240 16:38 16.08.2019
3521 Clouds 22 1017 52 10000 4.6 200 16:18 16.08.2019
3522 Clouds 21 1018 56 10000 3.6 230 15:55 16.08.2019
3523 Clouds 21 1018 56 10000 3.6 230 15:37 16.08.2019
3524 Clouds 21 1018 52 10000 4.1 190 15:19 16.08.2019
3525 Clouds 20 1018 56 10000 4.1 240 14:56 16.08.2019
3526 Clouds 21 1018 56 10000 4.1 240 14:37 16.08.2019
3527 Clouds 20 1018 59 10000 4.6 220 14:18 16.08.2019
3528 Clouds 20 1019 63 10000 4.1 220 13:39 16.08.2019
3529 Clouds 19 1019 63 10000 6.2 190 13:20 16.08.2019
3530 Clouds 19 1019 67 10000 3.6 230 12:40 16.08.2019
3531 Clouds 19 1019 67 10000 3.6 230 12:40 16.08.2019
3532 Clouds 18 1019 77 10000 3.1 220 12:21 16.08.2019
3533 Clouds 18 1019 77 10000 2.1 220 11:55 16.08.2019
3534 Clouds 17 1019 77 10000 3.1 210 11:37 16.08.2019
3535 Clouds 17 1020 82 10000 2.6 200 11:19 16.08.2019
3536 Clouds 16 1020 82 10000 2.6 220 10:42 16.08.2019
3537 Clouds 15 1020 87 10000 3.1 210 10:21 16.08.2019
3538 Mist 14 1020 93 10000 2.1 220 09:39 16.08.2019
3539 Clouds 14 1020 93 10000 2.1 210 09:20 16.08.2019
3540 Clouds 14 1020 87 10000 2.1 270 08:59 16.08.2019
3541 Clouds 13 1020 87 10000 2.1 270 08:39 16.08.2019
3542 Clouds 13 1020 100 10000 3.1 230 08:20 16.08.2019
3543 Clouds 12 1019 100 10000 3.1 220 07:49 16.08.2019
3544 Clouds 11 1019 100 10000 3.1 240 07:28 16.08.2019
3545 -273 0 0 0 0 0 06:55 16.08.2019
3546 Fog 11 1019 100 10000 2.1 250 06:19 16.08.2019
3547 Fog 11 1019 100 10000 2.1 240 05:34 16.08.2019
3548 Clear 11 1019 100 10000 3.1 230 03:21 16.08.2019
3549 Clear 12 1019 93 10000 2.1 180 01:54 16.08.2019
3550 Clouds 12 1019 100 10000 2.6 220 01:28 16.08.2019
3551 Rain 13 1019 100 10000 2.1 220 00:57 16.08.2019
3552 Rain 13 1018 100 10000 3.1 270 00:38 16.08.2019
3553 Rain 13 1018 93 10000 2.1 200 00:18 16.08.2019
3554 Rain 13 1018 93 10000 2.92 276.284 23:42 15.08.2019
3555 Clouds 14 1018 93 10000 2.92 276.284 23:20 15.08.2019
3556 Clear 14 1018 87 10000 4.1 270 22:57 15.08.2019
3557 Clear 14 1018 87 10000 4.1 270 22:38 15.08.2019
3558 Rain 14 1017 87 10000 2.6 210 22:20 15.08.2019
3559 Rain 15 1017 87 10000 3.6 250 21:40 15.08.2019
3560 Rain 15 1017 87 10000 3.6 250 21:40 15.08.2019
3561 Rain 16 1016 77 10000 3.6 230 21:20 15.08.2019
3562 Clouds 16 1016 72 10000 3.1 240 20:59 15.08.2019
3563 Clouds 16 1016 72 10000 3.1 240 20:41 15.08.2019
3564 Clear 17 1016 72 10000 4.6 240 20:21 15.08.2019
3565 Rain 17 1015 68 10000 4.6 260 19:57 15.08.2019
3566 Rain 17 1016 93 10000 5.1 250 19:38 15.08.2019
3567 Rain 17 1015 72 10000 4.6 260 19:19 15.08.2019
3568 Rain 18 1015 63 10000 6.7 270 18:46 15.08.2019
3569 Rain 18 1015 68 10000 4.6 250 18:23 15.08.2019
3570 Rain 19 1015 72 10000 6.2 270 17:57 15.08.2019
3571 Rain 19 1015 72 10000 7.2 270 17:37 15.08.2019
3572 Rain 18 1014 72 10000 5.1 280 17:19 15.08.2019
3573 Rain 18 1014 72 10000 6.7 280 16:48 15.08.2019
3574 Clouds 19 1013 68 10000 7.7 220 16:28 15.08.2019
3575 Rain 19 1014 68 10000 6.7 280 15:59 15.08.2019
3576 Rain 19 1014 68 10000 6.7 280 15:38 15.08.2019
3577 Rain 20 1013 88 10000 6.2 230 15:19 15.08.2019
3578 Rain 20 1013 87 10000 5.1 230 14:55 15.08.2019
3579 Clouds 20 1014 68 10000 7.2 260 14:36 15.08.2019
3580 Rain 19 1013 72 10000 7.7 240 14:18 15.08.2019
3581 Clouds 19 1013 93 9000 5.1 240 13:55 15.08.2019
3582 Rain 18 1014 88 10000 5.7 270 13:36 15.08.2019
3583 Rain 18 1013 88 10000 8.7 220 13:18 15.08.2019
3584 Rain 18 1013 77 10000 6.2 240 12:40 15.08.2019
3585 Mist 17 1013 77 10000 6.2 220 12:20 15.08.2019
3586 Mist 17 1012 82 10000 8.7 210 11:57 15.08.2019
3587 Mist 17 1013 82 10000 7.2 250 11:38 15.08.2019
3588 Drizzle 17 1013 100 10000 4.6 220 11:18 15.08.2019
3589 Drizzle 17 1012 100 10000 5.7 210 10:58 15.08.2019
3590 Drizzle 17 1013 87 10000 5.7 240 10:37 15.08.2019
3591 Drizzle 16 1012 100 10000 4.6 220 10:18 15.08.2019
3592 Rain 15 1013 93 4000 5.1 240 09:43 15.08.2019
3593 Rain 15 1012 100 10000 5.7 200 09:22 15.08.2019
3594 Mist 15 1012 100 10000 4.6 200 08:39 15.08.2019
3595 Rain 15 1012 100 10000 4.6 210 08:21 15.08.2019
3596 Drizzle 15 1012 87 10000 6.2 210 07:59 15.08.2019
3597 Drizzle 15 1012 87 10000 6.2 210 07:40 15.08.2019
3598 Mist 15 1012 77 10000 5.1 210 07:21 15.08.2019
3599 Drizzle 15 1013 87 7000 5.1 220 06:48 15.08.2019
3600 Clouds 15 1012 72 10000 4.6 220 06:26 15.08.2019
3601 Rain 15 1013 77 10000 4.6 210 05:39 15.08.2019
3602 Rain 15 1012 72 10000 4.1 180 05:19 15.08.2019
3603 Clouds 15 1013 77 10000 2.6 190 04:27 15.08.2019
3604 Clouds 15 1014 77 10000 2.1 220 03:26 15.08.2019
3605 Clouds 16 1014 77 10000 5.7 160 02:35 15.08.2019
3606 Clear 16 1014 72 10000 2.54 182.008 01:45 15.08.2019
3607 Rain 16 1015 63 10000 2.6 180 01:26 15.08.2019
3608 Clear 16 1014 55 10000 3.6 180 00:39 15.08.2019
3609 Clouds 16 1015 63 10000 2.6 150 00:19 15.08.2019
3610 Clear 16 1015 59 10000 2.6 170 23:57 14.08.2019
3611 Clear 17 1015 59 10000 2.6 170 23:37 14.08.2019
3612 Clouds 17 1015 63 10000 2.1 140 23:19 14.08.2019
3613 Clear 17 1015 55 10000 2.6 170 22:55 14.08.2019
3614 Clear 17 1015 55 10000 2.6 170 22:37 14.08.2019
3615 Clouds 17 1016 63 10000 2.1 110 22:18 14.08.2019
3616 Clear 17 1016 63 10000 3.1 170 21:55 14.08.2019
3617 Clear 17 1016 55 10000 2.6 160 21:36 14.08.2019
3618 Clouds 18 1016 59 10000 1.5 120 21:18 14.08.2019
3619 Clear 19 1016 55 10000 1.5 150 20:41 14.08.2019
3620 Clouds 19 1016 55 10000 1.5 160 20:20 14.08.2019
3621 Clouds 20 1016 52 10000 3.1 180 19:56 14.08.2019
3622 Clouds 20 1016 52 10000 2.6 190 19:37 14.08.2019
3623 Clear 20 1016 49 10000 3.1 160 19:19 14.08.2019
3624 Clear 20 1017 49 10000 3.6 180 18:56 14.08.2019
3625 Clear 20 1017 49 10000 3.6 180 18:38 14.08.2019
3626 Clear 20 1017 49 10000 3.6 180 18:38 14.08.2019
3627 Clouds 19 1017 49 10000 5.7 210 18:19 14.08.2019
3628 Clouds 20 1017 49 10000 3.1 200 17:56 14.08.2019
3629 Clouds 20 1017 49 10000 3.6 190 17:36 14.08.2019
3630 Clouds 20 1018 55 10000 4.1 190 17:18 14.08.2019
3631 Clouds 19 1018 52 10000 3.1 0 16:41 14.08.2019
3632 Clouds 19 1018 52 10000 4.1 230 16:20 14.08.2019
3633 Clouds 19 1018 49 10000 5.7 180 15:45 14.08.2019
3634 Clear 19 1019 52 10000 5.1 190 15:24 14.08.2019
3635 Clouds 19 1019 55 10000 3.6 230 15:00 14.08.2019
3636 Clouds 18 1019 55 10000 3.6 230 14:39 14.08.2019
3637 Clouds 18 1019 52 10000 5.7 190 14:19 14.08.2019
3638 Clouds 17 1019 55 10000 3.1 180 13:56 14.08.2019
3639 Clouds 17 1020 63 10000 3.1 260 13:38 14.08.2019
3640 Clouds 17 1019 59 10000 4.6 210 13:20 14.08.2019
3641 Clouds 17 1020 59 10000 4.1 240 12:56 14.08.2019
3642 Clouds 16 1020 72 10000 3.6 200 12:37 14.08.2019
3643 Clouds 16 1020 63 10000 2.6 200 12:19 14.08.2019
3644 Clouds 15 1020 63 10000 3.6 240 11:45 14.08.2019
3645 Clouds 15 1020 63 10000 4.6 230 11:23 14.08.2019
3646 Clouds 14 1020 72 10000 2.6 230 10:58 14.08.2019
3647 Clouds 13 1020 82 10000 2.1 0 10:38 14.08.2019
3648 Clouds 13 1020 82 10000 1.5 170 10:20 14.08.2019
3649 Clouds 13 1020 87 10000 1.5 160 09:44 14.08.2019
3650 Clouds 13 1020 87 10000 1.5 160 09:44 14.08.2019
3651 Clear 12 1020 82 10000 0.87 211.066 09:21 14.08.2019
3652 Clear 12 1020 82 10000 1.02 208.096 09:21 14.08.2019
3653 Rain 11 1020 87 10000 1.5 270 08:47 14.08.2019
3654 Clouds 11 1020 93 10000 1.5 240 08:29 14.08.2019
3655 Clouds 11 1020 87 10000 2.6 250 07:57 14.08.2019
3656 Clouds 11 1020 87 10000 2.6 250 07:39 14.08.2019
3657 Clear 11 1020 93 10000 1.5 240 07:20 14.08.2019
3658 Clouds 11 1019 93 10000 2.1 280 06:43 14.08.2019
3659 Clear 11 1019 87 10000 1 0 05:47 14.08.2019
3660 Clear 12 1020 87 10000 1.5 300 04:45 14.08.2019
3661 Rain 12 1020 76 10000 2.6 260 02:47 14.08.2019
3662 -273 0 0 0 0 0 02:25 14.08.2019
3663 Rain 12 1020 81 10000 1.5 250 01:34 14.08.2019
3664 Clear 12 1020 71 10000 3.1 260 00:51 14.08.2019
3665 Clear 13 1020 71 10000 4.1 280 23:47 13.08.2019
3666 Clouds 13 1020 82 10000 2.6 250 23:23 13.08.2019
3667 Clear 13 1020 67 10000 4.6 270 22:57 13.08.2019
3668 Clear 13 1020 67 10000 4.6 270 22:39 13.08.2019
3669 Clear 13 1020 67 10000 4.6 270 22:39 13.08.2019
3670 Clouds 13 1020 76 10000 2.1 250 22:20 13.08.2019
3671 Rain 13 1020 76 10000 2.6 260 21:57 13.08.2019
3672 Clear 14 1020 72 10000 4.1 320 21:37 13.08.2019
3673 Clouds 15 1019 71 10000 4.21 308.39 21:19 13.08.2019
3674 Clear 16 1019 51 10000 4.1 270 20:46 13.08.2019
3675 Clouds 16 1019 71 10000 2.6 310 20:20 13.08.2019
3676 Clouds 16 1019 76 10000 3.6 320 19:59 13.08.2019
3677 Clouds 16 1019 76 10000 3.6 320 19:59 13.08.2019
3678 Rain 16 1019 76 10000 3.6 320 19:40 13.08.2019
3679 Drizzle 17 1019 67 10000 5.1 300 19:21 13.08.2019
3680 Clouds 19 1019 45 10000 4.1 240 18:56 13.08.2019
3681 Clouds 18 1019 45 10000 4.6 240 18:37 13.08.2019
3682 Clouds 18 1018 42 10000 5.1 220 18:18 13.08.2019
3683 Clouds 19 1019 45 10000 6.2 260 17:41 13.08.2019
3684 Clouds 19 1019 42 10000 4.6 230 17:21 13.08.2019
3685 Clouds 19 1019 40 10000 5.7 240 16:57 13.08.2019
3686 Clouds 19 1019 40 10000 5.7 240 16:38 13.08.2019
3687 Rain 19 1019 48 10000 5.7 220 16:20 13.08.2019
3688 Rain 19 1019 42 10000 4.1 250 15:58 13.08.2019
3689 Clouds 19 1019 42 10000 4.1 250 15:36 13.08.2019
3690 Clouds 19 1019 45 10000 6.2 230 15:18 13.08.2019
3691 Clouds 19 1020 48 10000 5.1 250 14:41 13.08.2019
3692 Clouds 18 1020 55 10000 4.6 220 14:20 13.08.2019
3693 Clouds 18 1020 55 10000 4.6 240 13:56 13.08.2019
3694 Clouds 18 1021 51 10000 5.1 230 13:37 13.08.2019
3695 Clouds 17 1020 55 10000 4.6 220 13:18 13.08.2019
3696 Clouds 17 1021 51 10000 3.6 250 12:42 13.08.2019
3697 Clouds 16 1020 63 10000 3.6 230 12:24 13.08.2019
3698 Clouds 16 1020 67 10000 5.1 220 11:59 13.08.2019
3699 Clouds 15 1020 67 10000 5.1 220 11:40 13.08.2019
3700 Clouds 15 1020 67 10000 4.6 240 11:21 13.08.2019
3701 Clouds 15 1020 72 10000 4.1 210 10:57 13.08.2019
3702 Clouds 15 1021 82 10000 3.6 220 10:38 13.08.2019
3703 Clouds 14 1020 76 10000 4.1 220 10:19 13.08.2019
3704 Clouds 14 1021 76 10000 4.1 270 09:45 13.08.2019
3705 Clouds 13 1020 82 10000 5.1 230 09:24 13.08.2019
3706 Clouds 12 1019 82 10000 4.1 220 08:57 13.08.2019
3707 Clouds 12 1020 87 10000 4.6 240 08:39 13.08.2019
3708 Clouds 12 1019 93 10000 4.6 230 08:19 13.08.2019
3709 Clouds 11 1019 93 10000 4.6 270 07:41 13.08.2019
3710 Clouds 11 1019 100 10000 3.1 230 07:21 13.08.2019
3711 Clouds 11 1019 93 10000 4.6 270 06:43 13.08.2019
3712 Clear 11 1018 93 10000 5.1 260 05:47 13.08.2019
3713 Clear 11 1018 93 10000 5.1 260 04:36 13.08.2019
3714 Rain 12 1018 100 10000 2.6 260 02:22 13.08.2019
3715 Rain 12 1018 93 10000 3.6 210 01:38 13.08.2019
3716 Clear 12 1018 93 10000 2.1 230 00:49 13.08.2019
3717 Clouds 12 1017 100 10000 2.13 244.783 00:22 13.08.2019
3718 Clouds 12 1017 100 10000 2.13 244.783 23:43 12.08.2019
3719 Rain 12 1017 100 10000 2.13 244.783 23:21 12.08.2019
3720 Rain 13 1017 93 10000 3.1 270 22:55 12.08.2019
3721 Rain 13 1017 93 10000 3.1 270 22:37 12.08.2019
3722 Rain 13 1017 93 10000 2.1 110 22:18 12.08.2019
3723 Thunderstorm 13 1017 93 10000 1.5 90 21:54 12.08.2019
3724 Thunderstorm 13 1017 93 10000 1.5 90 21:54 12.08.2019
3725 Thunderstorm 14 1017 93 10000 2.1 250 21:36 12.08.2019
3726 Thunderstorm 14 1016 87 10000 4.1 320 21:18 12.08.2019
3727 Thunderstorm 15 1017 87 10000 3.6 260 20:41 12.08.2019
3728 Rain 15 1016 93 10000 2.6 180 20:21 12.08.2019
3729 Rain 16 1016 72 10000 3.1 270 19:58 12.08.2019
3730 Rain 16 1016 72 10000 3.1 270 19:39 12.08.2019
3731 Clouds 16 1016 82 10000 3.1 200 19:21 12.08.2019
3732 Rain 16 1016 68 10000 3.6 210 18:59 12.08.2019
3733 Rain 16 1016 68 10000 3.6 210 18:40 12.08.2019
3734 Rain 16 1015 87 10000 2.1 90 18:21 12.08.2019
3735 Rain 16 1016 93 10000 2.1 160 17:56 12.08.2019
3736 Rain 16 1016 77 10000 2.1 0 17:38 12.08.2019
3737 Rain 16 1016 93 10000 2.1 230 17:20 12.08.2019
3738 Rain 16 1016 93 10000 2.6 220 16:55 12.08.2019
3739 Rain 16 1016 93 10000 2.6 220 16:55 12.08.2019
3740 Rain 17 1016 82 10000 4.1 180 16:37 12.08.2019
3741 Rain 17 1017 87 10000 3.6 220 16:18 12.08.2019
3742 Rain 17 1017 93 10000 2.6 270 15:42 12.08.2019
3743 Rain 17 1017 93 10000 2.6 270 15:41 12.08.2019
3744 Rain 17 1016 87 10000 3.6 240 15:21 12.08.2019
3745 Rain 18 1016 72 10000 4.1 220 14:57 12.08.2019
3746 Rain 18 1017 82 7000 4.6 190 14:39 12.08.2019
3747 Rain 18 1016 60 10000 4.6 190 14:20 12.08.2019
3748 Rain 18 1016 60 10000 4.6 190 14:20 12.08.2019
3749 Rain 18 1017 77 10000 4.6 180 13:47 12.08.2019
3750 Clouds 19 1017 68 10000 4.1 170 13:24 12.08.2019
3751 Clouds 19 1018 72 10000 5.1 160 12:59 12.08.2019
3752 Clouds 19 1018 72 10000 5.1 160 12:41 12.08.2019
3753 Clouds 18 1018 72 10000 3.6 180 12:19 12.08.2019
3754 Clouds 18 1018 77 10000 2.6 200 11:43 12.08.2019
3755 Clouds 18 1018 77 10000 2.6 200 11:43 12.08.2019
3756 Clouds 18 1017 77 10000 1.5 230 11:25 12.08.2019
3757 Clouds 18 1017 77 10000 2.6 170 10:54 12.08.2019
3758 Clouds 17 1017 77 10000 2.6 170 10:36 12.08.2019
3759 Clouds 17 1017 82 10000 2.6 240 10:18 12.08.2019
3760 Clouds 16 1017 82 10000 2.6 170 09:42 12.08.2019
3761 Clouds 14 1017 93 10000 2.6 220 09:20 12.08.2019
3762 Mist 14 1017 100 8000 3.6 250 08:59 12.08.2019
3763 Mist 14 1017 93 10000 2.6 150 08:39 12.08.2019
3764 Fog 13 1017 93 10000 2.1 270 08:21 12.08.2019
3765 Fog 12 1017 100 2800 4.1 250 07:56 12.08.2019
3766 Mist 12 1017 100 10000 2.6 220 07:34 12.08.2019
3767 Mist 12 1018 100 10000 1.5 230 06:53 12.08.2019
3768 Mist 11 1018 100 10000 2.1 220 05:46 12.08.2019
3769 Clear 12 1017 93 10000 3.1 220 03:30 12.08.2019
3770 Clouds 12 1018 93 10000 2.6 210 02:42 12.08.2019
3771 Clear 12 1017 87 10000 2.6 210 01:23 12.08.2019
3772 Clear 13 1018 82 10000 2.6 210 00:58 12.08.2019
3773 Clear 13 1018 82 10000 2.6 210 00:40 12.08.2019
3774 Clouds 14 1017 87 10000 2.6 210 00:20 12.08.2019
3775 Clear 14 1018 72 10000 3.6 210 23:58 11.08.2019
3776 Clear 14 1018 72 10000 3.6 210 23:39 11.08.2019
3777 Clear 14 1018 72 10000 3.6 210 23:39 11.08.2019
3778 Clouds 14 1017 87 10000 3.1 210 23:19 11.08.2019
3779 Clear 14 1018 67 10000 4.1 230 22:56 11.08.2019
3780 Clear 14 1018 67 10000 4.1 230 22:37 11.08.2019
3781 Clouds 14 1017 87 10000 2.1 180 22:18 11.08.2019
3782 Clear 15 1017 59 10000 4.6 260 21:56 11.08.2019
3783 Clear 15 1017 59 10000 4.6 260 21:38 11.08.2019
3784 Clouds 16 1017 77 10000 4.1 210 21:19 11.08.2019
3785 Clear 16 1017 59 10000 3.1 230 20:44 11.08.2019
3786 Clouds 16 1016 63 10000 3.1 200 20:23 11.08.2019
3787 Rain 16 1016 63 10000 2.6 210 19:55 11.08.2019
3788 Rain 16 1016 63 10000 2.6 210 19:37 11.08.2019
3789 Rain 16 1015 55 10000 4.6 220 19:18 11.08.2019
3790 Rain 16 1016 72 10000 2.6 230 18:40 11.08.2019
3791 Rain 16 1016 67 10000 4.1 200 18:20 11.08.2019
3792 Rain 16 1016 67 10000 3.1 200 17:56 11.08.2019
3793 Rain 17 1016 72 10000 2.6 180 17:38 11.08.2019
3794 Rain 17 1016 63 10000 3.6 210 17:19 11.08.2019
3795 Rain 17 1016 67 10000 3.6 250 16:55 11.08.2019
3796 Rain 17 1016 67 10000 3.6 250 16:37 11.08.2019
3797 Rain 18 1016 52 10000 3.6 230 16:18 11.08.2019
3798 Rain 18 1017 52 10000 3.6 260 15:42 11.08.2019
3799 Clouds 18 1016 52 10000 4.6 240 15:22 11.08.2019
3800 Clear 19 1016 45 10000 4.1 270 14:56 11.08.2019
3801 Clear 19 1016 45 10000 4.1 270 14:37 11.08.2019
3802 Clouds 19 1016 52 10000 3.6 250 14:19 11.08.2019
3803 Clouds 20 1017 48 10000 4.6 250 13:43 11.08.2019
3804 Clouds 20 1017 45 10000 5.1 230 13:24 11.08.2019
3805 Clouds 20 1017 52 10000 4.1 210 12:48 11.08.2019
3806 Clouds 20 1017 55 10000 4.1 220 12:23 11.08.2019
3807 Clouds 19 1017 52 10000 4.1 210 11:54 11.08.2019
3808 Clouds 19 1017 52 10000 4.1 210 11:36 11.08.2019
3809 Clouds 19 1017 55 10000 4.1 200 11:18 11.08.2019
3810 Clear 19 1018 59 10000 3.1 230 10:41 11.08.2019
3811 Clear 19 1017 59 10000 1.5 250 10:22 11.08.2019
3812 Clear 18 1018 63 10000 3.1 260 09:58 11.08.2019
3813 Clear 18 1018 63 10000 3.1 260 09:38 11.08.2019
3814 Clear 17 1017 72 10000 2.6 230 09:20 11.08.2019
3815 Clear 16 1018 72 10000 2.6 260 08:45 11.08.2019
3816 Clouds 15 1017 77 10000 1.5 200 08:26 11.08.2019
3817 Clear 14 1018 76 10000 2.6 240 07:55 11.08.2019
3818 Clouds 13 1018 76 10000 1.22 190.896 07:25 11.08.2019
3819 Clouds 12 1018 82 10000 1.5 220 06:45 11.08.2019
3820 Clouds 12 1017 82 10000 1.5 229.635 05:58 11.08.2019
3821 Clouds 13 1018 67 10000 3.6 230 03:56 11.08.2019
3822 Clouds 14 1018 63 10000 3.1 230 02:49 11.08.2019
3823 Clouds 14 1017 67 10000 2.1 240 01:43 11.08.2019
3824 Clouds 14 1017 63 10000 1.5 240 01:20 11.08.2019
3825 Clear 15 1018 59 10000 3.6 210 00:53 11.08.2019
3826 Clear 15 1018 63 10000 4.1 190 00:33 11.08.2019
3827 Clear 16 1017 59 10000 1.5 200 23:49 10.08.2019
3828 Clear 16 1017 63 10000 3.6 220 23:29 10.08.2019
3829 Clear 17 1017 55 10000 3.6 220 22:45 10.08.2019
3830 Clear 17 1017 59 10000 3.6 220 22:26 10.08.2019
3831 Clear 18 1017 49 10000 4.1 230 21:58 10.08.2019
3832 Clear 18 1017 49 10000 4.1 230 21:39 10.08.2019
3833 Clear 20 1017 52 10000 4.1 220 21:21 10.08.2019
3834 Clear 21 1017 46 10000 5.1 230 20:57 10.08.2019
3835 Clear 21 1017 46 10000 5.1 230 20:39 10.08.2019
3836 Clear 22 1016 49 10000 5.1 230 20:19 10.08.2019
3837 Clear 22 1016 43 10000 6.7 230 19:43 10.08.2019
3838 Clouds 22 1016 43 10000 8.7 230 19:24 10.08.2019
3839 Clouds 22 1016 43 10000 8.7 230 19:24 10.08.2019
3840 Clouds 23 1016 43 10000 7.7 220 18:42 10.08.2019
3841 Clouds 23 1016 43 10000 10.8 210 18:24 10.08.2019
3842 Clouds 23 1016 46 10000 9.3 230 17:57 10.08.2019
3843 Clouds 23 1016 46 10000 9.3 230 17:38 10.08.2019
3844 Clear 23 1015 44 10000 9.8 230 17:19 10.08.2019
3845 Rain 23 1016 43 10000 9.3 240 16:43 10.08.2019
3846 Clouds 23 1015 47 10000 8.7 230 16:24 10.08.2019
3847 Clouds 23 1016 49 10000 9.8 230 15:48 10.08.2019
3848 Clouds 23 1015 49 10000 11.3 210 15:22 10.08.2019
3849 Clouds 22 1016 56 10000 8.2 220 14:44 10.08.2019
3850 Clouds 22 1016 56 10000 8.2 220 14:44 10.08.2019
3851 Clouds 22 1015 56 10000 9.8 230 14:21 10.08.2019
3852 Clouds 22 1016 56 10000 7.7 220 13:41 10.08.2019
3853 Clouds 21 1015 56 10000 10.8 220 13:20 10.08.2019
3854 Clouds 21 1016 60 10000 8.7 230 12:55 10.08.2019
3855 Clouds 20 1016 60 10000 8.7 230 12:37 10.08.2019
3856 Clouds 20 1015 64 10000 8.7 210 12:19 10.08.2019
3857 Clouds 19 1015 68 10000 7.2 220 11:42 10.08.2019
3858 Clouds 19 1015 72 10000 9.8 210 11:22 10.08.2019
3859 Rain 19 1014 72 10000 7.7 230 10:56 10.08.2019
3860 Clouds 19 1015 72 10000 7.7 220 10:37 10.08.2019
3861 Clouds 19 1014 72 10000 8.2 220 10:19 10.08.2019
3862 Clouds 18 1014 72 10000 7.2 230 09:43 10.08.2019
3863 Clouds 18 1014 77 10000 7.7 220 09:23 10.08.2019
3864 Clouds 18 1013 77 10000 5.7 220 08:55 10.08.2019
3865 Clouds 17 1014 77 10000 7.2 220 08:37 10.08.2019
3866 Clouds 17 1013 82 10000 5.7 220 08:18 10.08.2019
3867 Clouds 17 1013 82 10000 6.2 210 07:43 10.08.2019
3868 Clouds 17 1013 88 10000 5.7 210 07:19 10.08.2019
3869 Clouds 16 1013 82 10000 6.2 220 06:43 10.08.2019
3870 Clear 17 1012 88 10000 5.1 230 05:44 10.08.2019
3871 Clouds 17 1012 100 10000 4.6 190 05:19 10.08.2019
3872 Clear 17 1012 93 10000 3.6 190 03:51 10.08.2019
3873 Mist 17 1011 100 10000 3.6 220 02:48 10.08.2019
3874 Mist 18 1011 100 5000 3.1 220 01:56 10.08.2019
3875 Mist 18 1012 88 10000 5.7 240 01:36 10.08.2019
3876 Mist 18 1011 100 5000 1.5 230 01:18 10.08.2019
3877 Mist 19 1011 100 1600 1.5 230 00:41 10.08.2019
3878 Mist 19 1012 100 10000 2.1 250 00:19 10.08.2019
3879 Mist 19 1011 94 10000 3.1 240 23:39 09.08.2019
3880 Mist 19 1011 100 10000 1.43 199.945 23:20 09.08.2019
3881 Rain 19 1011 100 10000 1.43 199.945 22:55 09.08.2019
3882 Rain 19 1011 94 10000 2.1 210 22:37 09.08.2019
3883 Rain 19 1010 100 10000 1.43 199.945 22:18 09.08.2019
3884 Rain 20 1010 88 10000 2.6 260 21:41 09.08.2019
3885 Rain 20 1010 100 10000 2.29 336.45 21:22 09.08.2019
3886 Rain 20 1009 100 9000 2.1 330 20:58 09.08.2019
3887 Rain 20 1009 100 9000 2.1 330 20:39 09.08.2019
3888 Rain 20 1009 100 10000 1.5 80 20:20 09.08.2019
3889 Rain 21 1009 94 10000 2.1 340 19:43 09.08.2019
3890 Rain 22 1010 100 2000 3.6 290 19:23 09.08.2019
3891 Rain 21 1008 88 10000 3.8 349.374 18:59 09.08.2019
3892 Rain 22 1009 94 10000 4.1 230 18:39 09.08.2019
3893 Rain 22 1008 88 10000 2.6 350 18:20 09.08.2019
3894 Rain 23 1008 83 10000 2.1 30 17:45 09.08.2019
3895 Rain 24 1008 69 10000 5.55 260.482 17:25 09.08.2019
3896 Drizzle 25 1008 69 10000 5.55 260.482 16:58 09.08.2019
3897 Rain 25 1008 78 10000 1 0 16:38 09.08.2019
3898 Rain 26 1008 65 10000 2.6 110 16:20 09.08.2019
3899 Rain 26 1009 61 10000 3.6 170 15:55 09.08.2019
3900 Rain 26 1009 61 10000 3.6 170 15:36 09.08.2019
3901 Rain 26 1009 69 10000 3.1 120 15:18 09.08.2019
3902 Rain 26 1010 69 10000 3.1 160 14:42 09.08.2019
3903 Rain 25 1011 69 10000 2.6 210 14:22 09.08.2019
3904 Rain 25 1011 69 10000 2.6 210 14:21 09.08.2019
3905 Rain 24 1010 60 10000 4.6 180 13:56 09.08.2019
3906 Clouds 24 1010 83 10000 3.1 180 13:38 09.08.2019
3907 Rain 24 1010 53 10000 4.1 170 13:18 09.08.2019
3908 Rain 24 1010 60 10000 4.1 180 12:43 09.08.2019
3909 Clouds 24 1009 64 10000 2.1 70 12:22 09.08.2019
3910 Rain 23 1010 57 10000 4.1 140 11:42 09.08.2019
3911 Rain 22 1010 64 10000 3.1 90 11:22 09.08.2019
3912 Clear 22 1010 68 10000 3.1 140 10:59 09.08.2019
3913 Clear 22 1010 68 10000 3.1 140 10:39 09.08.2019
3914 Clouds 21 1010 68 10000 3.1 80 10:21 09.08.2019
3915 Clear 20 1010 68 10000 2.6 120 09:43 09.08.2019
3916 Clouds 19 1011 77 10000 2.1 70 09:20 09.08.2019
3917 Clear 19 1010 72 10000 2.6 100 08:56 09.08.2019
3918 Clear 18 1010 72 10000 2.6 100 08:37 09.08.2019
3919 Clouds 18 1011 82 10000 3.1 80 08:18 09.08.2019
3920 Clear 17 1011 72 10000 3.1 100 07:43 09.08.2019
3921 Clear 17 1011 87 10000 3.1 70 07:22 09.08.2019
3922 Clear 16 1011 77 10000 3.1 100 06:54 09.08.2019
3923 Clouds 16 1012 87 10000 2.6 70 06:27 09.08.2019
3924 Clear 16 1012 72 10000 2.6 100 05:50 09.08.2019
3925 Clear 16 1013 72 10000 4.6 140 02:33 09.08.2019
3926 Clear 16 1013 72 10000 4.6 140 02:33 09.08.2019
3927 Clear 16 1014 72 10000 3.6 150 01:45 09.08.2019
3928 Clear 17 1014 63 10000 3.1 150 00:45 09.08.2019
3929 Clear 17 1013 72 10000 2.6 70 00:26 09.08.2019
3930 Clear 17 1014 72 10000 2.6 150 23:59 08.08.2019
3931 Clear 17 1014 72 10000 2.6 150 23:59 08.08.2019
3932 Clear 17 1014 72 10000 2.6 150 23:38 08.08.2019
3933 Clouds 18 1013 72 10000 1.27 57.387 23:19 08.08.2019
3934 Clear 18 1013 60 10000 1 0 22:57 08.08.2019
3935 Clear 18 1013 60 10000 1 0 22:37 08.08.2019
3936 Clear 19 1013 56 10000 1.27 57.387 22:18 08.08.2019
3937 Clouds 19 1014 60 10000 0.5 120 21:57 08.08.2019
3938 Clear 20 1013 53 10000 1 0 21:39 08.08.2019
3939 Clear 21 1013 53 10000 1.5 150 21:20 08.08.2019
3940 Clear 23 1013 44 10000 2.1 240 20:42 08.08.2019
3941 Clouds 24 1013 46 10000 2.1 240 20:22 08.08.2019
3942 Clear 24 1013 41 10000 4.1 250 19:59 08.08.2019
3943 Clear 24 1013 41 10000 4.1 250 19:41 08.08.2019
3944 Clear 25 1013 41 10000 3.1 250 19:20 08.08.2019
3945 Clear 25 1013 41 10000 3.6 260 18:43 08.08.2019
3946 Clouds 25 1013 41 10000 4.1 220 18:23 08.08.2019
3947 Clouds 25 1013 41 10000 4.1 230 17:56 08.08.2019
3948 Clear 25 1013 39 10000 5.1 260 17:37 08.08.2019
3949 Clouds 26 1013 41 10000 3.1 210 17:19 08.08.2019
3950 Clouds 26 1013 41 10000 3.1 210 17:19 08.08.2019
3951 Clear 25 1013 41 10000 4.1 260 16:43 08.08.2019
3952 Clouds 25 1014 44 10000 4.6 250 16:24 08.08.2019
3953 Clear 25 1014 44 10000 3.6 220 15:59 08.08.2019
3954 Clear 24 1014 44 10000 3.6 220 15:41 08.08.2019
3955 Clouds 24 1014 49 10000 5.7 230 15:23 08.08.2019
3956 Clouds 24 1014 49 10000 6.7 210 14:55 08.08.2019
3957 Clouds 24 1014 44 10000 5.7 250 14:36 08.08.2019
3958 Clouds 24 1014 49 10000 4.1 210 14:18 08.08.2019
3959 Clouds 24 1014 56 10000 3.6 200 13:39 08.08.2019
3960 Clouds 24 1014 49 10000 5.7 210 13:20 08.08.2019
3961 Clouds 23 1014 56 10000 4.6 170 12:40 08.08.2019
3962 Clouds 22 1014 60 10000 4.1 250 12:21 08.08.2019
3963 Clouds 22 1014 64 10000 4.6 190 11:59 08.08.2019
3964 Clouds 21 1014 64 10000 4.6 190 11:39 08.08.2019
3965 Clouds 21 1014 68 10000 2.36 219.24 11:21 08.08.2019
3966 Clear 20 1014 68 10000 4.1 150 10:41 08.08.2019
3967 Clouds 19 1014 100 10000 2.1 0 10:22 08.08.2019
3968 Mist 18 1014 100 6000 2.36 219.24 09:53 08.08.2019
3969 Mist 17 1014 68 10000 2.6 240 09:32 08.08.2019
3970 Mist 16 1013 100 1800 1.03 206.99 08:59 08.08.2019
3971 Mist 15 1013 100 1800 1.1 223.081 08:39 08.08.2019
3972 Fog 14 1013 93 10000 1 0 08:20 08.08.2019
3973 Fog 13 1013 93 10000 1 250 07:41 08.08.2019
3974 Fog 13 1013 100 400 1.1 223.081 07:20 08.08.2019
3975 Mist 13 1013 100 2000 1.1 223.081 06:56 08.08.2019
3976 Fog 13 1013 93 10000 1 0 06:38 08.08.2019
3977 Fog 13 1013 93 10000 1 0 05:54 08.08.2019
3978 Mist 13 1013 100 5000 1.08 221.837 05:20 08.08.2019
3979 Clouds 14 1013 93 10000 3.1 280 03:54 08.08.2019
3980 Clear 14 1013 93 10000 3.1 240 03:35 08.08.2019
3981 Clear 14 1013 93 10000 2.1 260 01:39 08.08.2019
3982 Rain 15 1012 100 10000 1.24 251.128 00:45 08.08.2019
3983 Thunderstorm 15 1012 100 10000 1.5 264.552 00:18 08.08.2019
3984 Clouds 16 1012 100 10000 1.5 190 23:22 07.08.2019
3985 Thunderstorm 16 1012 82 10000 3.6 230 22:59 07.08.2019
3986 Thunderstorm 16 1012 82 10000 3.6 230 22:41 07.08.2019
3987 Thunderstorm 16 1011 87 10000 2.6 230 22:20 07.08.2019
3988 Thunderstorm 16 1011 87 10000 2.1 320 21:57 07.08.2019
3989 Thunderstorm 16 1011 87 10000 2.1 320 21:57 07.08.2019
3990 Rain 16 1011 68 10000 2.6 200 21:39 07.08.2019
3991 Rain 16 1011 68 10000 2.6 200 21:39 07.08.2019
3992 Rain 18 1011 88 8000 3.6 330 21:20 07.08.2019
3993 Rain 19 1010 63 10000 2.1 340 20:57 07.08.2019
3994 Rain 20 1010 60 10000 3.1 220 20:38 07.08.2019
3995 Rain 20 1010 60 10000 5.1 220 20:20 07.08.2019
3996 Rain 20 1010 60 10000 5.1 220 20:20 07.08.2019
3997 Rain 20 1010 60 10000 5.1 220 20:20 07.08.2019
3998 Clouds 21 1009 56 10000 5.7 210 19:55 07.08.2019
3999 Thunderstorm 20 1010 56 10000 4.6 200 19:36 07.08.2019
4000 Thunderstorm 21 1009 53 10000 5.7 190 19:18 07.08.2019
4001 Clouds 21 1010 56 10000 3.6 230 18:40 07.08.2019
4002 Clouds 21 1009 60 10000 4.6 220 18:20 07.08.2019
4003 Clouds 21 1010 64 10000 3.6 210 17:55 07.08.2019
4004 Clouds 21 1010 60 10000 4.1 230 17:37 07.08.2019
4005 Clouds 22 1010 68 10000 4.1 210 17:19 07.08.2019
4006 Clouds 22 1010 72 10000 3.1 210 16:56 07.08.2019
4007 Rain 21 1010 60 10000 3.6 210 16:38 07.08.2019
4008 Rain 21 1010 68 10000 3.1 200 16:19 07.08.2019
4009 Clouds 20 1010 68 10000 3.6 210 15:43 07.08.2019
4010 Clouds 20 1010 68 10000 4.6 190 15:21 07.08.2019
4011 Clouds 20 1010 68 10000 3.1 210 14:56 07.08.2019
4012 Clouds 20 1010 68 10000 3.1 210 14:38 07.08.2019
4013 Clouds 20 1009 68 10000 2.6 210 14:20 07.08.2019
4014 Clouds 20 1010 77 10000 2.6 290 13:40 07.08.2019
4015 Rain 20 1010 68 10000 3.1 230 13:19 07.08.2019
4016 Clouds 20 1010 68 10000 4.1 210 12:57 07.08.2019
4017 Clouds 19 1010 77 10000 2.1 250 12:38 07.08.2019
4018 Clouds 19 1010 72 10000 3.1 260 12:19 07.08.2019
4019 Clouds 19 1010 72 10000 2.6 220 11:58 07.08.2019
4020 Clouds 19 1010 72 10000 2.6 220 11:40 07.08.2019
4021 Rain 18 1010 77 10000 2.6 230 11:18 07.08.2019
4022 Rain 18 1010 82 10000 2.1 220 10:41 07.08.2019
4023 Rain 18 1010 82 10000 3.1 230 10:20 07.08.2019
4024 Rain 18 1010 100 10000 3.6 210 09:59 07.08.2019
4025 Rain 17 1010 100 10000 3.6 210 09:40 07.08.2019
4026 Rain 17 1009 100 10000 2.1 250 09:20 07.08.2019
4027 Rain 17 1010 100 5000 2.6 230 08:45 07.08.2019
4028 Rain 16 1009 100 10000 1.5 230 08:25 07.08.2019
4029 Rain 16 1009 100 10000 2.6 230 07:51 07.08.2019
4030 Rain 16 1010 100 3000 3.6 260 07:32 07.08.2019
4031 Rain 16 1009 100 4400 3.6 230 06:50 07.08.2019
4032 Rain 16 1009 100 8000 3.1 220 06:27 07.08.2019
4033 Rain 16 1009 100 10000 3.1 210 05:43 07.08.2019
4034 Rain 16 1010 100 4000 3.6 210 04:46 07.08.2019
4035 Rain 16 1010 100 10000 1.54 228.611 03:21 07.08.2019
4036 Fog 17 1010 100 10000 1.54 228.611 02:43 07.08.2019
4037 Fog 17 1011 100 10000 1.5 210 01:58 07.08.2019
4038 Fog 16 1011 100 10000 3.1 160 01:31 07.08.2019
4039 Fog 16 1011 93 10000 1.5 220 00:38 07.08.2019
4040 Fog 17 1011 100 10000 2.49 252.836 00:19 07.08.2019
4041 Clear 16 1010 88 10000 1 0 23:41 06.08.2019
4042 Clouds 17 1011 100 10000 2.49 252.836 23:21 06.08.2019
4043 Rain 17 1011 100 10000 2.49 252.836 22:56 06.08.2019
4044 Rain 17 1011 93 10000 1 0 22:37 06.08.2019
4045 Rain 17 1011 100 10000 2.1 110 22:18 06.08.2019
4046 Rain 17 1010 100 10000 2.1 80 21:42 06.08.2019
4047 Rain 18 1010 93 10000 2.6 80 21:24 06.08.2019
4048 Rain 18 1010 82 10000 5.1 320 20:57 06.08.2019
4049 Rain 18 1010 82 10000 5.1 320 20:39 06.08.2019
4050 Rain 18 1011 93 10000 2.6 320 20:21 06.08.2019
4051 Rain 19 1011 88 10000 3.6 330 19:43 06.08.2019
4052 Rain 20 1011 77 10000 6.7 280 19:25 06.08.2019
4053 Clouds 20 1010 56 10000 4.6 270 18:46 06.08.2019
4054 Clouds 22 1011 60 10000 2.1 200 18:27 06.08.2019
4055 Clouds 23 1011 53 10000 4.6 220 17:59 06.08.2019
4056 Clouds 23 1011 53 10000 4.6 220 17:39 06.08.2019
4057 Clouds 23 1011 53 10000 5.7 220 17:21 06.08.2019
4058 Clouds 24 1011 53 10000 3.1 210 16:59 06.08.2019
4059 Clouds 24 1011 53 10000 3.1 210 16:39 06.08.2019
4060 Clouds 23 1012 60 10000 5.1 220 16:20 06.08.2019
4061 Clouds 23 1013 68 10000 3.6 200 15:57 06.08.2019
4062 Clouds 23 1012 60 10000 3.6 230 15:38 06.08.2019
4063 Clouds 22 1013 68 10000 4.1 220 15:19 06.08.2019
4064 Clouds 21 1013 68 10000 2.6 230 14:44 06.08.2019
4065 Clouds 21 1013 73 10000 3.1 210 14:25 06.08.2019
4066 Rain 21 1013 73 10000 2.6 140 13:58 06.08.2019
4067 Rain 21 1013 73 10000 2.6 140 13:39 06.08.2019
4068 Rain 20 1013 82 10000 3.6 220 13:20 06.08.2019
4069 Rain 21 1014 82 10000 1.5 210 12:57 06.08.2019
4070 Rain 20 1014 82 10000 1.5 210 12:39 06.08.2019
4071 Rain 20 1014 82 10000 2.6 180 12:21 06.08.2019
4072 Rain 19 1014 93 10000 1.5 190 11:42 06.08.2019
4073 Drizzle 19 1014 88 10000 2.25 220.745 11:19 06.08.2019
4074 Drizzle 19 1014 88 10000 4.1 280 10:55 06.08.2019
4075 Drizzle 19 1014 93 10000 1 0 10:37 06.08.2019
4076 Drizzle 18 1014 88 10000 2.6 260 10:19 06.08.2019
4077 Rain 18 1014 72 10000 4.1 250 09:39 06.08.2019
4078 Rain 18 1014 72 10000 4.1 250 09:20 06.08.2019
4079 Rain 18 1013 77 10000 2.6 220 08:47 06.08.2019
4080 Drizzle 17 1013 68 10000 2.6 260 08:26 06.08.2019
4081 Rain 18 1013 68 10000 2.1 230 07:47 06.08.2019
4082 Rain 17 1013 68 10000 1.5 250 07:23 06.08.2019
4083 Rain 17 1013 72 10000 1.5 290 06:43 06.08.2019
4084 Rain 17 1013 72 10000 1.5 190 05:55 06.08.2019
4085 Clear 17 1013 63 10000 3.1 230 04:35 06.08.2019
4086 Clear 18 1013 68 10000 1 280 01:59 06.08.2019
4087 Clouds 18 1013 63 10000 1.32 244.483 01:24 06.08.2019
4088 Clear 19 1013 64 10000 2.1 280 00:39 06.08.2019
4089 Clear 19 1013 56 10000 2.1 270 23:51 05.08.2019
4090 Clear 20 1013 52 10000 1.73 241.405 23:19 05.08.2019
4091 Clear 20 1013 56 10000 2.6 280 22:42 05.08.2019
4092 Clouds 21 1013 49 10000 1.5 240 22:23 05.08.2019
4093 Clouds 21 1013 60 10000 1.5 290 21:58 05.08.2019
4094 Clear 22 1013 49 10000 2.6 270 21:39 05.08.2019
4095 Clear 22 1013 49 10000 2.6 270 21:39 05.08.2019
4096 Clouds 22 1013 46 10000 2.1 250 21:19 05.08.2019
4097 Clear 23 1013 47 10000 5.1 270 20:56 05.08.2019
4098 Clear 24 1013 47 10000 5.1 270 20:37 05.08.2019
4099 Clouds 24 1013 47 10000 4.6 220 20:19 05.08.2019
4100 Clear 25 1013 44 10000 4.6 230 19:43 05.08.2019
4101 Clouds 25 1013 41 10000 4.6 240 19:25 05.08.2019
4102 Clear 25 1013 44 10000 5.7 250 18:59 05.08.2019
4103 Clear 25 1013 44 10000 5.7 250 18:40 05.08.2019
4104 Clouds 26 1013 36 10000 7.7 240 18:19 05.08.2019
4105 Clouds 26 1013 36 10000 7.7 240 18:19 05.08.2019
4106 Clear 26 1013 41 10000 5.7 250 17:46 05.08.2019
4107 Clouds 26 1013 39 10000 6.2 210 17:27 05.08.2019
4108 Clear 26 1013 44 10000 6.2 280 16:47 05.08.2019
4109 Clear 26 1012 36 10000 4.6 280 16:27 05.08.2019
4110 Clear 26 1013 39 10000 5.7 260 15:58 05.08.2019
4111 Clear 26 1013 39 10000 5.7 260 15:40 05.08.2019
4112 Clouds 26 1012 36 10000 3.1 270 15:20 05.08.2019
4113 Clear 26 1013 44 10000 7.2 270 14:40 05.08.2019
4114 Clouds 25 1013 41 10000 3.1 260 14:21 05.08.2019
4115 Clouds 25 1013 44 10000 6.2 270 13:48 05.08.2019
4116 Clouds 25 1013 44 10000 5.7 250 13:24 05.08.2019
4117 Clouds 24 1013 50 10000 6.7 270 12:51 05.08.2019
4118 Clouds 23 1013 56 10000 5.1 260 12:22 05.08.2019
4119 Clear 23 1013 53 10000 7.2 250 11:58 05.08.2019
4120 Clear 23 1013 53 10000 7.2 250 11:40 05.08.2019
4121 Clouds 22 1013 56 10000 3.6 210 11:22 05.08.2019
4122 Clear 22 1013 60 10000 4.6 240 10:44 05.08.2019
4123 Clouds 22 1013 72 10000 2.6 100 10:26 05.08.2019
4124 Rain 21 1013 64 10000 3.1 200 09:55 05.08.2019
4125 Rain 20 1013 64 10000 3.1 200 09:36 05.08.2019
4126 Rain 20 1013 82 10000 2.1 100 09:18 05.08.2019
4127 Rain 19 1013 72 10000 2.6 210 08:41 05.08.2019
4128 Rain 19 1013 88 10000 2.6 70 08:21 05.08.2019
4129 Rain 18 1013 88 10000 1.5 70 07:47 05.08.2019
4130 Rain 18 1013 88 10000 3.1 360 07:27 05.08.2019
4131 Rain 18 1013 60 10000 1.5 80 06:41 05.08.2019
4132 Rain 19 1013 64 10000 2.1 130 05:53 05.08.2019
4133 Rain 19 1013 77 10000 3.1 320 05:23 05.08.2019
4134 Rain 19 1013 56 10000 1.5 300 04:35 05.08.2019
4135 Rain 19 1014 52 10000 3.1 210 03:47 05.08.2019
4136 Clouds 20 1013 49 10000 2.6 190 02:38 05.08.2019
4137 Clear 20 1014 52 10000 4.1 160 01:41 05.08.2019
4138 Clear 20 1015 56 10000 3.6 150 00:59 05.08.2019
4139 Clear 20 1015 56 10000 3.6 150 00:39 05.08.2019
4140 Clouds 20 1014 52 10000 2.1 70 00:18 05.08.2019
4141 Clear 20 1015 56 10000 3.6 140 23:41 04.08.2019
4142 Clear 21 1014 46 10000 2.1 70 23:22 04.08.2019
4143 Clear 21 1015 52 10000 3.6 120 22:57 04.08.2019
4144 Clear 21 1015 52 10000 3.6 120 22:38 04.08.2019
4145 Clouds 21 1014 43 10000 2.1 90 22:19 04.08.2019
4146 Clouds 21 1014 43 10000 2.1 90 22:19 04.08.2019
4147 Clear 22 1014 36 10000 1.5 140 21:45 04.08.2019
4148 Clear 23 1014 36 10000 1.5 140 21:24 04.08.2019
4149 Clear 24 1014 34 10000 2.6 150 20:58 04.08.2019
4150 Clear 25 1014 34 10000 2.6 150 20:40 04.08.2019
4151 Clear 26 1014 31 10000 2.1 170 20:18 04.08.2019
4152 Clear 26 1014 34 10000 2.6 170 19:48 04.08.2019
4153 Clear 27 1014 30 10000 2.6 220 19:27 04.08.2019
4154 Clear 27 1014 32 10000 2.6 120 18:58 04.08.2019
4155 Clear 27 1014 32 10000 2.6 120 18:40 04.08.2019
4156 Clear 28 1015 30 10000 3.1 190 18:20 04.08.2019
4157 Clear 28 1015 32 10000 2.6 0 17:43 04.08.2019
4158 Clear 28 1015 30 10000 2.6 170 17:22 04.08.2019
4159 Clear 28 1015 34 10000 2.6 210 16:45 04.08.2019
4160 Clear 28 1015 30 10000 1.5 130 16:27 04.08.2019
4161 Clear 28 1016 34 10000 3.6 250 15:56 04.08.2019
4162 Clear 28 1016 34 10000 3.6 250 15:37 04.08.2019
4163 Clear 28 1016 34 10000 3.6 250 15:37 04.08.2019
4164 Clear 27 1016 32 10000 3.6 210 15:18 04.08.2019
4165 Clear 26 1016 41 10000 3.1 230 14:42 04.08.2019
4166 Clouds 26 1016 39 10000 2.6 120 14:21 04.08.2019
4167 Clouds 27 1017 39 10000 4.1 0 13:44 04.08.2019
4168 Clear 26 1017 41 10000 3.6 200 13:24 04.08.2019
4169 Clear 26 1017 41 10000 3.6 200 13:24 04.08.2019
4170 Clouds 25 1017 44 10000 3.1 170 12:57 04.08.2019
4171 Clouds 25 1017 44 10000 3.1 170 12:39 04.08.2019
4172 Clear 24 1017 47 10000 2.1 230 12:21 04.08.2019
4173 Clear 23 1017 56 10000 2.1 0 11:46 04.08.2019
4174 Clear 22 1018 56 10000 1.5 150 11:23 04.08.2019
4175 Clear 22 1018 64 10000 3.1 130 10:48 04.08.2019
4176 Clear 21 1018 64 10000 2.6 90 10:22 04.08.2019
4177 Clear 20 1018 72 10000 2.1 100 09:47 04.08.2019
4178 Clear 19 1018 77 10000 3.1 80 09:26 04.08.2019
4179 Clear 18 1018 77 10000 3.1 60 08:59 04.08.2019
4180 Clear 16 1018 82 10000 3.1 130 08:35 04.08.2019
4181 Clear 15 1017 82 10000 3.6 50 07:55 04.08.2019
4182 Clear 14 1017 87 10000 2.1 50 07:29 04.08.2019
4183 Clouds 13 1017 82 10000 4.1 50 06:42 04.08.2019
4184 Clear 13 1018 93 10000 2.6 60 06:19 04.08.2019
4185 Clouds 14 1017 82 10000 3.6 50 03:38 04.08.2019
4186 Clear 15 1018 72 10000 5.1 50 01:55 04.08.2019
4187 Clear 15 1018 87 10000 1.5 40 01:32 04.08.2019
4188 Clear 16 1018 68 10000 5.7 50 00:43 04.08.2019
4189 Clear 17 1019 82 10000 2.66 28.648 00:24 04.08.2019
4190 Clear 17 1018 63 10000 5.1 40 23:56 03.08.2019
4191 Clear 17 1018 63 10000 5.1 40 23:37 03.08.2019
4192 Clear 17 1018 77 10000 2.1 60 23:18 03.08.2019
4193 Clear 17 1018 63 10000 4.6 10 22:41 03.08.2019
4194 Clear 18 1018 68 10000 2.6 20 22:20 03.08.2019
4195 Clear 19 1017 52 10000 4.6 10 21:40 03.08.2019
4196 Clear 19 1017 52 10000 4.6 10 21:40 03.08.2019
4197 Clear 20 1018 63 10000 2.6 10 21:22 03.08.2019
4198 Clouds 21 1017 49 10000 3.6 10 20:46 03.08.2019
4199 Clouds 22 1017 56 10000 3.1 20 20:26 03.08.2019
4200 Clear 22 1017 46 10000 4.1 360 19:57 03.08.2019
4201 Clear 22 1017 46 10000 4.1 360 19:39 03.08.2019
4202 Clear 23 1017 53 10000 3.6 360 19:21 03.08.2019
4203 Clouds 23 1017 46 10000 3.1 330 18:46 03.08.2019
4204 Clouds 24 1017 44 10000 2.1 340 18:26 03.08.2019
4205 Clouds 24 1017 44 10000 4.1 350 17:46 03.08.2019
4206 Clouds 24 1018 43 10000 2.6 330 17:20 03.08.2019
4207 Clouds 23 1018 46 10000 1.5 30 16:54 03.08.2019
4208 Clouds 23 1018 44 10000 4.6 360 16:36 03.08.2019
4209 Clouds 23 1018 53 10000 2.1 90 16:18 03.08.2019
4210 Clouds 23 1018 46 10000 2.6 40 15:42 03.08.2019
4211 Clouds 23 1018 60 10000 2.1 130 15:20 03.08.2019
4212 Clouds 23 1018 53 10000 4.6 330 14:38 03.08.2019
4213 Clouds 22 1018 64 10000 2.6 130 14:19 03.08.2019
4214 Clouds 22 1018 68 10000 3.6 130 13:49 03.08.2019
4215 Clouds 22 1018 56 10000 2.6 60 13:23 03.08.2019
4216 Clouds 22 1018 60 10000 3.6 60 12:56 03.08.2019
4217 Clouds 22 1018 60 10000 4.1 330 12:37 03.08.2019
4218 Clouds 21 1018 53 10000 2.1 20 12:19 03.08.2019
4219 Clouds 20 1018 64 10000 4.1 330 11:45 03.08.2019
4220 Clouds 20 1018 56 10000 2.6 330 11:25 03.08.2019
4221 Clouds 20 1018 68 10000 4.6 350 10:39 03.08.2019
4222 Clouds 19 1018 60 10000 4.1 340 10:21 03.08.2019
4223 Clouds 18 1018 72 10000 4.1 360 09:39 03.08.2019
4224 Clouds 18 1017 72 10000 2.6 350 09:19 03.08.2019
4225 Clouds 17 1018 87 10000 3.1 340 08:46 03.08.2019
4226 Clear 15 1017 93 10000 3.1 290 07:47 03.08.2019
4227 Clear 15 1016 93 10000 2.1 260 07:28 03.08.2019
4228 Clear 14 1016 93 10000 3.6 250 06:22 03.08.2019
4229 Clouds 15 1016 87 10000 3.6 290 03:58 03.08.2019
4230 Clouds 15 1016 82 10000 3.1 260 02:29 03.08.2019
4231 Clouds 15 1016 82 10000 4.6 280 01:34 03.08.2019
4232 Clouds 16 1016 82 10000 2.1 240 00:33 03.08.2019
4233 Clouds 17 1017 77 10000 2.6 340 23:57 02.08.2019
4234 Clouds 17 1017 77 10000 2.6 340 23:38 02.08.2019
4235 Clouds 18 1016 77 10000 3.1 270 23:18 02.08.2019
4236 Clear 17 1017 68 10000 3.1 310 22:56 02.08.2019
4237 Clear 17 1017 68 10000 3.1 310 22:37 02.08.2019
4238 Clouds 18 1016 68 10000 3.6 270 22:18 02.08.2019
4239 Clear 20 1016 60 10000 5.1 320 21:42 02.08.2019
4240 Clouds 20 1016 60 10000 3.6 280 21:22 02.08.2019
4241 Clear 21 1016 60 10000 6.7 340 20:55 02.08.2019
4242 Clear 21 1016 60 10000 6.7 340 20:37 02.08.2019
4243 Clear 22 1015 56 10000 4.1 280 20:19 02.08.2019
4244 Clouds 23 1015 44 10000 5.1 320 19:42 02.08.2019
4245 Clouds 23 1015 46 10000 5.7 290 19:24 02.08.2019
4246 -273 0 0 0 0 0 18:44 02.08.2019
4247 Clear 24 1015 41 10000 5.7 290 18:24 02.08.2019
4248 Clear 24 1016 46 10000 6.7 320 17:44 02.08.2019
4249 Clouds 24 1015 41 10000 6.7 280 17:24 02.08.2019
4250 Clouds 24 1016 41 10000 6.2 290 16:56 02.08.2019
4251 Clouds 24 1016 41 10000 6.2 290 16:37 02.08.2019
4252 Clouds 24 1015 38 10000 3.6 280 16:18 02.08.2019
4253 Clear 24 1016 43 10000 5.1 300 15:39 02.08.2019
4254 Clouds 24 1016 36 10000 3.6 270 15:19 02.08.2019
4255 Clear 24 1016 41 10000 5.7 240 14:46 02.08.2019
4256 Rain 24 1016 49 10000 4.1 190 14:18 02.08.2019
4257 Clouds 24 1016 56 10000 2.1 170 13:48 02.08.2019
4258 Rain 24 1017 64 10000 3.1 340 13:26 02.08.2019
4259 Clouds 23 1016 56 10000 4.1 250 12:45 02.08.2019
4260 Rain 22 1016 53 10000 3.21 309.433 12:22 02.08.2019
4261 Rain 22 1017 49 10000 2.1 0 11:55 02.08.2019
4262 Rain 22 1017 49 10000 2.1 0 11:37 02.08.2019
4263 Clear 22 1017 64 10000 3.1 170 11:18 02.08.2019
4264 Clouds 22 1017 60 10000 3.1 40 10:41 02.08.2019
4265 Clouds 21 1017 72 10000 3.21 309.433 10:23 02.08.2019
4266 Clouds 20 1017 68 10000 3.1 20 09:52 02.08.2019
4267 Clouds 19 1017 87 10000 1.5 180 09:26 02.08.2019
4268 Rain 17 1017 77 10000 1.51 345.419 08:50 02.08.2019
4269 Clouds 16 1016 72 10000 1.51 345.419 08:23 02.08.2019
4270 Clear 16 1016 72 10000 2.6 330 07:51 02.08.2019
4271 Clear 15 1017 77 10000 0.5 0 07:31 02.08.2019
4272 Clouds 15 1016 82 10000 1.51 345.419 06:54 02.08.2019
4273 Clouds 15 1016 82 10000 1.28 328.906 06:24 02.08.2019
4274 Clear 15 1016 72 10000 3.1 40 05:37 02.08.2019
4275 Clear 15 1017 77 10000 2.1 80 03:31 02.08.2019
4276 Clear 15 1017 72 10000 2.1 130 02:35 02.08.2019
4277 Clear 16 1017 67 10000 3.1 10 00:54 02.08.2019
4278 Clouds 16 1017 67 10000 2.6 360 00:20 02.08.2019
4279 Clear 17 1017 63 10000 2.1 40 23:43 01.08.2019
4280 Clouds 17 1018 59 10000 1.5 340 23:19 01.08.2019
4281 Clear 17 1018 59 10000 2.6 10 22:41 01.08.2019
4282 Clouds 18 1018 56 10000 1.5 250 22:21 01.08.2019
4283 Clear 19 1017 52 10000 2.6 10 21:55 01.08.2019
4284 Clear 19 1017 52 10000 2.6 10 21:37 01.08.2019
4285 Clear 20 1017 52 10000 1.69 296.398 21:18 01.08.2019
4286 Clear 22 1017 46 10000 2.6 340 20:43 01.08.2019
4287 Clear 22 1017 49 10000 2.1 280 20:22 01.08.2019
4288 Clear 22 1017 43 10000 3.1 330 19:45 01.08.2019
4289 Clouds 23 1017 46 10000 2.6 210 19:23 01.08.2019
4290 Clouds 23 1017 46 10000 2.6 210 19:23 01.08.2019
4291 Clear 23 1017 41 10000 2.6 310 18:58 01.08.2019
4292 Clear 24 1017 41 10000 2.6 310 18:40 01.08.2019
4293 Clouds 24 1017 43 10000 2.6 300 18:21 01.08.2019
4294 Clear 24 1017 43 10000 3.1 330 17:45 01.08.2019
4295 Clouds 24 1018 46 10000 3.81 262.705 17:26 01.08.2019
4296 Clear 23 1018 40 10000 3.1 290 16:44 01.08.2019
4297 Clouds 23 1018 49 10000 3.6 300 16:22 01.08.2019
4298 Clear 23 1018 43 10000 3.1 0 15:46 01.08.2019
4299 Clouds 23 1018 49 10000 4.6 290 15:21 01.08.2019
4300 Clouds 23 1018 49 0 1.5 260 14:55 01.08.2019
4301 Clear 22 1018 40 10000 3.6 250 14:37 01.08.2019
4302 Clouds 23 1018 49 10000 3.6 250 14:18 01.08.2019
4303 Clouds 22 1019 43 10000 2.1 0 13:41 01.08.2019
4304 Clear 22 1018 46 10000 4.1 210 13:22 01.08.2019
4305 Clouds 22 1019 46 10000 3.1 210 12:59 01.08.2019
4306 Clouds 22 1019 46 10000 3.1 210 12:59 01.08.2019
4307 Clouds 22 1019 46 10000 3.1 210 12:41 01.08.2019
4308 Clouds 21 1019 49 10000 3.6 220 12:21 01.08.2019
4309 Clouds 20 1019 49 10000 3.1 240 11:42 01.08.2019
4310 Clouds 20 1019 55 10000 2.6 230 11:22 01.08.2019
4311 Clouds 19 1019 52 10000 3.1 200 10:46 01.08.2019
4312 Clouds 19 1019 63 10000 3.1 180 10:28 01.08.2019
4313 Clear 18 1019 59 10000 2.6 190 09:59 01.08.2019
4314 Clear 18 1019 59 10000 2.6 190 09:40 01.08.2019
4315 Clear 17 1019 67 10000 2.6 200 09:22 01.08.2019
4316 Clear 15 1019 67 10000 1.5 220 08:43 01.08.2019
4317 Clear 15 1019 67 10000 1.5 150 08:20 01.08.2019
4318 Clear 13 1019 71 10000 1 0 07:47 01.08.2019
4319 Clouds 13 1019 71 10000 1.5 170 07:24 01.08.2019
4320 Clouds 12 1019 71 10000 1.5 140 06:48 01.08.2019
4321 Clear 12 1019 71 10000 1.5 160 05:50 01.08.2019
4322 Clear 12 1019 76 10000 0.84 218.873 04:23 01.08.2019
4323 Clear 12 1019 71 10000 2.6 240 02:33 01.08.2019
4324 Clear 13 1019 63 10000 3.6 280 00:43 01.08.2019
4325 Clear 14 1019 67 10000 1.88 257.382 00:24 01.08.2019
4326 Clear 14 1019 63 10000 3.1 280 23:43 31.07.2019
4327 Clear 15 1019 62 10000 1.88 257.382 23:21 31.07.2019
4328 Clear 15 1019 62 10000 1.88 257.382 23:21 31.07.2019
4329 Clear 15 1019 59 10000 3.6 270 22:56 31.07.2019
4330 Clear 15 1019 59 10000 3.6 270 22:38 31.07.2019
4331 Clear 16 1019 55 10000 2.1 270 22:19 31.07.2019
4332 Clear 18 1019 55 10000 4.6 270 21:38 31.07.2019
4333 Clear 19 1018 48 10000 3.1 260 21:18 31.07.2019
4334 Clear 19 1018 49 10000 6.2 290 20:43 31.07.2019
4335 Clear 20 1018 45 10000 5.1 240 20:22 31.07.2019
4336 Clear 21 1018 45 10000 5.7 270 19:42 31.07.2019
4337 Clouds 21 1017 37 10000 7.7 240 19:23 31.07.2019
4338 Clouds 21 1018 46 10000 6.2 260 18:53 31.07.2019
4339 Clouds 21 1017 37 10000 6.7 230 18:28 31.07.2019
4340 Clouds 21 1017 46 10000 4.6 210 17:59 31.07.2019
4341 Clouds 21 1017 46 10000 4.6 210 17:40 31.07.2019
4342 Drizzle 21 1017 43 10000 6.7 220 17:19 31.07.2019
4343 Clouds 21 1018 49 10000 5.7 290 16:46 31.07.2019
4344 Clouds 21 1018 49 10000 4.6 250 16:20 31.07.2019
4345 Drizzle 21 1018 43 10000 5.7 220 15:45 31.07.2019
4346 Clouds 21 1018 46 10000 6.2 220 15:26 31.07.2019
4347 Clouds 21 1018 46 10000 6.2 220 15:26 31.07.2019
4348 Clouds 21 1018 49 10000 6.2 270 14:55 31.07.2019
4349 Clouds 21 1018 49 10000 6.2 270 14:36 31.07.2019
4350 Clouds 21 1018 46 10000 5.1 220 14:18 31.07.2019
4351 Clouds 21 1018 56 10000 5.7 260 13:44 31.07.2019
4352 Clouds 20 1018 46 10000 5.7 210 13:25 31.07.2019
4353 Clouds 20 1018 46 10000 5.7 230 12:57 31.07.2019
4354 Clouds 20 1018 55 10000 5.1 250 12:38 31.07.2019
4355 Clouds 20 1018 49 10000 4.1 240 12:18 31.07.2019
4356 Clouds 19 1018 63 10000 4.6 240 11:39 31.07.2019
4357 Clouds 19 1018 56 10000 5.7 250 11:20 31.07.2019
4358 Clouds 19 1018 67 10000 6.2 250 10:42 31.07.2019
4359 Clouds 18 1018 63 10000 6.2 210 10:21 31.07.2019
4360 Clouds 18 1018 67 10000 5.1 240 09:54 31.07.2019
4361 Clouds 17 1018 67 10000 5.1 240 09:36 31.07.2019
4362 Clear 17 1018 67 10000 5.1 230 09:18 31.07.2019
4363 Clear 17 1018 72 10000 5.1 240 08:41 31.07.2019
4364 Clear 16 1017 72 10000 3.6 220 08:21 31.07.2019
4365 Clear 15 1017 77 10000 4.6 260 07:35 31.07.2019
4366 Clear 14 1017 77 10000 5.1 260 06:35 31.07.2019
4367 Clouds 16 1017 72 10000 3.1 230 04:56 31.07.2019
4368 Clear 17 1016 72 10000 2.1 230 03:25 31.07.2019
4369 Clouds 19 1015 68 10000 2.1 190 00:24 31.07.2019
4370 Clear 19 1015 60 10000 3.1 190 23:40 30.07.2019
4371 Clouds 19 1015 63 10000 3.1 210 23:20 30.07.2019
4372 Clear 19 1015 60 10000 3.1 200 22:46 30.07.2019
4373 Clouds 19 1015 60 10000 3.1 190 22:25 30.07.2019
4374 Clear 20 1015 56 10000 3.6 200 21:57 30.07.2019
4375 Clear 21 1015 56 10000 3.6 200 21:37 30.07.2019
4376 Clouds 21 1014 56 10000 2.6 200 21:18 30.07.2019
4377 Clear 22 1014 49 10000 4.1 210 20:43 30.07.2019
4378 Rain 22 1014 46 10000 4.6 230 20:24 30.07.2019
4379 Rain 23 1014 46 10000 4.6 210 19:59 30.07.2019
4380 Rain 23 1014 46 10000 4.6 210 19:40 30.07.2019
4381 Clouds 23 1014 49 10000 4.6 220 19:21 30.07.2019
4382 Clouds 23 1015 47 10000 5.1 220 18:44 30.07.2019
4383 Clouds 24 1014 47 10000 5.7 230 18:20 30.07.2019
4384 Clear 24 1015 46 10000 6.2 240 17:43 30.07.2019
4385 Clouds 24 1014 46 10000 4.1 230 17:20 30.07.2019
4386 Clear 24 1015 44 10000 4.6 220 16:55 30.07.2019
4387 Clear 24 1014 41 10000 6.7 260 16:37 30.07.2019
4388 Clouds 24 1014 41 10000 6.2 230 16:18 30.07.2019
4389 Clear 25 1015 46 10000 3.6 240 15:39 30.07.2019
4390 Clear 25 1015 46 10000 3.6 240 15:39 30.07.2019
4391 Clouds 25 1014 36 10000 7.2 220 15:19 30.07.2019
4392 Clear 24 1015 49 10000 5.7 240 14:43 30.07.2019
4393 Clear 24 1015 49 10000 5.7 240 14:43 30.07.2019
4394 Clouds 25 1014 39 10000 6.7 210 14:22 30.07.2019
4395 Clear 25 1014 41 10000 7.2 260 13:55 30.07.2019
4396 Clear 25 1014 41 10000 7.2 260 13:36 30.07.2019
4397 Clear 25 1014 34 10000 4.1 210 13:18 30.07.2019
4398 Clear 25 1014 47 10000 6.2 240 12:43 30.07.2019
4399 Clear 25 1014 44 10000 6.2 210 12:24 30.07.2019
4400 Clear 25 1014 53 10000 3.6 0 11:46 30.07.2019
4401 Clear 25 1013 47 10000 4.6 190 11:23 30.07.2019
4402 Clear 24 1014 56 10000 3.1 200 10:56 30.07.2019
4403 Clear 23 1014 56 10000 3.1 200 10:38 30.07.2019
4404 Clear 23 1013 60 10000 2.1 80 10:20 30.07.2019
4405 Clear 21 1014 60 10000 3.1 150 09:46 30.07.2019
4406 Clear 20 1014 68 10000 2.1 70 09:28 30.07.2019
4407 Clear 18 1013 68 10000 2.6 150 08:41 30.07.2019
4408 Clear 17 1014 77 10000 0.88 154.077 08:19 30.07.2019
4409 Clear 16 1013 63 10000 2.1 100 07:43 30.07.2019
4410 Clear 15 1014 87 10000 0.88 154.077 07:23 30.07.2019
4411 Clear 14 1013 67 10000 1.5 90 06:44 30.07.2019
4412 Clear 14 1013 77 10000 4.1 150 05:36 30.07.2019
4413 Clear 14 1013 77 10000 1 40 04:42 30.07.2019
4414 Clear 16 1013 67 10000 0.99 31.202 01:23 30.07.2019
4415 Clouds 17 1013 55 10000 0.99 31.202 00:28 30.07.2019
4416 Clear 17 1013 49 10000 2.6 20 23:59 29.07.2019
4417 Clear 17 1013 49 10000 2.6 20 23:41 29.07.2019
4418 Clear 18 1013 56 10000 1.46 355.158 23:22 29.07.2019
4419 Clear 18 1012 52 10000 2.6 10 22:56 29.07.2019
4420 Clear 18 1012 52 10000 2.6 10 22:38 29.07.2019
4421 Clear 19 1012 46 10000 1.46 355.158 22:18 29.07.2019
4422 Clear 21 1012 49 10000 1.5 360 21:42 29.07.2019
4423 Clear 22 1012 43 10000 2.1 240 21:23 29.07.2019
4424 Clear 23 1012 38 10000 1.5 190 20:58 29.07.2019
4425 Clear 24 1012 38 10000 1.5 190 20:39 29.07.2019
4426 Clear 24 1012 41 10000 1.5 160 20:20 29.07.2019
4427 Clear 25 1011 38 10000 3.1 240 19:50 29.07.2019
4428 Clear 25 1012 36 10000 2.6 210 19:24 29.07.2019
4429 Clear 25 1012 38 10000 3.1 230 18:59 29.07.2019
4430 Clear 25 1012 38 10000 3.1 230 18:40 29.07.2019
4431 Clear 26 1012 34 10000 1.72 267.431 18:20 29.07.2019
4432 Clear 26 1012 41 10000 3.6 320 17:49 29.07.2019
4433 Clear 26 1012 41 10000 2.1 260 17:31 29.07.2019
4434 Clear 25 1012 38 10000 3.1 0 16:57 29.07.2019
4435 Clear 25 1012 38 10000 3.1 0 16:38 29.07.2019
4436 Clear 25 1012 34 10000 4.6 220 16:20 29.07.2019
4437 Clear 25 1012 38 10000 3.6 330 15:49 29.07.2019
4438 Clouds 24 1012 49 10000 2.1 240 15:30 29.07.2019
4439 Clear 24 1012 38 10000 3.1 340 14:44 29.07.2019
4440 Clear 24 1012 36 10000 3.6 260 14:21 29.07.2019
4441 Clear 23 1012 40 10000 3.6 0 13:57 29.07.2019
4442 Clear 23 1012 40 10000 3.6 0 13:36 29.07.2019
4443 Clear 23 1012 41 10000 3.1 210 13:18 29.07.2019
4444 Clouds 22 1013 46 10000 3.1 280 12:41 29.07.2019
4445 Clear 22 1013 46 10000 3.1 250 12:21 29.07.2019
4446 Clouds 21 1013 43 10000 2.6 330 11:42 29.07.2019
4447 Clear 20 1013 60 10000 1.5 350 11:21 29.07.2019
4448 Clear 20 1013 60 10000 2.1 30 10:45 29.07.2019
4449 Clear 20 1013 64 10000 2.1 300 10:24 29.07.2019
4450 Clear 18 1013 68 10000 1.5 0 09:45 29.07.2019
4451 Mist 16 1013 77 10000 0.8 297.462 09:25 29.07.2019
4452 Mist 15 1013 77 10000 1.5 270 08:57 29.07.2019
4453 Mist 14 1013 100 2400 0.86 277.524 08:28 29.07.2019
4454 Mist 13 1012 100 9000 2.1 270 07:56 29.07.2019
4455 Fog 13 1012 100 250 2.6 280 07:32 29.07.2019
4456 Mist 11 1012 100 8000 2.1 270 06:44 29.07.2019
4457 Fog 12 1012 93 10000 2.1 310 05:43 29.07.2019
4458 Mist 12 1012 93 1600 1.01 301.227 04:49 29.07.2019
4459 Clear 13 1011 93 10000 1.5 320 01:59 29.07.2019
4460 Clear 13 1011 93 10000 1.5 320 01:41 29.07.2019
4461 Clear 14 1011 87 10000 1.5 280 01:21 29.07.2019
4462 Clear 14 1011 87 10000 2.1 300 00:41 29.07.2019
4463 Clouds 14 1011 87 10000 1.5 280 00:18 29.07.2019
4464 Clear 15 1011 87 10000 2.6 310 23:40 28.07.2019
4465 Drizzle 15 1010 82 10000 2.6 290 23:18 28.07.2019
4466 Rain 16 1010 77 10000 2.1 310 22:38 28.07.2019
4467 Rain 16 1010 77 10000 2.1 310 22:38 28.07.2019
4468 Rain 16 1010 82 10000 3.1 280 22:19 28.07.2019
4469 Rain 16 1010 77 10000 2.6 310 21:46 28.07.2019
4470 Rain 17 1009 82 10000 3.1 290 21:18 28.07.2019
4471 Rain 18 1009 82 10000 3.6 290 20:45 28.07.2019
4472 Rain 18 1008 82 10000 4.1 290 20:27 28.07.2019
4473 Rain 18 1008 68 10000 4.6 280 19:42 28.07.2019
4474 Rain 19 1007 82 10000 3.6 290 19:22 28.07.2019
4475 Rain 19 1007 82 10000 4.6 280 18:58 28.07.2019
4476 Rain 18 1008 72 10000 4.6 300 18:38 28.07.2019
4477 Rain 18 1008 72 10000 4.6 300 18:38 28.07.2019
4478 Rain 18 1007 77 10000 5.1 280 18:18 28.07.2019
4479 Rain 18 1007 77 10000 6.7 280 17:41 28.07.2019
4480 Rain 18 1006 82 10000 5.1 270 17:21 28.07.2019
4481 Rain 18 1007 77 10000 7.2 290 16:57 28.07.2019
4482 Rain 18 1007 77 10000 7.2 290 16:38 28.07.2019
4483 Drizzle 18 1006 82 10000 4.6 280 16:19 28.07.2019
4484 Drizzle 18 1005 82 10000 4.1 280 15:42 28.07.2019
4485 Drizzle 18 1005 82 10000 3.6 280 15:21 28.07.2019
4486 Rain 17 1006 88 8000 6.2 290 14:37 28.07.2019
4487 Rain 17 1005 100 4000 3.6 280 14:37 28.07.2019
4488 Rain 17 1005 100 4000 3.6 280 14:37 28.07.2019
4489 Rain 17 1006 88 8000 6.2 290 14:37 28.07.2019
4490 Rain 18 1004 88 10000 4.6 290 14:19 28.07.2019
4491 Drizzle 18 1004 82 10000 3.6 290 13:45 28.07.2019
4492 Rain 18 1004 88 10000 3.6 290 13:25 28.07.2019
4493 Rain 18 1003 88 10000 3.1 280 12:59 28.07.2019
4494 Rain 18 1003 88 10000 3.1 280 12:40 28.07.2019
4495 Drizzle 18 1003 82 10000 4.1 280 12:22 28.07.2019
4496 Rain 18 1004 88 10000 5.1 300 11:47 28.07.2019
4497 Rain 17 1003 88 10000 2.6 290 11:27 28.07.2019
4498 Rain 18 1003 88 5000 5.1 290 10:41 28.07.2019
4499 Mist 18 1002 88 10000 4.6 290 10:22 28.07.2019
4500 Mist 17 1003 82 10000 4.6 300 09:54 28.07.2019
4501 Mist 17 1003 82 10000 4.6 300 09:36 28.07.2019
4502 Fog 17 1002 100 10000 3.6 270 09:18 28.07.2019
4503 Fog 17 1002 93 10000 4.1 300 08:41 28.07.2019
4504 Fog 17 1002 100 10000 3.1 260 08:18 28.07.2019
4505 Fog 17 1002 93 10000 3.6 300 07:38 28.07.2019
4506 Mist 17 1001 100 10000 2.6 290 06:46 28.07.2019
4507 Rain 17 1001 100 10000 3.6 280 05:53 28.07.2019
4508 Mist 17 1002 93 10000 3.6 300 04:37 28.07.2019
4509 Clouds 18 1002 93 10000 2.1 270 02:24 28.07.2019
4510 Drizzle 18 1002 93 10000 3.1 290 01:22 28.07.2019
4511 Clouds 18 1002 93 10000 2.1 260 00:47 28.07.2019
4512 Clouds 18 1002 93 10000 2.1 260 00:24 28.07.2019
4513 Clouds 18 1003 93 10000 2.6 290 23:48 27.07.2019
4514 Clouds 18 1003 88 10000 2.1 260 23:26 27.07.2019
4515 Clouds 18 1003 88 10000 3.6 270 22:42 27.07.2019
4516 Clouds 19 1003 93 10000 1.5 270 22:23 27.07.2019
4517 Clouds 19 1003 93 10000 2.1 260 21:44 27.07.2019
4518 Clouds 19 1003 93 10000 2.6 250 21:23 27.07.2019
4519 Rain 19 1003 82 10000 2.6 250 20:54 27.07.2019
4520 Rain 20 1003 82 10000 3.1 260 20:30 27.07.2019
4521 Haze 20 1002 82 9000 3.1 260 19:59 27.07.2019
4522 Rain 20 1003 82 10000 3.1 300 19:39 27.07.2019
4523 Rain 20 1003 82 10000 3.1 260 19:19 27.07.2019
4524 Rain 20 1003 77 10000 3.6 300 18:46 27.07.2019
4525 Rain 20 1003 77 10000 4.1 290 18:28 27.07.2019
4526 Rain 20 1003 83 10000 3.1 250 17:50 27.07.2019
4527 Rain 20 1003 82 10000 4.1 300 17:31 27.07.2019
4528 Rain 20 1004 78 10000 2.6 270 16:54 27.07.2019
4529 Rain 21 1004 82 8000 3.1 290 16:34 27.07.2019
4530 Rain 20 1004 82 10000 3.6 250 15:56 27.07.2019
4531 Rain 20 1004 82 10000 3.6 250 15:36 27.07.2019
4532 Clouds 20 1004 88 10000 3.1 230 15:18 27.07.2019
4533 Clouds 20 1004 93 10000 3.6 220 14:41 27.07.2019
4534 Clouds 20 1004 93 10000 3.6 200 14:23 27.07.2019
4535 Mist 20 1005 93 10000 3.6 220 13:47 27.07.2019
4536 Rain 20 1005 88 10000 3.6 200 13:22 27.07.2019
4537 Drizzle 20 1005 100 4000 3.6 200 12:50 27.07.2019
4538 Drizzle 20 1005 88 10000 2.6 190 12:27 27.07.2019
4539 Rain 20 1004 78 10000 4.1 200 11:56 27.07.2019
4540 Rain 20 1005 93 5000 3.6 170 11:37 27.07.2019
4541 Clouds 20 1004 73 10000 3.6 190 11:19 27.07.2019
4542 Clouds 20 1005 93 10000 1.5 190 10:40 27.07.2019
4543 Clouds 20 1004 77 10000 2.94 191.845 10:21 27.07.2019
4544 Rain 20 1005 88 10000 1.5 0 09:41 27.07.2019
4545 Rain 19 1005 77 10000 2.1 180 09:22 27.07.2019
4546 Rain 19 1005 93 10000 4.1 260 08:49 27.07.2019
4547 Rain 19 1004 73 10000 2.6 240 08:29 27.07.2019
4548 Rain 19 1005 88 10000 2.6 210 07:54 27.07.2019
4549 Rain 20 1004 64 10000 3.1 240 07:29 27.07.2019
4550 Clouds 20 1004 64 10000 5.1 230 06:56 27.07.2019
4551 Clear 20 1005 64 10000 3.1 170 06:31 27.07.2019
4552 Thunderstorm 20 1005 68 10000 4.1 190 05:52 27.07.2019
4553 Thunderstorm 21 1005 64 10000 2.6 100 05:24 27.07.2019
4554 Clear 21 1006 64 10000 4.1 150 04:31 27.07.2019
4555 Clouds 22 1006 73 10000 1.5 80 03:28 27.07.2019
4556 Rain 22 1007 64 10000 5.7 150 02:32 27.07.2019
4557 Thunderstorm 23 1006 60 10000 3.6 360 01:48 27.07.2019
4558 Thunderstorm 23 1006 60 10000 2.1 280 01:21 27.07.2019
4559 Thunderstorm 23 1007 60 10000 2.6 30 00:32 27.07.2019
4560 Thunderstorm 24 1007 57 10000 3.1 340 23:55 26.07.2019
4561 Thunderstorm 24 1007 57 10000 3.1 340 23:37 26.07.2019
4562 Rain 24 1007 53 10000 2.6 60 23:18 26.07.2019
4563 Rain 24 1007 54 10000 2.6 320 22:41 26.07.2019
4564 Rain 24 1007 50 10000 3.1 100 22:23 26.07.2019
4565 Clouds 25 1008 51 10000 2.6 320 21:49 26.07.2019
4566 Rain 27 1007 47 10000 3.6 80 21:20 26.07.2019
4567 Rain 28 1008 42 10000 3.1 310 20:43 26.07.2019
4568 Thunderstorm 29 1008 31 10000 2.6 280 20:25 26.07.2019
4569 Clear 29 1008 40 10000 4.1 300 19:44 26.07.2019
4570 Clear 29 1008 37 10000 4.1 330 19:25 26.07.2019
4571 Clear 30 1009 38 10000 3.6 310 18:58 26.07.2019
4572 Clear 31 1009 38 10000 3.6 310 18:38 26.07.2019
4573 Rain 31 1009 29 10000 4.1 250 18:20 26.07.2019
4574 Thunderstorm 31 1009 30 10000 6.2 240 17:47 26.07.2019
4575 Rain 32 1008 30 10000 5.1 260 17:19 26.07.2019
4576 Rain 32 1008 30 10000 5.1 260 17:19 26.07.2019
4577 Thunderstorm 33 1010 33 10000 6.7 250 16:58 26.07.2019
4578 Thunderstorm 33 1010 33 10000 6.7 250 16:40 26.07.2019
4579 Clouds 33 1009 28 10000 8.2 240 16:20 26.07.2019
4580 Clear 33 1009 26 10000 5.7 250 15:56 26.07.2019
4581 Clouds 33 1010 33 10000 5.1 240 15:38 26.07.2019
4582 Clear 34 1009 25 10000 5.1 250 15:19 26.07.2019
4583 Clear 34 1011 31 10000 4.1 220 14:43 26.07.2019
4584 Clear 34 1010 26 10000 6.2 220 14:23 26.07.2019
4585 Clear 34 1011 32 10000 4.6 190 13:46 26.07.2019
4586 Clear 34 1011 26 10000 2.49 200.866 13:27 26.07.2019
4587 Clear 33 1011 31 10000 4.1 180 12:49 26.07.2019
4588 Clear 33 1011 31 10000 3.1 70 12:23 26.07.2019
4589 Haze 33 1011 31 10000 2.1 70 11:56 26.07.2019
4590 Haze 32 1011 31 10000 2.1 70 11:36 26.07.2019
4591 Haze 32 1012 33 10000 2.42 161.265 11:18 26.07.2019
4592 Clouds 30 1012 39 10000 2.1 0 10:39 26.07.2019
4593 Clear 29 1012 35 10000 2.42 161.265 10:20 26.07.2019
4594 Clear 28 1012 44 10000 2.1 170 09:50 26.07.2019
4595 Clear 27 1012 39 10000 1.5 120 09:28 26.07.2019
4596 Clear 25 1012 44 10000 3.1 170 08:41 26.07.2019
4597 Clear 25 1012 36 10000 2.1 80 08:21 26.07.2019
4598 Clear 24 1012 41 10000 1.5 100 07:40 26.07.2019
4599 Clear 23 1012 44 10000 4.1 60 07:22 26.07.2019
4600 Clear 22 1012 38 10000 4.1 70 06:30 26.07.2019
4601 Haze 23 1014 38 10000 4.1 120 04:30 26.07.2019
4602 Clouds 23 1013 34 10000 4.1 50 03:54 26.07.2019
4603 Clear 24 1015 36 10000 3.1 130 01:50 26.07.2019
4604 Clear 24 1014 41 10000 4.1 70 01:26 26.07.2019
4605 Clear 25 1015 34 10000 1.5 100 00:32 26.07.2019
4606 Clouds 26 1014 28 10000 3.1 80 23:55 25.07.2019
4607 Clear 27 1014 30 10000 3.6 60 23:23 25.07.2019
4608 Clear 27 1014 27 10000 2.6 80 22:42 25.07.2019
4609 Clear 29 1014 25 10000 2.1 90 22:24 25.07.2019
4610 Clear 29 1014 24 10000 2.1 90 21:58 25.07.2019
4611 Clear 29 1014 24 10000 2.1 90 21:58 25.07.2019
4612 Clear 31 1014 24 10000 2.1 90 21:40 25.07.2019
4613 Clear 32 1014 22 10000 3.1 90 21:20 25.07.2019
4614 Clear 34 1014 21 10000 3.1 90 20:45 25.07.2019
4615 Clear 35 1014 20 10000 3.6 120 20:22 25.07.2019
4616 Clear 36 1013 20 10000 3.6 80 19:42 25.07.2019
4617 Clear 36 1014 19 10000 5.7 130 19:24 25.07.2019
4618 Clear 36 1014 19 10000 4.6 70 18:46 25.07.2019
4619 Clear 37 1014 17 10000 4.1 90 18:27 25.07.2019
4620 Clear 38 1014 20 10000 4.1 100 17:57 25.07.2019
4621 Clear 38 1014 20 10000 4.1 100 17:38 25.07.2019
4622 Clear 38 1015 18 10000 3.6 160 17:20 25.07.2019
4623 Clear 38 1015 21 10000 4.6 90 16:43 25.07.2019
4624 Clear 38 1015 19 10000 5.7 130 16:24 25.07.2019
4625 Clear 38 1015 22 10000 4.6 0 15:51 25.07.2019
4626 Clear 38 1016 19 10000 3.6 130 15:21 25.07.2019
4627 Smoke 38 1016 25 10000 4.1 150 14:56 25.07.2019
4628 Smoke 38 1016 25 10000 4.1 150 14:38 25.07.2019
4629 Smoke 38 1016 21 10000 2.1 120 14:18 25.07.2019
4630 Clear 37 1016 23 10000 4.1 150 13:40 25.07.2019
4631 Clear 37 1017 25 10000 2.6 80 13:22 25.07.2019
4632 Clear 36 1018 24 10000 4.6 150 12:35 25.07.2019
4633 Clear 35 1017 30 10000 3.1 100 11:59 25.07.2019
4634 Haze 34 1017 30 10000 3.1 100 11:40 25.07.2019
4635 Haze 33 1017 30 10000 3.6 100 11:22 25.07.2019
4636 Haze 32 1017 38 10000 3.1 110 10:45 25.07.2019
4637 Haze 31 1017 42 10000 3.6 80 10:24 25.07.2019
4638 Haze 29 1017 40 10000 2.1 90 09:46 25.07.2019
4639 Haze 28 1017 54 10000 2.6 80 09:27 25.07.2019
4640 Haze 28 1017 54 10000 2.6 80 09:27 25.07.2019
4641 Haze 26 1017 42 10000 4.1 60 08:53 25.07.2019
4642 Haze 25 1018 47 10000 3.6 140 08:33 25.07.2019
4643 Haze 24 1017 47 10000 3.6 50 07:41 25.07.2019
4644 Haze 22 1017 50 10000 3.6 60 06:50 25.07.2019
4645 Haze 22 1017 64 10000 1.04 75.405 06:31 25.07.2019
4646 Clear 21 1017 50 10000 3.6 60 05:36 25.07.2019
4647 Clear 22 1017 47 10000 2.6 70 04:50 25.07.2019
4648 Clear 22 1017 53 10000 1.5 70 03:24 25.07.2019
4649 Clear 24 1017 44 10000 1.19 32.066 01:21 25.07.2019
4650 Clear 25 1018 39 10000 4.1 140 00:35 25.07.2019
4651 Clear 26 1018 37 10000 4.1 140 23:59 24.07.2019
4652 Clear 26 1018 37 10000 4.1 140 23:40 24.07.2019
4653 Clear 26 1017 42 10000 2.6 70 23:22 24.07.2019
4654 Clear 27 1016 42 10000 1 0 22:45 24.07.2019
4655 Clear 28 1016 40 10000 1 80 22:22 24.07.2019
4656 Clear 30 1016 33 10000 1 110 21:56 24.07.2019
4657 Clear 31 1016 33 10000 1 110 21:38 24.07.2019
4658 Clear 31 1016 29 10000 1.5 180 21:19 24.07.2019
4659 Clear 33 1015 26 10000 2.1 100 20:47 24.07.2019
4660 Clear 34 1015 24 10000 1.14 344.511 20:29 24.07.2019
4661 Clear 35 1015 23 10000 2.6 120 19:59 24.07.2019
4662 Clear 35 1015 23 10000 2.6 120 19:59 24.07.2019
4663 Clear 35 1015 23 10000 2.6 120 19:59 24.07.2019
4664 Clear 36 1015 23 10000 2.6 120 19:40 24.07.2019
4665 Clear 36 1015 22 10000 2.6 250 19:20 24.07.2019
4666 Smoke 37 1015 19 10000 2.1 240 18:44 24.07.2019
4667 Clear 37 1015 19 10000 1.61 315.151 18:24 24.07.2019
4668 Clear 38 1015 23 10000 1.5 0 17:48 24.07.2019
4669 Clear 38 1016 19 10000 1.61 315.151 17:24 24.07.2019
4670 Clear 38 1016 22 10000 2.1 200 16:59 24.07.2019
4671 Clear 38 1016 22 10000 2.1 200 16:39 24.07.2019
4672 Clear 38 1016 19 10000 2.1 210 16:21 24.07.2019
4673 Clear 37 1016 23 10000 2.6 0 15:38 24.07.2019
4674 Clouds 37 1016 22 10000 2.6 190 15:20 24.07.2019
4675 Clear 36 1016 28 10000 3.1 210 14:46 24.07.2019
4676 Clear 36 1017 23 10000 2.1 210 14:22 24.07.2019
4677 Clear 36 1017 23 10000 2.1 210 14:22 24.07.2019
4678 Clear 35 1017 30 10000 3.6 170 13:41 24.07.2019
4679 Clear 35 1017 28 10000 3.1 190 13:23 24.07.2019
4680 Clear 34 1017 33 10000 3.1 0 12:55 24.07.2019
4681 Clear 34 1017 33 10000 3.1 0 12:37 24.07.2019
4682 Clear 32 1017 29 10000 2.6 170 12:18 24.07.2019
4683 Clear 31 1017 38 10000 2.6 130 11:37 24.07.2019
4684 Clear 31 1017 33 10000 1.84 164.646 11:18 24.07.2019
4685 Clear 29 1017 39 10000 2.6 0 10:42 24.07.2019
4686 Clear 28 1017 42 10000 1.84 164.646 10:24 24.07.2019
4687 Clear 27 1017 44 10000 3.1 130 09:44 24.07.2019
4688 Clear 25 1017 50 10000 2.6 80 09:23 24.07.2019
4689 Clear 24 1017 44 10000 1.5 90 08:53 24.07.2019
4690 Clear 23 1017 56 10000 1.5 100 08:27 24.07.2019
4691 Clear 22 1017 50 10000 3.1 50 07:50 24.07.2019
4692 Clear 20 1017 64 10000 1.07 82.782 07:23 24.07.2019
4693 Clear 19 1017 60 10000 1.07 82.782 06:28 24.07.2019
4694 Clear 18 1017 60 10000 2.1 80 05:26 24.07.2019
4695 Clear 21 1018 44 10000 3.1 40 01:57 24.07.2019
4696 Clear 21 1018 53 10000 1.57 66.293 01:28 24.07.2019
4697 Clear 22 1018 41 10000 3.6 60 00:54 24.07.2019
4698 Clear 22 1018 41 10000 3.1 80 00:22 24.07.2019
4699 Clear 23 1020 44 10000 1.5 110 23:41 23.07.2019
4700 Clear 23 1019 41 10000 3.6 80 23:22 23.07.2019
4701 Clear 24 1020 44 10000 2.1 80 22:39 23.07.2019
4702 Clear 25 1019 34 10000 3.1 80 22:19 23.07.2019
4703 Clouds 27 1018 33 10000 2.1 90 21:58 23.07.2019
4704 Clouds 27 1018 33 10000 2.1 90 21:40 23.07.2019
4705 Clear 29 1018 28 10000 2.6 80 21:21 23.07.2019
4706 Clouds 31 1018 27 10000 2.1 130 20:44 23.07.2019
4707 Clear 32 1018 25 10000 3.6 80 20:21 23.07.2019
4708 Clear 32 1018 26 10000 3.1 110 19:42 23.07.2019
4709 Clear 33 1019 24 10000 3.6 80 19:19 23.07.2019
4710 Clear 32 1019 26 10000 2.6 160 18:47 23.07.2019
4711 Clear 34 1019 24 10000 4.6 70 18:23 23.07.2019
4712 Clear 34 1019 26 10000 3.1 0 17:45 23.07.2019
4713 Clear 34 1019 26 10000 5.1 70 17:25 23.07.2019
4714 Clear 34 1019 26 10000 4.6 160 16:58 23.07.2019
4715 Clear 34 1019 26 10000 4.6 160 16:39 23.07.2019
4716 Clear 34 1020 24 10000 3.6 70 16:19 23.07.2019
4717 Clear 33 1020 29 10000 4.1 130 15:45 23.07.2019
4718 Clear 33 1020 29 10000 4.1 130 15:45 23.07.2019
4719 Haze 33 1020 25 10000 1.5 160 15:24 23.07.2019
4720 Clear 32 1021 27 10000 5.1 140 14:39 23.07.2019
4721 Clear 32 1021 27 10000 5.1 140 14:39 23.07.2019
4722 Clear 32 1021 27 10000 5.1 140 14:20 23.07.2019
4723 Clear 32 1021 29 10000 3.6 110 13:58 23.07.2019
4724 Clear 32 1021 29 10000 3.6 110 13:39 23.07.2019
4725 Clear 31 1022 29 10000 2.1 80 13:20 23.07.2019
4726 Haze 31 1022 33 10000 4.1 100 12:48 23.07.2019
4727 Haze 29 1022 33 10000 3.1 90 12:26 23.07.2019
4728 Clear 29 1022 39 10000 3.6 110 11:50 23.07.2019
4729 Clear 29 1023 34 10000 4.1 130 11:32 23.07.2019
4730 Clear 28 1022 42 10000 3.1 80 10:59 23.07.2019
4731 Clear 27 1022 42 10000 3.1 80 10:41 23.07.2019
4732 Clear 26 1023 42 10000 3.1 100 10:20 23.07.2019
4733 Clear 24 1023 47 10000 3.6 50 09:41 23.07.2019
4734 Clear 23 1023 50 10000 4.1 90 09:19 23.07.2019
4735 Clear 22 1023 56 10000 4.1 50 08:43 23.07.2019
4736 Clear 20 1023 56 10000 2.1 80 08:19 23.07.2019
4737 Clear 19 1023 60 10000 4.6 40 07:55 23.07.2019
4738 Clear 19 1023 63 10000 2.1 120 07:36 23.07.2019
4739 Clear 17 1023 60 10000 4.1 40 06:48 23.07.2019
4740 Clear 17 1023 68 10000 2.1 80 06:29 23.07.2019
4741 Clear 17 1023 63 10000 2.6 100 03:27 23.07.2019
4742 Clear 18 1024 63 10000 2.6 70 01:33 23.07.2019
4743 Clear 19 1024 53 10000 1.68 37.383 00:31 23.07.2019
4744 Clear 19 1024 53 10000 1.5 20 23:56 22.07.2019
4745 Clear 20 1024 53 10000 1.5 20 23:36 22.07.2019
4746 Clear 20 1024 49 10000 2.1 360 23:18 22.07.2019
4747 Clear 20 1024 53 10000 2.6 60 22:42 22.07.2019
4748 Clear 22 1024 47 10000 1.5 330 22:21 22.07.2019
4749 Clear 24 1023 44 10000 2.1 90 21:43 22.07.2019
4750 Clear 25 1023 36 10000 0.74 264.827 21:23 22.07.2019
4751 Smoke 26 1023 42 10000 2.6 80 20:53 22.07.2019
4752 Smoke 27 1024 39 10000 2.6 300 20:33 22.07.2019
4753 Smoke 28 1023 35 10000 2.6 80 19:58 22.07.2019
4754 Smoke 28 1023 35 10000 2.6 80 19:40 22.07.2019
4755 Smoke 28 1023 32 10000 3.1 280 19:21 22.07.2019
4756 Smoke 29 1024 32 10000 2.6 280 18:47 22.07.2019
4757 Smoke 29 1024 30 10000 3.6 270 18:28 22.07.2019
4758 Clear 29 1024 30 10000 2.1 0 17:58 22.07.2019
4759 Clear 29 1024 30 10000 2.1 0 17:38 22.07.2019
4760 Clear 28 1024 30 10000 2.1 220 17:20 22.07.2019
4761 Clear 28 1024 32 10000 3.1 0 16:40 22.07.2019
4762 Clear 28 1024 30 10000 4.6 230 16:21 22.07.2019
4763 Clear 28 1024 30 10000 4.6 230 16:21 22.07.2019
4764 Clear 28 1025 37 10000 2.1 160 15:46 22.07.2019
4765 Clouds 28 1025 30 10000 3.1 270 15:21 22.07.2019
4766 Clear 27 1025 39 10000 2.6 40 14:59 22.07.2019
4767 Clear 27 1025 39 10000 2.6 40 14:40 22.07.2019
4768 Clear 27 1025 34 10000 3.6 290 14:18 22.07.2019
4769 Clear 27 1025 41 10000 3.1 330 13:40 22.07.2019
4770 Clear 27 1025 39 10000 2.77 273.886 13:22 22.07.2019
4771 Clear 26 1026 39 10000 2.6 0 12:43 22.07.2019
4772 Clear 25 1025 44 10000 2.6 310 12:23 22.07.2019
4773 Clear 24 1026 44 10000 3.1 330 11:44 22.07.2019
4774 Clear 24 1025 47 10000 1.46 301.577 11:20 22.07.2019
4775 Clear 24 1025 46 10000 3.1 320 10:43 22.07.2019
4776 -273 0 0 0 0 0 10:24 22.07.2019
4777 Clear 21 1025 60 10000 2.1 300 09:42 22.07.2019
4778 Clear 20 1025 68 10000 0.78 344.366 09:23 22.07.2019
4779 Clear 18 1025 64 10000 0.5 0 08:44 22.07.2019
4780 Clear 17 1025 77 10000 0.78 344.366 08:25 22.07.2019
4781 Clear 16 1025 77 10000 1.5 300 07:54 22.07.2019
4782 Clear 15 1025 82 10000 1 280 07:32 22.07.2019
4783 Clear 14 1025 87 10000 1 0 06:44 22.07.2019
4784 Clouds 15 1024 72 10000 2.1 10 03:55 22.07.2019
4785 Clear 16 1024 59 10000 3.1 350 01:53 22.07.2019
4786 Clear 16 1024 59 10000 3.1 330 00:54 22.07.2019
4787 Clear 17 1024 59 10000 1.91 329.113 00:25 22.07.2019
4788 Clear 17 1024 56 10000 3.6 310 23:55 21.07.2019
4789 Clear 17 1024 56 10000 3.6 310 23:55 21.07.2019
4790 Clear 18 1024 59 10000 2.6 60 23:28 21.07.2019
4791 Clear 18 1024 56 10000 2.6 290 22:42 21.07.2019
4792 Clear 19 1023 49 10000 1.5 320 22:22 21.07.2019
4793 Clear 20 1023 49 10000 2.1 300 21:57 21.07.2019
4794 Clear 22 1023 49 10000 2.1 300 21:38 21.07.2019
4795 Clouds 22 1023 44 10000 2.1 300 21:20 21.07.2019
4796 Clear 23 1023 46 10000 4.1 280 20:54 21.07.2019
4797 Clear 23 1023 53 10000 2.6 20 20:36 21.07.2019
4798 Clouds 24 1022 38 10000 2.1 270 20:18 21.07.2019
4799 Clear 24 1023 41 10000 4.6 260 19:41 21.07.2019
4800 Clear 25 1022 33 10000 2.6 290 19:21 21.07.2019
4801 Clear 25 1023 41 10000 4.1 270 18:46 21.07.2019
4802 Clear 26 1022 30 10000 2.6 210 18:25 21.07.2019
4803 Clear 26 1023 38 10000 4.6 250 17:42 21.07.2019
4804 Clear 26 1022 30 10000 5.7 240 17:20 21.07.2019
4805 Clear 26 1023 38 10000 5.7 250 16:57 21.07.2019
4806 Clear 26 1023 38 10000 5.7 250 16:38 21.07.2019
4807 Clear 26 1022 34 10000 3.6 220 16:20 21.07.2019
4808 Clear 25 1022 43 10000 4.6 280 15:37 21.07.2019
4809 Clouds 25 1022 32 10000 4.6 230 15:18 21.07.2019
4810 Clear 25 1023 41 10000 6.7 260 14:41 21.07.2019
4811 Clouds 24 1022 34 10000 5.1 240 14:22 21.07.2019
4812 Clouds 25 1023 46 10000 7.2 280 13:51 21.07.2019
4813 Clouds 24 1022 44 10000 5.1 280 13:30 21.07.2019
4814 Clouds 24 1022 49 10000 6.7 250 12:44 21.07.2019
4815 Clear 23 1022 44 10000 5.1 220 12:25 21.07.2019
4816 Clouds 22 1022 53 10000 6.2 260 11:51 21.07.2019
4817 Clear 22 1022 46 10000 4.6 220 11:30 21.07.2019
4818 Clouds 22 1022 60 10000 5.7 250 10:58 21.07.2019
4819 Clouds 22 1022 60 10000 5.7 250 10:40 21.07.2019
4820 Clear 21 1021 56 10000 4.6 230 10:22 21.07.2019
4821 Clear 20 1021 64 10000 4.6 260 09:38 21.07.2019
4822 Clear 19 1021 68 10000 3.6 250 09:20 21.07.2019
4823 Clear 18 1021 72 10000 2.6 290 08:45 21.07.2019
4824 Clear 18 1020 72 10000 4.1 260 08:26 21.07.2019
4825 Clear 17 1021 77 10000 3.6 270 07:38 21.07.2019
4826 Clear 16 1020 77 10000 3.6 270 06:52 21.07.2019
4827 Clear 17 1019 77 10000 2.6 280 05:43 21.07.2019
4828 Clear 18 1018 72 10000 2.6 260 02:52 21.07.2019
4829 Clouds 18 1017 72 10000 2.6 250 01:19 21.07.2019
4830 Clear 18 1017 72 10000 3.6 270 00:41 21.07.2019
4831 Clouds 19 1017 72 10000 2.1 220 00:18 21.07.2019
4832 Clear 20 1017 68 10000 4.6 270 23:41 20.07.2019
4833 Clear 20 1016 68 10000 2.99 276.613 23:21 20.07.2019
4834 Clear 21 1016 64 10000 4.1 260 22:45 20.07.2019
4835 Clear 21 1015 64 10000 2.1 260 22:22 20.07.2019
4836 Clear 23 1015 57 10000 5.1 280 21:56 20.07.2019
4837 Clear 23 1015 57 10000 5.1 280 21:37 20.07.2019
4838 Clouds 23 1014 60 10000 3.6 310 21:18 20.07.2019
4839 Clouds 25 1014 44 10000 7.2 290 20:40 20.07.2019
4840 Thunderstorm 25 1014 44 10000 6.2 230 20:19 20.07.2019
4841 Thunderstorm 25 1014 44 10000 8.2 260 19:45 20.07.2019
4842 Clouds 27 1013 39 10000 8.7 230 19:20 20.07.2019
4843 Clear 27 1013 42 10000 9.3 250 18:43 20.07.2019
4844 Clear 28 1012 39 10000 7.2 230 18:20 20.07.2019
4845 Clear 28 1013 39 10000 6.2 220 17:54 20.07.2019
4846 Clouds 28 1013 37 10000 8.7 220 17:25 20.07.2019
4847 Clear 28 1013 39 10000 7.2 230 16:45 20.07.2019
4848 Rain 28 1012 37 10000 8.2 220 16:26 20.07.2019
4849 Clouds 29 1013 37 10000 6.7 210 15:58 20.07.2019
4850 Clouds 28 1013 37 10000 6.7 210 15:39 20.07.2019
4851 Clouds 28 1013 42 10000 8.7 190 15:20 20.07.2019
4852 Clouds 28 1013 37 10000 5.1 180 14:48 20.07.2019
4853 Clouds 28 1013 45 10000 6.7 190 14:28 20.07.2019
4854 Clouds 28 1013 42 10000 6.2 220 13:54 20.07.2019
4855 Clouds 28 1013 47 10000 4.6 180 13:36 20.07.2019
4856 Clouds 28 1013 47 10000 4.6 180 13:36 20.07.2019
4857 Clouds 27 1013 47 10000 2.1 150 13:18 20.07.2019
4858 Clouds 27 1013 50 10000 4.1 180 12:38 20.07.2019
4859 Clouds 25 1013 57 10000 4.6 200 12:18 20.07.2019
4860 Clear 25 1013 57 10000 3.6 170 11:41 20.07.2019
4861 Clouds 25 1013 57 10000 5.52 201.443 11:20 20.07.2019
4862 Clear 24 1013 60 10000 4.1 210 10:37 20.07.2019
4863 Clear 24 1013 60 10000 4.1 210 10:37 20.07.2019
4864 Clear 24 1013 56 10000 4.1 180 10:19 20.07.2019
4865 Clear 22 1013 64 10000 3.6 180 09:46 20.07.2019
4866 Clear 21 1013 72 10000 2.1 80 09:24 20.07.2019
4867 Clouds 20 1013 77 10000 3.1 150 08:49 20.07.2019
4868 Clear 19 1013 77 10000 1.91 158.31 08:22 20.07.2019
4869 Clear 17 1014 82 10000 4.6 150 07:34 20.07.2019
4870 Clear 15 1013 82 10000 2.1 140 06:43 20.07.2019
4871 Clear 15 1014 87 10000 2.1 70 05:21 20.07.2019
4872 Clear 15 1015 87 10000 3.6 150 04:30 20.07.2019
4873 Clear 16 1015 82 10000 2.1 70 01:30 20.07.2019
4874 Clear 16 1016 82 10000 3.1 150 00:50 20.07.2019
4875 Clear 17 1015 77 10000 1.5 70 00:29 20.07.2019
4876 Clear 17 1016 77 10000 2.1 170 23:57 19.07.2019
4877 Clear 17 1015 68 10000 2.1 80 23:39 19.07.2019
4878 Clear 17 1015 77 10000 0.15 114.803 23:20 19.07.2019
4879 Clear 18 1015 68 10000 1.5 90 22:41 19.07.2019
4880 Clear 18 1015 64 10000 0.15 114.803 22:20 19.07.2019
4881 Clear 18 1015 64 10000 0.15 114.803 22:20 19.07.2019
4882 Clear 19 1015 64 10000 1.5 240 21:43 19.07.2019
4883 Clear 21 1015 68 10000 2.1 210 21:25 19.07.2019
4884 Clear 22 1015 60 10000 2.1 230 20:44 19.07.2019
4885 Clear 22 1015 60 10000 4.1 210 20:25 19.07.2019
4886 Clouds 23 1015 53 10000 4.6 240 19:40 19.07.2019
4887 Clear 23 1015 56 10000 4.6 220 19:20 19.07.2019
4888 Clear 23 1015 56 10000 4.6 220 19:20 19.07.2019
4889 Clouds 23 1015 53 10000 5.1 210 18:42 19.07.2019
4890 Clouds 23 1015 56 10000 4.1 190 18:20 19.07.2019
4891 Clouds 24 1016 53 10000 4.6 230 17:50 19.07.2019
4892 Clouds 23 1016 44 10000 5.1 230 17:27 19.07.2019
4893 Clouds 23 1016 56 10000 6.2 260 16:48 19.07.2019
4894 Clouds 23 1016 46 10000 4.6 270 16:26 19.07.2019
4895 Clouds 22 1016 56 10000 4.1 250 15:50 19.07.2019
4896 Clouds 22 1016 49 10000 6.2 220 15:31 19.07.2019
4897 Clouds 22 1017 60 10000 5.1 270 14:57 19.07.2019
4898 Clouds 22 1017 60 10000 5.1 270 14:39 19.07.2019
4899 Clouds 22 1016 53 10000 6.2 220 14:21 19.07.2019
4900 Clouds 22 1016 60 10000 4.6 250 13:44 19.07.2019
4901 Clouds 22 1016 60 10000 4.6 250 13:44 19.07.2019
4902 Clouds 22 1016 60 10000 4.6 250 13:44 19.07.2019
4903 Clouds 22 1016 60 10000 4.6 250 13:44 19.07.2019
4904 Clouds 22 1016 60 10000 4.6 250 13:44 19.07.2019
4905 Clouds 22 1016 56 10000 8.2 220 13:25 19.07.2019
4906 Rain 21 1017 68 10000 5.1 250 12:55 19.07.2019
4907 Rain 21 1016 64 10000 6.2 230 12:31 19.07.2019
4908 Rain 21 1016 64 10000 6.2 230 12:31 19.07.2019
4909 Clouds 20 1016 72 10000 5.7 220 11:59 19.07.2019
4910 Rain 20 1016 72 10000 5.7 220 11:41 19.07.2019
4911 Rain 19 1016 77 10000 5.7 210 11:18 19.07.2019
4912 Rain 19 1016 77 10000 5.1 230 10:47 19.07.2019
4913 Clouds 18 1016 93 10000 4.6 220 10:22 19.07.2019
4914 Clouds 18 1016 100 10000 3.6 230 09:58 19.07.2019
4915 Rain 17 1016 88 10000 4.1 250 09:39 19.07.2019
4916 Rain 17 1016 100 10000 3.6 220 09:21 19.07.2019
4917 Rain 17 1016 93 10000 3.1 250 08:47 19.07.2019
4918 Rain 16 1015 93 8000 2.6 240 07:55 19.07.2019
4919 Drizzle 16 1015 100 10000 2.1 180 07:29 19.07.2019
4920 Rain 16 1015 100 9000 1.5 210 05:57 19.07.2019
4921 Clouds 17 1014 68 10000 1.76 294.73 02:23 19.07.2019
4922 Clouds 17 1014 72 10000 1.3 264.881 01:20 19.07.2019
4923 Rain 18 1014 77 10000 1.5 290 00:42 19.07.2019
4924 Clouds 18 1014 63 10000 2.6 210 23:58 18.07.2019
4925 Clear 18 1014 60 10000 2.1 260 23:39 18.07.2019
4926 Clouds 19 1014 63 10000 2.6 220 23:21 18.07.2019
4927 Clear 19 1014 60 10000 2.1 240 22:40 18.07.2019
4928 Clouds 19 1014 60 10000 3.6 210 22:20 18.07.2019
4929 Clear 19 1014 56 10000 2.1 230 21:49 18.07.2019
4930 Clear 20 1013 52 10000 3.6 220 21:30 18.07.2019
4931 Rain 21 1013 49 10000 3.6 250 20:54 18.07.2019
4932 Rain 22 1013 52 10000 3.6 250 20:36 18.07.2019
4933 Clouds 22 1013 52 10000 3.6 220 20:18 18.07.2019
4934 Clear 22 1013 49 10000 3.6 240 19:43 18.07.2019
4935 Clouds 23 1013 46 10000 4.1 210 19:20 18.07.2019
4936 Clear 23 1013 43 10000 4.1 230 18:43 18.07.2019
4937 Rain 23 1013 49 10000 5.1 220 18:21 18.07.2019
4938 Clear 23 1013 46 10000 4.1 270 17:44 18.07.2019
4939 Drizzle 23 1013 43 10000 4.6 250 17:25 18.07.2019
4940 Clouds 23 1013 43 10000 2.6 260 16:58 18.07.2019
4941 Rain 24 1013 49 10000 6.7 280 16:40 18.07.2019
4942 Rain 23 1013 40 10000 5.1 240 16:21 18.07.2019
4943 Rain 24 1013 41 10000 6.2 250 15:55 18.07.2019
4944 Rain 24 1013 44 10000 6.2 270 15:35 18.07.2019
4945 Clouds 24 1015 38 10000 4.6 270 14:55 18.07.2019
4946 Clouds 25 1013 34 10000 7.2 210 14:37 18.07.2019
4947 Clear 25 1013 34 10000 5.1 240 13:54 18.07.2019
4948 Clouds 25 1013 41 10000 6.2 260 13:36 18.07.2019
4949 Clouds 25 1015 43 10000 3.6 230 13:18 18.07.2019
4950 Clear 25 1014 40 10000 5.1 240 12:42 18.07.2019
4951 Clouds 24 1013 44 10000 3.6 200 12:18 18.07.2019
4952 Clouds 24 1013 43 10000 3.6 210 11:50 18.07.2019
4953 Clouds 23 1013 46 10000 3.1 200 11:27 18.07.2019
4954 Clouds 23 1013 46 10000 3.1 200 11:27 18.07.2019
4955 Clouds 23 1013 56 10000 2.6 220 10:52 18.07.2019
4956 Clouds 21 1013 56 10000 2.6 190 10:23 18.07.2019
4957 Clouds 20 1013 59 10000 2.6 210 09:44 18.07.2019
4958 Clouds 19 1013 59 10000 2.6 170 09:23 18.07.2019
4959 Clouds 17 1013 63 10000 1.5 170 08:46 18.07.2019
4960 Clear 16 1013 72 10000 0.5 0 08:19 18.07.2019
4961 Clear 14 1013 82 10000 3.1 150 07:37 18.07.2019
4962 Clear 14 1015 77 10000 1.1 184.859 07:19 18.07.2019
4963 Clouds 13 1013 87 10000 1.1 184.859 06:36 18.07.2019
4964 Clouds 14 1013 87 10000 0.81 53.879 04:21 18.07.2019
4965 Clouds 14 1014 67 10000 4.1 60 02:52 18.07.2019
4966 Clear 15 1014 82 10000 1.5 120 01:38 18.07.2019
4967 Clouds 16 1014 72 10000 3.1 70 00:35 18.07.2019
4968 Mist 17 1014 77 10000 1.5 60 23:49 17.07.2019
4969 Clouds 17 1014 67 10000 3.6 70 23:19 17.07.2019
4970 Clear 17 1015 77 10000 2.1 40 22:56 17.07.2019
4971 Clear 17 1015 77 10000 2.1 40 22:38 17.07.2019
4972 Clear 18 1014 63 10000 3.6 70 22:18 17.07.2019
4973 Clear 19 1013 46 10000 3.1 330 21:43 17.07.2019
4974 Clear 21 1014 60 10000 4.1 60 21:25 17.07.2019
4975 Clear 22 1013 38 10000 2.6 330 20:58 17.07.2019
4976 Clouds 22 1013 56 10000 4.1 60 20:39 17.07.2019
4977 Clouds 23 1013 56 10000 4.1 60 20:20 17.07.2019
4978 Clouds 23 1013 41 10000 2.6 80 19:44 17.07.2019
4979 Clear 24 1013 33 10000 3.1 300 19:22 17.07.2019
4980 Clouds 25 1013 38 10000 1.33 312.192 18:59 17.07.2019
4981 Clear 25 1014 46 10000 3.6 360 18:40 17.07.2019
4982 Clear 25 1014 29 10000 3.1 340 18:20 17.07.2019
4983 Clouds 25 1014 49 10000 5.1 70 17:50 17.07.2019
4984 Clear 25 1014 36 10000 2.6 270 17:26 17.07.2019
4985 Clear 25 1014 29 10000 2.6 80 16:55 17.07.2019
4986 Clouds 25 1014 38 10000 2.09 276.556 16:37 17.07.2019
4987 Clear 25 1014 27 10000 2.6 0 16:18 17.07.2019
4988 Clear 25 1015 40 10000 3.1 0 15:47 17.07.2019
4989 Clear 24 1015 36 10000 1.61 250.221 15:25 17.07.2019
4990 Clear 24 1015 36 10000 3.1 360 14:54 17.07.2019
4991 Clear 24 1015 43 10000 1.61 250.221 14:36 17.07.2019
4992 Clouds 23 1015 52 10000 3.1 340 14:18 17.07.2019
4993 Clear 23 1015 46 10000 1.5 110 13:41 17.07.2019
4994 Clear 23 1015 46 10000 1.5 110 13:20 17.07.2019
4995 Haze 22 1016 56 10000 2.1 230 12:40 17.07.2019
4996 Haze 21 1016 56 10000 2.1 230 12:21 17.07.2019
4997 Haze 20 1016 63 8000 2.1 340 11:45 17.07.2019
4998 Haze 20 1016 59 10000 0.61 71.833 11:21 17.07.2019
4999 Haze 20 1016 63 10000 3.1 60 10:51 17.07.2019
5000 Haze 19 1016 72 10000 3.6 60 10:30 17.07.2019
5001 Haze 18 1016 67 10000 4.1 40 09:59 17.07.2019
5002 Haze 17 1016 77 10000 3.1 80 09:40 17.07.2019
5003 Haze 16 1016 77 10000 3.1 80 09:22 17.07.2019
5004 Haze 14 1016 87 8000 2.6 70 08:43 17.07.2019
5005 Haze 13 1016 87 9000 1.32 30.897 08:22 17.07.2019
5006 Fog 13 1016 76 9000 4.6 40 07:50 17.07.2019
5007 Fog 11 1016 87 8000 1.32 30.897 07:24 17.07.2019
5008 Mist 11 1016 82 10000 4.1 40 06:56 17.07.2019
5009 Mist 11 1016 87 10000 1.32 30.897 06:30 17.07.2019
5010 Clear 10 1016 87 10000 3.1 40 05:50 17.07.2019
5011 Clear 10 1016 93 10000 1.76 17.057 05:30 17.07.2019
5012 Haze 11 1017 81 7000 1.5 40 04:45 17.07.2019
5013 Haze 11 1017 87 10000 1.76 17.057 03:32 17.07.2019
5014 Haze 12 1017 81 10000 2.6 50 02:21 17.07.2019
5015 Haze 13 1017 76 10000 2.6 50 01:27 17.07.2019
5016 Haze 13 1017 76 10000 1.5 20 00:59 17.07.2019
5017 Haze 14 1017 71 10000 2.1 40 00:37 17.07.2019
5018 Haze 14 1017 76 10000 2.6 30 00:19 17.07.2019
5019 Haze 14 1017 76 10000 2.6 30 00:19 17.07.2019
5020 Haze 15 1017 72 10000 3.1 60 23:40 16.07.2019
5021 Haze 15 1017 72 10000 3.1 60 23:20 16.07.2019
5022 Haze 16 1018 67 7000 3.1 40 22:43 16.07.2019
5023 Haze 17 1017 63 10000 4.6 60 22:24 16.07.2019
5024 Haze 19 1017 56 10000 2.1 310 21:48 16.07.2019
5025 Haze 19 1017 55 10000 4.1 70 21:25 16.07.2019
5026 Haze 20 1017 40 10000 2.1 310 20:59 16.07.2019
5027 Haze 21 1017 43 10000 2.1 120 20:40 16.07.2019
5028 Haze 21 1017 43 10000 2.1 120 20:22 16.07.2019
5029 Haze 22 1017 43 10000 1.5 0 19:54 16.07.2019
5030 Haze 22 1017 40 10000 2.1 180 19:30 16.07.2019
5031 Haze 23 1017 40 10000 3.1 350 18:59 16.07.2019
5032 Haze 23 1017 40 10000 2.1 110 18:40 16.07.2019
5033 Haze 23 1017 40 10000 2.1 110 18:20 16.07.2019
5034 Clear 23 1017 43 10000 2.6 0 17:49 16.07.2019
5035 Clear 24 1017 40 10000 3.1 70 17:28 16.07.2019
5036 Clouds 23 1018 46 10000 2.1 0 16:50 16.07.2019
5037 Clear 23 1018 46 10000 2.6 90 16:27 16.07.2019
5038 Clear 23 1018 46 10000 1.5 300 15:57 16.07.2019
5039 Clear 22 1018 46 10000 1.85 267.833 15:38 16.07.2019
5040 Clear 23 1018 46 10000 1.34 238.227 15:19 16.07.2019
5041 Clear 22 1018 49 10000 2.1 0 14:55 16.07.2019
5042 Clear 21 1018 52 10000 2.1 350 14:36 16.07.2019
5043 Clear 21 1018 55 10000 2.1 0 14:18 16.07.2019
5044 Clear 20 1019 55 10000 1.5 140 13:38 16.07.2019
5045 Clouds 19 1019 59 10000 2.1 0 13:18 16.07.2019
5046 Clouds 19 1019 63 10000 1.5 220 12:43 16.07.2019
5047 Clouds 17 1019 63 10000 3.1 320 12:20 16.07.2019
5048 Clouds 17 1019 63 10000 3.6 60 11:54 16.07.2019
5049 Clouds 17 1019 71 10000 1.5 290 11:36 16.07.2019
5050 Clouds 17 1019 71 10000 1.5 290 11:36 16.07.2019
5051 Clouds 17 1019 59 10000 3.1 30 11:18 16.07.2019
5052 Clouds 17 1019 59 10000 3.1 30 11:18 16.07.2019
5053 Clouds 16 1019 59 10000 1.5 100 10:43 16.07.2019
5054 Clouds 16 1019 82 10000 0.82 14.644 10:20 16.07.2019
5055 Clouds 15 1019 71 10000 1.5 350 09:44 16.07.2019
5056 Mist 14 1019 81 10000 1.35 19.31 09:21 16.07.2019
5057 Mist 13 1019 71 10000 2.6 30 08:49 16.07.2019
5058 Mist 12 1019 81 10000 1.65 10.579 08:29 16.07.2019
5059 Mist 11 1019 81 10000 2.1 10 07:58 16.07.2019
5060 Mist 10 1019 81 10000 1.65 10.579 07:39 16.07.2019
5061 Mist 9 1019 93 10000 0.5 0 07:18 16.07.2019
5062 Mist 9 1019 93 8000 2.1 320 06:43 16.07.2019
5063 Clear 9 1019 93 10000 2.1 350 05:57 16.07.2019
5064 Clear 9 1019 93 10000 1.5 320 05:31 16.07.2019
5065 Mist 9 1019 93 10000 2.1 360 04:54 16.07.2019
5066 Mist 9 1019 87 7000 1.5 330 03:44 16.07.2019
5067 Clear 10 1019 87 10000 2.6 10 02:55 16.07.2019
5068 Clear 10 1020 81 10000 1.5 350 02:30 16.07.2019
5069 Clear 11 1020 76 10000 2.15 9.37 01:41 16.07.2019
5070 Clear 11 1020 71 8000 2.1 10 00:42 16.07.2019
5071 Clear 12 1019 76 10000 4.1 10 00:20 16.07.2019
5072 Clear 12 1020 71 10000 3.1 10 23:45 15.07.2019
5073 Clear 13 1020 76 10000 2.6 10 23:27 15.07.2019
5074 Clear 13 1019 87 10000 2.6 360 22:47 15.07.2019
5075 Clear 14 1019 72 10000 4.6 360 22:22 15.07.2019
5076 Clear 14 1019 67 10000 5.7 360 21:58 15.07.2019
5077 Clear 15 1019 71 10000 4.1 10 21:40 15.07.2019
5078 Clear 16 1019 71 10000 4.1 10 21:20 15.07.2019
5079 Clouds 17 1018 59 10000 4.6 340 20:56 15.07.2019
5080 Clear 17 1019 63 10000 4.6 20 20:37 15.07.2019
5081 Clear 18 1019 63 10000 4.6 20 20:19 15.07.2019
5082 Haze 19 1019 59 10000 4.1 40 19:40 15.07.2019
5083 Haze 19 1019 59 10000 4.1 40 19:21 15.07.2019
5084 Clouds 20 1019 59 10000 5.7 40 18:55 15.07.2019
5085 Clouds 20 1019 55 10000 4.1 60 18:36 15.07.2019
5086 Haze 20 1019 63 10000 3.6 10 18:18 15.07.2019
5087 Haze 20 1019 49 10000 2.1 300 17:44 15.07.2019
5088 Haze 20 1019 49 10000 2.1 300 17:26 15.07.2019
5089 Haze 20 1019 59 10000 2.6 40 16:59 15.07.2019
5090 Haze 20 1019 55 10000 3.1 90 16:38 15.07.2019
5091 Haze 20 1019 55 10000 3.1 90 16:20 15.07.2019
5092 Haze 20 1019 55 10000 3.1 90 16:20 15.07.2019
5093 Haze 20 1019 55 10000 2.6 80 15:55 15.07.2019
5094 Haze 20 1019 63 10000 2.6 50 15:37 15.07.2019
5095 Clouds 19 1019 59 10000 4.6 60 15:19 15.07.2019
5096 Clouds 18 1019 67 10000 3.6 30 14:43 15.07.2019
5097 Clouds 18 1019 59 10000 2.6 30 14:23 15.07.2019
5098 Clouds 18 1019 59 10000 4.6 10 13:51 15.07.2019
5099 Clouds 18 1019 67 10000 3.6 360 13:22 15.07.2019
5100 Clouds 17 1019 63 10000 5.1 30 12:59 15.07.2019
5101 Clouds 17 1019 67 10000 3.1 340 12:41 15.07.2019
5102 Clouds 16 1019 67 10000 3.1 340 12:20 15.07.2019
5103 Haze 16 1019 76 10000 3.1 350 11:42 15.07.2019
5104 Haze 15 1019 72 10000 3.1 30 11:24 15.07.2019
5105 Clouds 15 1019 76 10000 2.6 60 10:45 15.07.2019
5106 Clouds 15 1019 76 10000 4.1 30 10:27 15.07.2019
5107 Clouds 14 1019 76 10000 3.6 40 09:48 15.07.2019
5108 Clouds 14 1019 82 10000 3.1 350 09:28 15.07.2019
5109 Haze 14 1019 82 10000 4.6 10 08:59 15.07.2019
5110 Haze 14 1019 82 10000 1.5 350 08:41 15.07.2019
5111 Haze 14 1019 82 10000 1.5 350 08:23 15.07.2019
5112 Clouds 13 1018 76 10000 2.1 360 07:39 15.07.2019
5113 Clouds 13 1018 87 10000 2.1 20 07:19 15.07.2019
5114 Clouds 13 1018 82 10000 2.1 20 06:39 15.07.2019
5115 Clouds 12 1018 82 10000 2.1 10 05:47 15.07.2019
5116 Clouds 12 1018 82 10000 2.1 10 05:27 15.07.2019
5117 Clear 12 1018 81 0 2.6 40 04:42 15.07.2019
5118 Clouds 12 1019 81 10000 2.1 30 03:48 15.07.2019
5119 Clouds 12 1019 76 0 3.6 30 02:44 15.07.2019
5120 Clouds 12 1019 71 0 2.1 10 01:44 15.07.2019
5121 Clouds 13 1019 71 10000 2.1 360 01:26 15.07.2019
5122 Mist 13 1019 71 10000 2.1 10 00:51 15.07.2019
5123 Clouds 14 1019 71 10000 2.1 20 00:20 15.07.2019
5124 Clouds 14 1019 62 10000 5.1 20 23:55 14.07.2019
5125 Clouds 14 1019 67 10000 3.1 30 23:36 14.07.2019
5126 Clouds 14 1019 62 10000 4.6 40 23:18 14.07.2019
5127 Clouds 14 1019 62 10000 2.6 30 22:41 14.07.2019
5128 Clouds 14 1019 62 10000 2.6 30 22:22 14.07.2019
5129 Clouds 14 1019 62 10000 2.6 30 22:22 14.07.2019
5130 Clouds 15 1019 59 10000 6.2 30 21:59 14.07.2019
5131 Clouds 15 1019 62 10000 2.6 20 21:41 14.07.2019
5132 Clouds 16 1019 59 10000 5.1 10 21:18 14.07.2019
5133 Clouds 16 1019 55 10000 5.7 20 20:57 14.07.2019
5134 Clouds 17 1019 59 10000 4.1 360 20:37 14.07.2019
5135 Clouds 17 1019 55 10000 5.7 20 20:18 14.07.2019
5136 Clear 17 1019 58 0 4.6 360 19:43 14.07.2019
5137 Clouds 17 1019 59 10000 4.6 10 19:24 14.07.2019
5138 Clouds 18 1018 52 10000 6.2 360 18:57 14.07.2019
5139 Clouds 18 1019 59 10000 4.1 360 18:38 14.07.2019
5140 Clouds 18 1019 62 10000 4.1 350 18:19 14.07.2019
5141 Clouds 18 1019 62 10000 4.6 360 17:47 14.07.2019
5142 Clouds 18 1019 59 10000 4.6 10 17:21 14.07.2019
5143 Clouds 18 1019 52 10000 3.1 10 16:46 14.07.2019
5144 Clouds 19 1019 52 10000 3.1 10 16:24 14.07.2019
5145 Clouds 19 1018 55 10000 5.7 30 15:54 14.07.2019
5146 Clouds 18 1019 48 10000 5.1 10 15:29 14.07.2019
5147 Haze 18 1018 59 10000 4.6 10 14:50 14.07.2019
5148 Haze 18 1019 59 8000 2.1 340 14:22 14.07.2019
5149 Haze 18 1019 59 5000 4.1 330 13:57 14.07.2019
5150 Haze 18 1019 59 5000 4.6 320 13:37 14.07.2019
5151 Haze 17 1019 55 10000 5.1 20 13:19 14.07.2019
5152 Haze 17 1019 55 3200 3.1 340 12:42 14.07.2019
5153 Haze 16 1019 55 3200 3.1 340 12:22 14.07.2019
5154 Haze 16 1019 67 10000 5.1 30 11:53 14.07.2019
5155 Haze 16 1019 63 9000 2.6 320 11:28 14.07.2019
5156 Clouds 15 1019 76 10000 5.1 40 10:59 14.07.2019
5157 Clouds 15 1019 71 10000 3.1 10 10:40 14.07.2019
5158 Clouds 15 1019 71 10000 3.1 10 10:19 14.07.2019
5159 Clouds 14 1019 81 9000 3.1 10 09:42 14.07.2019
5160 Clouds 14 1019 71 10000 4.1 360 09:23 14.07.2019
5161 Rain 14 1019 82 10000 3.6 360 08:43 14.07.2019
5162 Mist 14 1018 87 10000 3.1 350 07:58 14.07.2019
5163 Haze 13 1018 87 6000 3.94 10.91 07:38 14.07.2019
5164 Haze 13 1019 87 5000 3.94 10.91 06:55 14.07.2019
5165 Mist 14 1019 87 7000 2.6 350 05:44 14.07.2019
5166 Mist 14 1019 93 7000 4.1 340 03:48 14.07.2019
5167 Mist 14 1019 87 10000 1.5 10 03:29 14.07.2019
5168 Drizzle 15 1019 93 7000 3.6 340 02:41 14.07.2019
5169 Drizzle 15 1019 87 10000 2.84 6.91 02:21 14.07.2019
5170 Rain 15 1019 87 10000 2.73 3.195 01:33 14.07.2019
5171 Rain 15 1019 82 10000 3.6 350 00:57 14.07.2019
5172 Rain 15 1019 87 10000 2.73 3.195 00:38 14.07.2019
5173 Rain 15 1019 82 10000 2.1 340 00:19 14.07.2019
5174 Rain 16 1019 93 8000 3.6 350 23:44 13.07.2019
5175 Rain 16 1019 87 10000 2.37 342.958 23:25 13.07.2019
5176 Clouds 16 1019 93 10000 2.37 342.958 22:55 13.07.2019
5177 Rain 16 1019 93 10000 2.37 342.958 22:37 13.07.2019
5178 Clear 16 1019 77 10000 3.1 350 22:18 13.07.2019
5179 Clouds 16 1019 87 9000 4.1 330 21:42 13.07.2019
5180 Rain 17 1019 82 10000 2.6 310 21:19 13.07.2019
5181 Clouds 17 1019 93 10000 2.6 300 20:42 13.07.2019
5182 Clouds 18 1019 93 10000 2.6 300 20:24 13.07.2019
5183 Rain 18 1018 72 10000 7.7 290 19:45 13.07.2019
5184 Rain 18 1018 72 10000 7.7 290 19:26 13.07.2019
5185 Rain 19 1018 77 10000 2.6 300 18:44 13.07.2019
5186 Clouds 20 1018 52 10000 3.1 340 18:21 13.07.2019
5187 Clouds 20 1018 52 10000 2.6 270 17:38 13.07.2019
5188 Clouds 20 1018 52 10000 2.6 270 17:20 13.07.2019
5189 Clouds 21 1018 56 10000 3.1 270 16:56 13.07.2019
5190 Rain 21 1018 53 10000 4.6 270 16:37 13.07.2019
5191 Rain 21 1019 72 10000 4.1 310 16:19 13.07.2019
5192 Rain 20 1018 49 10000 4.1 340 15:42 13.07.2019
5193 Clouds 20 1018 52 10000 3.6 270 15:20 13.07.2019
5194 Rain 20 1018 49 10000 4.6 320 14:42 13.07.2019
5195 Clouds 19 1019 56 10000 3.1 310 14:22 13.07.2019
5196 Rain 19 1018 52 10000 3.1 280 13:46 13.07.2019
5197 Clouds 19 1018 56 10000 4.1 270 13:24 13.07.2019
5198 Clouds 19 1018 56 10000 4.1 310 12:56 13.07.2019
5199 Clouds 19 1019 72 10000 3.6 310 12:36 13.07.2019
5200 Clouds 18 1018 59 10000 2.6 270 12:18 13.07.2019
5201 Clouds 18 1018 59 10000 2.6 270 11:40 13.07.2019
5202 Clouds 17 1018 59 10000 2.6 270 11:19 13.07.2019
5203 Clouds 17 1018 72 10000 2.6 280 10:44 13.07.2019
5204 Clouds 16 1018 63 10000 4.02 333.205 10:23 13.07.2019
5205 Clouds 16 1018 67 10000 2.6 300 09:53 13.07.2019
5206 Clouds 15 1018 87 10000 2.1 230 09:31 13.07.2019
5207 Clouds 15 1018 87 10000 2.1 230 08:58 13.07.2019
5208 Fog 14 1018 93 10000 1.5 230 08:33 13.07.2019
5209 Fog 14 1018 93 7000 3.1 300 07:58 13.07.2019
5210 Fog 13 1017 100 10000 1.5 260 07:30 13.07.2019
5211 Mist 12 1017 100 9000 2.6 220 06:39 13.07.2019
5212 Fog 12 1017 100 7000 2.1 260 05:58 13.07.2019
5213 Fog 12 1017 93 10000 2.6 320 04:49 13.07.2019
5214 Mist 12 1016 93 10000 2.1 250 04:22 13.07.2019
5215 Fog 12 1017 93 10000 2.6 320 03:56 13.07.2019
5216 Fog 12 1016 87 10000 1.5 250 03:37 13.07.2019
5217 Clear 13 1016 93 10000 3.1 290 01:55 13.07.2019
5218 Clear 13 1016 93 10000 2.6 230 01:37 13.07.2019
5219 Clouds 13 1015 87 10000 3.1 290 01:18 13.07.2019
5220 Clear 13 1016 93 10000 3.6 300 00:51 13.07.2019
5221 Clouds 14 1015 87 10000 3.6 310 00:19 13.07.2019
5222 Fog 14 1015 82 10000 3.6 300 23:46 12.07.2019
5223 Fog 14 1015 77 10000 4.02 319.4 23:28 12.07.2019
5224 Clouds 14 1015 77 10000 3.1 310 22:46 12.07.2019
5225 Clouds 15 1015 77 10000 3.1 310 22:24 12.07.2019
5226 Rain 15 1014 72 10000 6.2 320 21:43 12.07.2019
5227 Rain 16 1014 82 10000 2.6 250 21:22 12.07.2019
5228 Rain 17 1014 87 10000 2.6 290 20:57 12.07.2019
5229 Rain 17 1013 72 10000 4.6 250 20:38 12.07.2019
5230 Thunderstorm 16 1013 72 10000 4.6 250 20:20 12.07.2019
5231 Thunderstorm 17 1013 77 10000 4.6 270 19:42 12.07.2019
5232 Thunderstorm 17 1013 77 10000 4.6 270 19:23 12.07.2019
5233 Rain 17 1013 82 10000 5.1 260 18:46 12.07.2019
5234 Rain 18 1013 82 10000 5.1 260 18:22 12.07.2019
5235 Rain 19 1012 77 10000 3.6 270 17:53 12.07.2019
5236 Thunderstorm 19 1012 77 10000 3.1 280 17:29 12.07.2019
5237 Thunderstorm 20 1013 82 8000 6.7 260 16:52 12.07.2019
5238 Clouds 21 1011 41 10000 6.2 260 16:25 12.07.2019
5239 Thunderstorm 21 1012 44 10000 7.2 270 15:56 12.07.2019
5240 Thunderstorm 22 1011 38 10000 6.2 250 15:36 12.07.2019
5241 Thunderstorm 23 1012 44 10000 6.2 310 15:18 12.07.2019
5242 Clouds 23 1011 44 10000 6.2 280 14:43 12.07.2019
5243 Clouds 23 1011 44 10000 6.2 280 14:20 12.07.2019
5244 Rain 23 1011 56 10000 5.1 240 13:45 12.07.2019
5245 Clouds 23 1012 60 10000 5.7 220 13:23 12.07.2019
5246 Rain 22 1012 60 10000 5.1 240 12:42 12.07.2019
5247 Thunderstorm 21 1012 72 10000 2.6 190 12:23 12.07.2019
5248 Drizzle 21 1012 77 10000 2.6 220 11:47 12.07.2019
5249 Drizzle 21 1012 77 10000 2.6 220 11:24 12.07.2019
5250 Rain 20 1013 77 10000 2.6 230 10:59 12.07.2019
5251 Clouds 20 1013 77 10000 2.6 230 10:41 12.07.2019
5252 Clouds 19 1013 77 10000 2.6 230 10:23 12.07.2019
5253 Thunderstorm 19 1013 77 10000 2.6 210 09:53 12.07.2019
5254 Thunderstorm 18 1012 88 10000 3.95 269.303 09:27 12.07.2019
5255 Rain 17 1013 82 10000 1.5 280 08:47 12.07.2019
5256 Rain 16 1013 100 10000 0.86 187.999 08:24 12.07.2019
5257 Mist 15 1012 87 10000 1 0 07:51 12.07.2019
5258 Mist 15 1013 100 9000 0.86 187.999 07:29 12.07.2019
5259 Clouds 14 1013 100 10000 0.86 187.999 06:32 12.07.2019
5260 Clouds 14 1012 87 10000 1.5 60 05:52 12.07.2019
5261 Clouds 14 1013 93 10000 1.5 120 04:52 12.07.2019
5262 Clouds 15 1014 100 10000 2.6 270 02:36 12.07.2019
5263 Clouds 15 1014 100 10000 2.1 280 01:37 12.07.2019
5264 Clouds 15 1014 93 10000 1.5 250 00:37 12.07.2019
5265 Rain 16 1014 82 10000 3.1 240 00:19 12.07.2019
5266 Rain 16 1014 87 10000 3.6 240 23:42 11.07.2019
5267 Rain 16 1014 93 10000 1.5 240 23:22 11.07.2019
5268 Clear 16 1014 87 10000 2.6 190 22:47 11.07.2019
5269 Clouds 16 1014 82 10000 1.5 210 22:25 11.07.2019
5270 -273 0 0 0 0 0 22:25 11.07.2019
5271 Thunderstorm 17 1014 82 10000 2.6 120 21:55 11.07.2019
5272 Clouds 17 1014 88 10000 2.6 210 21:36 11.07.2019
5273 Clear 18 1014 82 10000 2.6 240 21:18 11.07.2019
5274 Thunderstorm 18 1014 88 10000 2.6 230 20:41 11.07.2019
5275 Rain 18 1014 88 10000 1.5 160 20:22 11.07.2019
5276 Rain 19 1014 72 10000 3.6 80 19:56 11.07.2019
5277 Rain 19 1014 93 10000 2.1 140 19:37 11.07.2019
5278 Rain 19 1014 93 10000 3.6 230 19:19 11.07.2019
5279 Thunderstorm 20 1014 88 10000 2.12 253.832 18:41 11.07.2019
5280 Thunderstorm 21 1014 88 10000 3.07 252.428 18:23 11.07.2019
5281 Thunderstorm 20 1015 93 5000 3.1 240 17:49 11.07.2019
5282 Thunderstorm 20 1015 93 5000 3.1 240 17:30 11.07.2019
5283 Thunderstorm 20 1014 82 10000 1.5 210 16:55 11.07.2019
5284 Drizzle 21 1014 82 10000 3.07 252.428 16:37 11.07.2019
5285 Rain 20 1014 73 10000 3.6 190 16:18 11.07.2019
5286 Rain 20 1015 93 10000 2.1 220 15:40 11.07.2019
5287 Rain 19 1015 93 10000 2.1 220 15:20 11.07.2019
5288 Rain 18 1015 93 3000 3.1 240 14:45 11.07.2019
5289 Rain 18 1015 93 10000 2.6 210 14:25 11.07.2019
5290 Drizzle 18 1015 93 10000 1.5 200 13:59 11.07.2019
5291 Rain 18 1015 93 10000 1.5 190 13:40 11.07.2019
5292 Rain 17 1015 93 10000 1.5 190 13:22 11.07.2019
5293 Rain 16 1016 87 10000 1.5 260 12:38 11.07.2019
5294 Rain 16 1016 93 6000 2.1 200 12:19 11.07.2019
5295 Rain 16 1016 87 10000 1.5 260 11:45 11.07.2019
5296 Rain 16 1016 87 10000 1.5 260 11:27 11.07.2019
5297 Rain 16 1016 82 10000 2.1 240 10:52 11.07.2019
5298 Rain 16 1016 72 10000 1.5 270 10:20 11.07.2019
5299 Rain 16 1016 72 10000 1.5 270 10:20 11.07.2019
5300 Drizzle 16 1016 67 10000 1.5 210 09:54 11.07.2019
5301 Drizzle 16 1015 59 10000 1.5 250 09:36 11.07.2019
5302 Rain 16 1015 51 10000 4.6 150 09:18 11.07.2019
5303 Rain 16 1015 51 10000 2.1 190 08:42 11.07.2019
5304 Rain 16 1015 55 10000 0.54 153.482 08:20 11.07.2019
5305 Rain 15 1015 62 10000 0.5 340 07:45 11.07.2019
5306 Rain 15 1015 62 10000 0.54 153.482 07:23 11.07.2019
5307 Rain 15 1015 58 10000 1.51 25.529 06:21 11.07.2019
5308 Clouds 15 1016 51 10000 1.5 80 05:33 11.07.2019
5309 Rain 15 1016 45 10000 3.1 60 04:57 11.07.2019
5310 Clouds 15 1016 45 10000 3.1 50 03:58 11.07.2019
5311 Clouds 16 1017 48 10000 1.44 17.792 02:31 11.07.2019
5312 Clear 16 1018 48 10000 0.5 0 00:48 11.07.2019
5313 Clear 18 1018 63 10000 3.1 310 23:52 10.07.2019
5314 Clouds 18 1018 45 10000 2.6 20 23:31 10.07.2019
5315 Rain 18 1017 56 10000 2.1 290 22:58 10.07.2019
5316 Clouds 19 1017 37 10000 2.1 350 22:37 10.07.2019
5317 Clear 19 1017 46 10000 2.1 320 22:18 10.07.2019
5318 Clouds 20 1018 37 10000 2.6 60 21:43 10.07.2019
5319 Clouds 21 1017 33 10000 2.16 279.541 21:25 10.07.2019
5320 Clear 22 1018 38 10000 2.6 300 20:54 10.07.2019
5321 Clouds 23 1017 27 10000 2.6 330 20:36 10.07.2019
5322 Clear 23 1018 30 10000 1 0 20:18 10.07.2019
5323 Clouds 24 1017 27 10000 2.6 320 19:42 10.07.2019
5324 Clouds 23 1017 27 10000 2.6 320 19:21 10.07.2019
5325 Clear 24 1018 27 10000 2.6 300 18:48 10.07.2019
5326 Clear 24 1018 23 10000 3.6 280 18:25 10.07.2019
5327 Clear 24 1018 31 10000 4.1 330 17:59 10.07.2019
5328 Clear 24 1018 23 10000 3.6 290 17:40 10.07.2019
5329 Clear 24 1018 23 10000 3.6 290 17:19 10.07.2019
5330 Clear 24 1018 23 10000 3.1 270 16:22 10.07.2019
5331 Clear 24 1019 25 10000 4.1 260 15:59 10.07.2019
5332 Clouds 24 1019 27 10000 2.1 20 15:40 10.07.2019
5333 Clear 23 1019 27 10000 2.1 0 15:18 10.07.2019
5334 Clear 23 1019 28 10000 2.6 220 14:39 10.07.2019
5335 Clear 23 1019 28 10000 2.6 220 14:21 10.07.2019
5336 Clouds 22 1020 26 10000 2.1 240 13:44 10.07.2019
5337 Clear 22 1020 37 10000 2.6 0 13:19 10.07.2019
5338 Clear 22 1020 37 10000 2.6 0 13:19 10.07.2019
5339 Clear 22 1020 37 10000 2.6 0 13:19 10.07.2019
5340 Clear 21 1020 39 10000 2.6 0 12:55 10.07.2019
5341 Clear 21 1020 35 10000 1.5 150 12:37 10.07.2019
5342 Clear 20 1020 39 10000 1 0 12:18 10.07.2019
5343 Clouds 20 1020 39 10000 1.5 140 11:43 10.07.2019
5344 Clear 20 1020 39 10000 0.81 170.561 11:21 10.07.2019
5345 Clouds 19 1020 44 10000 2.6 270 10:44 10.07.2019
5346 Clear 18 1021 48 10000 0.81 170.561 10:20 10.07.2019
5347 Clouds 17 1021 48 10000 1 140 09:44 10.07.2019
5348 Clear 16 1021 54 10000 1.11 85.701 09:21 10.07.2019
5349 Clear 14 1021 51 10000 3.6 60 08:50 10.07.2019
5350 Clear 13 1021 62 10000 0.99 69.838 08:29 10.07.2019
5351 Clear 12 1020 58 10000 3.1 60 07:54 10.07.2019
5352 Clear 11 1020 76 10000 0.99 69.838 07:32 10.07.2019
5353 Clear 9 1020 75 10000 0.5 0 06:56 10.07.2019
5354 Clear 8 1020 70 10000 0.5 0 05:59 10.07.2019
5355 Clear 9 1020 66 10000 1 0 04:51 10.07.2019
5356 Clear 9 1020 62 10000 1 0 04:26 10.07.2019
5357 Clear 12 1021 58 10000 0.5 0 00:47 10.07.2019
5358 Clear 12 1021 54 10000 1.5 350 00:28 10.07.2019
5359 Clear 13 1020 50 10000 3.1 20 23:41 09.07.2019
5360 Clear 14 1020 50 10000 3.1 20 23:21 09.07.2019
5361 -273 0 0 0 0 0 22:42 09.07.2019
5362 Clear 15 1020 47 10000 3.1 20 22:24 09.07.2019
5363 Clear 17 1019 42 10000 4.6 30 21:59 09.07.2019
5364 Clear 18 1020 42 10000 5.1 10 21:40 09.07.2019
5365 Clear 18 1020 42 10000 5.1 10 21:22 09.07.2019
5366 Clouds 19 1020 41 10000 4.1 20 20:43 09.07.2019
5367 Clear 20 1019 37 10000 3.6 30 20:24 09.07.2019
5368 Clouds 19 1020 39 10000 4.6 10 19:42 09.07.2019
5369 Clouds 20 1019 37 10000 4.1 360 19:24 09.07.2019
5370 Clouds 20 1019 37 10000 5.7 30 18:47 09.07.2019
5371 Clouds 21 1019 37 10000 5.7 30 18:26 09.07.2019
5372 Clear 21 1019 34 10000 5.1 350 17:57 09.07.2019
5373 Clouds 21 1019 34 10000 2.1 20 17:39 09.07.2019
5374 Clouds 21 1019 34 10000 2.1 20 17:20 09.07.2019
5375 Clear 21 1020 34 10000 3.6 360 16:50 09.07.2019
5376 Clouds 21 1020 34 10000 3.6 60 16:25 09.07.2019
5377 Clear 20 1020 39 10000 3.6 90 15:51 09.07.2019
5378 Clouds 20 1020 39 10000 3.1 30 15:33 09.07.2019
5379 Clouds 19 1020 42 10000 3.1 0 14:59 09.07.2019
5380 Clouds 20 1020 42 10000 2.6 360 14:39 09.07.2019
5381 Clouds 19 1020 42 10000 2.6 360 14:20 09.07.2019
5382 Clouds 18 1021 42 10000 5.7 50 13:45 09.07.2019
5383 Clouds 18 1021 42 10000 5.7 50 13:27 09.07.2019
5384 Clouds 17 1021 51 10000 4.1 40 12:42 09.07.2019
5385 Clouds 17 1021 51 10000 4.1 40 12:23 09.07.2019
5386 Clouds 16 1022 50 10000 2.1 340 11:58 09.07.2019
5387 Clouds 16 1021 48 10000 5.1 40 11:40 09.07.2019
5388 Clouds 16 1021 48 10000 5.1 40 11:21 09.07.2019
5389 Clouds 15 1021 58 10000 5.1 40 10:57 09.07.2019
5390 Clouds 15 1021 54 10000 4.1 50 10:34 09.07.2019
5391 Clouds 15 1021 54 10000 4.1 50 10:34 09.07.2019
5392 Clouds 14 1021 58 10000 3.1 10 09:56 09.07.2019
5393 Clear 14 1021 62 10000 3.1 40 09:37 09.07.2019
5394 Clouds 13 1021 71 10000 5.1 40 09:18 09.07.2019
5395 Clear 12 1021 76 10000 3.1 360 08:41 09.07.2019
5396 Clear 13 1020 58 10000 0.5 0 04:18 05.07.2019
5397 Clear 13 1020 54 10000 1.85 356.437 03:39 05.07.2019
5398 Clear 14 1020 54 10000 2.41 4.382 03:19 05.07.2019
5399 Clear 14 1020 47 10000 1 0 02:51 05.07.2019
5400 Clear 15 1020 48 10000 1 0 01:55 05.07.2019
5401 Clear 15 1020 45 10000 2.33 1.748 01:28 05.07.2019
5402 Clear 16 1020 48 10000 5.1 10 00:51 05.07.2019
5403 Clear 16 1020 48 10000 2.33 1.748 00:29 05.07.2019
5404 Clear 17 1020 45 10000 1.5 30 23:39 04.07.2019
5405 Clear 18 1021 55 10000 2.6 40 23:18 04.07.2019
5406 Clear 19 1020 42 10000 3.1 50 22:41 04.07.2019
5407 Clear 19 1020 42 10000 3.1 50 22:20 04.07.2019
5408 Clouds 21 1021 42 10000 3.6 30 21:44 04.07.2019
5409 Clear 22 1020 37 10000 2.1 110 21:26 04.07.2019
5410 Clear 23 1020 29 10000 2.6 340 20:59 04.07.2019
5411 Clear 24 1020 29 10000 1.5 170 20:38 04.07.2019
5412 Clouds 25 1020 29 10000 1.5 330 20:19 04.07.2019
5413 Clouds 25 1020 29 10000 1.5 330 20:19 04.07.2019
5414 Clouds 25 1021 33 10000 4.6 60 19:42 04.07.2019
5415 Clear 25 1020 27 10000 1.5 230 19:22 04.07.2019
5416 Clear 25 1021 29 10000 3.6 10 18:56 04.07.2019
5417 Clear 26 1021 25 10000 1 353.294 18:36 04.07.2019
5418 Clear 26 1021 27 10000 3.1 350 18:18 04.07.2019
5419 Clear 26 1022 28 10000 3.6 100 17:42 04.07.2019
5420 Clear 26 1021 29 10000 3.6 50 17:19 04.07.2019
5421 Haze 25 1022 31 10000 2.6 0 15:57 04.07.2019
5422 Haze 25 1022 28 10000 2.1 110 15:39 04.07.2019
5423 Clear 24 1022 31 10000 3.1 0 15:18 04.07.2019
5424 Clear 24 1022 31 10000 3.1 0 15:18 04.07.2019
5425 Clear 24 1023 28 10000 1.5 140 14:41 04.07.2019
5426 Clear 24 1023 28 10000 1.5 140 14:22 04.07.2019
5427 Clear 24 1023 33 10000 3.6 70 13:58 04.07.2019
5428 Clear 24 1024 33 10000 3.6 60 13:39 04.07.2019
5429 Clear 23 1024 33 10000 3.6 60 13:21 04.07.2019
5430 Clear 22 1024 35 10000 3.6 110 12:40 04.07.2019
5431 Haze 21 1024 35 10000 3.6 110 12:21 04.07.2019
5432 Haze 21 1024 40 10000 4.6 50 11:59 04.07.2019
5433 Haze 21 1024 42 10000 3.6 110 11:38 04.07.2019
5434 Haze 20 1024 40 10000 4.6 50 11:19 04.07.2019
5435 Haze 19 1024 45 10000 3.1 50 10:40 04.07.2019
5436 Clear 19 1024 45 10000 3.1 50 10:20 04.07.2019
5437 Clouds 18 1025 51 10000 3.6 70 09:41 04.07.2019
5438 Clouds 18 1025 51 10000 3.6 70 09:41 04.07.2019
5439 Clear 17 1024 51 10000 4.1 70 09:23 04.07.2019
5440 Clear 16 1024 54 10000 6.2 50 08:56 04.07.2019
5441 Clear 15 1024 58 10000 4.1 80 08:23 04.07.2019
5442 Clouds 13 1024 62 10000 3.6 50 07:45 04.07.2019
5443 Clear 13 1024 71 10000 2.6 90 07:22 04.07.2019
5444 Clear 12 1023 62 10000 6.2 40 06:51 04.07.2019
5445 Clear 11 1023 58 10000 5.7 40 05:52 04.07.2019
5446 Clear 11 1024 62 10000 2.1 130 05:33 04.07.2019
5447 Clear 13 1024 58 10000 3.1 20 02:43 04.07.2019
5448 Clear 14 1024 54 10000 3.1 20 01:42 04.07.2019
5449 Clear 14 1024 54 10000 5.1 20 01:22 04.07.2019
5450 Clear 16 1024 48 10000 7.2 30 23:59 03.07.2019
5451 Clear 16 1024 48 10000 4.1 20 23:41 03.07.2019
5452 Clear 16 1024 48 10000 4.1 20 23:20 03.07.2019
5453 Clear 17 1023 45 10000 7.2 30 22:55 03.07.2019
5454 Clear 17 1023 48 10000 5.1 10 22:36 03.07.2019
5455 Clear 19 1023 51 10000 4.1 360 22:18 03.07.2019
5456 Clear 20 1023 45 3800 3.6 20 21:45 03.07.2019
5457 Clear 20 1023 42 10000 5.7 10 21:26 03.07.2019
5458 Clear 21 1023 42 10000 4.1 20 20:46 03.07.2019
5459 Clear 22 1023 40 10000 6.2 10 20:24 03.07.2019
5460 Clear 23 1022 38 10000 7.2 30 19:51 03.07.2019
5461 Clear 23 1022 35 10000 4.1 30 19:33 03.07.2019
5462 Clear 23 1022 31 10000 5.7 30 18:54 03.07.2019
5463 Clear 23 1022 35 10000 6.2 40 18:36 03.07.2019
5464 Clear 24 1023 42 10000 6.2 20 18:18 03.07.2019
5465 Clear 25 1022 33 10000 2.1 30 17:41 03.07.2019
5466 Clear 25 1022 29 10000 4.1 70 17:18 03.07.2019
5467 Clear 25 1022 29 10000 4.1 70 17:18 03.07.2019
5468 Clear 24 1022 31 10000 2.6 100 16:44 03.07.2019
5469 Clear 25 1022 31 10000 2.6 100 16:23 03.07.2019
5470 Haze 24 1023 29 10000 5.1 30 15:52 03.07.2019
5471 Haze 24 1023 29 10000 5.1 30 15:52 03.07.2019
5472 Haze 24 1023 33 10000 2.6 110 15:32 03.07.2019
5473 Haze 24 1023 33 10000 4.6 30 14:59 03.07.2019
5474 Haze 23 1023 35 10000 5.1 50 14:41 03.07.2019
5475 Clouds 23 1023 35 10000 5.1 50 14:19 03.07.2019
5476 Clouds 23 1024 37 10000 3.1 10 13:43 03.07.2019
5477 Clear 23 1023 35 10000 5.1 50 13:24 03.07.2019
5478 Clouds 22 1024 42 10000 4.1 80 12:46 03.07.2019
5479 Clear 21 1025 39 10000 2.6 70 12:18 03.07.2019
5480 Clear 21 1024 40 10000 2.6 30 11:43 03.07.2019
5481 Clear 20 1024 40 10000 2.6 30 11:23 03.07.2019
5482 Haze 21 1023 40 10000 5.7 60 10:57 03.07.2019
5483 Haze 20 1024 45 10000 2.6 70 10:37 03.07.2019
5484 Clear 20 1023 45 10000 4.6 70 10:18 03.07.2019
5485 Clear 18 1023 51 10000 4.6 70 09:40 03.07.2019
5486 Clear 17 1023 51 10000 4.6 70 09:20 03.07.2019
5487 Clear 16 1023 55 10000 5.7 40 08:52 03.07.2019
5488 Clear 16 1023 67 10000 2.1 90 08:31 03.07.2019
5489 Clouds 14 1023 58 10000 2.6 20 07:45 03.07.2019
5490 Clear 14 1023 66 10000 1.5 100 07:27 03.07.2019
5491 Clear 12 1023 62 10000 3.69 43.08 06:27 03.07.2019
5492 Clear 12 1022 62 10000 3 31.748 05:35 03.07.2019
5493 Clear 12 1022 62 10000 2.6 10 04:44 03.07.2019
5494 Clear 13 1022 54 10000 1.5 110 03:25 03.07.2019
5495 Clear 14 1022 51 10000 5.1 40 02:27 03.07.2019
5496 Clear 14 1023 54 10000 3.1 30 01:21 03.07.2019
5497 Clear 15 1022 51 10000 5.1 40 00:52 03.07.2019
5498 Clear 15 1023 62 10000 3.1 30 00:32 03.07.2019
5499 Clear 17 1022 48 10000 6.7 30 23:38 02.07.2019
5500 Clear 17 1022 48 10000 6.7 30 23:38 02.07.2019
5501 Clear 17 1022 51 10000 3.6 40 23:20 02.07.2019
5502 Clear 17 1022 51 10000 3.6 40 22:57 02.07.2019
5503 Clear 17 1022 48 10000 4.1 20 22:39 02.07.2019
5504 Clear 18 1021 51 10000 4.1 40 22:20 02.07.2019
5505 Clear 20 1021 43 10000 4.6 10 21:47 02.07.2019
5506 Clear 21 1021 43 10000 4.6 10 21:26 02.07.2019
5507 Clear 22 1021 42 10000 3.6 30 20:59 02.07.2019
5508 Clear 22 1021 38 10000 4.6 360 20:41 02.07.2019
5509 Clear 23 1021 40 10000 4.6 10 20:22 02.07.2019
5510 Clear 22 1021 38 10000 4.6 350 19:44 02.07.2019
5511 Clouds 23 1021 37 10000 4.6 10 19:25 02.07.2019
5512 Clear 23 1021 33 10000 5.1 10 18:59 02.07.2019
5513 Clear 23 1021 33 10000 5.1 10 18:41 02.07.2019
5514 Clouds 24 1021 35 10000 4.1 40 18:18 02.07.2019
5515 Clouds 25 1022 35 10000 5.1 40 17:37 02.07.2019
5516 Clear 24 1022 40 10000 4.1 350 17:19 02.07.2019
5517 Clear 24 1022 35 10000 3.6 360 16:46 02.07.2019
5518 Clear 24 1022 35 10000 3.6 360 16:27 02.07.2019
5519 Clouds 24 1022 38 10000 4.28 355.325 15:44 02.07.2019
5520 Clouds 23 1022 38 10000 2.63 351.679 15:24 02.07.2019
5521 Clear 23 1022 35 10000 3.1 0 14:50 02.07.2019
5522 Clear 23 1022 35 10000 3.1 0 14:32 02.07.2019
5523 Clear 23 1022 37 10000 3.6 70 13:46 02.07.2019
5524 Clouds 22 1023 42 10000 2.6 0 13:23 02.07.2019
5525 Clear 22 1022 42 10000 4.1 20 12:59 02.07.2019
5526 Clear 21 1023 45 10000 4.1 0 12:41 02.07.2019
5527 Clouds 20 1023 43 10000 3.6 70 12:18 02.07.2019
5528 Clouds 20 1023 45 10000 3.6 20 11:42 02.07.2019
5529 Clouds 20 1023 48 10000 5.7 40 11:21 02.07.2019
5530 Clouds 19 1023 55 10000 4.1 40 10:46 02.07.2019
5531 Clouds 19 1023 52 10000 4.1 90 10:25 02.07.2019
5532 Clouds 18 1023 63 10000 3.1 20 09:45 02.07.2019
5533 Clear 16 1023 63 10000 4.1 50 09:22 02.07.2019
5534 Clear 16 1023 63 10000 5.1 50 08:43 02.07.2019
5535 Clear 16 1023 63 10000 5.1 50 08:23 02.07.2019
5536 Clear 15 1023 67 10000 4.6 60 07:54 02.07.2019
5537 Clear 13 1023 76 10000 2.45 26.095 07:21 02.07.2019
5538 Clear 13 1022 82 10000 4.6 20 06:53 02.07.2019
5539 Clear 12 1022 82 10000 4.6 20 06:35 02.07.2019
5540 Clear 13 1022 76 10000 4.1 360 04:59 02.07.2019
5541 Clear 15 1021 72 10000 5.1 360 02:28 02.07.2019
5542 Clouds 17 1021 63 10000 2.1 330 00:23 02.07.2019
5543 Clouds 18 1021 59 10000 1.5 310 23:24 01.07.2019
5544 Clear 18 1021 63 10000 2.1 290 22:48 01.07.2019
5545 Clouds 19 1020 55 10000 2.6 310 22:28 01.07.2019
5546 Clear 20 1020 56 10000 3.1 320 21:55 01.07.2019
5547 Clear 21 1019 49 10000 3.6 320 21:36 01.07.2019
5548 Clear 21 1019 52 10000 2.6 300 21:18 01.07.2019
5549 Clouds 22 1019 46 10000 4.1 330 20:42 01.07.2019
5550 Clear 23 1019 49 10000 4.6 330 20:20 01.07.2019
5551 Clear 23 1019 46 10000 4.6 330 19:43 01.07.2019
5552 Clear 23 1019 46 10000 4.6 330 19:24 01.07.2019
5553 Clear 23 1019 46 10000 4.6 310 18:56 01.07.2019
5554 Clear 23 1019 44 10000 3.6 310 18:37 01.07.2019
5555 Clear 24 1018 43 10000 4.6 300 18:19 01.07.2019
5556 Clouds 24 1019 43 10000 4.1 290 17:43 01.07.2019
5557 Clouds 24 1019 44 10000 5.1 290 17:23 01.07.2019
5558 Clear 24 1019 47 10000 4.1 320 16:48 01.07.2019
5559 Clouds 24 1019 43 10000 4.6 320 16:27 01.07.2019
5560 Clear 24 1019 46 10000 5.1 330 15:58 01.07.2019
5561 Clear 24 1019 46 10000 5.1 330 15:40 01.07.2019
5562 Clouds 23 1019 44 10000 4.6 300 15:22 01.07.2019
5563 Clear 24 1019 41 10000 5.7 300 14:44 01.07.2019
5564 Clouds 24 1019 36 10000 5.1 280 14:20 01.07.2019
5565 Clear 24 1020 41 10000 5.7 270 13:45 01.07.2019
5566 Clear 24 1020 41 10000 5.7 270 13:45 01.07.2019
5567 Clear 23 1019 33 10000 6.2 300 13:23 01.07.2019
5568 Clouds 23 1020 43 10000 5.7 300 12:56 01.07.2019
5569 Clear 23 1018 56 10000 5.1 300 12:37 01.07.2019
5570 Clouds 22 1018 43 10000 3.1 310 12:19 01.07.2019
5571 Rain 21 1019 52 10000 4.1 300 11:43 01.07.2019
5572 Rain 21 1019 52 10000 5.1 270 11:22 01.07.2019
5573 Clouds 21 1019 56 10000 4.1 300 10:48 01.07.2019
5574 Rain 21 1019 60 10000 3.6 290 10:24 01.07.2019
5575 Clouds 20 1019 68 10000 3.1 300 09:58 01.07.2019
5576 Clouds 20 1019 68 10000 3.1 300 09:40 01.07.2019
5577 Clouds 19 1019 68 10000 4.1 270 09:21 01.07.2019
5578 Clouds 18 1019 77 10000 3.1 280 08:38 01.07.2019
5579 Mist 18 1020 68 10000 5.1 280 07:57 01.07.2019
5580 Mist 18 1018 82 10000 2.1 230 07:27 01.07.2019
5581 Thunderstorm 18 1018 77 10000 2.6 270 06:27 01.07.2019
5582 Rain 20 1017 77 10000 1.63 340.384 02:21 01.07.2019
5583 Clear 20 1017 77 10000 2.1 320 00:49 01.07.2019
5584 Clear 21 1017 73 10000 1.4 329.891 00:29 01.07.2019
5585 Clear 22 1017 73 10000 4.1 330 23:56 30.06.2019
5586 Mist 22 1017 69 10000 2.1 300 23:22 30.06.2019
5587 Mist 23 1017 69 10000 2.6 340 22:53 30.06.2019
5588 Clear 23 1017 64 10000 1.5 290 22:22 30.06.2019
5589 Clear 25 1017 64 10000 4.6 330 21:44 30.06.2019
5590 Clouds 26 1016 61 10000 4.6 300 21:26 30.06.2019
5591 Clear 27 1018 54 10000 4.1 250 20:59 30.06.2019
5592 Clear 27 1017 57 10000 4.1 310 20:40 30.06.2019
5593 Clouds 28 1016 48 10000 4.6 250 20:21 30.06.2019
5594 Clear 29 1016 51 10000 6.7 270 19:48 30.06.2019
5595 Clouds 30 1015 46 10000 6.2 230 19:25 30.06.2019
5596 Clear 31 1016 48 10000 6.2 250 18:47 30.06.2019
5597 Clear 33 1015 36 10000 5.7 220 18:22 30.06.2019
5598 Clear 33 1017 46 10000 5.1 240 17:40 30.06.2019
5599 Clear 33 1016 34 10000 2.6 220 17:19 30.06.2019
5600 Clear 33 1017 46 10000 4.1 240 16:52 30.06.2019
5601 Clear 33 1016 38 10000 3.6 240 16:33 30.06.2019
5602 Clear 33 1017 40 10000 4.1 290 15:58 30.06.2019
5603 Clear 32 1017 40 10000 5.1 270 15:36 30.06.2019
5604 Clear 33 1016 38 10000 4.1 280 15:18 30.06.2019
5605 Clear 32 1017 45 10000 5.1 260 14:45 30.06.2019
5606 Clear 32 1016 36 10000 6.7 240 14:27 30.06.2019
5607 Clear 32 1017 43 10000 6.7 250 13:43 30.06.2019
5608 Clear 32 1016 38 10000 5.7 250 13:23 30.06.2019
5609 Clear 32 1017 43 10000 4.1 200 12:48 30.06.2019
5610 Clear 31 1016 42 10000 2.1 250 12:25 30.06.2019
5611 Clear 30 1016 51 10000 3.1 210 11:55 30.06.2019
5612 Clear 29 1017 42 10000 4.6 270 11:37 30.06.2019
5613 Clear 29 1016 48 10000 2.1 270 11:18 30.06.2019
5614 Clear 28 1016 50 10000 2.6 200 10:42 30.06.2019
5615 Clear 27 1016 47 10000 2.6 270 10:19 30.06.2019
5616 Haze 27 1016 47 8000 1.5 290 09:57 30.06.2019
5617 Haze 26 1016 45 10000 2.1 240 09:36 30.06.2019
5618 Haze 25 1016 44 6000 1.42 195.578 09:18 30.06.2019
5619 Haze 23 1016 53 10000 2.6 170 08:39 30.06.2019
5620 Haze 22 1016 53 6000 1.56 187.835 08:19 30.06.2019
5621 Clear 20 1016 53 10000 2.1 170 07:40 30.06.2019
5622 Clear 19 1015 72 10000 1.5 110 07:21 30.06.2019
5623 Clear 17 1015 67 10000 1.56 187.835 06:31 30.06.2019
5624 Clear 18 1016 56 10000 0.76 156.345 03:27 30.06.2019
5625 Clear 18 1016 49 10000 1.5 130 01:52 30.06.2019
5626 Clear 19 1017 49 10000 5.1 140 00:45 30.06.2019
5627 Clear 20 1017 41 10000 1.5 100 00:23 30.06.2019
5628 Clear 21 1017 43 10000 5.1 130 23:48 29.06.2019
5629 Clear 22 1017 41 10000 2.6 90 23:22 29.06.2019
5630 Clear 22 1018 41 10000 4.6 130 22:47 29.06.2019
5631 Clear 23 1017 36 10000 3.1 90 22:23 29.06.2019
5632 Clear 25 1017 30 10000 2.1 120 21:55 29.06.2019
5633 Clear 27 1017 32 10000 2.6 80 21:25 29.06.2019
5634 Clear 29 1017 28 10000 2.6 100 20:47 29.06.2019
5635 Clear 30 1017 27 10000 3.6 80 20:29 29.06.2019
5636 Clear 30 1017 24 10000 3.1 110 19:59 29.06.2019
5637 Clear 31 1017 24 10000 3.1 110 19:41 29.06.2019
5638 Haze 31 1017 25 10000 3.6 80 19:20 29.06.2019
5639 Haze 31 1017 25 10000 3.6 80 19:20 29.06.2019
5640 Haze 31 1017 21 10000 3.6 130 18:47 29.06.2019
5641 Clear 32 1018 23 10000 3.1 90 18:24 29.06.2019
5642 Clear 32 1019 25 10000 4.1 130 17:38 29.06.2019
5643 Clear 32 1018 22 10000 1.5 80 17:19 29.06.2019
5644 Clear 32 1018 19 10000 2.6 0 16:43 29.06.2019
5645 Clear 32 1019 19 10000 4.1 120 16:19 29.06.2019
5646 Clear 32 1020 26 10000 4.6 80 15:33 29.06.2019
5647 Clear 31 1019 27 10000 3.6 130 14:59 29.06.2019
5648 Clear 31 1019 27 10000 3.6 130 14:40 29.06.2019
5649 Clear 31 1019 25 10000 3.1 100 14:21 29.06.2019
5650 Clear 30 1019 30 10000 3.1 0 13:43 29.06.2019
5651 Clear 30 1020 34 10000 4.1 60 13:24 29.06.2019
5652 Clear 29 1020 34 10000 3.6 100 12:42 29.06.2019
5653 Clear 27 1020 36 10000 3.1 140 12:23 29.06.2019
5654 Clear 27 1020 39 10000 3.1 80 11:48 29.06.2019
5655 Clear 27 1021 39 10000 4.1 100 11:28 29.06.2019
5656 Clear 26 1020 44 10000 4.6 60 10:52 29.06.2019
5657 Clear 25 1021 44 10000 3.6 60 10:29 29.06.2019
5658 Clear 23 1020 49 10000 4.6 50 09:58 29.06.2019
5659 Clear 22 1021 52 10000 3.6 70 09:31 29.06.2019
5660 Clear 20 1020 52 10000 5.1 50 08:41 29.06.2019
5661 Clear 18 1020 52 10000 4.6 50 07:46 29.06.2019
5662 Clear 17 1021 55 10000 2.1 90 07:21 29.06.2019
5663 Clear 15 1021 52 10000 4.6 40 06:43 29.06.2019
5664 Clear 14 1021 67 10000 2.6 50 06:21 29.06.2019
5665 Clear 17 1022 55 10000 2.1 100 02:30 29.06.2019
5666 Clear 18 1023 45 10000 1.5 120 00:57 29.06.2019
5667 Clear 19 1022 45 10000 3.1 110 00:23 29.06.2019
5668 Clear 21 1022 43 10000 3.6 50 23:26 28.06.2019
5669 Clear 21 1023 52 10000 2.1 50 22:53 28.06.2019
5670 Clear 22 1023 52 10000 2.1 50 22:33 28.06.2019
5671 Clear 24 1022 36 10000 4.6 50 21:48 28.06.2019
5672 Clear 26 1022 38 10000 4.1 50 21:24 28.06.2019
5673 Clear 27 1022 30 10000 4.6 60 20:48 28.06.2019
5674 Clear 28 1022 34 10000 4.6 70 20:27 28.06.2019
5675 Clear 28 1022 28 10000 5.1 40 19:53 28.06.2019
5676 Clear 28 1022 30 10000 5.1 60 19:28 28.06.2019
5677 Clear 29 1022 25 10000 4.6 50 18:57 28.06.2019
5678 Clear 29 1023 34 10000 4.1 20 18:38 28.06.2019
5679 Clear 30 1022 32 10000 4.6 40 18:20 28.06.2019
5680 Clear 30 1022 30 10000 4.1 80 17:30 28.06.2019
5681 Haze 30 1022 22 10000 4.6 50 16:51 28.06.2019
5682 Haze 30 1023 30 10000 3.1 60 16:27 28.06.2019
5683 Clear 29 1023 25 10000 3.6 60 15:48 28.06.2019
5684 Clear 29 1023 30 10000 3.6 60 15:26 28.06.2019
5685 Clear 28 1023 30 10000 3.6 50 14:57 28.06.2019
5686 Clear 28 1024 33 10000 4.1 10 14:38 28.06.2019
5687 Clear 28 1024 30 10000 4.6 80 14:20 28.06.2019
5688 Clear 28 1024 28 10000 4.1 50 13:44 28.06.2019
5689 Clear 27 1024 29 10000 5.1 70 13:22 28.06.2019
5690 Haze 26 1024 31 10000 5.1 50 12:49 28.06.2019
5691 Clear 25 1024 33 10000 3.6 30 12:24 28.06.2019
5692 Clear 24 1024 49 10000 3.1 80 11:28 28.06.2019
5693 Clear 23 1024 49 10000 4.1 50 10:47 28.06.2019
5694 Clear 22 1025 56 10000 3.1 90 10:23 28.06.2019
5695 Clear 21 1024 60 10000 4.1 40 09:59 28.06.2019
5696 Clear 21 1024 60 10000 4.1 40 09:41 28.06.2019
5697 Clear 20 1025 68 10000 3.6 60 09:22 28.06.2019
5698 Clear 18 1024 67 10000 6.2 40 08:41 28.06.2019
5699 Clear 18 1025 67 10000 5.1 70 08:23 28.06.2019
5700 Clear 16 1024 67 10000 5.7 50 07:41 28.06.2019
5701 Clear 14 1024 67 10000 4.1 60 06:40 28.06.2019
5702 Clear 16 1024 52 10000 6.7 40 02:56 28.06.2019
5703 Clear 18 1025 45 10000 5.1 40 00:46 28.06.2019
5704 Clear 20 1025 40 10000 6.2 40 23:59 27.06.2019
5705 Clear 20 1025 40 10000 6.2 40 23:41 27.06.2019
5706 Clear 21 1025 45 10000 3.1 30 23:22 27.06.2019
5707 Clear 22 1025 35 10000 7.2 30 22:43 27.06.2019
5708 Clear 23 1025 40 10000 3.1 10 22:24 27.06.2019
5709 Clear 24 1024 33 10000 6.7 30 21:57 27.06.2019
5710 Clear 24 1025 37 10000 4.1 360 21:38 27.06.2019
5711 Clear 25 1025 38 10000 4.1 30 21:19 27.06.2019
5712 Clear 27 1024 30 10000 7.2 40 20:45 27.06.2019
5713 Clear 27 1025 29 10000 6.2 20 20:27 27.06.2019
5714 Clear 27 1024 30 10000 6.2 10 19:48 27.06.2019
5715 Clear 26 1025 26 10000 6.7 20 19:29 27.06.2019
5716 Clear 27 1024 31 10000 5.7 30 18:52 27.06.2019
5717 Clear 29 1025 28 10000 6.2 20 18:30 27.06.2019
5718 Clear 30 1024 33 10000 5.1 40 17:55 27.06.2019
5719 Clear 30 1026 30 10000 5.7 360 17:36 27.06.2019
5720 Clear 30 1025 28 10000 3.1 10 17:18 27.06.2019
5721 Clear 30 1026 34 10000 4.6 360 16:38 27.06.2019
5722 Clear 30 1025 30 10000 4.1 30 16:19 27.06.2019
5723 Clear 30 1025 35 10000 5.1 40 15:45 27.06.2019
5724 Clear 30 1025 32 10000 3.79 43.226 15:24 27.06.2019
5725 Clear 29 1025 40 10000 5.7 40 14:48 27.06.2019
5726 Clear 30 1026 35 10000 4.6 80 14:29 27.06.2019
5727 Clear 29 1025 42 10000 5.7 40 13:50 27.06.2019
5728 Clear 29 1026 39 10000 4.1 30 13:31 27.06.2019
5729 Clear 29 1026 48 10000 5.7 40 12:58 27.06.2019
5730 Clear 28 1027 50 10000 4.6 20 12:38 27.06.2019
5731 Clear 27 1026 44 10000 5.1 70 12:19 27.06.2019
5732 Clear 26 1026 54 10000 5.1 40 11:42 27.06.2019
5733 Clear 26 1026 53 10000 5.1 10 11:21 27.06.2019
5734 Clear 26 1026 60 10000 5.7 50 10:55 27.06.2019
5735 Clouds 25 1026 57 10000 4.6 70 10:36 27.06.2019
5736 Clouds 25 1026 57 10000 4.6 70 10:18 27.06.2019
5737 Clouds 24 1027 77 10000 3.1 10 09:37 27.06.2019
5738 Clear 23 1026 64 10000 4.1 70 09:19 27.06.2019
5739 Clear 22 1025 73 10000 7.2 50 08:44 27.06.2019
5740 Clear 21 1026 72 10000 4.1 70 08:22 27.06.2019
5741 Clear 21 1025 73 10000 7.7 40 07:39 27.06.2019
5742 Clear 20 1025 77 10000 7.2 30 06:55 27.06.2019
5743 Clear 20 1025 82 10000 3.1 30 06:29 27.06.2019
5744 Clear 21 1025 73 10000 7.7 30 03:50 27.06.2019
5745 Clear 22 1025 73 10000 6.2 30 02:41 27.06.2019
5746 Clear 23 1025 78 10000 2.1 30 01:19 27.06.2019
5747 Clear 24 1024 65 10000 6.7 30 00:48 27.06.2019
5748 Clear 24 1025 73 10000 2.1 30 00:26 27.06.2019
5749 Clear 25 1024 65 10000 7.7 30 23:48 26.06.2019
5750 Clear 26 1024 65 10000 2.6 360 23:23 26.06.2019
5751 Clear 26 1024 65 10000 2.6 360 23:23 26.06.2019
5752 Clear 25 1024 57 10000 7.7 20 22:57 26.06.2019
5753 Clear 25 1024 57 10000 7.7 20 22:39 26.06.2019
5754 Clear 26 1024 57 10000 5.1 20 22:19 26.06.2019
5755 Clear 28 1023 54 10000 7.2 10 21:42 26.06.2019
5756 Haze 29 1023 51 10000 4.1 10 21:20 26.06.2019
5757 Haze 31 1023 49 10000 3.1 360 20:57 26.06.2019
5758 Haze 31 1024 51 10000 5.1 10 20:37 26.06.2019
5759 Haze 32 1023 48 10000 6.2 20 20:18 26.06.2019
5760 Haze 32 1022 44 10000 1.5 110 19:41 26.06.2019
5761 Haze 32 1023 52 10000 6.2 20 19:23 26.06.2019
5762 Haze 33 1022 41 10000 1.5 140 18:45 26.06.2019
5763 Haze 34 1023 41 10000 3.1 10 18:22 26.06.2019
5764 Haze 34 1023 38 10000 2.1 0 17:57 26.06.2019
5765 Haze 34 1024 43 10000 3.6 20 17:37 26.06.2019
5766 Haze 34 1023 41 10000 2.1 70 17:18 26.06.2019
5767 Haze 35 1024 36 10000 1.5 0 16:46 26.06.2019
5768 Clear 34 1024 41 10000 1.5 50 16:22 26.06.2019
5769 Clear 34 1025 40 10000 2.1 0 15:37 26.06.2019
5770 Clear 34 1025 40 10000 2.1 0 15:37 26.06.2019
5771 Clear 34 1024 43 10000 1.5 130 15:19 26.06.2019
5772 Clear 33 1025 40 10000 1.5 0 14:38 26.06.2019
5773 Clear 33 1024 49 10000 2.6 80 14:19 26.06.2019
5774 Haze 33 1025 43 10000 1.5 70 13:42 26.06.2019
5775 Haze 32 1025 48 10000 1.5 320 13:20 26.06.2019
5776 Clear 32 1025 40 10000 2.6 10 12:41 26.06.2019
5777 Clear 31 1024 52 10000 3.1 80 12:22 26.06.2019
5778 Haze 30 1025 51 10000 2.6 70 11:45 26.06.2019
5779 Clear 30 1024 58 10000 2.6 80 11:20 26.06.2019
5780 Clear 29 1024 58 10000 3.6 40 10:45 26.06.2019
5781 Clear 28 1024 65 10000 3.6 80 10:25 26.06.2019
5782 Clear 27 1024 65 10000 4.6 50 09:44 26.06.2019
5783 Clear 26 1024 69 10000 1.5 80 09:19 26.06.2019
5784 Clear 24 1024 61 10000 4.1 60 08:49 26.06.2019
5785 Clear 23 1024 73 10000 1.5 70 08:20 26.06.2019
5786 Clear 22 1024 61 10000 3.1 40 07:46 26.06.2019
5787 Clear 20 1023 77 10000 2.6 40 06:57 26.06.2019
5788 Clear 20 1023 77 10000 1.49 19.739 06:31 26.06.2019
5789 Clouds 21 1022 53 10000 3.1 330 01:25 26.06.2019
5790 Clear 22 1022 57 10000 1.5 290 00:25 26.06.2019
5791 Clear 23 1022 53 10000 3.6 210 23:47 25.06.2019
5792 Clear 23 1021 54 10000 1.5 250 23:28 25.06.2019
5793 Clear 24 1021 51 10000 3.6 320 22:57 25.06.2019
5794 Clear 25 1021 51 10000 3.6 320 22:39 25.06.2019
5795 Clear 25 1021 45 10000 0.87 269.143 22:20 25.06.2019
5796 Clear 27 1021 48 10000 3.1 310 21:44 25.06.2019
5797 Clear 28 1020 42 10000 2.1 240 21:22 25.06.2019
5798 Clear 30 1020 40 10000 3.1 260 20:47 25.06.2019
5799 Clear 30 1020 40 10000 3.1 260 20:47 25.06.2019
5800 Clear 30 1020 40 10000 3.1 260 20:47 25.06.2019
5801 Clear 30 1020 35 10000 3.6 230 20:23 25.06.2019
5802 Clear 31 1020 38 10000 3.1 220 19:54 25.06.2019
5803 Clear 31 1021 40 10000 4.1 160 19:36 25.06.2019
5804 Clear 32 1020 29 10000 3.6 220 19:18 25.06.2019
5805 Clear 32 1020 31 10000 3.6 220 18:40 25.06.2019
5806 Clear 32 1019 29 10000 6.2 210 18:21 25.06.2019
5807 Clear 33 1020 35 10000 5.1 190 17:37 25.06.2019
5808 Clear 33 1020 35 10000 5.1 190 17:37 25.06.2019
5809 Clear 33 1019 28 10000 5.7 200 17:18 25.06.2019
5810 Clear 33 1019 31 10000 4.6 190 16:42 25.06.2019
5811 Clear 33 1019 29 10000 6.7 210 16:24 25.06.2019
5812 Clear 33 1019 31 10000 5.7 170 15:43 25.06.2019
5813 Clear 32 1019 38 10000 5.1 190 15:24 25.06.2019
5814 Clear 32 1019 35 10000 5.7 180 14:55 25.06.2019
5815 Clear 32 1021 45 10000 4.6 150 14:36 25.06.2019
5816 Clear 31 1019 42 10000 5.7 190 13:59 25.06.2019
5817 Clear 31 1019 42 10000 5.7 190 13:39 25.06.2019
5818 Clear 31 1019 43 10000 3.6 180 13:19 25.06.2019
5819 Clear 30 1020 54 10000 4.1 120 12:39 25.06.2019
5820 Clear 29 1019 51 10000 2.6 120 12:21 25.06.2019
5821 Clear 28 1019 54 10000 4.1 140 11:44 25.06.2019
5822 Clouds 28 1019 57 10000 2.1 120 11:22 25.06.2019
5823 Clear 27 1019 57 10000 3.6 0 10:46 25.06.2019
5824 Clouds 26 1019 61 10000 2.6 90 10:24 25.06.2019
5825 Clouds 26 1019 61 10000 2.6 90 10:24 25.06.2019
5826 Clear 25 1022 64 10000 2.6 120 09:59 25.06.2019
5827 Clear 25 1020 64 10000 7.7 140 09:38 25.06.2019
5828 Clear 24 1019 64 10000 3.6 90 09:20 25.06.2019
5829 Clear 23 1019 64 10000 3.6 130 08:50 25.06.2019
5830 Clouds 22 1019 68 10000 3.1 80 08:29 25.06.2019
5831 Clear 21 1018 68 10000 2.6 110 07:43 25.06.2019
5832 Clear 21 1018 68 10000 3.1 110 07:23 25.06.2019
5833 Clear 20 1018 68 10000 2.6 90 06:42 25.06.2019
5834 Clear 20 1018 68 10000 2.6 60 04:30 25.06.2019
5835 Clear 21 1020 68 10000 1.5 120 02:35 25.06.2019
5836 Clear 21 1020 73 10000 2.1 120 00:38 25.06.2019
5837 Clear 22 1019 64 10000 3.1 60 00:18 25.06.2019
5838 Clear 22 1020 68 10000 1.5 130 23:48 24.06.2019
5839 Clear 23 1019 60 10000 2.1 70 23:30 24.06.2019
5840 Clear 23 1019 57 10000 2.6 80 22:45 24.06.2019
5841 Clear 24 1019 57 10000 2.1 70 22:19 24.06.2019
5842 Clear 25 1018 51 10000 3.1 110 21:54 24.06.2019
5843 Clear 26 1020 53 10000 2.1 90 21:36 24.06.2019
5844 Clear 27 1019 51 10000 3.1 80 21:18 24.06.2019
5845 Clear 28 1018 45 10000 3.1 110 20:42 24.06.2019
5846 Clear 29 1018 48 10000 3.6 80 20:22 24.06.2019
5847 Clear 29 1018 40 10000 3.1 110 19:48 24.06.2019
5848 Clear 29 1019 45 10000 3.1 80 19:26 24.06.2019
5849 Clear 29 1018 40 10000 2.6 100 18:56 24.06.2019
5850 Clear 30 1020 45 10000 3.1 130 18:37 24.06.2019
5851 Clear 30 1019 40 10000 3.6 90 18:18 24.06.2019
5852 Clear 30 1020 45 10000 4.1 140 17:37 24.06.2019
5853 Clear 30 1019 40 10000 1.5 80 17:18 24.06.2019
5854 Clear 30 1019 42 10000 2.1 120 16:40 24.06.2019
5855 Clear 30 1019 42 10000 3.1 120 16:19 24.06.2019
5856 Clouds 30 1019 45 10000 3.1 0 15:41 24.06.2019
5857 Clear 29 1019 42 10000 3.6 120 15:22 24.06.2019
5858 Clouds 29 1020 51 10000 3.6 90 14:37 24.06.2019
5859 Clear 29 1019 48 10000 3.6 100 14:19 24.06.2019
5860 Clear 28 1019 48 10000 3.1 120 13:33 24.06.2019
5861 Clouds 28 1019 54 10000 4.1 130 12:58 24.06.2019
5862 Clouds 27 1019 54 10000 4.1 130 12:39 24.06.2019
5863 Clear 27 1019 54 10000 3.1 100 12:20 24.06.2019
5864 Clouds 26 1019 57 10000 4.1 130 11:44 24.06.2019
5865 Clear 25 1019 61 10000 5.1 70 11:26 24.06.2019
5866 Clear 25 1019 64 10000 3.1 120 10:52 24.06.2019
5867 Clear 25 1020 64 10000 4.6 130 10:33 24.06.2019
5868 Clear 23 1019 69 10000 3.1 110 09:56 24.06.2019
5869 Clear 23 1020 73 10000 3.6 120 09:37 24.06.2019
5870 Clear 22 1020 68 10000 4.1 80 09:18 24.06.2019
5871 Clear 21 1020 77 10000 3.1 100 08:34 24.06.2019
5872 Clear 19 1019 77 10000 3.6 60 07:50 24.06.2019
5873 Clear 19 1020 77 10000 3.6 60 07:27 24.06.2019
5874 Clear 18 1019 77 10000 3.6 60 06:57 24.06.2019
5875 Clear 17 1019 82 10000 3.1 70 06:23 24.06.2019
5876 Clouds 17 1019 82 10000 3.6 70 05:32 24.06.2019
5877 Clear 17 1020 87 10000 1 0 04:35 24.06.2019
5878 Clouds 17 1019 77 10000 3.1 80 03:44 24.06.2019
5879 Clear 18 1020 77 10000 1.5 110 02:36 24.06.2019
5880 Clear 18 1022 77 10000 2.1 110 01:55 24.06.2019
5881 Clear 19 1019 72 10000 1.5 70 01:31 24.06.2019
5882 Clear 19 1019 68 10000 3.1 80 00:46 24.06.2019
5883 Clear 19 1019 68 10000 2.6 60 00:20 24.06.2019
5884 Clear 20 1019 64 10000 2.6 90 23:48 23.06.2019
5885 Clear 20 1019 64 10000 2.6 90 23:48 23.06.2019
5886 Clear 20 1019 64 10000 2.6 60 23:28 23.06.2019
5887 Clear 20 1019 64 10000 2.6 60 23:28 23.06.2019
5888 Clear 21 1021 72 10000 2.1 90 22:57 23.06.2019
5889 Clear 21 1018 64 10000 2.6 90 22:39 23.06.2019
5890 Clear 21 1018 64 10000 2.1 60 22:19 23.06.2019
5891 Clear 22 1018 64 10000 2.6 100 21:41 23.06.2019
5892 Clear 23 1018 57 10000 2.1 100 21:22 23.06.2019
5893 Clear 24 1018 60 10000 3.6 120 20:51 23.06.2019
5894 Clear 25 1018 53 10000 3.1 90 20:29 23.06.2019
5895 Clear 25 1020 64 10000 1.5 110 19:55 23.06.2019
5896 Clear 25 1019 53 10000 2.6 120 19:37 23.06.2019
5897 Clear 26 1018 53 10000 4.1 70 19:19 23.06.2019
5898 Clouds 26 1018 50 10000 5.1 130 18:43 23.06.2019
5899 Clouds 26 1018 50 10000 3.6 90 18:19 23.06.2019
5900 Clouds 27 1018 50 10000 5.1 120 17:41 23.06.2019
5901 Clouds 26 1018 50 10000 3.1 110 17:22 23.06.2019
5902 Clouds 26 1018 47 10000 5.7 110 16:45 23.06.2019
5903 Clouds 26 1018 50 10000 4.6 70 16:25 23.06.2019
5904 Clouds 26 1018 50 10000 5.1 120 15:54 23.06.2019
5905 Clouds 26 1019 57 10000 3.6 0 15:36 23.06.2019
5906 Clouds 26 1018 53 10000 5.1 70 15:18 23.06.2019
5907 Clouds 26 1019 56 10000 3.6 110 14:38 23.06.2019
5908 Clouds 26 1018 53 10000 5.7 80 14:20 23.06.2019
5909 Clouds 25 1018 57 10000 4.6 90 13:42 23.06.2019
5910 Clouds 25 1019 57 10000 4.1 70 13:21 23.06.2019
5911 Clouds 24 1018 60 10000 4.1 100 12:59 23.06.2019
5912 Clouds 24 1018 60 10000 4.1 100 12:40 23.06.2019
5913 Clouds 24 1019 60 10000 4.6 90 12:19 23.06.2019
5914 Clouds 23 1018 64 10000 4.1 80 11:46 23.06.2019
5915 Clouds 23 1019 64 10000 4.6 60 11:27 23.06.2019
5916 Clear 23 1019 64 10000 3.6 80 10:49 23.06.2019
5917 Clear 22 1019 68 10000 5.1 50 10:21 23.06.2019
5918 Clear 21 1019 68 10000 4.1 50 09:58 23.06.2019
5919 Clear 20 1019 72 10000 3.1 60 09:22 23.06.2019
5920 Clouds 19 1018 82 10000 3.1 80 08:54 23.06.2019
5921 Clear 18 1019 77 10000 4.6 50 08:36 23.06.2019
5922 Clear 18 1019 77 10000 3.1 50 08:18 23.06.2019
5923 Clear 16 1018 77 10000 5.7 50 07:44 23.06.2019
5924 Clear 15 1019 82 10000 2.6 50 07:18 23.06.2019
5925 Clear 14 1018 100 10000 2.6 60 06:52 23.06.2019
5926 Clear 14 1019 82 10000 3.6 40 05:53 23.06.2019
5927 Clear 15 1019 82 10000 2.6 40 02:52 23.06.2019
5928 Clear 15 1019 77 10000 3.1 40 01:42 23.06.2019
5929 Clear 15 1019 82 10000 1.5 40 01:24 23.06.2019
5930 Clear 16 1019 77 10000 1.5 40 00:32 23.06.2019
5931 Clear 17 1018 68 10000 1.5 70 23:49 22.06.2019
5932 Clear 17 1019 72 10000 1.5 40 23:26 22.06.2019
5933 Mist 18 1018 60 10000 3.1 30 22:47 22.06.2019
5934 Mist 18 1018 72 10000 3.1 90 22:29 22.06.2019
5935 Rain 19 1018 64 10000 3.6 350 21:59 22.06.2019
5936 Clouds 20 1019 77 10000 3.1 140 21:36 22.06.2019
5937 Clouds 20 1019 77 10000 3.1 140 21:36 22.06.2019
5938 Clear 21 1018 56 10000 3.6 20 21:18 22.06.2019
5939 Clear 22 1018 60 10000 3.1 330 20:45 22.06.2019
5940 Clouds 22 1018 53 10000 3.6 30 20:24 22.06.2019
5941 Clear 22 1018 56 10000 3.1 310 19:42 22.06.2019
5942 Clouds 22 1018 49 10000 4.1 40 19:22 22.06.2019
5943 Clouds 23 1018 46 10000 3.6 40 18:43 22.06.2019
5944 Clear 23 1018 44 10000 2.6 20 18:25 22.06.2019
5945 Rain 23 1018 56 10000 3.1 320 17:46 22.06.2019
5946 Clouds 23 1018 44 10000 4.1 30 17:28 22.06.2019
5947 Clear 23 1018 49 10000 3.1 330 16:47 22.06.2019
5948 Clouds 23 1018 47 10000 3.1 30 16:24 22.06.2019
5949 Clear 22 1019 49 10000 3.6 350 15:49 22.06.2019
5950 Clouds 22 1019 47 10000 3.1 100 15:29 22.06.2019
5951 Clear 22 1019 46 10000 4.1 30 14:53 22.06.2019
5952 Clouds 22 1019 56 10000 3.1 30 14:34 22.06.2019
5953 Clear 22 1019 43 10000 4.6 40 13:58 22.06.2019
5954 Clear 22 1019 43 10000 4.6 40 13:40 22.06.2019
5955 Clouds 22 1019 43 10000 3.1 80 13:19 22.06.2019
5956 Clear 21 1019 49 10000 5.1 50 12:47 22.06.2019
5957 Clear 21 1020 46 10000 3.1 80 12:29 22.06.2019
5958 Clear 20 1019 52 10000 5.1 60 11:57 22.06.2019
5959 Rain 20 1020 56 10000 5.1 80 11:31 22.06.2019
5960 Rain 19 1019 56 10000 5.1 40 10:48 22.06.2019
5961 Rain 19 1020 59 10000 3.6 60 10:19 22.06.2019
5962 Rain 17 1019 63 10000 7.2 40 09:46 22.06.2019
5963 Clear 16 1020 63 10000 5.1 50 09:18 22.06.2019
5964 Rain 15 1019 67 10000 6.7 40 08:41 22.06.2019
5965 Clear 14 1020 71 10000 2.6 50 08:20 22.06.2019
5966 Rain 13 1020 81 10000 1.5 80 07:30 22.06.2019
5967 Rain 12 1020 76 10000 6.7 40 06:47 22.06.2019
5968 Clear 12 1021 81 10000 1.5 60 05:22 22.06.2019
5969 Clear 13 1021 76 10000 2.6 40 02:33 22.06.2019
5970 Clear 13 1021 67 10000 4.6 360 01:18 22.06.2019
5971 Clear 14 1021 66 10000 2.6 10 00:38 22.06.2019
5972 Clouds 14 1021 62 10000 3.6 360 00:19 22.06.2019
5973 Clear 14 1021 59 10000 5.7 10 23:42 21.06.2019
5974 Clouds 15 1021 62 10000 2.6 10 23:19 21.06.2019
5975 Clouds 15 1021 59 10000 2.6 360 22:47 21.06.2019
5976 Clouds 15 1021 59 10000 2.6 360 22:47 21.06.2019
5977 Clouds 16 1021 59 10000 3.1 10 22:23 21.06.2019
5978 Clear 17 1020 52 10000 3.1 360 21:40 21.06.2019
5979 Clear 17 1020 52 10000 3.1 360 21:40 21.06.2019
5980 Clear 19 1020 55 10000 3.6 30 21:22 21.06.2019
5981 Clear 20 1020 42 10000 4.6 10 20:53 21.06.2019
5982 Clear 20 1019 42 10000 2.1 280 20:28 21.06.2019
5983 Clear 20 1019 40 10000 4.1 10 19:59 21.06.2019
5984 Clear 20 1019 40 10000 2.6 310 19:34 21.06.2019
5985 Clear 20 1019 37 10000 3.1 0 18:49 21.06.2019
5986 Clear 21 1019 37 10000 2.6 250 18:29 21.06.2019
5987 Clear 21 1019 37 10000 4.6 350 17:46 21.06.2019
5988 Clouds 21 1019 37 10000 1.5 310 17:28 21.06.2019
5989 Clear 21 1019 37 10000 2.1 280 16:41 21.06.2019
5990 Clouds 20 1020 40 10000 2.88 307.137 16:22 21.06.2019
5991 Clear 21 1020 40 10000 3.6 320 15:40 21.06.2019
5992 Clouds 20 1020 40 10000 4.1 280 15:21 21.06.2019
5993 Clear 20 1020 37 10000 2.6 0 14:49 21.06.2019
5994 Clear 20 1020 42 10000 3.08 278.283 14:30 21.06.2019
5995 Clear 20 1020 42 10000 3.6 330 13:55 21.06.2019
5996 Clear 20 1020 48 10000 3.1 270 13:36 21.06.2019
5997 Clouds 19 1020 42 10000 1.5 270 13:18 21.06.2019
5998 Clear 19 1020 42 10000 3.6 280 12:39 21.06.2019
5999 Clouds 19 1020 45 10000 2.1 260 12:18 21.06.2019
6000 Clouds 18 1020 48 10000 2.6 330 11:47 21.06.2019
6001 Clouds 18 1020 55 10000 1.5 280 11:26 21.06.2019
6002 Clear 18 1020 55 10000 3.6 280 10:51 21.06.2019
6003 Clear 17 1020 55 10000 3.1 250 10:22 21.06.2019
6004 Clear 17 1020 51 10000 4.6 320 09:59 21.06.2019
6005 Clear 16 1020 51 10000 4.6 320 09:40 21.06.2019
6006 Clear 15 1020 72 10000 1.5 270 09:19 21.06.2019
6007 Clear 15 1019 62 10000 2.1 300 08:43 21.06.2019
6008 Clear 14 1019 71 10000 1.5 280 08:23 21.06.2019
6009 Mist 13 1019 76 10000 1.11 309.242 07:52 21.06.2019
6010 Clouds 13 1019 82 10000 1.11 309.242 07:30 21.06.2019
6011 Clouds 12 1019 87 10000 2.1 270 06:54 21.06.2019
6012 Clouds 11 1018 87 10000 1.5 270 06:21 21.06.2019
6013 Clouds 12 1018 87 10000 2.1 250 05:26 21.06.2019
6014 Clouds 13 1018 82 10000 2.6 280 04:29 21.06.2019
6015 Clouds 14 1018 87 10000 1.5 260 03:34 21.06.2019
6016 Clouds 14 1017 87 10000 2.1 260 02:53 21.06.2019
6017 Rain 14 1017 93 10000 1.5 280 01:53 21.06.2019
6018 Rain 14 1019 87 10000 2.1 260 00:56 21.06.2019
6019 Clouds 15 1017 93 10000 2.12 316.187 00:26 21.06.2019
6020 Clear 15 1017 77 10000 3.1 310 23:49 20.06.2019
6021 Clear 15 1016 77 10000 3.1 290 23:23 20.06.2019
6022 Clouds 15 1016 72 10000 3.1 280 22:58 20.06.2019
6023 Clouds 15 1016 93 10000 2.1 240 22:39 20.06.2019
6024 Clouds 15 1016 72 10000 3.6 280 22:20 20.06.2019
6025 Clear 15 1016 68 10000 3.6 270 21:49 20.06.2019
6026 Clouds 17 1016 68 10000 4.1 270 21:19 20.06.2019
6027 Clouds 18 1015 68 10000 3.1 290 20:58 20.06.2019
6028 Clouds 18 1015 68 10000 3.1 290 20:39 20.06.2019
6029 Rain 18 1015 68 10000 2.6 290 20:19 20.06.2019
6030 Rain 19 1015 68 10000 3.6 290 19:40 20.06.2019
6031 Rain 19 1015 88 10000 2.6 300 19:19 20.06.2019
6032 Clouds 18 1015 77 10000 4.1 290 18:44 20.06.2019
6033 Rain 18 1015 77 10000 5.7 310 18:23 20.06.2019
6034 Rain 18 1014 77 10000 7.2 260 17:59 20.06.2019
6035 Rain 19 1014 77 10000 7.2 260 17:41 20.06.2019
6036 Clouds 18 1014 77 10000 5.1 280 17:19 20.06.2019
6037 Rain 19 1014 72 10000 5.1 260 16:40 20.06.2019
6038 Rain 19 1014 72 10000 6.2 240 16:19 20.06.2019
6039 Rain 19 1014 88 10000 6.7 260 15:43 20.06.2019
6040 Rain 19 1013 77 10000 4.6 250 15:23 20.06.2019
6041 Clouds 19 1014 82 10000 4.1 220 14:57 20.06.2019
6042 Rain 19 1013 68 10000 5.1 200 14:38 20.06.2019
6043 Rain 20 1014 88 10000 6.2 240 14:19 20.06.2019
6044 Clouds 20 1014 88 10000 5.1 260 13:39 20.06.2019
6045 Clouds 19 1013 68 10000 3.1 200 13:18 20.06.2019
6046 Clouds 19 1013 68 10000 5.7 210 12:42 20.06.2019
6047 Clouds 19 1014 77 10000 4.1 220 12:21 20.06.2019
6048 Clouds 19 1013 72 10000 5.1 190 11:43 20.06.2019
6049 Clouds 19 1013 82 10000 3.1 230 11:23 20.06.2019
6050 Clouds 19 1013 82 10000 3.1 210 10:45 20.06.2019
6051 Clouds 18 1013 82 10000 2.6 220 10:24 20.06.2019
6052 Clouds 18 1013 82 10000 3.6 220 09:57 20.06.2019
6053 Clouds 17 1013 77 10000 5.1 260 09:38 20.06.2019
6054 Clouds 16 1013 87 10000 4.1 210 09:20 20.06.2019
6055 Clouds 16 1013 87 10000 3.1 220 08:44 20.06.2019
6056 Clouds 16 1013 87 10000 2.6 200 08:25 20.06.2019
6057 Clouds 16 1013 100 10000 3.6 210 07:50 20.06.2019
6058 Clouds 15 1013 93 10000 2.6 220 07:26 20.06.2019
6059 Clouds 15 1013 87 10000 2.6 220 06:25 20.06.2019
6060 Clouds 15 1012 87 10000 3.6 250 03:55 20.06.2019
6061 Clouds 16 1011 93 10000 2.07 207.952 02:29 20.06.2019
6062 Thunderstorm 17 1011 72 10000 3.1 240 00:34 20.06.2019
6063 Clear 18 1011 68 10000 4.1 240 23:49 19.06.2019
6064 Clear 18 1011 82 10000 1.5 260 23:30 19.06.2019
6065 Thunderstorm 19 1011 68 10000 4.6 250 22:57 19.06.2019
6066 Thunderstorm 19 1011 77 10000 2.6 220 22:39 19.06.2019
6067 Rain 20 1010 77 10000 2.6 300 22:18 19.06.2019
6068 Clear 20 1010 68 10000 3.1 220 21:42 19.06.2019
6069 Clouds 21 1010 77 10000 2.76 225.455 21:23 19.06.2019
6070 Clear 22 1010 64 10000 3.1 230 20:42 19.06.2019
6071 Clear 22 1010 73 10000 3.1 230 20:22 19.06.2019
6072 Clouds 23 1010 64 10000 4.1 250 19:51 19.06.2019
6073 Clear 23 1009 69 10000 1.5 230 19:29 19.06.2019
6074 Rain 22 1009 73 10000 3.6 230 18:57 19.06.2019
6075 Rain 23 1009 77 10000 2.1 290 18:28 19.06.2019
6076 Clouds 25 1010 47 10000 5.1 200 17:53 19.06.2019
6077 Clouds 25 1010 47 10000 5.1 200 17:53 19.06.2019
6078 Rain 26 1009 69 10000 3.1 250 17:33 19.06.2019
6079 Clouds 27 1010 42 10000 4.1 210 16:57 19.06.2019
6080 Clear 26 1011 47 10000 2.6 310 16:38 19.06.2019
6081 Clear 26 1010 54 10000 3.6 210 16:20 19.06.2019
6082 Clouds 26 1011 51 10000 3.1 0 15:48 19.06.2019
6083 Clouds 25 1011 57 10000 2.6 210 15:26 19.06.2019
6084 Clear 25 1011 61 10000 2.6 0 14:50 19.06.2019
6085 Clouds 25 1011 60 10000 2.6 160 14:30 19.06.2019
6086 Clouds 24 1011 64 10000 5.7 200 13:59 19.06.2019
6087 Clouds 24 1011 64 10000 5.7 200 13:40 19.06.2019
6088 Clouds 24 1011 60 10000 5.1 210 13:21 19.06.2019
6089 Clear 24 1010 64 10000 1.5 160 12:43 19.06.2019
6090 Clouds 23 1009 60 10000 4.1 300 12:21 19.06.2019
6091 Clear 23 1010 60 10000 4.1 290 11:45 19.06.2019
6092 Clouds 22 1011 64 10000 4.1 240 11:25 19.06.2019
6093 Rain 22 1010 72 10000 2.6 270 10:58 19.06.2019
6094 Rain 21 1010 72 10000 2.6 270 10:40 19.06.2019
6095 Rain 21 1010 72 10000 2.6 270 10:40 19.06.2019
6096 Rain 21 1010 50 10000 5.7 200 10:22 19.06.2019
6097 Thunderstorm 21 1011 68 10000 4.1 200 09:41 19.06.2019
6098 Clear 21 1010 68 10000 2.6 200 09:20 19.06.2019
6099 Clear 21 1010 64 10000 4.6 180 08:50 19.06.2019
6100 Clear 20 1009 72 10000 3.1 80 08:28 19.06.2019
6101 Clear 19 1010 72 10000 3.1 120 07:48 19.06.2019
6102 Clear 18 1010 82 10000 3.1 70 07:29 19.06.2019
6103 Clear 17 1010 68 10000 2.6 120 06:53 19.06.2019
6104 Clear 16 1011 82 10000 2.1 70 06:29 19.06.2019
6105 Clear 16 1011 77 10000 2.1 110 05:49 19.06.2019
6106 Clouds 16 1011 72 10000 2.1 100 04:41 19.06.2019
6107 Clear 16 1012 82 10000 4.1 140 03:36 19.06.2019
6108 Clear 17 1013 68 10000 3.1 140 02:28 19.06.2019
6109 Clear 17 1013 63 10000 3.1 200 01:27 19.06.2019
6110 Clear 18 1013 59 10000 3.1 190 00:46 19.06.2019
6111 Clouds 19 1013 64 10000 0.83 83.66 00:27 19.06.2019
6112 Clear 19 1013 73 10000 1.5 140 23:55 18.06.2019
6113 Clear 20 1013 73 10000 1.5 130 23:28 18.06.2019
6114 Clear 20 1013 64 10000 1 150 22:55 18.06.2019
6115 Clear 20 1014 68 10000 1.5 210 22:37 18.06.2019
6116 Clear 21 1013 53 10000 1.5 270 22:18 18.06.2019
6117 Clear 22 1013 57 10000 1.5 120 21:43 18.06.2019
6118 Clear 24 1013 50 10000 2.1 260 21:21 18.06.2019
6119 Clear 24 1013 53 10000 1.5 190 20:55 18.06.2019
6120 Clear 25 1014 57 10000 1 0 20:37 18.06.2019
6121 Clear 25 1013 47 10000 1.5 250 20:18 18.06.2019
6122 Clear 25 1014 53 10000 2.1 300 19:39 18.06.2019
6123 Clear 25 1013 44 10000 3.1 220 19:20 18.06.2019
6124 Clear 26 1013 50 10000 3.1 170 18:46 18.06.2019
6125 Clear 26 1013 47 10000 3.1 200 18:25 18.06.2019
6126 Clear 27 1014 47 10000 3.1 190 17:46 18.06.2019
6127 Clouds 26 1014 47 10000 4.6 200 17:21 18.06.2019
6128 Clouds 26 1014 47 10000 3.1 220 16:57 18.06.2019
6129 Clear 26 1015 44 10000 2.6 230 16:38 18.06.2019
6130 Clouds 26 1014 47 10000 3.1 210 16:20 18.06.2019
6131 Clear 26 1015 44 10000 4.1 150 15:38 18.06.2019
6132 Clouds 26 1015 50 10000 3.6 160 15:20 18.06.2019
6133 Clouds 26 1015 50 10000 3.1 0 14:56 18.06.2019
6134 Clear 26 1015 47 10000 5.1 150 14:37 18.06.2019
6135 Clouds 26 1015 47 10000 3.6 160 14:18 18.06.2019
6136 Clouds 26 1015 57 10000 3.6 160 13:43 18.06.2019
6137 Clouds 26 1015 53 10000 2.1 130 13:22 18.06.2019
6138 Clouds 25 1015 57 10000 2.6 150 12:45 18.06.2019
6139 Clouds 25 1015 57 10000 2.6 90 12:27 18.06.2019
6140 Clear 24 1015 64 10000 2.1 90 11:49 18.06.2019
6141 Clear 24 1016 56 10000 1.72 131.158 11:23 18.06.2019
6142 Clear 23 1016 64 10000 2.6 120 10:58 18.06.2019
6143 Clear 23 1016 60 10000 4.1 130 10:39 18.06.2019
6144 Clear 23 1016 64 10000 3.1 80 10:20 18.06.2019
6145 Mist 22 1016 60 10000 3.1 60 09:51 18.06.2019
6146 Clouds 20 1016 68 10000 1.5 70 09:24 18.06.2019
6147 Clear 19 1016 60 10000 3.6 50 08:48 18.06.2019
6148 Clear 18 1016 77 10000 1.14 65.992 08:22 18.06.2019
6149 Clear 17 1016 63 10000 3.6 50 07:46 18.06.2019
6150 Clouds 15 1016 87 10000 1.14 65.992 07:24 18.06.2019
6151 Clear 15 1016 63 10000 3.6 50 06:52 18.06.2019
6152 Clouds 14 1016 82 10000 1.09 40.727 05:24 18.06.2019
6153 Clouds 14 1017 82 10000 1.09 40.727 04:21 18.06.2019
6154 Haze 14 1017 82 6000 1.26 50.107 02:47 18.06.2019
6155 Clear 15 1018 63 10000 1.5 40 01:27 18.06.2019
6156 Clouds 16 1018 63 10000 2.6 40 00:58 18.06.2019
6157 Clear 16 1018 59 10000 1.45 39.123 00:30 18.06.2019
6158 Clear 17 1018 60 10000 3.1 50 23:58 17.06.2019
6159 Clear 17 1018 55 10000 2.6 100 23:37 17.06.2019
6160 Clear 17 1018 59 10000 1.66 36.497 23:18 17.06.2019
6161 Clear 18 1018 60 10000 3.1 40 22:40 17.06.2019
6162 Clear 19 1018 56 10000 1.5 40 22:21 17.06.2019
6163 Clear 21 1017 56 10000 2.6 50 21:45 17.06.2019
6164 Clear 22 1018 52 10000 1.5 50 21:23 17.06.2019
6165 Clear 23 1018 44 10000 1 110 20:44 17.06.2019
6166 Clear 23 1018 44 10000 1 110 20:44 17.06.2019
6167 Clear 24 1018 46 10000 2.6 80 20:25 17.06.2019
6168 Clouds 24 1018 44 10000 2.6 80 19:57 17.06.2019
6169 Clouds 24 1018 44 10000 4.1 80 19:39 17.06.2019
6170 Clouds 24 1018 44 10000 4.1 80 19:21 17.06.2019
6171 Clear 24 1019 46 10000 3.6 140 18:39 17.06.2019
6172 Clear 25 1018 44 10000 3.1 60 18:18 17.06.2019
6173 Clouds 25 1019 43 10000 3.1 120 17:59 17.06.2019
6174 Clouds 25 1019 41 10000 4.1 90 17:39 17.06.2019
6175 Clear 24 1019 41 10000 3.1 0 17:21 17.06.2019
6176 Clouds 25 1020 46 10000 3.1 110 16:43 17.06.2019
6177 Clouds 25 1019 38 10000 2.1 130 16:24 17.06.2019
6178 Clear 25 1019 44 10000 3.1 100 15:55 17.06.2019
6179 Clouds 24 1020 46 10000 2.6 80 15:36 17.06.2019
6180 Clear 24 1020 49 10000 3.1 80 15:18 17.06.2019
6181 Clouds 24 1020 46 10000 2.6 130 14:42 17.06.2019
6182 Clouds 24 1020 46 10000 2.6 130 14:23 17.06.2019
6183 Clouds 24 1021 49 10000 3.1 150 13:47 17.06.2019
6184 Clouds 24 1020 53 10000 3.6 80 13:22 17.06.2019
6185 Clouds 23 1021 52 10000 2.6 130 12:50 17.06.2019
6186 Clouds 23 1021 49 10000 2.6 120 12:31 17.06.2019
6187 Clouds 22 1021 52 10000 2.6 130 11:48 17.06.2019
6188 Clear 22 1021 56 10000 3.1 70 11:26 17.06.2019
6189 Clear 21 1021 60 10000 2.6 110 10:58 17.06.2019
6190 Clear 21 1021 60 10000 2.1 100 10:40 17.06.2019
6191 Clear 21 1021 60 10000 2.1 100 10:21 17.06.2019
6192 Clear 19 1022 68 10000 2.6 100 09:53 17.06.2019
6193 -273 0 0 0 0 0 09:28 17.06.2019
6194 Clear 16 1022 82 10000 2.1 60 08:41 17.06.2019
6195 Clear 15 1022 82 10000 2.1 60 08:23 17.06.2019
6196 Clouds 14 1022 72 10000 2.1 80 07:46 17.06.2019
6197 Clear 13 1022 100 10000 1.23 67.083 07:28 17.06.2019
6198 Clouds 12 1022 71 10000 1.5 60 06:44 17.06.2019
6199 Clear 11 1022 81 10000 2.6 140 05:49 17.06.2019
6200 Clear 11 1022 71 10000 2.1 40 04:42 17.06.2019
6201 Clear 11 1022 76 10000 2.1 30 03:50 17.06.2019
6202 Clear 11 1022 87 10000 2.1 30 03:20 17.06.2019
6203 Clear 12 1022 87 10000 0.94 50.296 02:41 17.06.2019
6204 Clear 12 1022 72 10000 2.6 40 01:56 17.06.2019
6205 Clear 12 1022 82 10000 0.94 50.296 01:34 17.06.2019
6206 Clear 13 1022 72 10000 1 320 00:45 17.06.2019
6207 Clear 13 1022 77 10000 0.77 24.045 00:24 17.06.2019
6208 Clear 14 1022 77 10000 2.1 320 23:56 16.06.2019
6209 Clouds 14 1022 72 10000 0.77 24.045 23:36 16.06.2019
6210 Clouds 14 1022 72 10000 0.77 24.045 23:18 16.06.2019
6211 Clouds 15 1022 67 10000 0.77 24.045 22:39 16.06.2019
6212 Clouds 16 1022 63 10000 0.77 24.045 22:19 16.06.2019
6213 Clouds 16 1022 63 10000 0.77 24.045 21:56 16.06.2019
6214 Clear 17 1022 59 10000 0.77 24.045 21:38 16.06.2019
6215 Clear 19 1022 52 10000 2.6 290 21:20 16.06.2019
6216 Clear 20 1022 59 10000 2.6 210 20:38 16.06.2019
6217 Clear 20 1022 55 10000 2.1 260 20:19 16.06.2019
6218 Rain 20 1022 49 10000 3.6 240 19:58 16.06.2019
6219 Clouds 20 1022 52 10000 3.1 240 19:39 16.06.2019
6220 Clouds 20 1022 55 10000 2.6 240 19:19 16.06.2019
6221 Clouds 20 1022 56 10000 2.6 180 18:41 16.06.2019
6222 Clouds 21 1022 49 10000 3.6 250 18:21 16.06.2019
6223 Clouds 21 1022 52 10000 3.1 250 17:57 16.06.2019
6224 Clouds 21 1022 52 10000 3.1 250 17:57 16.06.2019
6225 Clouds 21 1022 56 10000 2.1 270 17:38 16.06.2019
6226 Clouds 20 1022 56 10000 3.6 220 17:20 16.06.2019
6227 Clouds 21 1022 55 10000 4.6 250 16:54 16.06.2019
6228 Clouds 21 1022 59 10000 5.1 240 16:36 16.06.2019
6229 Clouds 20 1022 49 10000 3.6 240 16:18 16.06.2019
6230 Clouds 20 1022 55 10000 4.1 230 15:38 16.06.2019
6231 Clouds 19 1022 55 10000 3.1 230 15:20 16.06.2019
6232 Clouds 19 1022 55 10000 3.1 230 15:20 16.06.2019
6233 Clouds 19 1022 59 10000 3.6 230 14:39 16.06.2019
6234 Clouds 20 1022 55 10000 4.1 240 14:20 16.06.2019
6235 Clouds 20 1022 52 10000 4.1 270 13:48 16.06.2019
6236 Clouds 20 1022 55 10000 4.6 220 13:25 16.06.2019
6237 Rain 19 1022 52 10000 4.1 230 12:46 16.06.2019
6238 Rain 19 1022 52 10000 4.1 230 12:46 16.06.2019
6239 Clouds 18 1022 59 10000 4.1 230 12:23 16.06.2019
6240 Clouds 18 1022 59 10000 4.1 230 12:23 16.06.2019
6241 Clouds 18 1022 55 10000 4.1 240 11:59 16.06.2019
6242 Clouds 18 1021 59 10000 4.1 190 11:38 16.06.2019
6243 Clouds 18 1022 63 10000 4.1 280 11:19 16.06.2019
6244 Clear 18 1021 63 10000 3.1 220 10:45 16.06.2019
6245 Clouds 17 1022 63 10000 4.1 240 10:20 16.06.2019
6246 Clear 17 1021 63 10000 3.1 250 09:47 16.06.2019
6247 Clear 16 1021 72 10000 2.1 220 09:25 16.06.2019
6248 Clear 15 1021 72 10000 3.1 270 08:50 16.06.2019
6249 Rain 14 1021 77 10000 3.1 230 08:23 16.06.2019
6250 Rain 14 1021 77 10000 3.1 230 08:23 16.06.2019
6251 Rain 14 1021 82 10000 3.6 260 07:54 16.06.2019
6252 Rain 14 1020 82 10000 2.1 230 07:36 16.06.2019
6253 Rain 13 1020 87 10000 2.6 270 06:57 16.06.2019
6254 Rain 12 1020 87 10000 1.5 250 06:27 16.06.2019
6255 Rain 12 1020 82 10000 1.5 260 05:40 16.06.2019
6256 Rain 12 1020 82 10000 0.84 242.675 04:36 16.06.2019
6257 Rain 13 1020 72 10000 3.1 260 03:53 16.06.2019
6258 Rain 13 1019 77 10000 1.5 240 03:31 16.06.2019
6259 Rain 14 1020 67 10000 4.1 270 02:18 16.06.2019
6260 Rain 15 1019 67 10000 2.6 240 01:41 16.06.2019
6261 Rain 15 1019 67 10000 2.6 240 01:23 16.06.2019
6262 Clouds 15 1018 67 10000 4.1 240 00:40 16.06.2019
6263 Clear 16 1018 72 10000 3.6 250 00:19 16.06.2019
6264 Clouds 16 1018 72 10000 1.5 260 23:43 15.06.2019
6265 Clear 16 1018 77 10000 2.6 240 23:25 15.06.2019
6266 Clear 16 1017 72 10000 2.6 250 22:49 15.06.2019
6267 Clear 16 1017 67 10000 2.6 220 22:27 15.06.2019
6268 Clear 18 1017 63 10000 6.2 260 21:50 15.06.2019
6269 Clear 19 1017 59 10000 3.6 230 21:29 15.06.2019
6270 Clear 19 1017 60 10000 4.1 280 20:59 15.06.2019
6271 Clear 20 1016 52 10000 5.1 240 20:41 15.06.2019
6272 Clear 20 1016 52 10000 5.1 240 20:22 15.06.2019
6273 Clouds 20 1016 49 10000 3.6 260 19:42 15.06.2019
6274 Clear 21 1016 52 10000 4.6 240 19:23 15.06.2019
6275 Clouds 21 1016 46 10000 5.1 240 18:41 15.06.2019
6276 Clouds 22 1017 49 10000 5.1 240 18:21 15.06.2019
6277 Rain 22 1017 52 10000 3.6 250 17:43 15.06.2019
6278 Clouds 22 1016 43 10000 4.6 240 17:25 15.06.2019
6279 Clouds 22 1017 56 10000 4.1 270 16:48 15.06.2019
6280 Clouds 22 1017 52 10000 4.6 250 16:20 15.06.2019
6281 Rain 21 1016 49 10000 6.2 250 15:44 15.06.2019
6282 Rain 21 1016 49 10000 6.2 250 15:44 15.06.2019
6283 Clouds 21 1016 53 10000 6.2 240 15:24 15.06.2019
6284 Clouds 21 1017 56 10000 5.1 230 14:54 15.06.2019
6285 Clouds 21 1016 56 10000 7.7 220 14:36 15.06.2019
6286 Clouds 21 1017 56 10000 6.2 250 14:18 15.06.2019
6287 Clouds 21 1016 64 10000 7.7 230 13:42 15.06.2019
6288 Clouds 20 1016 72 10000 6.7 250 13:19 15.06.2019
6289 Clouds 20 1016 68 10000 4.6 240 12:52 15.06.2019
6290 Clouds 18 1016 77 10000 6.2 230 12:26 15.06.2019
6291 Clouds 18 1015 72 10000 7.7 230 11:54 15.06.2019
6292 Clouds 18 1015 82 10000 7.7 220 11:34 15.06.2019
6293 Drizzle 17 1014 82 10000 5.7 240 10:55 15.06.2019
6294 Clouds 17 1014 88 10000 6.2 220 10:37 15.06.2019
6295 Clouds 17 1014 93 10000 6.7 230 10:18 15.06.2019
6296 Clouds 16 1013 100 10000 5.7 210 09:43 15.06.2019
6297 Clouds 16 1013 100 10000 5.7 210 09:21 15.06.2019
6298 Clouds 16 1014 93 10000 5.1 250 08:50 15.06.2019
6299 -273 0 0 0 0 0 08:31 15.06.2019
6300 Mist 15 1013 100 9000 4.1 230 07:50 15.06.2019
6301 Mist 15 1012 100 10000 4.1 230 07:22 15.06.2019
6302 Rain 15 1012 100 10000 3.6 260 06:39 15.06.2019
6303 Rain 15 1012 100 10000 3.6 260 06:18 15.06.2019
6304 Rain 15 1012 100 10000 4.6 250 05:25 15.06.2019
6305 Fog 15 1010 93 10000 2.6 330 04:44 15.06.2019
6306 Rain 15 1011 87 10000 1.5 320 03:44 15.06.2019
6307 Rain 15 1012 93 10000 3.1 260 02:56 15.06.2019
6308 Clouds 15 1011 100 10000 2.1 60 02:23 15.06.2019
6309 Clear 15 1012 100 10000 1.5 120 01:49 15.06.2019
6310 Rain 15 1012 93 10000 2.1 20 00:58 15.06.2019
6311 Clouds 16 1013 93 10000 1.5 300 00:39 15.06.2019
6312 Rain 16 1013 100 10000 2.1 340 23:55 14.06.2019
6313 Rain 16 1014 100 10000 1.5 240 23:27 14.06.2019
6314 Clouds 16 1013 88 10000 1.87 304.889 22:56 14.06.2019
6315 Rain 17 1013 88 10000 2.1 310 22:37 14.06.2019
6316 Rain 17 1013 88 10000 1.5 50 22:19 14.06.2019
6317 Rain 17 1013 82 10000 1.87 304.889 21:41 14.06.2019
6318 Rain 18 1013 82 10000 1.11 137.186 21:22 14.06.2019
6319 Rain 19 1014 59 10000 1 110 20:43 14.06.2019
6320 Rain 19 1014 68 10000 2.1 120 20:19 14.06.2019
6321 Rain 20 1013 64 10000 1.5 110 19:57 14.06.2019
6322 Rain 20 1013 64 10000 3.6 150 19:37 14.06.2019
6323 Clear 20 1014 64 10000 3.6 160 19:18 14.06.2019
6324 Rain 20 1015 49 10000 4.6 160 18:43 14.06.2019
6325 Clear 21 1014 56 10000 5.1 160 18:25 14.06.2019
6326 Clear 21 1014 56 10000 5.1 160 18:25 14.06.2019
6327 Rain 21 1014 56 10000 5.1 180 17:57 14.06.2019
6328 Clear 22 1014 53 10000 5.7 180 17:39 14.06.2019
6329 Clear 22 1015 49 10000 4.1 160 17:19 14.06.2019
6330 Rain 23 1015 43 10000 4.6 200 16:46 14.06.2019
6331 Clear 23 1015 53 10000 4.1 170 16:21 14.06.2019
6332 Clear 23 1015 49 10000 3.6 160 15:57 14.06.2019
6333 Clear 23 1015 53 10000 5.1 170 15:38 14.06.2019
6334 Clear 23 1016 40 10000 6.2 190 15:18 14.06.2019
6335 Clear 23 1016 49 10000 5.1 180 14:40 14.06.2019
6336 Clear 23 1016 49 10000 5.1 180 14:22 14.06.2019
6337 Clouds 23 1016 40 10000 6.2 190 13:45 14.06.2019
6338 Clouds 23 1016 40 10000 6.2 190 13:45 14.06.2019
6339 Clouds 23 1016 46 10000 4.6 180 13:26 14.06.2019
6340 Clear 22 1016 46 10000 3.6 230 12:49 14.06.2019
6341 Clear 22 1016 46 10000 3.6 230 12:49 14.06.2019
6342 Clear 22 1016 52 10000 2.1 80 12:27 14.06.2019
6343 Clear 21 1016 52 10000 2.1 0 11:59 14.06.2019
6344 Clear 20 1016 52 10000 3.6 220 11:41 14.06.2019
6345 Clear 20 1016 52 10000 3.6 220 11:23 14.06.2019
6346 Clouds 19 1016 49 10000 5.1 210 10:46 14.06.2019
6347 Clear 18 1016 59 10000 3.1 230 10:20 14.06.2019
6348 Clear 18 1016 59 10000 3.1 230 10:20 14.06.2019
6349 Clear 18 1016 59 10000 2.6 240 09:52 14.06.2019
6350 Clear 17 1015 59 10000 1.5 200 09:33 14.06.2019
6351 Clear 16 1015 63 10000 4.6 130 08:48 14.06.2019
6352 Clear 15 1015 59 10000 2.1 170 08:21 14.06.2019
6353 Clear 14 1014 67 10000 1.5 150 07:55 14.06.2019
6354 Clear 12 1014 82 10000 2.1 60 07:23 14.06.2019
6355 Clear 12 1014 67 10000 2.1 110 06:55 14.06.2019
6356 Clouds 11 1014 71 10000 3.1 130 06:19 14.06.2019
6357 Clouds 11 1014 66 10000 2.1 130 05:42 14.06.2019
6358 Clouds 11 1013 76 10000 3.1 70 04:54 14.06.2019
6359 Clear 11 1014 93 10000 1.5 50 04:27 14.06.2019
6360 Clear 12 1014 87 10000 1.5 10 03:39 14.06.2019
6361 Clear 12 1014 87 10000 1.5 10 03:21 14.06.2019
6362 Clouds 12 1014 93 10000 1.5 70 02:36 14.06.2019
6363 Clear 12 1014 87 10000 3.6 60 01:51 14.06.2019
6364 Clouds 12 1015 100 10000 3.6 60 00:40 14.06.2019
6365 Clear 12 1014 87 10000 4.1 50 00:21 14.06.2019
6366 Clear 13 1015 87 10000 5.7 130 23:50 13.06.2019
6367 Clear 13 1015 87 10000 5.7 130 23:50 13.06.2019
6368 Clouds 13 1015 100 10000 3.1 60 23:25 13.06.2019
6369 Clear 13 1014 87 10000 3.6 60 22:57 13.06.2019
6370 Clear 14 1014 93 10000 3.1 70 22:37 13.06.2019
6371 Clear 14 1015 93 10000 4.6 130 22:18 13.06.2019
6372 Clear 15 1014 100 10000 2.6 80 21:38 13.06.2019
6373 Clear 15 1014 100 10000 2.6 80 21:38 13.06.2019
6374 Clear 15 1015 87 10000 2.1 150 21:19 13.06.2019
6375 Rain 16 1015 76 10000 1.5 170 20:45 13.06.2019
6376 Clear 17 1015 93 10000 2.6 80 20:21 13.06.2019
6377 Rain 16 1014 67 10000 1.5 110 19:56 13.06.2019
6378 Rain 17 1015 82 10000 1.5 200 19:37 13.06.2019
6379 Clouds 17 1015 82 10000 1.5 210 19:18 13.06.2019
6380 Rain 17 1015 77 9000 7.2 250 18:45 13.06.2019
6381 Rain 17 1015 77 9000 7.2 250 18:45 13.06.2019
6382 Rain 17 1015 77 9000 7.2 250 18:27 13.06.2019
6383 Haze 17 1014 63 10000 5.7 210 17:59 13.06.2019
6384 Haze 18 1014 45 9000 6.2 210 17:41 13.06.2019
6385 Haze 19 1014 48 10000 4.6 200 17:20 13.06.2019
6386 Haze 20 1014 45 10000 7.7 210 16:46 13.06.2019
6387 Haze 20 1014 45 9000 9.8 210 16:21 13.06.2019
6388 Clouds 20 1014 45 10000 8.7 190 15:56 13.06.2019
6389 Drizzle 19 1014 48 9000 6.7 180 15:38 13.06.2019
6390 Clear 19 1014 48 10000 6.2 230 15:18 13.06.2019
6391 Clouds 19 1014 45 10000 7.7 210 14:44 13.06.2019
6392 Clouds 18 1014 52 10000 7.2 200 14:23 13.06.2019
6393 Clouds 18 1014 48 10000 10.3 220 13:46 13.06.2019
6394 Clouds 18 1014 63 10000 5.1 190 13:21 13.06.2019
6395 Clouds 17 1014 54 10000 7.2 230 12:44 13.06.2019
6396 Clouds 17 1015 63 10000 6.2 210 12:23 13.06.2019
6397 Clouds 17 1015 63 10000 6.2 210 12:23 13.06.2019
6398 Clouds 16 1014 55 10000 7.7 180 11:59 13.06.2019
6399 Clouds 16 1015 67 10000 6.2 200 11:41 13.06.2019
6400 Clouds 16 1015 67 10000 5.7 190 11:21 13.06.2019
6401 Clouds 15 1014 67 10000 6.7 200 10:46 13.06.2019
6402 Clouds 15 1014 67 10000 6.2 200 10:27 13.06.2019
6403 Clouds 14 1014 67 10000 5.1 230 09:48 13.06.2019
6404 Clear 14 1014 71 10000 5.7 210 09:25 13.06.2019
6405 Clear 14 1014 71 10000 5.7 210 09:25 13.06.2019
6406 Clouds 13 1014 81 10000 4.6 200 08:50 13.06.2019
6407 Clear 13 1014 81 10000 4.1 200 08:30 13.06.2019
6408 Clear 12 1014 81 10000 4.1 200 07:59 13.06.2019
6409 Clear 11 1014 81 10000 5.44 206.617 07:31 13.06.2019
6410 Clear 10 1014 87 10000 3.1 220 06:53 13.06.2019
6411 Clear 9 1014 93 10000 2.1 140 06:24 13.06.2019
6412 Clear 9 1016 81 10000 2.6 220 05:58 13.06.2019
6413 Clouds 9 1013 87 10000 2.1 160 05:38 13.06.2019
6414 Clear 9 1013 81 10000 4.6 220 05:18 13.06.2019
6415 Clear 10 1013 81 10000 4.6 200 03:45 13.06.2019
6416 Clear 11 1013 81 10000 3.1 180 01:55 13.06.2019
6417 Clear 11 1012 81 10000 1.5 140 00:31 13.06.2019
6418 Clouds 12 1012 76 10000 2.73 201.185 23:37 12.06.2019
6419 Rain 12 1013 76 10000 4.6 190 23:18 12.06.2019
6420 Clear 12 1012 76 10000 1.5 280 22:41 12.06.2019
6421 Clear 13 1012 76 10000 1.5 280 22:21 12.06.2019
6422 Clear 14 1012 67 10000 3.1 210 21:43 12.06.2019
6423 Clouds 15 1012 72 10000 2.6 260 21:25 12.06.2019
6424 Clear 16 1011 63 10000 4.6 210 20:49 12.06.2019
6425 Clear 16 1011 59 10000 3.1 190 20:30 12.06.2019
6426 Rain 16 1011 72 10000 5.1 240 19:57 12.06.2019
6427 Clear 17 1011 55 10000 5.7 190 19:39 12.06.2019
6428 Clear 17 1011 55 10000 5.7 190 19:21 12.06.2019
6429 Clouds 17 1011 59 10000 4.1 220 18:48 12.06.2019
6430 Clouds 18 1011 63 10000 4.6 190 18:28 12.06.2019
6431 Clouds 18 1011 63 10000 4.1 270 17:48 12.06.2019
6432 Clouds 18 1011 59 10000 5.1 200 17:23 12.06.2019
6433 Clouds 18 1011 59 10000 5.7 210 16:59 12.06.2019
6434 Clouds 18 1011 59 10000 4.1 220 16:39 12.06.2019
6435 Clouds 18 1011 59 10000 3.6 230 16:20 12.06.2019
6436 Clouds 17 1011 67 10000 6.2 250 15:46 12.06.2019
6437 Clouds 17 1011 63 10000 7.2 200 15:28 12.06.2019
6438 Clouds 16 1011 72 10000 6.7 240 14:39 12.06.2019
6439 Clouds 16 1011 67 10000 6.2 210 14:20 12.06.2019
6440 Clouds 15 1010 87 10000 6.7 230 13:42 12.06.2019
6441 Clouds 15 1010 87 10000 6.2 230 13:20 12.06.2019
6442 Clouds 15 1010 87 10000 6.2 230 13:20 12.06.2019
6443 Rain 14 1010 100 10000 6.2 230 12:56 12.06.2019
6444 Rain 14 1010 100 10000 5.1 210 12:37 12.06.2019
6445 Rain 13 1011 100 10000 4.1 190 12:19 12.06.2019
6446 Rain 13 1011 100 10000 4.1 190 12:19 12.06.2019
6447 Rain 13 1011 100 10000 2.6 200 11:44 12.06.2019
6448 Rain 12 1011 100 10000 2.6 200 11:26 12.06.2019
6449 Rain 12 1010 100 10000 4.6 220 10:50 12.06.2019
6450 Rain 12 1010 100 10000 4.6 220 10:25 12.06.2019
6451 Drizzle 12 1009 100 10000 5.1 230 09:45 12.06.2019
6452 Drizzle 12 1009 100 10000 5.1 230 09:23 12.06.2019
6453 Rain 12 1009 100 6000 5.7 210 08:55 12.06.2019
6454 Rain 12 1008 100 10000 3.6 220 08:21 12.06.2019
6455 Mist 12 1008 82 10000 4.66 253.331 07:45 12.06.2019
6456 Mist 12 1008 100 8000 4.66 253.331 06:54 12.06.2019
6457 Mist 12 1008 100 10000 1.5 310 05:27 12.06.2019
6458 Clouds 12 1009 100 10000 2.1 300 04:54 12.06.2019
6459 Rain 13 1011 93 7000 2.6 280 01:58 12.06.2019
6460 Rain 13 1011 93 10000 2.1 290 00:40 12.06.2019
6461 Clouds 13 1011 87 10000 3.1 70 23:50 11.06.2019
6462 Clear 13 1011 82 10000 1.54 307.325 23:31 11.06.2019
6463 Rain 13 1011 72 10000 2.6 30 22:44 11.06.2019
6464 Clouds 13 1012 93 10000 2.6 300 22:21 11.06.2019
6465 Clouds 13 1012 93 10000 3.6 280 21:58 11.06.2019
6466 Rain 14 1012 72 10000 2.28 305.804 21:40 11.06.2019
6467 Rain 14 1012 87 10000 3.1 310 21:21 11.06.2019
6468 Rain 14 1012 72 10000 1 0 20:50 11.06.2019
6469 -273 0 0 0 0 0 20:27 11.06.2019
6470 Rain 15 1012 76 10000 2.6 290 19:58 11.06.2019
6471 Rain 15 1012 76 10000 2.6 290 19:39 11.06.2019
6472 Rain 15 1012 76 10000 2.6 290 19:38 11.06.2019
6473 -273 0 0 0 0 0 19:18 11.06.2019
6474 Clouds 16 1012 72 10000 4.1 300 18:40 11.06.2019
6475 Clouds 16 1011 59 10000 1.5 200 18:18 11.06.2019
6476 Clouds 16 1012 55 10000 3.93 282.149 17:41 11.06.2019
6477 Clouds 16 1012 55 10000 2.1 210 17:19 11.06.2019
6478 Clouds 16 1012 59 10000 2.1 350 16:42 11.06.2019
6479 Clouds 16 1012 55 10000 1.5 240 16:23 11.06.2019
6480 -273 0 0 0 0 0 16:23 11.06.2019
6481 Clouds 16 1012 55 10000 1.5 140 15:43 11.06.2019
6482 Clouds 16 1012 55 10000 1.5 140 15:25 11.06.2019
6483 Clouds 16 1012 52 10000 1.5 250 14:54 11.06.2019
6484 Clouds 16 1012 52 10000 1.76 223.478 14:23 11.06.2019
6485 Clouds 16 1012 55 10000 1.5 0 13:58 11.06.2019
6486 Clouds 17 1012 55 10000 2.1 200 13:37 11.06.2019
6487 Clouds 17 1012 63 10000 1 0 13:19 11.06.2019
6488 Clouds 16 1012 59 10000 3.1 200 12:41 11.06.2019
6489 Clouds 17 1012 59 10000 3.1 200 12:21 11.06.2019
6490 Clouds 17 1012 59 10000 3.1 200 12:21 11.06.2019
6491 Clouds 17 1012 59 10000 1.5 250 11:54 11.06.2019
6492 Clouds 16 1012 67 10000 1.5 200 11:32 11.06.2019
6493 Clouds 16 1012 67 10000 1 140 10:51 11.06.2019
6494 -273 0 0 0 0 0 10:27 11.06.2019
6495 Clouds 15 1012 71 10000 1.5 340 09:51 11.06.2019
6496 Clouds 13 1012 82 10000 1.5 360 09:26 11.06.2019
6497 Rain 13 1012 100 10000 2.1 250 08:59 11.06.2019
6498 Mist 13 1012 87 8000 1 0 08:40 11.06.2019
6499 Rain 12 1012 100 7000 2.1 310 08:20 11.06.2019
6500 Rain 12 1012 100 10000 1.17 258.063 07:34 11.06.2019
6501 Rain 11 1013 93 6000 1.5 230 06:54 11.06.2019
6502 Rain 11 1012 100 5000 3.1 260 05:56 11.06.2019
6503 Rain 11 1012 100 10000 2.1 230 04:40 11.06.2019
6504 Clouds 12 1012 100 10000 4.1 230 02:27 11.06.2019
6505 Clouds 12 1012 100 10000 4.1 230 02:27 11.06.2019
6506 Clouds 13 1012 93 10000 4.6 240 00:53 11.06.2019
6507 Clouds 13 1012 100 10000 4.1 220 00:31 11.06.2019
6508 Clouds 13 1012 100 10000 3.1 230 23:46 10.06.2019
6509 Rain 13 1012 100 10000 3.1 230 23:21 10.06.2019
6510 Rain 13 1012 93 8000 4.1 210 22:46 10.06.2019
6511 Rain 14 1012 100 10000 2.6 220 22:27 10.06.2019
6512 Clouds 14 1012 100 10000 3.1 210 21:58 10.06.2019
6513 Drizzle 14 1012 100 10000 3.6 210 21:38 10.06.2019
6514 Rain 14 1012 87 10000 4.1 270 21:20 10.06.2019
6515 Clouds 14 1012 100 10000 2.6 210 20:44 10.06.2019
6516 Clouds 15 1012 100 10000 2.6 210 20:21 10.06.2019
6517 Rain 15 1011 93 10000 4.6 200 19:48 10.06.2019
6518 Rain 15 1011 93 10000 4.6 200 19:26 10.06.2019
6519 Rain 15 1014 77 10000 2.6 210 18:58 10.06.2019
6520 Rain 16 1012 72 10000 1.5 150 18:40 10.06.2019
6521 Thunderstorm 17 1012 63 10000 5.1 180 18:20 10.06.2019
6522 Rain 18 1011 63 10000 3.1 220 17:44 10.06.2019
6523 Rain 19 1011 63 10000 1.5 160 17:24 10.06.2019
6524 Rain 19 1012 63 10000 2.6 170 16:56 10.06.2019
6525 Clouds 19 1012 63 10000 3.1 170 16:38 10.06.2019
6526 Clouds 20 1012 68 10000 2.6 0 16:18 10.06.2019
6527 Clouds 20 1012 68 10000 3.6 210 15:41 10.06.2019
6528 Clouds 21 1012 68 10000 3.6 210 15:23 10.06.2019
6529 Clouds 20 1013 72 10000 2.6 270 14:49 10.06.2019
6530 Clouds 20 1013 68 10000 3.1 190 14:30 10.06.2019
6531 Clouds 20 1013 68 10000 4.1 210 13:58 10.06.2019
6532 Clouds 20 1013 68 10000 5.1 220 13:39 10.06.2019
6533 Clouds 20 1013 72 10000 2.6 230 13:20 10.06.2019
6534 Clouds 20 1014 72 10000 2.6 220 12:40 10.06.2019
6535 Clouds 19 1014 72 10000 2.6 220 12:22 10.06.2019
6536 Clouds 19 1014 72 10000 2.1 130 11:43 10.06.2019
6537 Clouds 18 1014 77 10000 3.1 210 11:19 10.06.2019
6538 Clouds 17 1014 82 10000 4.1 210 10:42 10.06.2019
6539 Clouds 17 1015 82 10000 3.6 190 10:20 10.06.2019
6540 Clouds 17 1015 82 10000 3.1 200 09:57 10.06.2019
6541 Clouds 16 1015 82 10000 3.1 190 09:38 10.06.2019
6542 Clouds 16 1015 82 10000 2.6 180 09:19 10.06.2019
6543 Clouds 15 1015 82 10000 4.6 240 08:43 10.06.2019
6544 Clouds 15 1015 82 10000 4.1 220 08:18 10.06.2019
6545 Clouds 14 1015 87 10000 3.1 200 06:56 10.06.2019
6546 Clouds 13 1015 76 10000 0.58 26.698 04:28 10.06.2019
6547 Clouds 14 1016 67 10000 1.13 341.887 01:58 10.06.2019
6548 Clouds 14 1016 72 10000 1.13 341.887 01:26 10.06.2019
6549 Clouds 15 1016 77 10000 1.13 341.887 00:55 10.06.2019
6550 Clouds 15 1017 67 10000 1.5 40 00:19 10.06.2019
6551 Clouds 16 1017 63 10000 1.5 350 23:42 09.06.2019
6552 Clouds 16 1017 72 10000 1.5 30 23:19 09.06.2019
6553 Clouds 16 1018 59 10000 2.6 10 22:44 09.06.2019
6554 Clouds 16 1017 63 10000 3.1 20 22:25 09.06.2019
6555 Clouds 17 1018 59 10000 2.6 30 21:45 09.06.2019
6556 Clouds 18 1017 59 10000 2.6 360 21:23 09.06.2019
6557 Clouds 19 1018 63 10000 3.6 50 20:43 09.06.2019
6558 Clouds 19 1018 59 10000 3.1 40 20:23 09.06.2019
6559 Clear 20 1018 49 10000 3.6 100 19:56 09.06.2019
6560 Clouds 20 1018 52 10000 2.1 70 19:36 09.06.2019
6561 Clear 20 1018 52 10000 3.1 120 19:18 09.06.2019
6562 Clouds 20 1019 52 10000 3.6 90 18:41 09.06.2019
6563 Clouds 20 1019 52 10000 3.6 90 18:23 09.06.2019
6564 Clouds 20 1020 52 10000 3.1 70 17:48 09.06.2019
6565 Clouds 20 1019 49 10000 4.1 60 17:27 09.06.2019
6566 Clouds 20 1020 45 10000 2.6 80 16:55 09.06.2019
6567 Clouds 20 1020 49 10000 3.1 30 16:37 09.06.2019
6568 Clouds 20 1020 52 10000 3.1 130 16:19 09.06.2019
6569 Clouds 20 1021 52 10000 3.6 70 15:47 09.06.2019
6570 Clouds 20 1021 45 10000 3.1 80 15:27 09.06.2019
6571 Clouds 20 1021 48 10000 3.6 90 14:46 09.06.2019
6572 Clouds 20 1021 48 10000 3.1 30 14:27 09.06.2019
6573 Clouds 20 1021 45 10000 3.1 100 13:56 09.06.2019
6574 Clouds 20 1022 48 10000 5.7 40 13:36 09.06.2019
6575 Clouds 20 1023 51 10000 2.1 70 12:46 09.06.2019
6576 Clear 19 1023 52 10000 3.6 20 12:27 09.06.2019
6577 Clouds 18 1024 55 10000 2.1 110 11:48 09.06.2019
6578 Clear 18 1024 52 10000 2.1 80 11:29 09.06.2019
6579 Clouds 18 1024 62 10000 3.6 80 10:47 09.06.2019
6580 Clouds 18 1024 62 10000 3.6 80 10:47 09.06.2019
6581 Clear 17 1024 67 10000 3.6 70 10:26 09.06.2019
6582 -273 0 0 0 0 0 09:58 09.06.2019
6583 Clear 15 1024 82 10000 2.1 60 09:38 09.06.2019
6584 Clear 15 1024 82 10000 2.1 60 09:37 09.06.2019
6585 Clear 14 1024 71 10000 3.6 130 09:18 09.06.2019
6586 Clouds 12 1024 76 10000 2.6 90 08:43 09.06.2019
6587 Clear 11 1024 87 10000 3.1 60 07:51 09.06.2019
6588 Clear 8 1024 93 10000 1.15 91.79 06:40 09.06.2019
6589 Clear 7 1024 87 10000 2.1 50 05:55 09.06.2019
6590 Clouds 8 1024 87 10000 1.5 40 02:55 09.06.2019
6591 Clear 9 1025 87 10000 0.9 186.487 01:37 09.06.2019
6592 Clear 9 1025 87 10000 2.6 160 01:19 09.06.2019
6593 Clear 10 1025 81 10000 1.16 178.472 00:29 09.06.2019
6594 Clouds 10 1024 87 10000 2.03 225.879 23:41 08.06.2019
6595 Clouds 11 1024 87 10000 2.03 225.879 23:23 08.06.2019
6596 Clear 11 1024 76 10000 1 0 22:55 08.06.2019
6597 Clouds 11 1024 81 10000 2.1 240 22:36 08.06.2019
6598 Clouds 12 1024 66 10000 3.6 280 22:18 08.06.2019
6599 Clear 13 1023 76 10000 2.6 260 21:41 08.06.2019
6600 Clear 14 1023 76 10000 2.6 260 21:23 08.06.2019
6601 Clouds 15 1023 58 10000 7.2 260 20:45 08.06.2019
6602 Clouds 16 1023 58 10000 7.2 260 20:25 08.06.2019
6603 Clear 15 1023 51 10000 7.2 230 19:58 08.06.2019
6604 Clouds 15 1023 59 10000 7.2 220 19:38 08.06.2019
6605 Clear 16 1023 54 10000 6.7 250 19:19 08.06.2019
6606 Clouds 16 1023 62 10000 5.1 230 18:41 08.06.2019
6607 Clouds 17 1023 62 10000 5.1 230 18:23 08.06.2019
6608 Rain 17 1022 54 10000 8.2 230 17:45 08.06.2019
6609 Clouds 17 1023 54 10000 7.2 200 17:22 08.06.2019
6610 Clouds 16 1023 54 10000 7.7 200 16:53 08.06.2019
6611 Clouds 16 1023 54 10000 8.2 200 16:35 08.06.2019
6612 Clouds 16 1023 58 10000 6.7 210 15:53 08.06.2019
6613 Clouds 16 1022 54 10000 10.8 210 15:33 08.06.2019
6614 Clouds 15 1023 58 10000 7.2 240 14:48 08.06.2019
6615 Clouds 15 1022 58 10000 8.7 210 14:29 08.06.2019
6616 Clouds 15 1022 58 10000 7.7 240 13:49 08.06.2019
6617 Clouds 15 1021 58 10000 10.3 210 12:54 08.06.2019
6618 Clouds 14 1021 58 10000 11.3 210 12:35 08.06.2019
6619 Clouds 13 1021 66 10000 6.7 220 11:56 08.06.2019
6620 Clouds 13 1020 62 10000 10.8 210 11:37 08.06.2019
6621 Clouds 13 1020 62 10000 9.3 210 11:19 08.06.2019
6622 Clouds 12 1020 71 10000 8.7 200 10:42 08.06.2019
6623 Clouds 12 1020 71 10000 8.7 220 10:19 08.06.2019
6624 Rain 12 1019 71 10000 9.3 200 09:36 08.06.2019
6625 Clouds 11 1019 76 10000 7.7 220 08:58 08.06.2019
6626 Clouds 11 1019 76 10000 6.2 220 08:22 08.06.2019
6627 Clouds 11 1018 71 10000 8.7 200 07:39 08.06.2019
6628 Clouds 11 1016 71 10000 8.7 220 06:45 08.06.2019
6629 Clouds 11 1015 71 10000 11.3 200 03:40 08.06.2019
6630 Clouds 12 1015 76 10000 7.2 200 02:20 08.06.2019
6631 Clouds 13 1014 66 10000 9.3 190 00:32 08.06.2019
6632 Clouds 13 1014 66 10000 11.8 190 23:59 07.06.2019
6633 Rain 13 1013 62 10000 6.7 190 23:39 07.06.2019
6634 Clouds 13 1013 62 10000 5.7 180 23:19 07.06.2019
6635 Clouds 13 1013 62 10000 7.2 190 22:35 07.06.2019
6636 Rain 13 1012 76 10000 5.7 190 21:57 07.06.2019
6637 Rain 13 1013 62 10000 7.2 190 21:39 07.06.2019
6638 Rain 13 1012 76 10000 6.7 190 21:20 07.06.2019
6639 Rain 13 1011 62 10000 4.6 160 20:53 07.06.2019
6640 Rain 13 1012 66 10000 6.7 160 20:35 07.06.2019
6641 Rain 12 1013 66 10000 8.7 200 19:46 07.06.2019
6642 Rain 13 1012 66 10000 8.7 260 19:20 07.06.2019
6643 Rain 13 1013 62 10000 9.3 240 18:50 07.06.2019
6644 Clouds 13 1013 62 10000 9.3 240 18:28 07.06.2019
6645 Rain 15 1009 52 10000 8.2 220 17:47 07.06.2019
6646 Clouds 15 1010 49 10000 9.8 220 17:26 07.06.2019
6647 Clear 17 1009 64 10000 5.7 130 16:48 07.06.2019
6648 Clouds 19 1008 52 10000 5.1 140 16:30 07.06.2019
6649 Clouds 20 1008 43 10000 5.1 220 15:50 07.06.2019
6650 Clouds 21 1008 52 10000 4.1 100 15:21 07.06.2019
6651 Rain 22 1009 56 10000 3.1 90 14:47 07.06.2019
6652 Rain 22 1009 56 10000 3.1 90 14:25 07.06.2019
6653 Rain 22 1010 63 10000 4.1 140 13:44 07.06.2019
6654 Clouds 22 1009 49 10000 3.6 120 13:23 07.06.2019
6655 Rain 21 1010 59 10000 5.7 120 12:44 07.06.2019
6656 Clouds 19 1009 59 10000 6.2 80 12:22 07.06.2019
6657 Clouds 19 1011 63 10000 6.7 100 11:49 07.06.2019
6658 Clear 18 1009 63 10000 5.1 90 11:29 07.06.2019
6659 Clear 17 1011 82 10000 9.3 140 10:49 07.06.2019
6660 Clear 16 1011 67 10000 5.7 70 10:28 07.06.2019
6661 Clear 15 1010 67 10000 5.1 110 09:53 07.06.2019
6662 Clear 15 1010 67 10000 5.1 110 09:53 07.06.2019
6663 Clear 14 1011 76 10000 5.7 70 09:30 07.06.2019
6664 Mist 13 1011 71 10000 3.6 100 08:56 07.06.2019
6665 Mist 12 1012 87 10000 4.6 70 08:38 07.06.2019
6666 Mist 11 1012 100 2000 7.7 140 08:18 07.06.2019
6667 Clear 10 1012 93 10000 4.1 50 07:40 07.06.2019
6668 Clear 10 1011 87 10000 4.1 70 07:21 07.06.2019
6669 Mist 9 1013 93 10000 3.6 50 06:41 07.06.2019
6670 Mist 8 1012 93 10000 4.6 60 06:21 07.06.2019
6671 Clear 8 1014 93 10000 2.1 50 04:32 07.06.2019
6672 Mist 9 1015 87 10000 2.6 100 02:20 07.06.2019